<?xml version="1.0" encoding="UTF-8" standalone="no" ?>
<gpx xmlns="http://www.topografix.com/GPX/1/1" xmlns:xsi="http://www.w3.org/2001/XMLSchema-instance" xsi:schemaLocation="http://www.topografix.com/GPX/1/1 http://www.topografix.com/GPX/1/1/gpx.xsd" version="1.1" creator="VisuGPX - https://www.visugpx.com">
  <metadata>
    <name>Balade gym Marsannay jeudi 01 Fév 2018</name>
    <desc><![CDATA[Balade gym Marsannay jeudi 01 Fév 2018]]></desc>
  </metadata>
  <trk>
    <name><![CDATA[Track]]></name>
    <trkseg>
      <trkpt lat="47.18513" lon="4.95108">
        <ele>319.46633911133</ele>
        <time>2018-02-01T09:22:54+0100</time>
      </trkpt>
      <trkpt lat="47.18529" lon="4.95099">
        <ele>287.37713623047</ele>
        <time>2018-02-01T09:22:57+0100</time>
      </trkpt>
      <trkpt lat="47.18528" lon="4.95099">
        <ele>288.77093505859</ele>
        <time>2018-02-01T09:23:00+0100</time>
      </trkpt>
      <trkpt lat="47.18528" lon="4.95099">
        <ele>289.88265991211</ele>
        <time>2018-02-01T09:23:03+0100</time>
      </trkpt>
      <trkpt lat="47.18526" lon="4.95101">
        <ele>290.70330810547</ele>
        <time>2018-02-01T09:23:06+0100</time>
      </trkpt>
      <trkpt lat="47.18523" lon="4.95101">
        <ele>288.58389282227</ele>
        <time>2018-02-01T09:23:09+0100</time>
      </trkpt>
      <trkpt lat="47.1852" lon="4.95102">
        <ele>289.7041015625</ele>
        <time>2018-02-01T09:23:12+0100</time>
      </trkpt>
      <trkpt lat="47.1852" lon="4.95102">
        <ele>289.97894287109</ele>
        <time>2018-02-01T09:23:15+0100</time>
      </trkpt>
      <trkpt lat="47.18518" lon="4.95102">
        <ele>290.43792724609</ele>
        <time>2018-02-01T09:23:18+0100</time>
      </trkpt>
      <trkpt lat="47.18518" lon="4.95103">
        <ele>291.95758056641</ele>
        <time>2018-02-01T09:23:21+0100</time>
      </trkpt>
      <trkpt lat="47.18518" lon="4.95103">
        <ele>293.34454345703</ele>
        <time>2018-02-01T09:23:24+0100</time>
      </trkpt>
      <trkpt lat="47.18518" lon="4.95103">
        <ele>293.77990722656</ele>
        <time>2018-02-01T09:23:27+0100</time>
      </trkpt>
      <trkpt lat="47.18518" lon="4.95103">
        <ele>293.8869934082</ele>
        <time>2018-02-01T09:23:30+0100</time>
      </trkpt>
      <trkpt lat="47.18518" lon="4.95103">
        <ele>294.06579589844</ele>
        <time>2018-02-01T09:23:33+0100</time>
      </trkpt>
      <trkpt lat="47.18518" lon="4.95103">
        <ele>294.26300048828</ele>
        <time>2018-02-01T09:23:36+0100</time>
      </trkpt>
      <trkpt lat="47.18518" lon="4.95103">
        <ele>294.41278076172</ele>
        <time>2018-02-01T09:23:39+0100</time>
      </trkpt>
      <trkpt lat="47.18518" lon="4.95103">
        <ele>294.46560668945</ele>
        <time>2018-02-01T09:23:42+0100</time>
      </trkpt>
      <trkpt lat="47.18518" lon="4.95103">
        <ele>294.47143554688</ele>
        <time>2018-02-01T09:23:45+0100</time>
      </trkpt>
      <trkpt lat="47.18518" lon="4.95103">
        <ele>294.44641113281</ele>
        <time>2018-02-01T09:23:48+0100</time>
      </trkpt>
      <trkpt lat="47.18518" lon="4.95103">
        <ele>294.4348449707</ele>
        <time>2018-02-01T09:23:51+0100</time>
      </trkpt>
      <trkpt lat="47.18518" lon="4.95103">
        <ele>294.310546875</ele>
        <time>2018-02-01T09:23:54+0100</time>
      </trkpt>
      <trkpt lat="47.18518" lon="4.95103">
        <ele>294.29962158203</ele>
        <time>2018-02-01T09:23:57+0100</time>
      </trkpt>
      <trkpt lat="47.18518" lon="4.95103">
        <ele>294.26303100586</ele>
        <time>2018-02-01T09:24:00+0100</time>
      </trkpt>
      <trkpt lat="47.18518" lon="4.95103">
        <ele>294.25323486328</ele>
        <time>2018-02-01T09:24:03+0100</time>
      </trkpt>
      <trkpt lat="47.18518" lon="4.95103">
        <ele>294.24606323242</ele>
        <time>2018-02-01T09:24:06+0100</time>
      </trkpt>
      <trkpt lat="47.18518" lon="4.95103">
        <ele>294.24118041992</ele>
        <time>2018-02-01T09:24:09+0100</time>
      </trkpt>
      <trkpt lat="47.18518" lon="4.95103">
        <ele>294.22222900391</ele>
        <time>2018-02-01T09:24:12+0100</time>
      </trkpt>
      <trkpt lat="47.18518" lon="4.95103">
        <ele>294.20455932617</ele>
        <time>2018-02-01T09:24:15+0100</time>
      </trkpt>
      <trkpt lat="47.18518" lon="4.95103">
        <ele>294.17959594727</ele>
        <time>2018-02-01T09:24:18+0100</time>
      </trkpt>
      <trkpt lat="47.18518" lon="4.95103">
        <ele>294.15896606445</ele>
        <time>2018-02-01T09:24:21+0100</time>
      </trkpt>
      <trkpt lat="47.18518" lon="4.95103">
        <ele>294.12939453125</ele>
        <time>2018-02-01T09:24:24+0100</time>
      </trkpt>
      <trkpt lat="47.18518" lon="4.95103">
        <ele>294.09481811523</ele>
        <time>2018-02-01T09:24:27+0100</time>
      </trkpt>
      <trkpt lat="47.18518" lon="4.95103">
        <ele>294.07269287109</ele>
        <time>2018-02-01T09:24:30+0100</time>
      </trkpt>
      <trkpt lat="47.18518" lon="4.95103">
        <ele>294.03567504883</ele>
        <time>2018-02-01T09:24:33+0100</time>
      </trkpt>
      <trkpt lat="47.18518" lon="4.95103">
        <ele>293.96508789062</ele>
        <time>2018-02-01T09:24:36+0100</time>
      </trkpt>
      <trkpt lat="47.18522" lon="4.951">
        <ele>293.90676879883</ele>
        <time>2018-02-01T09:24:39+0100</time>
      </trkpt>
      <trkpt lat="47.18522" lon="4.951">
        <ele>293.86218261719</ele>
        <time>2018-02-01T09:24:42+0100</time>
      </trkpt>
      <trkpt lat="47.18522" lon="4.951">
        <ele>293.76290893555</ele>
        <time>2018-02-01T09:24:45+0100</time>
      </trkpt>
      <trkpt lat="47.18522" lon="4.951">
        <ele>293.65939331055</ele>
        <time>2018-02-01T09:24:48+0100</time>
      </trkpt>
      <trkpt lat="47.18522" lon="4.951">
        <ele>293.64144897461</ele>
        <time>2018-02-01T09:24:51+0100</time>
      </trkpt>
      <trkpt lat="47.18522" lon="4.951">
        <ele>293.54989624023</ele>
        <time>2018-02-01T09:24:54+0100</time>
      </trkpt>
      <trkpt lat="47.18522" lon="4.951">
        <ele>293.46286010742</ele>
        <time>2018-02-01T09:24:57+0100</time>
      </trkpt>
      <trkpt lat="47.18522" lon="4.951">
        <ele>293.43753051758</ele>
        <time>2018-02-01T09:25:00+0100</time>
      </trkpt>
      <trkpt lat="47.18522" lon="4.951">
        <ele>293.40887451172</ele>
        <time>2018-02-01T09:25:03+0100</time>
      </trkpt>
      <trkpt lat="47.18522" lon="4.951">
        <ele>293.38082885742</ele>
        <time>2018-02-01T09:25:06+0100</time>
      </trkpt>
      <trkpt lat="47.18522" lon="4.951">
        <ele>293.27291870117</ele>
        <time>2018-02-01T09:25:09+0100</time>
      </trkpt>
      <trkpt lat="47.18522" lon="4.951">
        <ele>292.99453735352</ele>
        <time>2018-02-01T09:25:12+0100</time>
      </trkpt>
      <trkpt lat="47.18522" lon="4.951">
        <ele>292.96868896484</ele>
        <time>2018-02-01T09:25:15+0100</time>
      </trkpt>
      <trkpt lat="47.18522" lon="4.951">
        <ele>292.94284057617</ele>
        <time>2018-02-01T09:25:18+0100</time>
      </trkpt>
      <trkpt lat="47.18522" lon="4.951">
        <ele>292.83270263672</ele>
        <time>2018-02-01T09:25:21+0100</time>
      </trkpt>
      <trkpt lat="47.18522" lon="4.951">
        <ele>292.64596557617</ele>
        <time>2018-02-01T09:25:24+0100</time>
      </trkpt>
      <trkpt lat="47.1852" lon="4.95102">
        <ele>292.4221496582</ele>
        <time>2018-02-01T09:25:27+0100</time>
      </trkpt>
      <trkpt lat="47.1852" lon="4.95102">
        <ele>292.24118041992</ele>
        <time>2018-02-01T09:25:30+0100</time>
      </trkpt>
      <trkpt lat="47.1852" lon="4.95102">
        <ele>292.18304443359</ele>
        <time>2018-02-01T09:25:33+0100</time>
      </trkpt>
      <trkpt lat="47.1852" lon="4.95102">
        <ele>292.17135620117</ele>
        <time>2018-02-01T09:25:36+0100</time>
      </trkpt>
      <trkpt lat="47.1852" lon="4.95102">
        <ele>292.13250732422</ele>
        <time>2018-02-01T09:25:39+0100</time>
      </trkpt>
      <trkpt lat="47.1852" lon="4.95102">
        <ele>292.07025146484</ele>
        <time>2018-02-01T09:25:42+0100</time>
      </trkpt>
      <trkpt lat="47.1852" lon="4.95102">
        <ele>292.06762695312</ele>
        <time>2018-02-01T09:25:45+0100</time>
      </trkpt>
      <trkpt lat="47.1852" lon="4.95102">
        <ele>292.06311035156</ele>
        <time>2018-02-01T09:25:48+0100</time>
      </trkpt>
      <trkpt lat="47.1852" lon="4.95102">
        <ele>292.06018066406</ele>
        <time>2018-02-01T09:25:51+0100</time>
      </trkpt>
      <trkpt lat="47.1852" lon="4.95102">
        <ele>292.05944824219</ele>
        <time>2018-02-01T09:25:54+0100</time>
      </trkpt>
      <trkpt lat="47.1852" lon="4.95102">
        <ele>292.08459472656</ele>
        <time>2018-02-01T09:25:57+0100</time>
      </trkpt>
      <trkpt lat="47.1852" lon="4.95102">
        <ele>292.08837890625</ele>
        <time>2018-02-01T09:26:00+0100</time>
      </trkpt>
      <trkpt lat="47.1852" lon="4.95102">
        <ele>292.09155273438</ele>
        <time>2018-02-01T09:26:03+0100</time>
      </trkpt>
      <trkpt lat="47.1852" lon="4.95102">
        <ele>292.0920715332</ele>
        <time>2018-02-01T09:26:06+0100</time>
      </trkpt>
      <trkpt lat="47.1852" lon="4.95102">
        <ele>292.10040283203</ele>
        <time>2018-02-01T09:26:09+0100</time>
      </trkpt>
      <trkpt lat="47.1852" lon="4.95102">
        <ele>292.11911010742</ele>
        <time>2018-02-01T09:26:12+0100</time>
      </trkpt>
      <trkpt lat="47.1852" lon="4.95102">
        <ele>292.1276550293</ele>
        <time>2018-02-01T09:26:15+0100</time>
      </trkpt>
      <trkpt lat="47.1852" lon="4.95102">
        <ele>292.21966552734</ele>
        <time>2018-02-01T09:26:18+0100</time>
      </trkpt>
      <trkpt lat="47.1852" lon="4.95102">
        <ele>292.3291015625</ele>
        <time>2018-02-01T09:26:21+0100</time>
      </trkpt>
      <trkpt lat="47.1852" lon="4.95102">
        <ele>292.42739868164</ele>
        <time>2018-02-01T09:26:24+0100</time>
      </trkpt>
      <trkpt lat="47.1852" lon="4.95102">
        <ele>292.44952392578</ele>
        <time>2018-02-01T09:26:27+0100</time>
      </trkpt>
      <trkpt lat="47.1852" lon="4.95102">
        <ele>292.60009765625</ele>
        <time>2018-02-01T09:26:30+0100</time>
      </trkpt>
      <trkpt lat="47.1852" lon="4.95102">
        <ele>292.81164550781</ele>
        <time>2018-02-01T09:26:33+0100</time>
      </trkpt>
      <trkpt lat="47.1852" lon="4.95102">
        <ele>292.95861816406</ele>
        <time>2018-02-01T09:26:36+0100</time>
      </trkpt>
      <trkpt lat="47.1852" lon="4.95102">
        <ele>293.05062866211</ele>
        <time>2018-02-01T09:26:39+0100</time>
      </trkpt>
      <trkpt lat="47.1852" lon="4.95102">
        <ele>293.05627441406</ele>
        <time>2018-02-01T09:26:42+0100</time>
      </trkpt>
      <trkpt lat="47.18517" lon="4.95108">
        <ele>293.06048583984</ele>
        <time>2018-02-01T09:26:45+0100</time>
      </trkpt>
      <trkpt lat="47.18517" lon="4.95108">
        <ele>293.04885864258</ele>
        <time>2018-02-01T09:26:48+0100</time>
      </trkpt>
      <trkpt lat="47.18517" lon="4.95108">
        <ele>292.98544311523</ele>
        <time>2018-02-01T09:26:51+0100</time>
      </trkpt>
      <trkpt lat="47.18517" lon="4.95108">
        <ele>292.94161987305</ele>
        <time>2018-02-01T09:26:54+0100</time>
      </trkpt>
      <trkpt lat="47.18517" lon="4.95108">
        <ele>292.84182739258</ele>
        <time>2018-02-01T09:26:57+0100</time>
      </trkpt>
      <trkpt lat="47.18513" lon="4.95109">
        <ele>292.72457885742</ele>
        <time>2018-02-01T09:27:00+0100</time>
      </trkpt>
      <trkpt lat="47.18511" lon="4.95108">
        <ele>292.61163330078</ele>
        <time>2018-02-01T09:27:03+0100</time>
      </trkpt>
      <trkpt lat="47.18511" lon="4.95105">
        <ele>292.4753112793</ele>
        <time>2018-02-01T09:27:06+0100</time>
      </trkpt>
      <trkpt lat="47.1851" lon="4.95102">
        <ele>292.29293823242</ele>
        <time>2018-02-01T09:27:09+0100</time>
      </trkpt>
      <trkpt lat="47.18508" lon="4.95098">
        <ele>292.013671875</ele>
        <time>2018-02-01T09:27:12+0100</time>
      </trkpt>
      <trkpt lat="47.18509" lon="4.95094">
        <ele>291.72598266602</ele>
        <time>2018-02-01T09:27:15+0100</time>
      </trkpt>
      <trkpt lat="47.18509" lon="4.9509">
        <ele>291.47830200195</ele>
        <time>2018-02-01T09:27:18+0100</time>
      </trkpt>
      <trkpt lat="47.1851" lon="4.95086">
        <ele>291.27755737305</ele>
        <time>2018-02-01T09:27:21+0100</time>
      </trkpt>
      <trkpt lat="47.18512" lon="4.95083">
        <ele>291.14443969727</ele>
        <time>2018-02-01T09:27:24+0100</time>
      </trkpt>
      <trkpt lat="47.18513" lon="4.95079">
        <ele>290.96832275391</ele>
        <time>2018-02-01T09:27:27+0100</time>
      </trkpt>
      <trkpt lat="47.18514" lon="4.95074">
        <ele>290.71655273438</ele>
        <time>2018-02-01T09:27:30+0100</time>
      </trkpt>
      <trkpt lat="47.18515" lon="4.9507">
        <ele>290.43588256836</ele>
        <time>2018-02-01T09:27:33+0100</time>
      </trkpt>
      <trkpt lat="47.18516" lon="4.95065">
        <ele>290.14859008789</ele>
        <time>2018-02-01T09:27:36+0100</time>
      </trkpt>
      <trkpt lat="47.18517" lon="4.9506">
        <ele>289.83065795898</ele>
        <time>2018-02-01T09:27:39+0100</time>
      </trkpt>
      <trkpt lat="47.18518" lon="4.95058">
        <ele>289.57424926758</ele>
        <time>2018-02-01T09:27:42+0100</time>
      </trkpt>
      <trkpt lat="47.18519" lon="4.95054">
        <ele>289.39526367188</ele>
        <time>2018-02-01T09:27:45+0100</time>
      </trkpt>
      <trkpt lat="47.18521" lon="4.9505">
        <ele>289.23602294922</ele>
        <time>2018-02-01T09:27:48+0100</time>
      </trkpt>
      <trkpt lat="47.18521" lon="4.95045">
        <ele>289.07369995117</ele>
        <time>2018-02-01T09:27:51+0100</time>
      </trkpt>
      <trkpt lat="47.18522" lon="4.95042">
        <ele>289.05285644531</ele>
        <time>2018-02-01T09:27:54+0100</time>
      </trkpt>
      <trkpt lat="47.18521" lon="4.95042">
        <ele>289.33618164062</ele>
        <time>2018-02-01T09:27:57+0100</time>
      </trkpt>
      <trkpt lat="47.1852" lon="4.95038">
        <ele>289.80554199219</ele>
        <time>2018-02-01T09:28:00+0100</time>
      </trkpt>
      <trkpt lat="47.18516" lon="4.95034">
        <ele>290.17813110352</ele>
        <time>2018-02-01T09:28:03+0100</time>
      </trkpt>
      <trkpt lat="47.18511" lon="4.95031">
        <ele>290.37194824219</ele>
        <time>2018-02-01T09:28:06+0100</time>
      </trkpt>
      <trkpt lat="47.18507" lon="4.95029">
        <ele>290.48782348633</ele>
        <time>2018-02-01T09:28:09+0100</time>
      </trkpt>
      <trkpt lat="47.18505" lon="4.95028">
        <ele>290.59036254883</ele>
        <time>2018-02-01T09:28:12+0100</time>
      </trkpt>
      <trkpt lat="47.18502" lon="4.95026">
        <ele>290.7170715332</ele>
        <time>2018-02-01T09:28:15+0100</time>
      </trkpt>
      <trkpt lat="47.18499" lon="4.95025">
        <ele>290.85125732422</ele>
        <time>2018-02-01T09:28:18+0100</time>
      </trkpt>
      <trkpt lat="47.18497" lon="4.95023">
        <ele>291.01190185547</ele>
        <time>2018-02-01T09:28:21+0100</time>
      </trkpt>
      <trkpt lat="47.18494" lon="4.9502">
        <ele>291.16830444336</ele>
        <time>2018-02-01T09:28:24+0100</time>
      </trkpt>
      <trkpt lat="47.18492" lon="4.95018">
        <ele>291.28756713867</ele>
        <time>2018-02-01T09:28:27+0100</time>
      </trkpt>
      <trkpt lat="47.1849" lon="4.95017">
        <ele>291.41253662109</ele>
        <time>2018-02-01T09:28:30+0100</time>
      </trkpt>
      <trkpt lat="47.18489" lon="4.95017">
        <ele>291.56243896484</ele>
        <time>2018-02-01T09:28:33+0100</time>
      </trkpt>
      <trkpt lat="47.18487" lon="4.95017">
        <ele>291.70693969727</ele>
        <time>2018-02-01T09:28:36+0100</time>
      </trkpt>
      <trkpt lat="47.18484" lon="4.9502">
        <ele>291.93151855469</ele>
        <time>2018-02-01T09:28:39+0100</time>
      </trkpt>
      <trkpt lat="47.18483" lon="4.95021">
        <ele>292.04968261719</ele>
        <time>2018-02-01T09:28:42+0100</time>
      </trkpt>
      <trkpt lat="47.1848" lon="4.95021">
        <ele>292.04901123047</ele>
        <time>2018-02-01T09:28:45+0100</time>
      </trkpt>
      <trkpt lat="47.18476" lon="4.95018">
        <ele>292.11248779297</ele>
        <time>2018-02-01T09:28:48+0100</time>
      </trkpt>
      <trkpt lat="47.18473" lon="4.95016">
        <ele>292.15576171875</ele>
        <time>2018-02-01T09:28:51+0100</time>
      </trkpt>
      <trkpt lat="47.1847" lon="4.95017">
        <ele>292.20425415039</ele>
        <time>2018-02-01T09:28:54+0100</time>
      </trkpt>
      <trkpt lat="47.18465" lon="4.95018">
        <ele>292.10635375977</ele>
        <time>2018-02-01T09:28:57+0100</time>
      </trkpt>
      <trkpt lat="47.18463" lon="4.95018">
        <ele>291.94470214844</ele>
        <time>2018-02-01T09:29:00+0100</time>
      </trkpt>
      <trkpt lat="47.18461" lon="4.95016">
        <ele>291.90908813477</ele>
        <time>2018-02-01T09:29:03+0100</time>
      </trkpt>
      <trkpt lat="47.18456" lon="4.95013">
        <ele>292.05511474609</ele>
        <time>2018-02-01T09:29:06+0100</time>
      </trkpt>
      <trkpt lat="47.18454" lon="4.95015">
        <ele>292.24783325195</ele>
        <time>2018-02-01T09:29:09+0100</time>
      </trkpt>
      <trkpt lat="47.18452" lon="4.95017">
        <ele>292.46978759766</ele>
        <time>2018-02-01T09:29:12+0100</time>
      </trkpt>
      <trkpt lat="47.18448" lon="4.95018">
        <ele>292.61694335938</ele>
        <time>2018-02-01T09:29:15+0100</time>
      </trkpt>
      <trkpt lat="47.18441" lon="4.95017">
        <ele>292.60385131836</ele>
        <time>2018-02-01T09:29:18+0100</time>
      </trkpt>
      <trkpt lat="47.18438" lon="4.95016">
        <ele>292.40454101562</ele>
        <time>2018-02-01T09:29:21+0100</time>
      </trkpt>
      <trkpt lat="47.18434" lon="4.95016">
        <ele>292.20150756836</ele>
        <time>2018-02-01T09:29:24+0100</time>
      </trkpt>
      <trkpt lat="47.18432" lon="4.95016">
        <ele>292.06564331055</ele>
        <time>2018-02-01T09:29:27+0100</time>
      </trkpt>
      <trkpt lat="47.1843" lon="4.95016">
        <ele>292.01190185547</ele>
        <time>2018-02-01T09:29:30+0100</time>
      </trkpt>
      <trkpt lat="47.18426" lon="4.95016">
        <ele>292.01263427734</ele>
        <time>2018-02-01T09:29:33+0100</time>
      </trkpt>
      <trkpt lat="47.18423" lon="4.95017">
        <ele>292.05560302734</ele>
        <time>2018-02-01T09:29:36+0100</time>
      </trkpt>
      <trkpt lat="47.1842" lon="4.95017">
        <ele>292.14166259766</ele>
        <time>2018-02-01T09:29:39+0100</time>
      </trkpt>
      <trkpt lat="47.18417" lon="4.95017">
        <ele>292.26654052734</ele>
        <time>2018-02-01T09:29:42+0100</time>
      </trkpt>
      <trkpt lat="47.18415" lon="4.95016">
        <ele>292.35055541992</ele>
        <time>2018-02-01T09:29:45+0100</time>
      </trkpt>
      <trkpt lat="47.18412" lon="4.95016">
        <ele>292.33410644531</ele>
        <time>2018-02-01T09:29:48+0100</time>
      </trkpt>
      <trkpt lat="47.18409" lon="4.95016">
        <ele>292.27389526367</ele>
        <time>2018-02-01T09:29:51+0100</time>
      </trkpt>
      <trkpt lat="47.18405" lon="4.95015">
        <ele>292.21469116211</ele>
        <time>2018-02-01T09:29:54+0100</time>
      </trkpt>
      <trkpt lat="47.18401" lon="4.95013">
        <ele>292.10382080078</ele>
        <time>2018-02-01T09:29:57+0100</time>
      </trkpt>
      <trkpt lat="47.18398" lon="4.95013">
        <ele>291.9983215332</ele>
        <time>2018-02-01T09:30:00+0100</time>
      </trkpt>
      <trkpt lat="47.18395" lon="4.95013">
        <ele>291.9342956543</ele>
        <time>2018-02-01T09:30:03+0100</time>
      </trkpt>
      <trkpt lat="47.18393" lon="4.95012">
        <ele>291.8737487793</ele>
        <time>2018-02-01T09:30:06+0100</time>
      </trkpt>
      <trkpt lat="47.1839" lon="4.95012">
        <ele>291.80090332031</ele>
        <time>2018-02-01T09:30:09+0100</time>
      </trkpt>
      <trkpt lat="47.18387" lon="4.95011">
        <ele>291.67538452148</ele>
        <time>2018-02-01T09:30:12+0100</time>
      </trkpt>
      <trkpt lat="47.18384" lon="4.9501">
        <ele>291.53802490234</ele>
        <time>2018-02-01T09:30:15+0100</time>
      </trkpt>
      <trkpt lat="47.18381" lon="4.9501">
        <ele>291.43499755859</ele>
        <time>2018-02-01T09:30:18+0100</time>
      </trkpt>
      <trkpt lat="47.18378" lon="4.95009">
        <ele>291.34942626953</ele>
        <time>2018-02-01T09:30:21+0100</time>
      </trkpt>
      <trkpt lat="47.18376" lon="4.95008">
        <ele>291.23190307617</ele>
        <time>2018-02-01T09:30:24+0100</time>
      </trkpt>
      <trkpt lat="47.18373" lon="4.95008">
        <ele>291.10427856445</ele>
        <time>2018-02-01T09:30:27+0100</time>
      </trkpt>
      <trkpt lat="47.1837" lon="4.95008">
        <ele>291.01586914062</ele>
        <time>2018-02-01T09:30:30+0100</time>
      </trkpt>
      <trkpt lat="47.18367" lon="4.95007">
        <ele>290.92797851562</ele>
        <time>2018-02-01T09:30:33+0100</time>
      </trkpt>
      <trkpt lat="47.18365" lon="4.95007">
        <ele>290.84875488281</ele>
        <time>2018-02-01T09:30:36+0100</time>
      </trkpt>
      <trkpt lat="47.18361" lon="4.95006">
        <ele>290.69946289062</ele>
        <time>2018-02-01T09:30:39+0100</time>
      </trkpt>
      <trkpt lat="47.18359" lon="4.95005">
        <ele>290.57025146484</ele>
        <time>2018-02-01T09:30:42+0100</time>
      </trkpt>
      <trkpt lat="47.18356" lon="4.95005">
        <ele>290.47213745117</ele>
        <time>2018-02-01T09:30:45+0100</time>
      </trkpt>
      <trkpt lat="47.18354" lon="4.95006">
        <ele>290.43026733398</ele>
        <time>2018-02-01T09:30:48+0100</time>
      </trkpt>
      <trkpt lat="47.18351" lon="4.95006">
        <ele>290.45278930664</ele>
        <time>2018-02-01T09:30:51+0100</time>
      </trkpt>
      <trkpt lat="47.18349" lon="4.95006">
        <ele>290.52938842773</ele>
        <time>2018-02-01T09:30:54+0100</time>
      </trkpt>
      <trkpt lat="47.18347" lon="4.95007">
        <ele>290.74984741211</ele>
        <time>2018-02-01T09:30:57+0100</time>
      </trkpt>
      <trkpt lat="47.18345" lon="4.95007">
        <ele>291.0549621582</ele>
        <time>2018-02-01T09:31:00+0100</time>
      </trkpt>
      <trkpt lat="47.18341" lon="4.95005">
        <ele>291.36068725586</ele>
        <time>2018-02-01T09:31:03+0100</time>
      </trkpt>
      <trkpt lat="47.18337" lon="4.95004">
        <ele>291.61291503906</ele>
        <time>2018-02-01T09:31:06+0100</time>
      </trkpt>
      <trkpt lat="47.18336" lon="4.95003">
        <ele>291.85543823242</ele>
        <time>2018-02-01T09:31:09+0100</time>
      </trkpt>
      <trkpt lat="47.18336" lon="4.95003">
        <ele>292.2805480957</ele>
        <time>2018-02-01T09:31:12+0100</time>
      </trkpt>
      <trkpt lat="47.18332" lon="4.95003">
        <ele>292.81271362305</ele>
        <time>2018-02-01T09:31:15+0100</time>
      </trkpt>
      <trkpt lat="47.18328" lon="4.95">
        <ele>293.23889160156</ele>
        <time>2018-02-01T09:31:18+0100</time>
      </trkpt>
      <trkpt lat="47.18325" lon="4.94997">
        <ele>293.58615112305</ele>
        <time>2018-02-01T09:31:21+0100</time>
      </trkpt>
      <trkpt lat="47.18323" lon="4.94995">
        <ele>293.85028076172</ele>
        <time>2018-02-01T09:31:24+0100</time>
      </trkpt>
      <trkpt lat="47.1832" lon="4.94993">
        <ele>294.10430908203</ele>
        <time>2018-02-01T09:31:27+0100</time>
      </trkpt>
      <trkpt lat="47.18318" lon="4.94992">
        <ele>294.36663818359</ele>
        <time>2018-02-01T09:31:30+0100</time>
      </trkpt>
      <trkpt lat="47.18315" lon="4.94989">
        <ele>294.6403503418</ele>
        <time>2018-02-01T09:31:33+0100</time>
      </trkpt>
      <trkpt lat="47.18313" lon="4.94988">
        <ele>294.86364746094</ele>
        <time>2018-02-01T09:31:36+0100</time>
      </trkpt>
      <trkpt lat="47.1831" lon="4.94986">
        <ele>295.09027099609</ele>
        <time>2018-02-01T09:31:39+0100</time>
      </trkpt>
      <trkpt lat="47.18306" lon="4.94984">
        <ele>295.37115478516</ele>
        <time>2018-02-01T09:31:42+0100</time>
      </trkpt>
      <trkpt lat="47.18304" lon="4.94984">
        <ele>295.6940612793</ele>
        <time>2018-02-01T09:31:45+0100</time>
      </trkpt>
      <trkpt lat="47.18302" lon="4.94983">
        <ele>296.06256103516</ele>
        <time>2018-02-01T09:31:48+0100</time>
      </trkpt>
      <trkpt lat="47.18299" lon="4.94982">
        <ele>296.38754272461</ele>
        <time>2018-02-01T09:31:51+0100</time>
      </trkpt>
      <trkpt lat="47.18298" lon="4.94981">
        <ele>296.77749633789</ele>
        <time>2018-02-01T09:31:55+0100</time>
      </trkpt>
      <trkpt lat="47.18294" lon="4.94979">
        <ele>297.12673950195</ele>
        <time>2018-02-01T09:31:58+0100</time>
      </trkpt>
      <trkpt lat="47.18291" lon="4.94979">
        <ele>297.52133178711</ele>
        <time>2018-02-01T09:32:01+0100</time>
      </trkpt>
      <trkpt lat="47.18289" lon="4.94978">
        <ele>297.95825195312</ele>
        <time>2018-02-01T09:32:04+0100</time>
      </trkpt>
      <trkpt lat="47.18287" lon="4.94978">
        <ele>298.41149902344</ele>
        <time>2018-02-01T09:32:07+0100</time>
      </trkpt>
      <trkpt lat="47.18285" lon="4.94976">
        <ele>298.83905029297</ele>
        <time>2018-02-01T09:32:10+0100</time>
      </trkpt>
      <trkpt lat="47.18283" lon="4.94973">
        <ele>299.23699951172</ele>
        <time>2018-02-01T09:32:13+0100</time>
      </trkpt>
      <trkpt lat="47.18281" lon="4.9497">
        <ele>299.49407958984</ele>
        <time>2018-02-01T09:32:16+0100</time>
      </trkpt>
      <trkpt lat="47.18278" lon="4.94968">
        <ele>299.71600341797</ele>
        <time>2018-02-01T09:32:19+0100</time>
      </trkpt>
      <trkpt lat="47.18276" lon="4.94968">
        <ele>299.97268676758</ele>
        <time>2018-02-01T09:32:22+0100</time>
      </trkpt>
      <trkpt lat="47.18273" lon="4.94965">
        <ele>300.27908325195</ele>
        <time>2018-02-01T09:32:25+0100</time>
      </trkpt>
      <trkpt lat="47.18271" lon="4.94963">
        <ele>300.58770751953</ele>
        <time>2018-02-01T09:32:28+0100</time>
      </trkpt>
      <trkpt lat="47.1827" lon="4.9496">
        <ele>300.85830688477</ele>
        <time>2018-02-01T09:32:31+0100</time>
      </trkpt>
      <trkpt lat="47.18267" lon="4.94956">
        <ele>301.10452270508</ele>
        <time>2018-02-01T09:32:34+0100</time>
      </trkpt>
      <trkpt lat="47.18265" lon="4.94954">
        <ele>301.34906005859</ele>
        <time>2018-02-01T09:32:37+0100</time>
      </trkpt>
      <trkpt lat="47.18263" lon="4.94951">
        <ele>301.58529663086</ele>
        <time>2018-02-01T09:32:40+0100</time>
      </trkpt>
      <trkpt lat="47.18262" lon="4.94947">
        <ele>301.76684570312</ele>
        <time>2018-02-01T09:32:43+0100</time>
      </trkpt>
      <trkpt lat="47.1826" lon="4.94943">
        <ele>301.89514160156</ele>
        <time>2018-02-01T09:32:46+0100</time>
      </trkpt>
      <trkpt lat="47.18258" lon="4.94941">
        <ele>302.01446533203</ele>
        <time>2018-02-01T09:32:49+0100</time>
      </trkpt>
      <trkpt lat="47.18256" lon="4.94937">
        <ele>302.12097167969</ele>
        <time>2018-02-01T09:32:52+0100</time>
      </trkpt>
      <trkpt lat="47.18254" lon="4.94934">
        <ele>302.21389770508</ele>
        <time>2018-02-01T09:32:55+0100</time>
      </trkpt>
      <trkpt lat="47.18252" lon="4.94931">
        <ele>302.28451538086</ele>
        <time>2018-02-01T09:32:58+0100</time>
      </trkpt>
      <trkpt lat="47.18251" lon="4.94928">
        <ele>302.36154174805</ele>
        <time>2018-02-01T09:33:01+0100</time>
      </trkpt>
      <trkpt lat="47.18249" lon="4.94925">
        <ele>302.46304321289</ele>
        <time>2018-02-01T09:33:04+0100</time>
      </trkpt>
      <trkpt lat="47.18247" lon="4.94921">
        <ele>302.56396484375</ele>
        <time>2018-02-01T09:33:07+0100</time>
      </trkpt>
      <trkpt lat="47.18244" lon="4.94918">
        <ele>302.64852905273</ele>
        <time>2018-02-01T09:33:10+0100</time>
      </trkpt>
      <trkpt lat="47.18242" lon="4.94916">
        <ele>302.74880981445</ele>
        <time>2018-02-01T09:33:13+0100</time>
      </trkpt>
      <trkpt lat="47.18241" lon="4.94915">
        <ele>302.87219238281</ele>
        <time>2018-02-01T09:33:16+0100</time>
      </trkpt>
      <trkpt lat="47.18238" lon="4.94913">
        <ele>303.02529907227</ele>
        <time>2018-02-01T09:33:19+0100</time>
      </trkpt>
      <trkpt lat="47.18234" lon="4.9491">
        <ele>303.20217895508</ele>
        <time>2018-02-01T09:33:22+0100</time>
      </trkpt>
      <trkpt lat="47.18232" lon="4.94909">
        <ele>303.38745117188</ele>
        <time>2018-02-01T09:33:25+0100</time>
      </trkpt>
      <trkpt lat="47.1823" lon="4.94907">
        <ele>303.583984375</ele>
        <time>2018-02-01T09:33:28+0100</time>
      </trkpt>
      <trkpt lat="47.18227" lon="4.94906">
        <ele>303.77786254883</ele>
        <time>2018-02-01T09:33:31+0100</time>
      </trkpt>
      <trkpt lat="47.18224" lon="4.94904">
        <ele>303.97616577148</ele>
        <time>2018-02-01T09:33:34+0100</time>
      </trkpt>
      <trkpt lat="47.18221" lon="4.94903">
        <ele>304.16110229492</ele>
        <time>2018-02-01T09:33:37+0100</time>
      </trkpt>
      <trkpt lat="47.18219" lon="4.94903">
        <ele>304.37600708008</ele>
        <time>2018-02-01T09:33:40+0100</time>
      </trkpt>
      <trkpt lat="47.18216" lon="4.94901">
        <ele>304.61767578125</ele>
        <time>2018-02-01T09:33:43+0100</time>
      </trkpt>
      <trkpt lat="47.18212" lon="4.94899">
        <ele>304.85546875</ele>
        <time>2018-02-01T09:33:46+0100</time>
      </trkpt>
      <trkpt lat="47.18209" lon="4.94898">
        <ele>305.05865478516</ele>
        <time>2018-02-01T09:33:49+0100</time>
      </trkpt>
      <trkpt lat="47.18206" lon="4.94897">
        <ele>305.23544311523</ele>
        <time>2018-02-01T09:33:52+0100</time>
      </trkpt>
      <trkpt lat="47.18204" lon="4.94896">
        <ele>305.43460083008</ele>
        <time>2018-02-01T09:33:55+0100</time>
      </trkpt>
      <trkpt lat="47.182" lon="4.94895">
        <ele>305.5758972168</ele>
        <time>2018-02-01T09:33:58+0100</time>
      </trkpt>
      <trkpt lat="47.18197" lon="4.94894">
        <ele>305.66741943359</ele>
        <time>2018-02-01T09:34:01+0100</time>
      </trkpt>
      <trkpt lat="47.18194" lon="4.94894">
        <ele>305.76699829102</ele>
        <time>2018-02-01T09:34:04+0100</time>
      </trkpt>
      <trkpt lat="47.18192" lon="4.94895">
        <ele>305.94876098633</ele>
        <time>2018-02-01T09:34:07+0100</time>
      </trkpt>
      <trkpt lat="47.18189" lon="4.94896">
        <ele>306.18002319336</ele>
        <time>2018-02-01T09:34:10+0100</time>
      </trkpt>
      <trkpt lat="47.18186" lon="4.94896">
        <ele>306.43768310547</ele>
        <time>2018-02-01T09:34:13+0100</time>
      </trkpt>
      <trkpt lat="47.18183" lon="4.94897">
        <ele>306.70489501953</ele>
        <time>2018-02-01T09:34:16+0100</time>
      </trkpt>
      <trkpt lat="47.18181" lon="4.94899">
        <ele>306.93890380859</ele>
        <time>2018-02-01T09:34:19+0100</time>
      </trkpt>
      <trkpt lat="47.18178" lon="4.949">
        <ele>307.17236328125</ele>
        <time>2018-02-01T09:34:22+0100</time>
      </trkpt>
      <trkpt lat="47.18176" lon="4.94901">
        <ele>307.41009521484</ele>
        <time>2018-02-01T09:34:25+0100</time>
      </trkpt>
      <trkpt lat="47.18173" lon="4.94905">
        <ele>307.65057373047</ele>
        <time>2018-02-01T09:34:28+0100</time>
      </trkpt>
      <trkpt lat="47.18171" lon="4.94907">
        <ele>307.8561706543</ele>
        <time>2018-02-01T09:34:31+0100</time>
      </trkpt>
      <trkpt lat="47.18169" lon="4.9491">
        <ele>308.05990600586</ele>
        <time>2018-02-01T09:34:34+0100</time>
      </trkpt>
      <trkpt lat="47.18169" lon="4.94909">
        <ele>308.22409057617</ele>
        <time>2018-02-01T09:34:37+0100</time>
      </trkpt>
      <trkpt lat="47.18168" lon="4.94914">
        <ele>308.48538208008</ele>
        <time>2018-02-01T09:34:40+0100</time>
      </trkpt>
      <trkpt lat="47.18167" lon="4.94917">
        <ele>308.79019165039</ele>
        <time>2018-02-01T09:34:43+0100</time>
      </trkpt>
      <trkpt lat="47.18166" lon="4.94921">
        <ele>309.09799194336</ele>
        <time>2018-02-01T09:34:46+0100</time>
      </trkpt>
      <trkpt lat="47.18165" lon="4.94924">
        <ele>309.40744018555</ele>
        <time>2018-02-01T09:34:49+0100</time>
      </trkpt>
      <trkpt lat="47.18163" lon="4.94928">
        <ele>309.66897583008</ele>
        <time>2018-02-01T09:34:52+0100</time>
      </trkpt>
      <trkpt lat="47.18163" lon="4.9493">
        <ele>309.88946533203</ele>
        <time>2018-02-01T09:34:55+0100</time>
      </trkpt>
      <trkpt lat="47.18161" lon="4.94933">
        <ele>310.14178466797</ele>
        <time>2018-02-01T09:34:58+0100</time>
      </trkpt>
      <trkpt lat="47.18158" lon="4.94936">
        <ele>310.39605712891</ele>
        <time>2018-02-01T09:35:01+0100</time>
      </trkpt>
      <trkpt lat="47.18156" lon="4.94936">
        <ele>310.53189086914</ele>
        <time>2018-02-01T09:35:04+0100</time>
      </trkpt>
      <trkpt lat="47.18154" lon="4.9494">
        <ele>310.69784545898</ele>
        <time>2018-02-01T09:35:07+0100</time>
      </trkpt>
      <trkpt lat="47.18151" lon="4.94946">
        <ele>310.86492919922</ele>
        <time>2018-02-01T09:35:10+0100</time>
      </trkpt>
      <trkpt lat="47.18149" lon="4.9495">
        <ele>311.03344726562</ele>
        <time>2018-02-01T09:35:13+0100</time>
      </trkpt>
      <trkpt lat="47.18148" lon="4.94953">
        <ele>311.20404052734</ele>
        <time>2018-02-01T09:35:16+0100</time>
      </trkpt>
      <trkpt lat="47.18146" lon="4.94958">
        <ele>311.42208862305</ele>
        <time>2018-02-01T09:35:19+0100</time>
      </trkpt>
      <trkpt lat="47.18144" lon="4.94963">
        <ele>311.67224121094</ele>
        <time>2018-02-01T09:35:22+0100</time>
      </trkpt>
      <trkpt lat="47.18143" lon="4.94966">
        <ele>311.91586303711</ele>
        <time>2018-02-01T09:35:25+0100</time>
      </trkpt>
      <trkpt lat="47.18142" lon="4.94969">
        <ele>312.17687988281</ele>
        <time>2018-02-01T09:35:28+0100</time>
      </trkpt>
      <trkpt lat="47.18141" lon="4.94973">
        <ele>312.41711425781</ele>
        <time>2018-02-01T09:35:31+0100</time>
      </trkpt>
      <trkpt lat="47.18138" lon="4.94978">
        <ele>312.57369995117</ele>
        <time>2018-02-01T09:35:34+0100</time>
      </trkpt>
      <trkpt lat="47.18135" lon="4.94984">
        <ele>312.67053222656</ele>
        <time>2018-02-01T09:35:37+0100</time>
      </trkpt>
      <trkpt lat="47.18134" lon="4.94988">
        <ele>312.75930786133</ele>
        <time>2018-02-01T09:35:40+0100</time>
      </trkpt>
      <trkpt lat="47.18132" lon="4.94992">
        <ele>312.8759765625</ele>
        <time>2018-02-01T09:35:43+0100</time>
      </trkpt>
      <trkpt lat="47.18131" lon="4.94996">
        <ele>312.98236083984</ele>
        <time>2018-02-01T09:35:46+0100</time>
      </trkpt>
      <trkpt lat="47.18129" lon="4.95">
        <ele>313.05490112305</ele>
        <time>2018-02-01T09:35:49+0100</time>
      </trkpt>
      <trkpt lat="47.18129" lon="4.95005">
        <ele>313.15292358398</ele>
        <time>2018-02-01T09:35:52+0100</time>
      </trkpt>
      <trkpt lat="47.18128" lon="4.95009">
        <ele>313.24603271484</ele>
        <time>2018-02-01T09:35:55+0100</time>
      </trkpt>
      <trkpt lat="47.18126" lon="4.95014">
        <ele>313.32299804688</ele>
        <time>2018-02-01T09:35:58+0100</time>
      </trkpt>
      <trkpt lat="47.18124" lon="4.95017">
        <ele>313.4621887207</ele>
        <time>2018-02-01T09:36:01+0100</time>
      </trkpt>
      <trkpt lat="47.18122" lon="4.95021">
        <ele>313.66342163086</ele>
        <time>2018-02-01T09:36:04+0100</time>
      </trkpt>
      <trkpt lat="47.18121" lon="4.95024">
        <ele>313.83526611328</ele>
        <time>2018-02-01T09:36:07+0100</time>
      </trkpt>
      <trkpt lat="47.18119" lon="4.95028">
        <ele>313.94677734375</ele>
        <time>2018-02-01T09:36:10+0100</time>
      </trkpt>
      <trkpt lat="47.18118" lon="4.95032">
        <ele>313.97973632812</ele>
        <time>2018-02-01T09:36:13+0100</time>
      </trkpt>
      <trkpt lat="47.18116" lon="4.95035">
        <ele>314.01412963867</ele>
        <time>2018-02-01T09:36:16+0100</time>
      </trkpt>
      <trkpt lat="47.18114" lon="4.95039">
        <ele>314.02523803711</ele>
        <time>2018-02-01T09:36:19+0100</time>
      </trkpt>
      <trkpt lat="47.18113" lon="4.95043">
        <ele>313.99472045898</ele>
        <time>2018-02-01T09:36:22+0100</time>
      </trkpt>
      <trkpt lat="47.18111" lon="4.95047">
        <ele>313.95373535156</ele>
        <time>2018-02-01T09:36:25+0100</time>
      </trkpt>
      <trkpt lat="47.1811" lon="4.95051">
        <ele>313.89263916016</ele>
        <time>2018-02-01T09:36:28+0100</time>
      </trkpt>
      <trkpt lat="47.18109" lon="4.95054">
        <ele>313.77694702148</ele>
        <time>2018-02-01T09:36:31+0100</time>
      </trkpt>
      <trkpt lat="47.18108" lon="4.95057">
        <ele>313.62579345703</ele>
        <time>2018-02-01T09:36:34+0100</time>
      </trkpt>
      <trkpt lat="47.18106" lon="4.95062">
        <ele>313.49783325195</ele>
        <time>2018-02-01T09:36:37+0100</time>
      </trkpt>
      <trkpt lat="47.18104" lon="4.95069">
        <ele>313.42779541016</ele>
        <time>2018-02-01T09:36:40+0100</time>
      </trkpt>
      <trkpt lat="47.18102" lon="4.95074">
        <ele>313.37384033203</ele>
        <time>2018-02-01T09:36:43+0100</time>
      </trkpt>
      <trkpt lat="47.18101" lon="4.95079">
        <ele>313.33004760742</ele>
        <time>2018-02-01T09:36:46+0100</time>
      </trkpt>
      <trkpt lat="47.181" lon="4.95083">
        <ele>313.28057861328</ele>
        <time>2018-02-01T09:36:49+0100</time>
      </trkpt>
      <trkpt lat="47.18098" lon="4.95087">
        <ele>313.24987792969</ele>
        <time>2018-02-01T09:36:52+0100</time>
      </trkpt>
      <trkpt lat="47.18097" lon="4.95091">
        <ele>313.22760009766</ele>
        <time>2018-02-01T09:36:55+0100</time>
      </trkpt>
      <trkpt lat="47.18097" lon="4.95093">
        <ele>313.25247192383</ele>
        <time>2018-02-01T09:36:58+0100</time>
      </trkpt>
      <trkpt lat="47.18096" lon="4.95094">
        <ele>313.27597045898</ele>
        <time>2018-02-01T09:37:01+0100</time>
      </trkpt>
      <trkpt lat="47.18096" lon="4.95094">
        <ele>313.28005981445</ele>
        <time>2018-02-01T09:37:04+0100</time>
      </trkpt>
      <trkpt lat="47.18096" lon="4.95096">
        <ele>313.25231933594</ele>
        <time>2018-02-01T09:37:07+0100</time>
      </trkpt>
      <trkpt lat="47.18096" lon="4.95101">
        <ele>313.17880249023</ele>
        <time>2018-02-01T09:37:10+0100</time>
      </trkpt>
      <trkpt lat="47.18094" lon="4.95104">
        <ele>313.07092285156</ele>
        <time>2018-02-01T09:37:13+0100</time>
      </trkpt>
      <trkpt lat="47.18093" lon="4.95108">
        <ele>312.91000366211</ele>
        <time>2018-02-01T09:37:16+0100</time>
      </trkpt>
      <trkpt lat="47.18093" lon="4.9511">
        <ele>312.82168579102</ele>
        <time>2018-02-01T09:37:19+0100</time>
      </trkpt>
      <trkpt lat="47.18093" lon="4.95113">
        <ele>312.82165527344</ele>
        <time>2018-02-01T09:37:22+0100</time>
      </trkpt>
      <trkpt lat="47.18091" lon="4.95118">
        <ele>312.84393310547</ele>
        <time>2018-02-01T09:37:25+0100</time>
      </trkpt>
      <trkpt lat="47.18088" lon="4.95124">
        <ele>312.78051757812</ele>
        <time>2018-02-01T09:37:28+0100</time>
      </trkpt>
      <trkpt lat="47.18086" lon="4.95129">
        <ele>312.63241577148</ele>
        <time>2018-02-01T09:37:31+0100</time>
      </trkpt>
      <trkpt lat="47.18086" lon="4.95133">
        <ele>312.44686889648</ele>
        <time>2018-02-01T09:37:34+0100</time>
      </trkpt>
      <trkpt lat="47.18085" lon="4.95137">
        <ele>312.34573364258</ele>
        <time>2018-02-01T09:37:37+0100</time>
      </trkpt>
      <trkpt lat="47.18084" lon="4.95142">
        <ele>312.27163696289</ele>
        <time>2018-02-01T09:37:40+0100</time>
      </trkpt>
      <trkpt lat="47.18083" lon="4.95146">
        <ele>312.21255493164</ele>
        <time>2018-02-01T09:37:43+0100</time>
      </trkpt>
      <trkpt lat="47.18082" lon="4.95151">
        <ele>312.15908813477</ele>
        <time>2018-02-01T09:37:46+0100</time>
      </trkpt>
      <trkpt lat="47.1808" lon="4.95155">
        <ele>312.09335327148</ele>
        <time>2018-02-01T09:37:49+0100</time>
      </trkpt>
      <trkpt lat="47.18079" lon="4.95158">
        <ele>312.0888671875</ele>
        <time>2018-02-01T09:37:52+0100</time>
      </trkpt>
      <trkpt lat="47.18077" lon="4.95162">
        <ele>312.14212036133</ele>
        <time>2018-02-01T09:37:55+0100</time>
      </trkpt>
      <trkpt lat="47.18076" lon="4.95166">
        <ele>312.1520690918</ele>
        <time>2018-02-01T09:37:58+0100</time>
      </trkpt>
      <trkpt lat="47.18075" lon="4.9517">
        <ele>312.13684082031</ele>
        <time>2018-02-01T09:38:01+0100</time>
      </trkpt>
      <trkpt lat="47.18074" lon="4.95176">
        <ele>312.14291381836</ele>
        <time>2018-02-01T09:38:04+0100</time>
      </trkpt>
      <trkpt lat="47.18074" lon="4.9518">
        <ele>312.22592163086</ele>
        <time>2018-02-01T09:38:07+0100</time>
      </trkpt>
      <trkpt lat="47.18073" lon="4.95184">
        <ele>312.44061279297</ele>
        <time>2018-02-01T09:38:10+0100</time>
      </trkpt>
      <trkpt lat="47.18071" lon="4.95187">
        <ele>312.66784667969</ele>
        <time>2018-02-01T09:38:13+0100</time>
      </trkpt>
      <trkpt lat="47.1807" lon="4.95194">
        <ele>312.81811523438</ele>
        <time>2018-02-01T09:38:16+0100</time>
      </trkpt>
      <trkpt lat="47.18069" lon="4.95193">
        <ele>312.92663574219</ele>
        <time>2018-02-01T09:38:19+0100</time>
      </trkpt>
      <trkpt lat="47.18069" lon="4.952">
        <ele>313.28973388672</ele>
        <time>2018-02-01T09:38:22+0100</time>
      </trkpt>
      <trkpt lat="47.18069" lon="4.95205">
        <ele>313.61953735352</ele>
        <time>2018-02-01T09:38:25+0100</time>
      </trkpt>
      <trkpt lat="47.18066" lon="4.95206">
        <ele>314.02444458008</ele>
        <time>2018-02-01T09:38:28+0100</time>
      </trkpt>
      <trkpt lat="47.18064" lon="4.95214">
        <ele>314.50482177734</ele>
        <time>2018-02-01T09:38:31+0100</time>
      </trkpt>
      <trkpt lat="47.18065" lon="4.95219">
        <ele>314.73510742188</ele>
        <time>2018-02-01T09:38:34+0100</time>
      </trkpt>
      <trkpt lat="47.18063" lon="4.95225">
        <ele>314.67446899414</ele>
        <time>2018-02-01T09:38:37+0100</time>
      </trkpt>
      <trkpt lat="47.18063" lon="4.95228">
        <ele>314.51281738281</ele>
        <time>2018-02-01T09:38:40+0100</time>
      </trkpt>
      <trkpt lat="47.18062" lon="4.95234">
        <ele>314.29022216797</ele>
        <time>2018-02-01T09:38:43+0100</time>
      </trkpt>
      <trkpt lat="47.18061" lon="4.95238">
        <ele>314.05813598633</ele>
        <time>2018-02-01T09:38:46+0100</time>
      </trkpt>
      <trkpt lat="47.1806" lon="4.95242">
        <ele>313.86529541016</ele>
        <time>2018-02-01T09:38:49+0100</time>
      </trkpt>
      <trkpt lat="47.18059" lon="4.95245">
        <ele>313.658203125</ele>
        <time>2018-02-01T09:38:52+0100</time>
      </trkpt>
      <trkpt lat="47.18056" lon="4.95249">
        <ele>313.43988037109</ele>
        <time>2018-02-01T09:38:55+0100</time>
      </trkpt>
      <trkpt lat="47.18054" lon="4.95253">
        <ele>313.20635986328</ele>
        <time>2018-02-01T09:38:58+0100</time>
      </trkpt>
      <trkpt lat="47.18052" lon="4.95256">
        <ele>312.95809936523</ele>
        <time>2018-02-01T09:39:01+0100</time>
      </trkpt>
      <trkpt lat="47.18049" lon="4.95258">
        <ele>312.73403930664</ele>
        <time>2018-02-01T09:39:04+0100</time>
      </trkpt>
      <trkpt lat="47.18046" lon="4.95263">
        <ele>312.56021118164</ele>
        <time>2018-02-01T09:39:07+0100</time>
      </trkpt>
      <trkpt lat="47.18042" lon="4.95264">
        <ele>312.40264892578</ele>
        <time>2018-02-01T09:39:10+0100</time>
      </trkpt>
      <trkpt lat="47.18039" lon="4.95266">
        <ele>312.19226074219</ele>
        <time>2018-02-01T09:39:13+0100</time>
      </trkpt>
      <trkpt lat="47.18036" lon="4.95267">
        <ele>312.00213623047</ele>
        <time>2018-02-01T09:39:16+0100</time>
      </trkpt>
      <trkpt lat="47.18033" lon="4.95267">
        <ele>311.85681152344</ele>
        <time>2018-02-01T09:39:19+0100</time>
      </trkpt>
      <trkpt lat="47.1803" lon="4.95268">
        <ele>311.72491455078</ele>
        <time>2018-02-01T09:39:22+0100</time>
      </trkpt>
      <trkpt lat="47.18027" lon="4.95269">
        <ele>311.62789916992</ele>
        <time>2018-02-01T09:39:25+0100</time>
      </trkpt>
      <trkpt lat="47.18025" lon="4.9527">
        <ele>311.55493164062</ele>
        <time>2018-02-01T09:39:28+0100</time>
      </trkpt>
      <trkpt lat="47.18022" lon="4.9527">
        <ele>311.48654174805</ele>
        <time>2018-02-01T09:39:31+0100</time>
      </trkpt>
      <trkpt lat="47.18019" lon="4.9527">
        <ele>311.43533325195</ele>
        <time>2018-02-01T09:39:34+0100</time>
      </trkpt>
      <trkpt lat="47.18017" lon="4.95271">
        <ele>311.42852783203</ele>
        <time>2018-02-01T09:39:37+0100</time>
      </trkpt>
      <trkpt lat="47.18015" lon="4.95272">
        <ele>311.45211791992</ele>
        <time>2018-02-01T09:39:40+0100</time>
      </trkpt>
      <trkpt lat="47.1801" lon="4.95272">
        <ele>311.49261474609</ele>
        <time>2018-02-01T09:39:43+0100</time>
      </trkpt>
      <trkpt lat="47.18007" lon="4.95272">
        <ele>311.55905151367</ele>
        <time>2018-02-01T09:39:46+0100</time>
      </trkpt>
      <trkpt lat="47.18005" lon="4.95272">
        <ele>311.59265136719</ele>
        <time>2018-02-01T09:39:49+0100</time>
      </trkpt>
      <trkpt lat="47.18002" lon="4.95274">
        <ele>311.57763671875</ele>
        <time>2018-02-01T09:39:52+0100</time>
      </trkpt>
      <trkpt lat="47.18" lon="4.95276">
        <ele>311.576171875</ele>
        <time>2018-02-01T09:39:55+0100</time>
      </trkpt>
      <trkpt lat="47.17997" lon="4.95278">
        <ele>311.58694458008</ele>
        <time>2018-02-01T09:39:58+0100</time>
      </trkpt>
      <trkpt lat="47.17994" lon="4.95279">
        <ele>311.54153442383</ele>
        <time>2018-02-01T09:40:01+0100</time>
      </trkpt>
      <trkpt lat="47.17991" lon="4.9528">
        <ele>311.50015258789</ele>
        <time>2018-02-01T09:40:04+0100</time>
      </trkpt>
      <trkpt lat="47.17989" lon="4.95282">
        <ele>311.45083618164</ele>
        <time>2018-02-01T09:40:07+0100</time>
      </trkpt>
      <trkpt lat="47.17987" lon="4.95284">
        <ele>311.43707275391</ele>
        <time>2018-02-01T09:40:10+0100</time>
      </trkpt>
      <trkpt lat="47.17983" lon="4.95287">
        <ele>311.37728881836</ele>
        <time>2018-02-01T09:40:13+0100</time>
      </trkpt>
      <trkpt lat="47.1798" lon="4.95289">
        <ele>311.26531982422</ele>
        <time>2018-02-01T09:40:16+0100</time>
      </trkpt>
      <trkpt lat="47.17978" lon="4.9529">
        <ele>311.19219970703</ele>
        <time>2018-02-01T09:40:19+0100</time>
      </trkpt>
      <trkpt lat="47.17974" lon="4.95292">
        <ele>311.11749267578</ele>
        <time>2018-02-01T09:40:22+0100</time>
      </trkpt>
      <trkpt lat="47.17971" lon="4.95294">
        <ele>311.03433227539</ele>
        <time>2018-02-01T09:40:25+0100</time>
      </trkpt>
      <trkpt lat="47.17969" lon="4.95296">
        <ele>310.94738769531</ele>
        <time>2018-02-01T09:40:28+0100</time>
      </trkpt>
      <trkpt lat="47.17966" lon="4.95298">
        <ele>310.84292602539</ele>
        <time>2018-02-01T09:40:31+0100</time>
      </trkpt>
      <trkpt lat="47.17963" lon="4.95299">
        <ele>310.71862792969</ele>
        <time>2018-02-01T09:40:34+0100</time>
      </trkpt>
      <trkpt lat="47.17961" lon="4.95301">
        <ele>310.63192749023</ele>
        <time>2018-02-01T09:40:37+0100</time>
      </trkpt>
      <trkpt lat="47.17958" lon="4.95303">
        <ele>310.55511474609</ele>
        <time>2018-02-01T09:40:40+0100</time>
      </trkpt>
      <trkpt lat="47.17956" lon="4.95305">
        <ele>310.47259521484</ele>
        <time>2018-02-01T09:40:43+0100</time>
      </trkpt>
      <trkpt lat="47.17954" lon="4.95306">
        <ele>310.41973876953</ele>
        <time>2018-02-01T09:40:46+0100</time>
      </trkpt>
      <trkpt lat="47.17951" lon="4.95308">
        <ele>310.32321166992</ele>
        <time>2018-02-01T09:40:49+0100</time>
      </trkpt>
      <trkpt lat="47.17948" lon="4.95309">
        <ele>310.13320922852</ele>
        <time>2018-02-01T09:40:52+0100</time>
      </trkpt>
      <trkpt lat="47.17945" lon="4.95311">
        <ele>309.91278076172</ele>
        <time>2018-02-01T09:40:55+0100</time>
      </trkpt>
      <trkpt lat="47.17943" lon="4.95313">
        <ele>309.70318603516</ele>
        <time>2018-02-01T09:40:58+0100</time>
      </trkpt>
      <trkpt lat="47.1794" lon="4.95316">
        <ele>309.49807739258</ele>
        <time>2018-02-01T09:41:01+0100</time>
      </trkpt>
      <trkpt lat="47.17939" lon="4.95318">
        <ele>309.33666992188</ele>
        <time>2018-02-01T09:41:04+0100</time>
      </trkpt>
      <trkpt lat="47.17937" lon="4.9532">
        <ele>309.26022338867</ele>
        <time>2018-02-01T09:41:07+0100</time>
      </trkpt>
      <trkpt lat="47.17935" lon="4.95321">
        <ele>309.20809936523</ele>
        <time>2018-02-01T09:41:10+0100</time>
      </trkpt>
      <trkpt lat="47.17932" lon="4.95322">
        <ele>309.13079833984</ele>
        <time>2018-02-01T09:41:13+0100</time>
      </trkpt>
      <trkpt lat="47.17931" lon="4.95325">
        <ele>309.05822753906</ele>
        <time>2018-02-01T09:41:16+0100</time>
      </trkpt>
      <trkpt lat="47.17931" lon="4.95326">
        <ele>309.05615234375</ele>
        <time>2018-02-01T09:41:19+0100</time>
      </trkpt>
      <trkpt lat="47.17931" lon="4.95326">
        <ele>309.06399536133</ele>
        <time>2018-02-01T09:41:22+0100</time>
      </trkpt>
      <trkpt lat="47.17931" lon="4.95326">
        <ele>309.07376098633</ele>
        <time>2018-02-01T09:41:25+0100</time>
      </trkpt>
      <trkpt lat="47.17931" lon="4.95326">
        <ele>309.08334350586</ele>
        <time>2018-02-01T09:41:28+0100</time>
      </trkpt>
      <trkpt lat="47.17931" lon="4.95327">
        <ele>309.09317016602</ele>
        <time>2018-02-01T09:41:31+0100</time>
      </trkpt>
      <trkpt lat="47.1793" lon="4.95327">
        <ele>309.12600708008</ele>
        <time>2018-02-01T09:41:34+0100</time>
      </trkpt>
      <trkpt lat="47.1793" lon="4.95327">
        <ele>309.13436889648</ele>
        <time>2018-02-01T09:41:37+0100</time>
      </trkpt>
      <trkpt lat="47.1793" lon="4.95327">
        <ele>309.14071655273</ele>
        <time>2018-02-01T09:41:40+0100</time>
      </trkpt>
      <trkpt lat="47.1793" lon="4.95327">
        <ele>309.13830566406</ele>
        <time>2018-02-01T09:41:43+0100</time>
      </trkpt>
      <trkpt lat="47.17929" lon="4.95328">
        <ele>309.13082885742</ele>
        <time>2018-02-01T09:41:46+0100</time>
      </trkpt>
      <trkpt lat="47.17929" lon="4.95328">
        <ele>309.11614990234</ele>
        <time>2018-02-01T09:41:49+0100</time>
      </trkpt>
      <trkpt lat="47.17928" lon="4.95329">
        <ele>309.09939575195</ele>
        <time>2018-02-01T09:41:52+0100</time>
      </trkpt>
      <trkpt lat="47.17928" lon="4.95329">
        <ele>309.08413696289</ele>
        <time>2018-02-01T09:41:55+0100</time>
      </trkpt>
      <trkpt lat="47.17928" lon="4.95328">
        <ele>309.07315063477</ele>
        <time>2018-02-01T09:41:58+0100</time>
      </trkpt>
      <trkpt lat="47.17928" lon="4.95328">
        <ele>309.05819702148</ele>
        <time>2018-02-01T09:42:01+0100</time>
      </trkpt>
      <trkpt lat="47.17928" lon="4.95328">
        <ele>309.04510498047</ele>
        <time>2018-02-01T09:42:04+0100</time>
      </trkpt>
      <trkpt lat="47.17928" lon="4.95328">
        <ele>309.03732299805</ele>
        <time>2018-02-01T09:42:07+0100</time>
      </trkpt>
      <trkpt lat="47.17928" lon="4.95328">
        <ele>309.03146362305</ele>
        <time>2018-02-01T09:42:10+0100</time>
      </trkpt>
      <trkpt lat="47.17928" lon="4.95328">
        <ele>309.02896118164</ele>
        <time>2018-02-01T09:42:13+0100</time>
      </trkpt>
      <trkpt lat="47.17928" lon="4.95328">
        <ele>309.02810668945</ele>
        <time>2018-02-01T09:42:16+0100</time>
      </trkpt>
      <trkpt lat="47.17928" lon="4.95328">
        <ele>309.03146362305</ele>
        <time>2018-02-01T09:42:19+0100</time>
      </trkpt>
      <trkpt lat="47.17928" lon="4.95328">
        <ele>309.03115844727</ele>
        <time>2018-02-01T09:42:22+0100</time>
      </trkpt>
      <trkpt lat="47.17928" lon="4.95328">
        <ele>309.03387451172</ele>
        <time>2018-02-01T09:42:25+0100</time>
      </trkpt>
      <trkpt lat="47.17928" lon="4.95328">
        <ele>309.041015625</ele>
        <time>2018-02-01T09:42:28+0100</time>
      </trkpt>
      <trkpt lat="47.17928" lon="4.95328">
        <ele>309.04669189453</ele>
        <time>2018-02-01T09:42:31+0100</time>
      </trkpt>
      <trkpt lat="47.17927" lon="4.95328">
        <ele>309.04989624023</ele>
        <time>2018-02-01T09:42:34+0100</time>
      </trkpt>
      <trkpt lat="47.17927" lon="4.95328">
        <ele>309.04605102539</ele>
        <time>2018-02-01T09:42:37+0100</time>
      </trkpt>
      <trkpt lat="47.17927" lon="4.95329">
        <ele>308.9856262207</ele>
        <time>2018-02-01T09:42:40+0100</time>
      </trkpt>
      <trkpt lat="47.17924" lon="4.95332">
        <ele>308.78286743164</ele>
        <time>2018-02-01T09:42:43+0100</time>
      </trkpt>
      <trkpt lat="47.17923" lon="4.95333">
        <ele>308.58831787109</ele>
        <time>2018-02-01T09:42:46+0100</time>
      </trkpt>
      <trkpt lat="47.17921" lon="4.95334">
        <ele>308.36773681641</ele>
        <time>2018-02-01T09:42:49+0100</time>
      </trkpt>
      <trkpt lat="47.17919" lon="4.95335">
        <ele>308.13616943359</ele>
        <time>2018-02-01T09:42:52+0100</time>
      </trkpt>
      <trkpt lat="47.17917" lon="4.95336">
        <ele>307.8694152832</ele>
        <time>2018-02-01T09:42:55+0100</time>
      </trkpt>
      <trkpt lat="47.17915" lon="4.95337">
        <ele>307.5764465332</ele>
        <time>2018-02-01T09:42:58+0100</time>
      </trkpt>
      <trkpt lat="47.17913" lon="4.95337">
        <ele>307.31579589844</ele>
        <time>2018-02-01T09:43:01+0100</time>
      </trkpt>
      <trkpt lat="47.1791" lon="4.95337">
        <ele>307.0885925293</ele>
        <time>2018-02-01T09:43:04+0100</time>
      </trkpt>
      <trkpt lat="47.17908" lon="4.95336">
        <ele>306.83560180664</ele>
        <time>2018-02-01T09:43:07+0100</time>
      </trkpt>
      <trkpt lat="47.17904" lon="4.95336">
        <ele>306.56188964844</ele>
        <time>2018-02-01T09:43:10+0100</time>
      </trkpt>
      <trkpt lat="47.17902" lon="4.95337">
        <ele>306.24578857422</ele>
        <time>2018-02-01T09:43:13+0100</time>
      </trkpt>
      <trkpt lat="47.17899" lon="4.95336">
        <ele>305.9162902832</ele>
        <time>2018-02-01T09:43:16+0100</time>
      </trkpt>
      <trkpt lat="47.17897" lon="4.95336">
        <ele>305.63531494141</ele>
        <time>2018-02-01T09:43:19+0100</time>
      </trkpt>
      <trkpt lat="47.17893" lon="4.95334">
        <ele>305.31549072266</ele>
        <time>2018-02-01T09:43:22+0100</time>
      </trkpt>
      <trkpt lat="47.1789" lon="4.95334">
        <ele>304.98287963867</ele>
        <time>2018-02-01T09:43:25+0100</time>
      </trkpt>
      <trkpt lat="47.17888" lon="4.95334">
        <ele>304.67034912109</ele>
        <time>2018-02-01T09:43:28+0100</time>
      </trkpt>
      <trkpt lat="47.17885" lon="4.95334">
        <ele>304.38433837891</ele>
        <time>2018-02-01T09:43:31+0100</time>
      </trkpt>
      <trkpt lat="47.17882" lon="4.95335">
        <ele>304.09930419922</ele>
        <time>2018-02-01T09:43:34+0100</time>
      </trkpt>
      <trkpt lat="47.17881" lon="4.95334">
        <ele>303.74655151367</ele>
        <time>2018-02-01T09:43:37+0100</time>
      </trkpt>
      <trkpt lat="47.17878" lon="4.95333">
        <ele>303.38189697266</ele>
        <time>2018-02-01T09:43:40+0100</time>
      </trkpt>
      <trkpt lat="47.17876" lon="4.95332">
        <ele>303.06243896484</ele>
        <time>2018-02-01T09:43:43+0100</time>
      </trkpt>
      <trkpt lat="47.17874" lon="4.95331">
        <ele>302.82244873047</ele>
        <time>2018-02-01T09:43:46+0100</time>
      </trkpt>
      <trkpt lat="47.17871" lon="4.95331">
        <ele>302.60824584961</ele>
        <time>2018-02-01T09:43:49+0100</time>
      </trkpt>
      <trkpt lat="47.17867" lon="4.9533">
        <ele>302.38116455078</ele>
        <time>2018-02-01T09:43:52+0100</time>
      </trkpt>
      <trkpt lat="47.17863" lon="4.9533">
        <ele>302.03372192383</ele>
        <time>2018-02-01T09:43:55+0100</time>
      </trkpt>
      <trkpt lat="47.1786" lon="4.9533">
        <ele>301.61437988281</ele>
        <time>2018-02-01T09:43:58+0100</time>
      </trkpt>
      <trkpt lat="47.17858" lon="4.95329">
        <ele>301.25491333008</ele>
        <time>2018-02-01T09:44:01+0100</time>
      </trkpt>
      <trkpt lat="47.17855" lon="4.95328">
        <ele>300.92764282227</ele>
        <time>2018-02-01T09:44:04+0100</time>
      </trkpt>
      <trkpt lat="47.17852" lon="4.95327">
        <ele>300.61318969727</ele>
        <time>2018-02-01T09:44:07+0100</time>
      </trkpt>
      <trkpt lat="47.17849" lon="4.95326">
        <ele>300.27194213867</ele>
        <time>2018-02-01T09:44:10+0100</time>
      </trkpt>
      <trkpt lat="47.17847" lon="4.95327">
        <ele>299.98651123047</ele>
        <time>2018-02-01T09:44:13+0100</time>
      </trkpt>
      <trkpt lat="47.17843" lon="4.95327">
        <ele>299.70315551758</ele>
        <time>2018-02-01T09:44:16+0100</time>
      </trkpt>
      <trkpt lat="47.1784" lon="4.95326">
        <ele>299.44165039062</ele>
        <time>2018-02-01T09:44:19+0100</time>
      </trkpt>
      <trkpt lat="47.17837" lon="4.95325">
        <ele>299.15484619141</ele>
        <time>2018-02-01T09:44:22+0100</time>
      </trkpt>
      <trkpt lat="47.17834" lon="4.95325">
        <ele>298.86450195312</ele>
        <time>2018-02-01T09:44:25+0100</time>
      </trkpt>
      <trkpt lat="47.17832" lon="4.95325">
        <ele>298.60998535156</ele>
        <time>2018-02-01T09:44:28+0100</time>
      </trkpt>
      <trkpt lat="47.17829" lon="4.95324">
        <ele>298.37854003906</ele>
        <time>2018-02-01T09:44:31+0100</time>
      </trkpt>
      <trkpt lat="47.17826" lon="4.95324">
        <ele>298.18637084961</ele>
        <time>2018-02-01T09:44:34+0100</time>
      </trkpt>
      <trkpt lat="47.17822" lon="4.95323">
        <ele>297.98803710938</ele>
        <time>2018-02-01T09:44:37+0100</time>
      </trkpt>
      <trkpt lat="47.17819" lon="4.95322">
        <ele>297.72079467773</ele>
        <time>2018-02-01T09:44:40+0100</time>
      </trkpt>
      <trkpt lat="47.17816" lon="4.95321">
        <ele>297.44616699219</ele>
        <time>2018-02-01T09:44:43+0100</time>
      </trkpt>
      <trkpt lat="47.17813" lon="4.95321">
        <ele>297.20431518555</ele>
        <time>2018-02-01T09:44:46+0100</time>
      </trkpt>
      <trkpt lat="47.17811" lon="4.9532">
        <ele>296.9768371582</ele>
        <time>2018-02-01T09:44:49+0100</time>
      </trkpt>
      <trkpt lat="47.1781" lon="4.95321">
        <ele>296.79681396484</ele>
        <time>2018-02-01T09:44:52+0100</time>
      </trkpt>
      <trkpt lat="47.17808" lon="4.95321">
        <ele>296.66024780273</ele>
        <time>2018-02-01T09:44:55+0100</time>
      </trkpt>
      <trkpt lat="47.17805" lon="4.95319">
        <ele>296.57443237305</ele>
        <time>2018-02-01T09:44:58+0100</time>
      </trkpt>
      <trkpt lat="47.17803" lon="4.95319">
        <ele>296.52523803711</ele>
        <time>2018-02-01T09:45:01+0100</time>
      </trkpt>
      <trkpt lat="47.178" lon="4.95319">
        <ele>296.49618530273</ele>
        <time>2018-02-01T09:45:04+0100</time>
      </trkpt>
      <trkpt lat="47.17796" lon="4.95318">
        <ele>296.48962402344</ele>
        <time>2018-02-01T09:45:06+0100</time>
      </trkpt>
      <trkpt lat="47.1779" lon="4.95317">
        <ele>296.38244628906</ele>
        <time>2018-02-01T09:45:09+0100</time>
      </trkpt>
      <trkpt lat="47.17787" lon="4.95317">
        <ele>296.19033813477</ele>
        <time>2018-02-01T09:45:12+0100</time>
      </trkpt>
      <trkpt lat="47.17784" lon="4.95316">
        <ele>295.95449829102</ele>
        <time>2018-02-01T09:45:15+0100</time>
      </trkpt>
      <trkpt lat="47.17781" lon="4.95315">
        <ele>295.7087097168</ele>
        <time>2018-02-01T09:45:18+0100</time>
      </trkpt>
      <trkpt lat="47.17778" lon="4.95315">
        <ele>295.42358398438</ele>
        <time>2018-02-01T09:45:21+0100</time>
      </trkpt>
      <trkpt lat="47.17775" lon="4.95315">
        <ele>295.13766479492</ele>
        <time>2018-02-01T09:45:24+0100</time>
      </trkpt>
      <trkpt lat="47.17772" lon="4.95314">
        <ele>294.87579345703</ele>
        <time>2018-02-01T09:45:27+0100</time>
      </trkpt>
      <trkpt lat="47.17769" lon="4.95314">
        <ele>294.65487670898</ele>
        <time>2018-02-01T09:45:30+0100</time>
      </trkpt>
      <trkpt lat="47.17765" lon="4.95312">
        <ele>294.41607666016</ele>
        <time>2018-02-01T09:45:33+0100</time>
      </trkpt>
      <trkpt lat="47.17763" lon="4.95312">
        <ele>294.16348266602</ele>
        <time>2018-02-01T09:45:36+0100</time>
      </trkpt>
      <trkpt lat="47.1776" lon="4.95313">
        <ele>293.96481323242</ele>
        <time>2018-02-01T09:45:39+0100</time>
      </trkpt>
      <trkpt lat="47.17757" lon="4.95312">
        <ele>293.78771972656</ele>
        <time>2018-02-01T09:45:42+0100</time>
      </trkpt>
      <trkpt lat="47.17755" lon="4.95312">
        <ele>293.60211181641</ele>
        <time>2018-02-01T09:45:45+0100</time>
      </trkpt>
      <trkpt lat="47.17752" lon="4.95311">
        <ele>293.30960083008</ele>
        <time>2018-02-01T09:45:48+0100</time>
      </trkpt>
      <trkpt lat="47.17749" lon="4.9531">
        <ele>292.984375</ele>
        <time>2018-02-01T09:45:51+0100</time>
      </trkpt>
      <trkpt lat="47.17746" lon="4.9531">
        <ele>292.64929199219</ele>
        <time>2018-02-01T09:45:54+0100</time>
      </trkpt>
      <trkpt lat="47.17743" lon="4.95309">
        <ele>292.35458374023</ele>
        <time>2018-02-01T09:45:57+0100</time>
      </trkpt>
      <trkpt lat="47.17741" lon="4.95308">
        <ele>292.07125854492</ele>
        <time>2018-02-01T09:46:00+0100</time>
      </trkpt>
      <trkpt lat="47.17739" lon="4.95307">
        <ele>291.78079223633</ele>
        <time>2018-02-01T09:46:03+0100</time>
      </trkpt>
      <trkpt lat="47.17737" lon="4.95307">
        <ele>291.52056884766</ele>
        <time>2018-02-01T09:46:06+0100</time>
      </trkpt>
      <trkpt lat="47.17737" lon="4.95307">
        <ele>291.36352539062</ele>
        <time>2018-02-01T09:46:09+0100</time>
      </trkpt>
      <trkpt lat="47.17737" lon="4.95307">
        <ele>291.34585571289</ele>
        <time>2018-02-01T09:46:12+0100</time>
      </trkpt>
      <trkpt lat="47.17737" lon="4.95307">
        <ele>291.33004760742</ele>
        <time>2018-02-01T09:46:15+0100</time>
      </trkpt>
      <trkpt lat="47.17737" lon="4.95306">
        <ele>291.3190612793</ele>
        <time>2018-02-01T09:46:18+0100</time>
      </trkpt>
      <trkpt lat="47.17737" lon="4.95306">
        <ele>291.30114746094</ele>
        <time>2018-02-01T09:46:21+0100</time>
      </trkpt>
      <trkpt lat="47.17737" lon="4.95306">
        <ele>291.27319335938</ele>
        <time>2018-02-01T09:46:24+0100</time>
      </trkpt>
      <trkpt lat="47.17737" lon="4.95306">
        <ele>291.25262451172</ele>
        <time>2018-02-01T09:46:27+0100</time>
      </trkpt>
      <trkpt lat="47.17737" lon="4.95306">
        <ele>291.22714233398</ele>
        <time>2018-02-01T09:46:30+0100</time>
      </trkpt>
      <trkpt lat="47.17736" lon="4.95307">
        <ele>291.07971191406</ele>
        <time>2018-02-01T09:46:33+0100</time>
      </trkpt>
      <trkpt lat="47.17734" lon="4.95306">
        <ele>290.7041015625</ele>
        <time>2018-02-01T09:46:36+0100</time>
      </trkpt>
      <trkpt lat="47.17733" lon="4.95305">
        <ele>290.37274169922</ele>
        <time>2018-02-01T09:46:39+0100</time>
      </trkpt>
      <trkpt lat="47.17731" lon="4.95304">
        <ele>290.12149047852</ele>
        <time>2018-02-01T09:46:42+0100</time>
      </trkpt>
      <trkpt lat="47.17728" lon="4.95303">
        <ele>289.80197143555</ele>
        <time>2018-02-01T09:46:45+0100</time>
      </trkpt>
      <trkpt lat="47.17728" lon="4.95302">
        <ele>289.50811767578</ele>
        <time>2018-02-01T09:46:48+0100</time>
      </trkpt>
      <trkpt lat="47.17725" lon="4.95301">
        <ele>289.27206420898</ele>
        <time>2018-02-01T09:46:51+0100</time>
      </trkpt>
      <trkpt lat="47.17722" lon="4.95299">
        <ele>289.05206298828</ele>
        <time>2018-02-01T09:46:54+0100</time>
      </trkpt>
      <trkpt lat="47.17721" lon="4.95297">
        <ele>288.77365112305</ele>
        <time>2018-02-01T09:46:57+0100</time>
      </trkpt>
      <trkpt lat="47.17716" lon="4.95295">
        <ele>288.49237060547</ele>
        <time>2018-02-01T09:47:00+0100</time>
      </trkpt>
      <trkpt lat="47.17714" lon="4.95293">
        <ele>288.20135498047</ele>
        <time>2018-02-01T09:47:03+0100</time>
      </trkpt>
      <trkpt lat="47.17714" lon="4.95292">
        <ele>287.94326782227</ele>
        <time>2018-02-01T09:47:06+0100</time>
      </trkpt>
      <trkpt lat="47.17712" lon="4.95291">
        <ele>287.69760131836</ele>
        <time>2018-02-01T09:47:09+0100</time>
      </trkpt>
      <trkpt lat="47.1771" lon="4.95291">
        <ele>287.46820068359</ele>
        <time>2018-02-01T09:47:12+0100</time>
      </trkpt>
      <trkpt lat="47.17708" lon="4.95289">
        <ele>287.30490112305</ele>
        <time>2018-02-01T09:47:15+0100</time>
      </trkpt>
      <trkpt lat="47.17706" lon="4.95287">
        <ele>287.13403320312</ele>
        <time>2018-02-01T09:47:18+0100</time>
      </trkpt>
      <trkpt lat="47.17703" lon="4.95284">
        <ele>286.93292236328</ele>
        <time>2018-02-01T09:47:21+0100</time>
      </trkpt>
      <trkpt lat="47.17702" lon="4.95282">
        <ele>286.78030395508</ele>
        <time>2018-02-01T09:47:24+0100</time>
      </trkpt>
      <trkpt lat="47.177" lon="4.95278">
        <ele>286.69705200195</ele>
        <time>2018-02-01T09:47:27+0100</time>
      </trkpt>
      <trkpt lat="47.17696" lon="4.95274">
        <ele>286.61920166016</ele>
        <time>2018-02-01T09:47:30+0100</time>
      </trkpt>
      <trkpt lat="47.17692" lon="4.9527">
        <ele>286.47998046875</ele>
        <time>2018-02-01T09:47:33+0100</time>
      </trkpt>
      <trkpt lat="47.1769" lon="4.95269">
        <ele>286.32250976562</ele>
        <time>2018-02-01T09:47:36+0100</time>
      </trkpt>
      <trkpt lat="47.17688" lon="4.95267">
        <ele>286.1950378418</ele>
        <time>2018-02-01T09:47:39+0100</time>
      </trkpt>
      <trkpt lat="47.17686" lon="4.95265">
        <ele>286.0910949707</ele>
        <time>2018-02-01T09:47:42+0100</time>
      </trkpt>
      <trkpt lat="47.17684" lon="4.95264">
        <ele>286.00680541992</ele>
        <time>2018-02-01T09:47:45+0100</time>
      </trkpt>
      <trkpt lat="47.17682" lon="4.95262">
        <ele>285.95550537109</ele>
        <time>2018-02-01T09:47:48+0100</time>
      </trkpt>
      <trkpt lat="47.1768" lon="4.9526">
        <ele>285.91143798828</ele>
        <time>2018-02-01T09:47:51+0100</time>
      </trkpt>
      <trkpt lat="47.17679" lon="4.95259">
        <ele>285.87152099609</ele>
        <time>2018-02-01T09:47:54+0100</time>
      </trkpt>
      <trkpt lat="47.17678" lon="4.95257">
        <ele>285.81155395508</ele>
        <time>2018-02-01T09:47:57+0100</time>
      </trkpt>
      <trkpt lat="47.17675" lon="4.95255">
        <ele>285.72540283203</ele>
        <time>2018-02-01T09:48:00+0100</time>
      </trkpt>
      <trkpt lat="47.17673" lon="4.95252">
        <ele>285.61538696289</ele>
        <time>2018-02-01T09:48:03+0100</time>
      </trkpt>
      <trkpt lat="47.1767" lon="4.9525">
        <ele>285.4914855957</ele>
        <time>2018-02-01T09:48:06+0100</time>
      </trkpt>
      <trkpt lat="47.17665" lon="4.95248">
        <ele>285.4365234375</ele>
        <time>2018-02-01T09:48:09+0100</time>
      </trkpt>
      <trkpt lat="47.1766" lon="4.95247">
        <ele>285.53890991211</ele>
        <time>2018-02-01T09:48:12+0100</time>
      </trkpt>
      <trkpt lat="47.17657" lon="4.95245">
        <ele>285.66586303711</ele>
        <time>2018-02-01T09:48:15+0100</time>
      </trkpt>
      <trkpt lat="47.17654" lon="4.95242">
        <ele>285.75387573242</ele>
        <time>2018-02-01T09:48:18+0100</time>
      </trkpt>
      <trkpt lat="47.17651" lon="4.9524">
        <ele>285.79946899414</ele>
        <time>2018-02-01T09:48:21+0100</time>
      </trkpt>
      <trkpt lat="47.17649" lon="4.95238">
        <ele>285.81979370117</ele>
        <time>2018-02-01T09:48:24+0100</time>
      </trkpt>
      <trkpt lat="47.17647" lon="4.95236">
        <ele>285.77255249023</ele>
        <time>2018-02-01T09:48:27+0100</time>
      </trkpt>
      <trkpt lat="47.17645" lon="4.95234">
        <ele>285.68273925781</ele>
        <time>2018-02-01T09:48:30+0100</time>
      </trkpt>
      <trkpt lat="47.17642" lon="4.95232">
        <ele>285.57806396484</ele>
        <time>2018-02-01T09:48:33+0100</time>
      </trkpt>
      <trkpt lat="47.1764" lon="4.9523">
        <ele>285.45864868164</ele>
        <time>2018-02-01T09:48:36+0100</time>
      </trkpt>
      <trkpt lat="47.17638" lon="4.95228">
        <ele>285.30953979492</ele>
        <time>2018-02-01T09:48:39+0100</time>
      </trkpt>
      <trkpt lat="47.17634" lon="4.95226">
        <ele>285.17837524414</ele>
        <time>2018-02-01T09:48:42+0100</time>
      </trkpt>
      <trkpt lat="47.17633" lon="4.95226">
        <ele>285.08724975586</ele>
        <time>2018-02-01T09:48:45+0100</time>
      </trkpt>
      <trkpt lat="47.17629" lon="4.95225">
        <ele>285.06674194336</ele>
        <time>2018-02-01T09:48:48+0100</time>
      </trkpt>
      <trkpt lat="47.17625" lon="4.95224">
        <ele>285.03558349609</ele>
        <time>2018-02-01T09:48:51+0100</time>
      </trkpt>
      <trkpt lat="47.17622" lon="4.95222">
        <ele>284.97268676758</ele>
        <time>2018-02-01T09:48:54+0100</time>
      </trkpt>
      <trkpt lat="47.17619" lon="4.95221">
        <ele>284.82965087891</ele>
        <time>2018-02-01T09:48:57+0100</time>
      </trkpt>
      <trkpt lat="47.17616" lon="4.95219">
        <ele>284.6194152832</ele>
        <time>2018-02-01T09:49:00+0100</time>
      </trkpt>
      <trkpt lat="47.17613" lon="4.95218">
        <ele>284.40447998047</ele>
        <time>2018-02-01T09:49:03+0100</time>
      </trkpt>
      <trkpt lat="47.17611" lon="4.95218">
        <ele>284.18557739258</ele>
        <time>2018-02-01T09:49:06+0100</time>
      </trkpt>
      <trkpt lat="47.17608" lon="4.95217">
        <ele>283.95639038086</ele>
        <time>2018-02-01T09:49:09+0100</time>
      </trkpt>
      <trkpt lat="47.17605" lon="4.95217">
        <ele>283.72021484375</ele>
        <time>2018-02-01T09:49:12+0100</time>
      </trkpt>
      <trkpt lat="47.17602" lon="4.95216">
        <ele>283.50357055664</ele>
        <time>2018-02-01T09:49:15+0100</time>
      </trkpt>
      <trkpt lat="47.17599" lon="4.95215">
        <ele>283.29684448242</ele>
        <time>2018-02-01T09:49:18+0100</time>
      </trkpt>
      <trkpt lat="47.17596" lon="4.95214">
        <ele>283.07675170898</ele>
        <time>2018-02-01T09:49:21+0100</time>
      </trkpt>
      <trkpt lat="47.17593" lon="4.95214">
        <ele>282.83413696289</ele>
        <time>2018-02-01T09:49:24+0100</time>
      </trkpt>
      <trkpt lat="47.1759" lon="4.95213">
        <ele>282.57904052734</ele>
        <time>2018-02-01T09:49:27+0100</time>
      </trkpt>
      <trkpt lat="47.17588" lon="4.95213">
        <ele>282.34359741211</ele>
        <time>2018-02-01T09:49:30+0100</time>
      </trkpt>
      <trkpt lat="47.17584" lon="4.95212">
        <ele>282.10836791992</ele>
        <time>2018-02-01T09:49:33+0100</time>
      </trkpt>
      <trkpt lat="47.17581" lon="4.95211">
        <ele>281.85583496094</ele>
        <time>2018-02-01T09:49:36+0100</time>
      </trkpt>
      <trkpt lat="47.17578" lon="4.95211">
        <ele>281.62673950195</ele>
        <time>2018-02-01T09:49:39+0100</time>
      </trkpt>
      <trkpt lat="47.17576" lon="4.95211">
        <ele>281.39083862305</ele>
        <time>2018-02-01T09:49:42+0100</time>
      </trkpt>
      <trkpt lat="47.17573" lon="4.9521">
        <ele>281.14706420898</ele>
        <time>2018-02-01T09:49:45+0100</time>
      </trkpt>
      <trkpt lat="47.17571" lon="4.9521">
        <ele>280.9736328125</ele>
        <time>2018-02-01T09:49:48+0100</time>
      </trkpt>
      <trkpt lat="47.17571" lon="4.9521">
        <ele>280.93869018555</ele>
        <time>2018-02-01T09:49:51+0100</time>
      </trkpt>
      <trkpt lat="47.17571" lon="4.9521">
        <ele>280.90142822266</ele>
        <time>2018-02-01T09:49:54+0100</time>
      </trkpt>
      <trkpt lat="47.17571" lon="4.9521">
        <ele>280.86557006836</ele>
        <time>2018-02-01T09:49:57+0100</time>
      </trkpt>
      <trkpt lat="47.17571" lon="4.9521">
        <ele>280.83160400391</ele>
        <time>2018-02-01T09:50:00+0100</time>
      </trkpt>
      <trkpt lat="47.1757" lon="4.95211">
        <ele>280.52713012695</ele>
        <time>2018-02-01T09:50:03+0100</time>
      </trkpt>
      <trkpt lat="47.17566" lon="4.9521">
        <ele>280.24322509766</ele>
        <time>2018-02-01T09:50:06+0100</time>
      </trkpt>
      <trkpt lat="47.17564" lon="4.9521">
        <ele>279.91918945312</ele>
        <time>2018-02-01T09:50:09+0100</time>
      </trkpt>
      <trkpt lat="47.17562" lon="4.9521">
        <ele>279.60470581055</ele>
        <time>2018-02-01T09:50:12+0100</time>
      </trkpt>
      <trkpt lat="47.17559" lon="4.95211">
        <ele>279.33184814453</ele>
        <time>2018-02-01T09:50:15+0100</time>
      </trkpt>
      <trkpt lat="47.17557" lon="4.95213">
        <ele>279.09823608398</ele>
        <time>2018-02-01T09:50:18+0100</time>
      </trkpt>
      <trkpt lat="47.17554" lon="4.95214">
        <ele>278.88214111328</ele>
        <time>2018-02-01T09:50:21+0100</time>
      </trkpt>
      <trkpt lat="47.17552" lon="4.95214">
        <ele>278.65521240234</ele>
        <time>2018-02-01T09:50:24+0100</time>
      </trkpt>
      <trkpt lat="47.1755" lon="4.95216">
        <ele>278.45434570312</ele>
        <time>2018-02-01T09:50:27+0100</time>
      </trkpt>
      <trkpt lat="47.17548" lon="4.95217">
        <ele>278.263671875</ele>
        <time>2018-02-01T09:50:30+0100</time>
      </trkpt>
      <trkpt lat="47.17546" lon="4.95219">
        <ele>278.09851074219</ele>
        <time>2018-02-01T09:50:33+0100</time>
      </trkpt>
      <trkpt lat="47.17544" lon="4.95221">
        <ele>277.93356323242</ele>
        <time>2018-02-01T09:50:36+0100</time>
      </trkpt>
      <trkpt lat="47.17542" lon="4.95224">
        <ele>277.77835083008</ele>
        <time>2018-02-01T09:50:39+0100</time>
      </trkpt>
      <trkpt lat="47.17539" lon="4.95228">
        <ele>277.60800170898</ele>
        <time>2018-02-01T09:50:42+0100</time>
      </trkpt>
      <trkpt lat="47.17537" lon="4.95231">
        <ele>277.39663696289</ele>
        <time>2018-02-01T09:50:45+0100</time>
      </trkpt>
      <trkpt lat="47.17536" lon="4.95234">
        <ele>277.18414306641</ele>
        <time>2018-02-01T09:50:48+0100</time>
      </trkpt>
      <trkpt lat="47.17534" lon="4.95239">
        <ele>276.97094726562</ele>
        <time>2018-02-01T09:50:51+0100</time>
      </trkpt>
      <trkpt lat="47.17534" lon="4.95241">
        <ele>276.74078369141</ele>
        <time>2018-02-01T09:50:54+0100</time>
      </trkpt>
      <trkpt lat="47.17533" lon="4.95243">
        <ele>276.54776000977</ele>
        <time>2018-02-01T09:50:57+0100</time>
      </trkpt>
      <trkpt lat="47.17532" lon="4.95246">
        <ele>276.39819335938</ele>
        <time>2018-02-01T09:51:00+0100</time>
      </trkpt>
      <trkpt lat="47.17531" lon="4.95249">
        <ele>276.2646484375</ele>
        <time>2018-02-01T09:51:03+0100</time>
      </trkpt>
      <trkpt lat="47.17529" lon="4.95252">
        <ele>276.1203918457</ele>
        <time>2018-02-01T09:51:06+0100</time>
      </trkpt>
      <trkpt lat="47.17527" lon="4.95257">
        <ele>275.96313476562</ele>
        <time>2018-02-01T09:51:09+0100</time>
      </trkpt>
      <trkpt lat="47.17526" lon="4.95259">
        <ele>275.78277587891</ele>
        <time>2018-02-01T09:51:12+0100</time>
      </trkpt>
      <trkpt lat="47.17524" lon="4.95262">
        <ele>275.60632324219</ele>
        <time>2018-02-01T09:51:15+0100</time>
      </trkpt>
      <trkpt lat="47.17522" lon="4.95265">
        <ele>275.43783569336</ele>
        <time>2018-02-01T09:51:18+0100</time>
      </trkpt>
      <trkpt lat="47.1752" lon="4.95268">
        <ele>275.22235107422</ele>
        <time>2018-02-01T09:51:21+0100</time>
      </trkpt>
      <trkpt lat="47.17518" lon="4.95271">
        <ele>274.94079589844</ele>
        <time>2018-02-01T09:51:24+0100</time>
      </trkpt>
      <trkpt lat="47.17516" lon="4.95275">
        <ele>274.65097045898</ele>
        <time>2018-02-01T09:51:27+0100</time>
      </trkpt>
      <trkpt lat="47.17513" lon="4.95278">
        <ele>274.3991394043</ele>
        <time>2018-02-01T09:51:30+0100</time>
      </trkpt>
      <trkpt lat="47.17512" lon="4.95283">
        <ele>274.1608581543</ele>
        <time>2018-02-01T09:51:33+0100</time>
      </trkpt>
      <trkpt lat="47.1751" lon="4.95286">
        <ele>273.97619628906</ele>
        <time>2018-02-01T09:51:36+0100</time>
      </trkpt>
      <trkpt lat="47.17507" lon="4.9529">
        <ele>273.77676391602</ele>
        <time>2018-02-01T09:51:39+0100</time>
      </trkpt>
      <trkpt lat="47.17505" lon="4.95295">
        <ele>273.60134887695</ele>
        <time>2018-02-01T09:51:42+0100</time>
      </trkpt>
      <trkpt lat="47.17502" lon="4.95299">
        <ele>273.40289306641</ele>
        <time>2018-02-01T09:51:45+0100</time>
      </trkpt>
      <trkpt lat="47.175" lon="4.95304">
        <ele>273.2194519043</ele>
        <time>2018-02-01T09:51:48+0100</time>
      </trkpt>
      <trkpt lat="47.17498" lon="4.95306">
        <ele>273.03106689453</ele>
        <time>2018-02-01T09:51:51+0100</time>
      </trkpt>
      <trkpt lat="47.17497" lon="4.95309">
        <ele>272.85385131836</ele>
        <time>2018-02-01T09:51:54+0100</time>
      </trkpt>
      <trkpt lat="47.17496" lon="4.95312">
        <ele>272.66159057617</ele>
        <time>2018-02-01T09:51:57+0100</time>
      </trkpt>
      <trkpt lat="47.17494" lon="4.95315">
        <ele>272.46231079102</ele>
        <time>2018-02-01T09:52:00+0100</time>
      </trkpt>
      <trkpt lat="47.17492" lon="4.95318">
        <ele>272.18951416016</ele>
        <time>2018-02-01T09:52:03+0100</time>
      </trkpt>
      <trkpt lat="47.1749" lon="4.9532">
        <ele>271.80746459961</ele>
        <time>2018-02-01T09:52:06+0100</time>
      </trkpt>
      <trkpt lat="47.17488" lon="4.95324">
        <ele>271.29531860352</ele>
        <time>2018-02-01T09:52:09+0100</time>
      </trkpt>
      <trkpt lat="47.17486" lon="4.95328">
        <ele>270.68569946289</ele>
        <time>2018-02-01T09:52:12+0100</time>
      </trkpt>
      <trkpt lat="47.17484" lon="4.95331">
        <ele>270.01092529297</ele>
        <time>2018-02-01T09:52:15+0100</time>
      </trkpt>
      <trkpt lat="47.17483" lon="4.95336">
        <ele>269.34170532227</ele>
        <time>2018-02-01T09:52:18+0100</time>
      </trkpt>
      <trkpt lat="47.17482" lon="4.95341">
        <ele>268.74780273438</ele>
        <time>2018-02-01T09:52:21+0100</time>
      </trkpt>
      <trkpt lat="47.17482" lon="4.95345">
        <ele>268.23373413086</ele>
        <time>2018-02-01T09:52:24+0100</time>
      </trkpt>
      <trkpt lat="47.17481" lon="4.95349">
        <ele>267.79156494141</ele>
        <time>2018-02-01T09:52:27+0100</time>
      </trkpt>
      <trkpt lat="47.1748" lon="4.95353">
        <ele>267.37814331055</ele>
        <time>2018-02-01T09:52:30+0100</time>
      </trkpt>
      <trkpt lat="47.1748" lon="4.95357">
        <ele>267.08087158203</ele>
        <time>2018-02-01T09:52:33+0100</time>
      </trkpt>
      <trkpt lat="47.17476" lon="4.9536">
        <ele>266.88101196289</ele>
        <time>2018-02-01T09:52:36+0100</time>
      </trkpt>
      <trkpt lat="47.17472" lon="4.95362">
        <ele>266.65682983398</ele>
        <time>2018-02-01T09:52:39+0100</time>
      </trkpt>
      <trkpt lat="47.17468" lon="4.95362">
        <ele>266.40310668945</ele>
        <time>2018-02-01T09:52:42+0100</time>
      </trkpt>
      <trkpt lat="47.17464" lon="4.95362">
        <ele>266.18096923828</ele>
        <time>2018-02-01T09:52:45+0100</time>
      </trkpt>
      <trkpt lat="47.17461" lon="4.95361">
        <ele>265.96124267578</ele>
        <time>2018-02-01T09:52:48+0100</time>
      </trkpt>
      <trkpt lat="47.17458" lon="4.95361">
        <ele>265.74182128906</ele>
        <time>2018-02-01T09:52:51+0100</time>
      </trkpt>
      <trkpt lat="47.17455" lon="4.95361">
        <ele>265.54177856445</ele>
        <time>2018-02-01T09:52:54+0100</time>
      </trkpt>
      <trkpt lat="47.17452" lon="4.95361">
        <ele>265.34356689453</ele>
        <time>2018-02-01T09:52:57+0100</time>
      </trkpt>
      <trkpt lat="47.17449" lon="4.9536">
        <ele>265.11779785156</ele>
        <time>2018-02-01T09:53:00+0100</time>
      </trkpt>
      <trkpt lat="47.17449" lon="4.9536">
        <ele>265.09393310547</ele>
        <time>2018-02-01T09:53:03+0100</time>
      </trkpt>
      <trkpt lat="47.17449" lon="4.9536">
        <ele>265.01016235352</ele>
        <time>2018-02-01T09:53:06+0100</time>
      </trkpt>
      <trkpt lat="47.17447" lon="4.9536">
        <ele>264.82180786133</ele>
        <time>2018-02-01T09:53:09+0100</time>
      </trkpt>
      <trkpt lat="47.17445" lon="4.9536">
        <ele>264.5989074707</ele>
        <time>2018-02-01T09:53:12+0100</time>
      </trkpt>
      <trkpt lat="47.17445" lon="4.9536">
        <ele>264.46624755859</ele>
        <time>2018-02-01T09:53:15+0100</time>
      </trkpt>
      <trkpt lat="47.17445" lon="4.9536">
        <ele>264.45404052734</ele>
        <time>2018-02-01T09:53:18+0100</time>
      </trkpt>
      <trkpt lat="47.17445" lon="4.9536">
        <ele>264.44125366211</ele>
        <time>2018-02-01T09:53:21+0100</time>
      </trkpt>
      <trkpt lat="47.17444" lon="4.9536">
        <ele>264.3678894043</ele>
        <time>2018-02-01T09:53:24+0100</time>
      </trkpt>
      <trkpt lat="47.17443" lon="4.9536">
        <ele>264.33108520508</ele>
        <time>2018-02-01T09:53:27+0100</time>
      </trkpt>
      <trkpt lat="47.17443" lon="4.9536">
        <ele>264.33578491211</ele>
        <time>2018-02-01T09:53:30+0100</time>
      </trkpt>
      <trkpt lat="47.17443" lon="4.9536">
        <ele>264.38656616211</ele>
        <time>2018-02-01T09:53:33+0100</time>
      </trkpt>
      <trkpt lat="47.17442" lon="4.9536">
        <ele>264.52374267578</ele>
        <time>2018-02-01T09:53:36+0100</time>
      </trkpt>
      <trkpt lat="47.17439" lon="4.95359">
        <ele>264.58169555664</ele>
        <time>2018-02-01T09:53:39+0100</time>
      </trkpt>
      <trkpt lat="47.17436" lon="4.95358">
        <ele>264.55166625977</ele>
        <time>2018-02-01T09:53:42+0100</time>
      </trkpt>
      <trkpt lat="47.17433" lon="4.95358">
        <ele>264.48522949219</ele>
        <time>2018-02-01T09:53:45+0100</time>
      </trkpt>
      <trkpt lat="47.17429" lon="4.95357">
        <ele>264.44592285156</ele>
        <time>2018-02-01T09:53:48+0100</time>
      </trkpt>
      <trkpt lat="47.17428" lon="4.95357">
        <ele>264.42498779297</ele>
        <time>2018-02-01T09:53:51+0100</time>
      </trkpt>
      <trkpt lat="47.17424" lon="4.95358">
        <ele>264.47125244141</ele>
        <time>2018-02-01T09:53:54+0100</time>
      </trkpt>
      <trkpt lat="47.17421" lon="4.95358">
        <ele>264.53506469727</ele>
        <time>2018-02-01T09:53:57+0100</time>
      </trkpt>
      <trkpt lat="47.17418" lon="4.95358">
        <ele>264.59451293945</ele>
        <time>2018-02-01T09:54:00+0100</time>
      </trkpt>
      <trkpt lat="47.17415" lon="4.95357">
        <ele>264.63320922852</ele>
        <time>2018-02-01T09:54:03+0100</time>
      </trkpt>
      <trkpt lat="47.17412" lon="4.95357">
        <ele>264.63949584961</ele>
        <time>2018-02-01T09:54:06+0100</time>
      </trkpt>
      <trkpt lat="47.17409" lon="4.95356">
        <ele>264.62329101562</ele>
        <time>2018-02-01T09:54:09+0100</time>
      </trkpt>
      <trkpt lat="47.17406" lon="4.95356">
        <ele>264.62115478516</ele>
        <time>2018-02-01T09:54:12+0100</time>
      </trkpt>
      <trkpt lat="47.17403" lon="4.95355">
        <ele>264.66058349609</ele>
        <time>2018-02-01T09:54:15+0100</time>
      </trkpt>
      <trkpt lat="47.174" lon="4.95354">
        <ele>264.74111938477</ele>
        <time>2018-02-01T09:54:18+0100</time>
      </trkpt>
      <trkpt lat="47.17397" lon="4.95354">
        <ele>264.82235717773</ele>
        <time>2018-02-01T09:54:21+0100</time>
      </trkpt>
      <trkpt lat="47.17395" lon="4.95353">
        <ele>264.916015625</ele>
        <time>2018-02-01T09:54:24+0100</time>
      </trkpt>
      <trkpt lat="47.17391" lon="4.95352">
        <ele>265.02059936523</ele>
        <time>2018-02-01T09:54:27+0100</time>
      </trkpt>
      <trkpt lat="47.17389" lon="4.9535">
        <ele>265.09381103516</ele>
        <time>2018-02-01T09:54:30+0100</time>
      </trkpt>
      <trkpt lat="47.17387" lon="4.95349">
        <ele>265.13467407227</ele>
        <time>2018-02-01T09:54:33+0100</time>
      </trkpt>
      <trkpt lat="47.17382" lon="4.95347">
        <ele>265.13754272461</ele>
        <time>2018-02-01T09:54:36+0100</time>
      </trkpt>
      <trkpt lat="47.17379" lon="4.95344">
        <ele>265.10488891602</ele>
        <time>2018-02-01T09:54:39+0100</time>
      </trkpt>
      <trkpt lat="47.17376" lon="4.95341">
        <ele>265.01742553711</ele>
        <time>2018-02-01T09:54:42+0100</time>
      </trkpt>
      <trkpt lat="47.17373" lon="4.95338">
        <ele>264.92816162109</ele>
        <time>2018-02-01T09:54:45+0100</time>
      </trkpt>
      <trkpt lat="47.1737" lon="4.95336">
        <ele>264.84368896484</ele>
        <time>2018-02-01T09:54:48+0100</time>
      </trkpt>
      <trkpt lat="47.17368" lon="4.95335">
        <ele>264.80731201172</ele>
        <time>2018-02-01T09:54:51+0100</time>
      </trkpt>
      <trkpt lat="47.17366" lon="4.95333">
        <ele>264.82843017578</ele>
        <time>2018-02-01T09:54:54+0100</time>
      </trkpt>
      <trkpt lat="47.17364" lon="4.95332">
        <ele>264.87869262695</ele>
        <time>2018-02-01T09:54:57+0100</time>
      </trkpt>
      <trkpt lat="47.17363" lon="4.95331">
        <ele>264.95751953125</ele>
        <time>2018-02-01T09:55:00+0100</time>
      </trkpt>
      <trkpt lat="47.1736" lon="4.95329">
        <ele>265.05709838867</ele>
        <time>2018-02-01T09:55:03+0100</time>
      </trkpt>
      <trkpt lat="47.17356" lon="4.95328">
        <ele>265.1565246582</ele>
        <time>2018-02-01T09:55:06+0100</time>
      </trkpt>
      <trkpt lat="47.17353" lon="4.95326">
        <ele>265.24404907227</ele>
        <time>2018-02-01T09:55:09+0100</time>
      </trkpt>
      <trkpt lat="47.1735" lon="4.95325">
        <ele>265.32727050781</ele>
        <time>2018-02-01T09:55:12+0100</time>
      </trkpt>
      <trkpt lat="47.17346" lon="4.95323">
        <ele>265.4143371582</ele>
        <time>2018-02-01T09:55:15+0100</time>
      </trkpt>
      <trkpt lat="47.17343" lon="4.95323">
        <ele>265.51287841797</ele>
        <time>2018-02-01T09:55:18+0100</time>
      </trkpt>
      <trkpt lat="47.1734" lon="4.95321">
        <ele>265.63702392578</ele>
        <time>2018-02-01T09:55:21+0100</time>
      </trkpt>
      <trkpt lat="47.17337" lon="4.9532">
        <ele>265.79455566406</ele>
        <time>2018-02-01T09:55:24+0100</time>
      </trkpt>
      <trkpt lat="47.17334" lon="4.95318">
        <ele>265.93661499023</ele>
        <time>2018-02-01T09:55:27+0100</time>
      </trkpt>
      <trkpt lat="47.17332" lon="4.95316">
        <ele>266.07009887695</ele>
        <time>2018-02-01T09:55:30+0100</time>
      </trkpt>
      <trkpt lat="47.1733" lon="4.95315">
        <ele>266.20303344727</ele>
        <time>2018-02-01T09:55:33+0100</time>
      </trkpt>
      <trkpt lat="47.1733" lon="4.95315">
        <ele>266.21762084961</ele>
        <time>2018-02-01T09:55:36+0100</time>
      </trkpt>
      <trkpt lat="47.1733" lon="4.95315">
        <ele>266.28042602539</ele>
        <time>2018-02-01T09:55:39+0100</time>
      </trkpt>
      <trkpt lat="47.17328" lon="4.95315">
        <ele>266.45526123047</ele>
        <time>2018-02-01T09:55:42+0100</time>
      </trkpt>
      <trkpt lat="47.17327" lon="4.95316">
        <ele>266.47244262695</ele>
        <time>2018-02-01T09:55:45+0100</time>
      </trkpt>
      <trkpt lat="47.17327" lon="4.95316">
        <ele>266.57302856445</ele>
        <time>2018-02-01T09:55:48+0100</time>
      </trkpt>
      <trkpt lat="47.17326" lon="4.95316">
        <ele>266.75262451172</ele>
        <time>2018-02-01T09:55:51+0100</time>
      </trkpt>
      <trkpt lat="47.17326" lon="4.95316">
        <ele>266.76849365234</ele>
        <time>2018-02-01T09:55:54+0100</time>
      </trkpt>
      <trkpt lat="47.17326" lon="4.95316">
        <ele>266.78128051758</ele>
        <time>2018-02-01T09:55:57+0100</time>
      </trkpt>
      <trkpt lat="47.17326" lon="4.95316">
        <ele>266.79144287109</ele>
        <time>2018-02-01T09:56:00+0100</time>
      </trkpt>
      <trkpt lat="47.17326" lon="4.95316">
        <ele>266.80072021484</ele>
        <time>2018-02-01T09:56:03+0100</time>
      </trkpt>
      <trkpt lat="47.17326" lon="4.95316">
        <ele>266.80953979492</ele>
        <time>2018-02-01T09:56:06+0100</time>
      </trkpt>
      <trkpt lat="47.17326" lon="4.95316">
        <ele>266.80963134766</ele>
        <time>2018-02-01T09:56:09+0100</time>
      </trkpt>
      <trkpt lat="47.17326" lon="4.95316">
        <ele>266.81103515625</ele>
        <time>2018-02-01T09:56:12+0100</time>
      </trkpt>
      <trkpt lat="47.17326" lon="4.95316">
        <ele>266.81393432617</ele>
        <time>2018-02-01T09:56:15+0100</time>
      </trkpt>
      <trkpt lat="47.17325" lon="4.95316">
        <ele>266.81793212891</ele>
        <time>2018-02-01T09:56:18+0100</time>
      </trkpt>
      <trkpt lat="47.17326" lon="4.95315">
        <ele>266.83227539062</ele>
        <time>2018-02-01T09:56:21+0100</time>
      </trkpt>
      <trkpt lat="47.17327" lon="4.95314">
        <ele>266.82342529297</ele>
        <time>2018-02-01T09:56:24+0100</time>
      </trkpt>
      <trkpt lat="47.17327" lon="4.95314">
        <ele>266.81204223633</ele>
        <time>2018-02-01T09:56:27+0100</time>
      </trkpt>
      <trkpt lat="47.17327" lon="4.95315">
        <ele>266.80313110352</ele>
        <time>2018-02-01T09:56:30+0100</time>
      </trkpt>
      <trkpt lat="47.17327" lon="4.95314">
        <ele>266.7939453125</ele>
        <time>2018-02-01T09:56:33+0100</time>
      </trkpt>
      <trkpt lat="47.17327" lon="4.95314">
        <ele>266.78219604492</ele>
        <time>2018-02-01T09:56:36+0100</time>
      </trkpt>
      <trkpt lat="47.17327" lon="4.95315">
        <ele>266.77124023438</ele>
        <time>2018-02-01T09:56:39+0100</time>
      </trkpt>
      <trkpt lat="47.17327" lon="4.95315">
        <ele>266.76455688477</ele>
        <time>2018-02-01T09:56:42+0100</time>
      </trkpt>
      <trkpt lat="47.17327" lon="4.95315">
        <ele>266.75952148438</ele>
        <time>2018-02-01T09:56:45+0100</time>
      </trkpt>
      <trkpt lat="47.17326" lon="4.95315">
        <ele>266.75463867188</ele>
        <time>2018-02-01T09:56:48+0100</time>
      </trkpt>
      <trkpt lat="47.17326" lon="4.95314">
        <ele>266.74859619141</ele>
        <time>2018-02-01T09:56:51+0100</time>
      </trkpt>
      <trkpt lat="47.17324" lon="4.95312">
        <ele>266.69873046875</ele>
        <time>2018-02-01T09:56:54+0100</time>
      </trkpt>
      <trkpt lat="47.17324" lon="4.9531">
        <ele>266.71353149414</ele>
        <time>2018-02-01T09:56:57+0100</time>
      </trkpt>
      <trkpt lat="47.17325" lon="4.95305">
        <ele>266.7434387207</ele>
        <time>2018-02-01T09:57:00+0100</time>
      </trkpt>
      <trkpt lat="47.17326" lon="4.953">
        <ele>266.7434387207</ele>
        <time>2018-02-01T09:57:03+0100</time>
      </trkpt>
      <trkpt lat="47.17326" lon="4.95296">
        <ele>266.70989990234</ele>
        <time>2018-02-01T09:57:06+0100</time>
      </trkpt>
      <trkpt lat="47.17326" lon="4.95292">
        <ele>266.67596435547</ele>
        <time>2018-02-01T09:57:09+0100</time>
      </trkpt>
      <trkpt lat="47.17326" lon="4.95288">
        <ele>266.63806152344</ele>
        <time>2018-02-01T09:57:12+0100</time>
      </trkpt>
      <trkpt lat="47.17326" lon="4.95283">
        <ele>266.62271118164</ele>
        <time>2018-02-01T09:57:15+0100</time>
      </trkpt>
      <trkpt lat="47.17326" lon="4.95279">
        <ele>266.61053466797</ele>
        <time>2018-02-01T09:57:18+0100</time>
      </trkpt>
      <trkpt lat="47.17326" lon="4.95274">
        <ele>266.60513305664</ele>
        <time>2018-02-01T09:57:21+0100</time>
      </trkpt>
      <trkpt lat="47.17325" lon="4.9527">
        <ele>266.63345336914</ele>
        <time>2018-02-01T09:57:24+0100</time>
      </trkpt>
      <trkpt lat="47.17325" lon="4.95265">
        <ele>266.68560791016</ele>
        <time>2018-02-01T09:57:27+0100</time>
      </trkpt>
      <trkpt lat="47.17325" lon="4.95261">
        <ele>266.7565612793</ele>
        <time>2018-02-01T09:57:30+0100</time>
      </trkpt>
      <trkpt lat="47.17325" lon="4.95257">
        <ele>266.82659912109</ele>
        <time>2018-02-01T09:57:33+0100</time>
      </trkpt>
      <trkpt lat="47.17325" lon="4.95252">
        <ele>266.88973999023</ele>
        <time>2018-02-01T09:57:36+0100</time>
      </trkpt>
      <trkpt lat="47.17324" lon="4.95247">
        <ele>266.93466186523</ele>
        <time>2018-02-01T09:57:39+0100</time>
      </trkpt>
      <trkpt lat="47.17323" lon="4.95242">
        <ele>266.99624633789</ele>
        <time>2018-02-01T09:57:42+0100</time>
      </trkpt>
      <trkpt lat="47.17322" lon="4.95238">
        <ele>267.07965087891</ele>
        <time>2018-02-01T09:57:45+0100</time>
      </trkpt>
      <trkpt lat="47.17322" lon="4.95233">
        <ele>267.17987060547</ele>
        <time>2018-02-01T09:57:48+0100</time>
      </trkpt>
      <trkpt lat="47.17321" lon="4.95229">
        <ele>267.27908325195</ele>
        <time>2018-02-01T09:57:51+0100</time>
      </trkpt>
      <trkpt lat="47.1732" lon="4.95225">
        <ele>267.39584350586</ele>
        <time>2018-02-01T09:57:54+0100</time>
      </trkpt>
      <trkpt lat="47.1732" lon="4.9522">
        <ele>267.5283203125</ele>
        <time>2018-02-01T09:57:57+0100</time>
      </trkpt>
      <trkpt lat="47.1732" lon="4.95216">
        <ele>267.65609741211</ele>
        <time>2018-02-01T09:58:00+0100</time>
      </trkpt>
      <trkpt lat="47.17319" lon="4.95211">
        <ele>267.76290893555</ele>
        <time>2018-02-01T09:58:03+0100</time>
      </trkpt>
      <trkpt lat="47.17318" lon="4.95207">
        <ele>267.87350463867</ele>
        <time>2018-02-01T09:58:06+0100</time>
      </trkpt>
      <trkpt lat="47.17318" lon="4.95203">
        <ele>267.98425292969</ele>
        <time>2018-02-01T09:58:09+0100</time>
      </trkpt>
      <trkpt lat="47.17317" lon="4.95199">
        <ele>268.08969116211</ele>
        <time>2018-02-01T09:58:12+0100</time>
      </trkpt>
      <trkpt lat="47.17317" lon="4.95195">
        <ele>268.1985168457</ele>
        <time>2018-02-01T09:58:15+0100</time>
      </trkpt>
      <trkpt lat="47.17316" lon="4.95191">
        <ele>268.31146240234</ele>
        <time>2018-02-01T09:58:18+0100</time>
      </trkpt>
      <trkpt lat="47.17315" lon="4.95187">
        <ele>268.44116210938</ele>
        <time>2018-02-01T09:58:21+0100</time>
      </trkpt>
      <trkpt lat="47.17315" lon="4.95184">
        <ele>268.58728027344</ele>
        <time>2018-02-01T09:58:24+0100</time>
      </trkpt>
      <trkpt lat="47.17314" lon="4.9518">
        <ele>268.73284912109</ele>
        <time>2018-02-01T09:58:27+0100</time>
      </trkpt>
      <trkpt lat="47.17313" lon="4.95177">
        <ele>268.90032958984</ele>
        <time>2018-02-01T09:58:30+0100</time>
      </trkpt>
      <trkpt lat="47.17313" lon="4.95173">
        <ele>269.06253051758</ele>
        <time>2018-02-01T09:58:33+0100</time>
      </trkpt>
      <trkpt lat="47.17313" lon="4.95169">
        <ele>269.20849609375</ele>
        <time>2018-02-01T09:58:36+0100</time>
      </trkpt>
      <trkpt lat="47.17312" lon="4.95166">
        <ele>269.31094360352</ele>
        <time>2018-02-01T09:58:39+0100</time>
      </trkpt>
      <trkpt lat="47.17312" lon="4.95162">
        <ele>269.39508056641</ele>
        <time>2018-02-01T09:58:42+0100</time>
      </trkpt>
      <trkpt lat="47.1731" lon="4.95158">
        <ele>269.49160766602</ele>
        <time>2018-02-01T09:58:45+0100</time>
      </trkpt>
      <trkpt lat="47.17309" lon="4.95155">
        <ele>269.60626220703</ele>
        <time>2018-02-01T09:58:49+0100</time>
      </trkpt>
      <trkpt lat="47.17309" lon="4.95151">
        <ele>269.72320556641</ele>
        <time>2018-02-01T09:58:52+0100</time>
      </trkpt>
      <trkpt lat="47.17308" lon="4.95148">
        <ele>269.84286499023</ele>
        <time>2018-02-01T09:58:55+0100</time>
      </trkpt>
      <trkpt lat="47.17308" lon="4.95144">
        <ele>269.95098876953</ele>
        <time>2018-02-01T09:58:58+0100</time>
      </trkpt>
      <trkpt lat="47.17307" lon="4.9514">
        <ele>270.07369995117</ele>
        <time>2018-02-01T09:59:01+0100</time>
      </trkpt>
      <trkpt lat="47.17306" lon="4.95136">
        <ele>270.19943237305</ele>
        <time>2018-02-01T09:59:04+0100</time>
      </trkpt>
      <trkpt lat="47.17305" lon="4.95132">
        <ele>270.33511352539</ele>
        <time>2018-02-01T09:59:07+0100</time>
      </trkpt>
      <trkpt lat="47.17305" lon="4.95129">
        <ele>270.49047851562</ele>
        <time>2018-02-01T09:59:10+0100</time>
      </trkpt>
      <trkpt lat="47.17304" lon="4.95124">
        <ele>270.62515258789</ele>
        <time>2018-02-01T09:59:13+0100</time>
      </trkpt>
      <trkpt lat="47.17303" lon="4.95122">
        <ele>270.79998779297</ele>
        <time>2018-02-01T09:59:16+0100</time>
      </trkpt>
      <trkpt lat="47.17303" lon="4.95118">
        <ele>271.02563476562</ele>
        <time>2018-02-01T09:59:19+0100</time>
      </trkpt>
      <trkpt lat="47.17303" lon="4.95114">
        <ele>271.27487182617</ele>
        <time>2018-02-01T09:59:22+0100</time>
      </trkpt>
      <trkpt lat="47.17303" lon="4.9511">
        <ele>271.49356079102</ele>
        <time>2018-02-01T09:59:25+0100</time>
      </trkpt>
      <trkpt lat="47.17304" lon="4.95106">
        <ele>271.68670654297</ele>
        <time>2018-02-01T09:59:28+0100</time>
      </trkpt>
      <trkpt lat="47.17304" lon="4.95101">
        <ele>271.86032104492</ele>
        <time>2018-02-01T09:59:31+0100</time>
      </trkpt>
      <trkpt lat="47.17305" lon="4.95098">
        <ele>272.02206420898</ele>
        <time>2018-02-01T09:59:34+0100</time>
      </trkpt>
      <trkpt lat="47.17305" lon="4.95095">
        <ele>272.16186523438</ele>
        <time>2018-02-01T09:59:37+0100</time>
      </trkpt>
      <trkpt lat="47.17306" lon="4.95092">
        <ele>272.23141479492</ele>
        <time>2018-02-01T09:59:40+0100</time>
      </trkpt>
      <trkpt lat="47.17307" lon="4.95088">
        <ele>272.27786254883</ele>
        <time>2018-02-01T09:59:43+0100</time>
      </trkpt>
      <trkpt lat="47.17308" lon="4.95082">
        <ele>272.34091186523</ele>
        <time>2018-02-01T09:59:46+0100</time>
      </trkpt>
      <trkpt lat="47.1731" lon="4.95077">
        <ele>272.33877563477</ele>
        <time>2018-02-01T09:59:49+0100</time>
      </trkpt>
      <trkpt lat="47.17311" lon="4.95073">
        <ele>272.3115234375</ele>
        <time>2018-02-01T09:59:52+0100</time>
      </trkpt>
      <trkpt lat="47.17312" lon="4.95069">
        <ele>272.28948974609</ele>
        <time>2018-02-01T09:59:55+0100</time>
      </trkpt>
      <trkpt lat="47.17313" lon="4.95065">
        <ele>272.30807495117</ele>
        <time>2018-02-01T09:59:58+0100</time>
      </trkpt>
      <trkpt lat="47.17314" lon="4.95061">
        <ele>272.32662963867</ele>
        <time>2018-02-01T10:00:01+0100</time>
      </trkpt>
      <trkpt lat="47.17315" lon="4.95057">
        <ele>272.34408569336</ele>
        <time>2018-02-01T10:00:04+0100</time>
      </trkpt>
      <trkpt lat="47.17316" lon="4.95053">
        <ele>272.36456298828</ele>
        <time>2018-02-01T10:00:07+0100</time>
      </trkpt>
      <trkpt lat="47.17316" lon="4.95048">
        <ele>272.3740234375</ele>
        <time>2018-02-01T10:00:10+0100</time>
      </trkpt>
      <trkpt lat="47.17317" lon="4.95045">
        <ele>272.37515258789</ele>
        <time>2018-02-01T10:00:13+0100</time>
      </trkpt>
      <trkpt lat="47.17317" lon="4.9504">
        <ele>272.37838745117</ele>
        <time>2018-02-01T10:00:16+0100</time>
      </trkpt>
      <trkpt lat="47.17318" lon="4.95035">
        <ele>272.37289428711</ele>
        <time>2018-02-01T10:00:19+0100</time>
      </trkpt>
      <trkpt lat="47.17318" lon="4.95031">
        <ele>272.36660766602</ele>
        <time>2018-02-01T10:00:22+0100</time>
      </trkpt>
      <trkpt lat="47.17318" lon="4.95028">
        <ele>272.36856079102</ele>
        <time>2018-02-01T10:00:25+0100</time>
      </trkpt>
      <trkpt lat="47.17318" lon="4.95024">
        <ele>272.38067626953</ele>
        <time>2018-02-01T10:00:28+0100</time>
      </trkpt>
      <trkpt lat="47.17318" lon="4.9502">
        <ele>272.38891601562</ele>
        <time>2018-02-01T10:00:31+0100</time>
      </trkpt>
      <trkpt lat="47.17318" lon="4.95015">
        <ele>272.40673828125</ele>
        <time>2018-02-01T10:00:34+0100</time>
      </trkpt>
      <trkpt lat="47.17317" lon="4.9501">
        <ele>272.4462890625</ele>
        <time>2018-02-01T10:00:37+0100</time>
      </trkpt>
      <trkpt lat="47.17317" lon="4.95007">
        <ele>272.47509765625</ele>
        <time>2018-02-01T10:00:40+0100</time>
      </trkpt>
      <trkpt lat="47.17316" lon="4.95004">
        <ele>272.48278808594</ele>
        <time>2018-02-01T10:00:43+0100</time>
      </trkpt>
      <trkpt lat="47.17315" lon="4.95001">
        <ele>272.47653198242</ele>
        <time>2018-02-01T10:00:46+0100</time>
      </trkpt>
      <trkpt lat="47.17312" lon="4.94998">
        <ele>272.45761108398</ele>
        <time>2018-02-01T10:00:49+0100</time>
      </trkpt>
      <trkpt lat="47.1731" lon="4.94997">
        <ele>272.48568725586</ele>
        <time>2018-02-01T10:00:52+0100</time>
      </trkpt>
      <trkpt lat="47.17307" lon="4.94994">
        <ele>272.56677246094</ele>
        <time>2018-02-01T10:00:55+0100</time>
      </trkpt>
      <trkpt lat="47.17304" lon="4.94992">
        <ele>272.70425415039</ele>
        <time>2018-02-01T10:00:58+0100</time>
      </trkpt>
      <trkpt lat="47.17302" lon="4.94991">
        <ele>272.84622192383</ele>
        <time>2018-02-01T10:01:01+0100</time>
      </trkpt>
      <trkpt lat="47.17299" lon="4.94989">
        <ele>272.9873046875</ele>
        <time>2018-02-01T10:01:04+0100</time>
      </trkpt>
      <trkpt lat="47.17295" lon="4.94987">
        <ele>273.14343261719</ele>
        <time>2018-02-01T10:01:07+0100</time>
      </trkpt>
      <trkpt lat="47.17292" lon="4.94984">
        <ele>273.2746887207</ele>
        <time>2018-02-01T10:01:10+0100</time>
      </trkpt>
      <trkpt lat="47.17288" lon="4.94982">
        <ele>273.28796386719</ele>
        <time>2018-02-01T10:01:13+0100</time>
      </trkpt>
      <trkpt lat="47.17285" lon="4.9498">
        <ele>273.24673461914</ele>
        <time>2018-02-01T10:01:16+0100</time>
      </trkpt>
      <trkpt lat="47.17283" lon="4.94978">
        <ele>273.18713378906</ele>
        <time>2018-02-01T10:01:19+0100</time>
      </trkpt>
      <trkpt lat="47.1728" lon="4.94975">
        <ele>273.09854125977</ele>
        <time>2018-02-01T10:01:22+0100</time>
      </trkpt>
      <trkpt lat="47.17278" lon="4.94973">
        <ele>273.05932617188</ele>
        <time>2018-02-01T10:01:25+0100</time>
      </trkpt>
      <trkpt lat="47.17275" lon="4.9497">
        <ele>273.07522583008</ele>
        <time>2018-02-01T10:01:28+0100</time>
      </trkpt>
      <trkpt lat="47.17273" lon="4.94968">
        <ele>273.09408569336</ele>
        <time>2018-02-01T10:01:31+0100</time>
      </trkpt>
      <trkpt lat="47.17271" lon="4.94965">
        <ele>273.13400268555</ele>
        <time>2018-02-01T10:01:34+0100</time>
      </trkpt>
      <trkpt lat="47.17269" lon="4.94962">
        <ele>273.17651367188</ele>
        <time>2018-02-01T10:01:37+0100</time>
      </trkpt>
      <trkpt lat="47.1727" lon="4.94956">
        <ele>273.23461914062</ele>
        <time>2018-02-01T10:01:40+0100</time>
      </trkpt>
      <trkpt lat="47.1727" lon="4.94952">
        <ele>273.33352661133</ele>
        <time>2018-02-01T10:01:43+0100</time>
      </trkpt>
      <trkpt lat="47.17269" lon="4.94948">
        <ele>273.41189575195</ele>
        <time>2018-02-01T10:01:46+0100</time>
      </trkpt>
      <trkpt lat="47.17268" lon="4.94944">
        <ele>273.50521850586</ele>
        <time>2018-02-01T10:01:49+0100</time>
      </trkpt>
      <trkpt lat="47.17267" lon="4.9494">
        <ele>273.62466430664</ele>
        <time>2018-02-01T10:01:52+0100</time>
      </trkpt>
      <trkpt lat="47.17267" lon="4.94936">
        <ele>273.76837158203</ele>
        <time>2018-02-01T10:01:55+0100</time>
      </trkpt>
      <trkpt lat="47.17266" lon="4.94932">
        <ele>273.89370727539</ele>
        <time>2018-02-01T10:01:58+0100</time>
      </trkpt>
      <trkpt lat="47.17264" lon="4.94928">
        <ele>274.04690551758</ele>
        <time>2018-02-01T10:02:01+0100</time>
      </trkpt>
      <trkpt lat="47.17264" lon="4.94924">
        <ele>274.2724609375</ele>
        <time>2018-02-01T10:02:04+0100</time>
      </trkpt>
      <trkpt lat="47.17262" lon="4.9492">
        <ele>274.4850769043</ele>
        <time>2018-02-01T10:02:07+0100</time>
      </trkpt>
      <trkpt lat="47.17261" lon="4.94917">
        <ele>274.70333862305</ele>
        <time>2018-02-01T10:02:10+0100</time>
      </trkpt>
      <trkpt lat="47.17259" lon="4.94913">
        <ele>274.97766113281</ele>
        <time>2018-02-01T10:02:13+0100</time>
      </trkpt>
      <trkpt lat="47.17258" lon="4.9491">
        <ele>275.27215576172</ele>
        <time>2018-02-01T10:02:16+0100</time>
      </trkpt>
      <trkpt lat="47.17255" lon="4.94907">
        <ele>275.60479736328</ele>
        <time>2018-02-01T10:02:19+0100</time>
      </trkpt>
      <trkpt lat="47.17252" lon="4.94904">
        <ele>275.92916870117</ele>
        <time>2018-02-01T10:02:22+0100</time>
      </trkpt>
      <trkpt lat="47.1725" lon="4.94901">
        <ele>276.21575927734</ele>
        <time>2018-02-01T10:02:25+0100</time>
      </trkpt>
      <trkpt lat="47.17249" lon="4.94899">
        <ele>276.48461914062</ele>
        <time>2018-02-01T10:02:28+0100</time>
      </trkpt>
      <trkpt lat="47.17246" lon="4.94896">
        <ele>276.71151733398</ele>
        <time>2018-02-01T10:02:31+0100</time>
      </trkpt>
      <trkpt lat="47.17244" lon="4.94893">
        <ele>276.91598510742</ele>
        <time>2018-02-01T10:02:34+0100</time>
      </trkpt>
      <trkpt lat="47.17242" lon="4.94891">
        <ele>277.10998535156</ele>
        <time>2018-02-01T10:02:37+0100</time>
      </trkpt>
      <trkpt lat="47.17239" lon="4.94889">
        <ele>277.30871582031</ele>
        <time>2018-02-01T10:02:40+0100</time>
      </trkpt>
      <trkpt lat="47.17236" lon="4.94885">
        <ele>277.54174804688</ele>
        <time>2018-02-01T10:02:43+0100</time>
      </trkpt>
      <trkpt lat="47.17235" lon="4.94884">
        <ele>277.81057739258</ele>
        <time>2018-02-01T10:02:46+0100</time>
      </trkpt>
      <trkpt lat="47.17232" lon="4.94882">
        <ele>278.11904907227</ele>
        <time>2018-02-01T10:02:49+0100</time>
      </trkpt>
      <trkpt lat="47.17229" lon="4.9488">
        <ele>278.41430664062</ele>
        <time>2018-02-01T10:02:52+0100</time>
      </trkpt>
      <trkpt lat="47.17227" lon="4.94878">
        <ele>278.69772338867</ele>
        <time>2018-02-01T10:02:55+0100</time>
      </trkpt>
      <trkpt lat="47.17225" lon="4.94876">
        <ele>278.98904418945</ele>
        <time>2018-02-01T10:02:58+0100</time>
      </trkpt>
      <trkpt lat="47.17223" lon="4.94874">
        <ele>279.23608398438</ele>
        <time>2018-02-01T10:03:01+0100</time>
      </trkpt>
      <trkpt lat="47.17221" lon="4.94871">
        <ele>279.45208740234</ele>
        <time>2018-02-01T10:03:04+0100</time>
      </trkpt>
      <trkpt lat="47.17219" lon="4.94869">
        <ele>279.6716003418</ele>
        <time>2018-02-01T10:03:07+0100</time>
      </trkpt>
      <trkpt lat="47.17215" lon="4.94868">
        <ele>279.90185546875</ele>
        <time>2018-02-01T10:03:10+0100</time>
      </trkpt>
      <trkpt lat="47.17212" lon="4.94866">
        <ele>280.15435791016</ele>
        <time>2018-02-01T10:03:13+0100</time>
      </trkpt>
      <trkpt lat="47.17208" lon="4.94865">
        <ele>280.36688232422</ele>
        <time>2018-02-01T10:03:16+0100</time>
      </trkpt>
      <trkpt lat="47.17203" lon="4.94867">
        <ele>280.4787902832</ele>
        <time>2018-02-01T10:03:19+0100</time>
      </trkpt>
      <trkpt lat="47.17199" lon="4.94866">
        <ele>280.52087402344</ele>
        <time>2018-02-01T10:03:22+0100</time>
      </trkpt>
      <trkpt lat="47.17196" lon="4.94866">
        <ele>280.49957275391</ele>
        <time>2018-02-01T10:03:25+0100</time>
      </trkpt>
      <trkpt lat="47.17193" lon="4.94866">
        <ele>280.46377563477</ele>
        <time>2018-02-01T10:03:28+0100</time>
      </trkpt>
      <trkpt lat="47.1719" lon="4.94865">
        <ele>280.42526245117</ele>
        <time>2018-02-01T10:03:31+0100</time>
      </trkpt>
      <trkpt lat="47.17187" lon="4.94865">
        <ele>280.35235595703</ele>
        <time>2018-02-01T10:03:34+0100</time>
      </trkpt>
      <trkpt lat="47.17184" lon="4.94866">
        <ele>280.23934936523</ele>
        <time>2018-02-01T10:03:37+0100</time>
      </trkpt>
      <trkpt lat="47.17181" lon="4.94866">
        <ele>280.10797119141</ele>
        <time>2018-02-01T10:03:40+0100</time>
      </trkpt>
      <trkpt lat="47.17178" lon="4.94866">
        <ele>279.9841003418</ele>
        <time>2018-02-01T10:03:43+0100</time>
      </trkpt>
      <trkpt lat="47.17175" lon="4.94867">
        <ele>279.88296508789</ele>
        <time>2018-02-01T10:03:46+0100</time>
      </trkpt>
      <trkpt lat="47.17172" lon="4.94866">
        <ele>279.79620361328</ele>
        <time>2018-02-01T10:03:49+0100</time>
      </trkpt>
      <trkpt lat="47.17169" lon="4.94865">
        <ele>279.73248291016</ele>
        <time>2018-02-01T10:03:52+0100</time>
      </trkpt>
      <trkpt lat="47.17166" lon="4.94865">
        <ele>279.68731689453</ele>
        <time>2018-02-01T10:03:55+0100</time>
      </trkpt>
      <trkpt lat="47.17164" lon="4.94865">
        <ele>279.71322631836</ele>
        <time>2018-02-01T10:03:58+0100</time>
      </trkpt>
      <trkpt lat="47.17161" lon="4.94866">
        <ele>279.76248168945</ele>
        <time>2018-02-01T10:04:01+0100</time>
      </trkpt>
      <trkpt lat="47.17158" lon="4.94866">
        <ele>279.82989501953</ele>
        <time>2018-02-01T10:04:04+0100</time>
      </trkpt>
      <trkpt lat="47.17155" lon="4.94866">
        <ele>279.88787841797</ele>
        <time>2018-02-01T10:04:07+0100</time>
      </trkpt>
      <trkpt lat="47.17151" lon="4.94866">
        <ele>279.84228515625</ele>
        <time>2018-02-01T10:04:10+0100</time>
      </trkpt>
      <trkpt lat="47.17148" lon="4.94866">
        <ele>279.75805664062</ele>
        <time>2018-02-01T10:04:13+0100</time>
      </trkpt>
      <trkpt lat="47.17146" lon="4.94866">
        <ele>279.65771484375</ele>
        <time>2018-02-01T10:04:16+0100</time>
      </trkpt>
      <trkpt lat="47.17143" lon="4.94866">
        <ele>279.56823730469</ele>
        <time>2018-02-01T10:04:19+0100</time>
      </trkpt>
      <trkpt lat="47.1714" lon="4.94866">
        <ele>279.4814453125</ele>
        <time>2018-02-01T10:04:22+0100</time>
      </trkpt>
      <trkpt lat="47.17137" lon="4.94866">
        <ele>279.42153930664</ele>
        <time>2018-02-01T10:04:25+0100</time>
      </trkpt>
      <trkpt lat="47.17134" lon="4.94867">
        <ele>279.40203857422</ele>
        <time>2018-02-01T10:04:28+0100</time>
      </trkpt>
      <trkpt lat="47.17131" lon="4.94867">
        <ele>279.44812011719</ele>
        <time>2018-02-01T10:04:31+0100</time>
      </trkpt>
      <trkpt lat="47.17129" lon="4.94867">
        <ele>279.52578735352</ele>
        <time>2018-02-01T10:04:34+0100</time>
      </trkpt>
      <trkpt lat="47.17126" lon="4.94868">
        <ele>279.65866088867</ele>
        <time>2018-02-01T10:04:37+0100</time>
      </trkpt>
      <trkpt lat="47.17124" lon="4.94867">
        <ele>279.82675170898</ele>
        <time>2018-02-01T10:04:40+0100</time>
      </trkpt>
      <trkpt lat="47.17121" lon="4.94867">
        <ele>280.01107788086</ele>
        <time>2018-02-01T10:04:43+0100</time>
      </trkpt>
      <trkpt lat="47.17119" lon="4.94867">
        <ele>280.21643066406</ele>
        <time>2018-02-01T10:04:46+0100</time>
      </trkpt>
      <trkpt lat="47.17117" lon="4.94867">
        <ele>280.41772460938</ele>
        <time>2018-02-01T10:04:49+0100</time>
      </trkpt>
      <trkpt lat="47.17115" lon="4.94867">
        <ele>280.63265991211</ele>
        <time>2018-02-01T10:04:52+0100</time>
      </trkpt>
      <trkpt lat="47.17115" lon="4.94867">
        <ele>280.84838867188</ele>
        <time>2018-02-01T10:04:55+0100</time>
      </trkpt>
      <trkpt lat="47.17113" lon="4.94867">
        <ele>280.97955322266</ele>
        <time>2018-02-01T10:04:58+0100</time>
      </trkpt>
      <trkpt lat="47.17111" lon="4.94868">
        <ele>281.02789306641</ele>
        <time>2018-02-01T10:05:01+0100</time>
      </trkpt>
      <trkpt lat="47.17109" lon="4.94868">
        <ele>281.04019165039</ele>
        <time>2018-02-01T10:05:04+0100</time>
      </trkpt>
      <trkpt lat="47.17108" lon="4.94867">
        <ele>281.08892822266</ele>
        <time>2018-02-01T10:05:07+0100</time>
      </trkpt>
      <trkpt lat="47.17107" lon="4.94866">
        <ele>281.11947631836</ele>
        <time>2018-02-01T10:05:10+0100</time>
      </trkpt>
      <trkpt lat="47.17107" lon="4.94866">
        <ele>281.12802124023</ele>
        <time>2018-02-01T10:05:13+0100</time>
      </trkpt>
      <trkpt lat="47.17107" lon="4.94867">
        <ele>281.13638305664</ele>
        <time>2018-02-01T10:05:16+0100</time>
      </trkpt>
      <trkpt lat="47.17106" lon="4.94868">
        <ele>281.14535522461</ele>
        <time>2018-02-01T10:05:19+0100</time>
      </trkpt>
      <trkpt lat="47.17106" lon="4.94868">
        <ele>281.15139770508</ele>
        <time>2018-02-01T10:05:22+0100</time>
      </trkpt>
      <trkpt lat="47.17106" lon="4.94868">
        <ele>281.15451049805</ele>
        <time>2018-02-01T10:05:25+0100</time>
      </trkpt>
      <trkpt lat="47.17106" lon="4.94868">
        <ele>281.15670776367</ele>
        <time>2018-02-01T10:05:28+0100</time>
      </trkpt>
      <trkpt lat="47.17106" lon="4.94868">
        <ele>281.16381835938</ele>
        <time>2018-02-01T10:05:31+0100</time>
      </trkpt>
      <trkpt lat="47.17106" lon="4.94868">
        <ele>281.169921875</ele>
        <time>2018-02-01T10:05:34+0100</time>
      </trkpt>
      <trkpt lat="47.17106" lon="4.94868">
        <ele>281.17523193359</ele>
        <time>2018-02-01T10:05:37+0100</time>
      </trkpt>
      <trkpt lat="47.17106" lon="4.94868">
        <ele>281.18222045898</ele>
        <time>2018-02-01T10:05:40+0100</time>
      </trkpt>
      <trkpt lat="47.17106" lon="4.94869">
        <ele>281.18923950195</ele>
        <time>2018-02-01T10:05:43+0100</time>
      </trkpt>
      <trkpt lat="47.17106" lon="4.94869">
        <ele>281.19317626953</ele>
        <time>2018-02-01T10:05:46+0100</time>
      </trkpt>
      <trkpt lat="47.17106" lon="4.94869">
        <ele>281.19845581055</ele>
        <time>2018-02-01T10:05:49+0100</time>
      </trkpt>
      <trkpt lat="47.17106" lon="4.94869">
        <ele>281.20526123047</ele>
        <time>2018-02-01T10:05:52+0100</time>
      </trkpt>
      <trkpt lat="47.17106" lon="4.94869">
        <ele>281.21697998047</ele>
        <time>2018-02-01T10:05:55+0100</time>
      </trkpt>
      <trkpt lat="47.17106" lon="4.94869">
        <ele>281.2272644043</ele>
        <time>2018-02-01T10:05:58+0100</time>
      </trkpt>
      <trkpt lat="47.17106" lon="4.94869">
        <ele>281.23406982422</ele>
        <time>2018-02-01T10:06:01+0100</time>
      </trkpt>
      <trkpt lat="47.17106" lon="4.94869">
        <ele>281.24124145508</ele>
        <time>2018-02-01T10:06:04+0100</time>
      </trkpt>
      <trkpt lat="47.17106" lon="4.94869">
        <ele>281.24401855469</ele>
        <time>2018-02-01T10:06:07+0100</time>
      </trkpt>
      <trkpt lat="47.17105" lon="4.94869">
        <ele>281.24374389648</ele>
        <time>2018-02-01T10:06:10+0100</time>
      </trkpt>
      <trkpt lat="47.17105" lon="4.9487">
        <ele>281.24566650391</ele>
        <time>2018-02-01T10:06:13+0100</time>
      </trkpt>
      <trkpt lat="47.17105" lon="4.9487">
        <ele>281.25317382812</ele>
        <time>2018-02-01T10:06:16+0100</time>
      </trkpt>
      <trkpt lat="47.17105" lon="4.9487">
        <ele>281.25930786133</ele>
        <time>2018-02-01T10:06:19+0100</time>
      </trkpt>
      <trkpt lat="47.17105" lon="4.9487">
        <ele>281.27066040039</ele>
        <time>2018-02-01T10:06:22+0100</time>
      </trkpt>
      <trkpt lat="47.17105" lon="4.9487">
        <ele>281.28295898438</ele>
        <time>2018-02-01T10:06:25+0100</time>
      </trkpt>
      <trkpt lat="47.17105" lon="4.9487">
        <ele>281.29385375977</ele>
        <time>2018-02-01T10:06:28+0100</time>
      </trkpt>
      <trkpt lat="47.17105" lon="4.9487">
        <ele>281.30462646484</ele>
        <time>2018-02-01T10:06:31+0100</time>
      </trkpt>
      <trkpt lat="47.17105" lon="4.9487">
        <ele>281.31466674805</ele>
        <time>2018-02-01T10:06:34+0100</time>
      </trkpt>
      <trkpt lat="47.17105" lon="4.9487">
        <ele>281.32366943359</ele>
        <time>2018-02-01T10:06:37+0100</time>
      </trkpt>
      <trkpt lat="47.17104" lon="4.9487">
        <ele>281.3332824707</ele>
        <time>2018-02-01T10:06:40+0100</time>
      </trkpt>
      <trkpt lat="47.17104" lon="4.9487">
        <ele>281.34274291992</ele>
        <time>2018-02-01T10:06:43+0100</time>
      </trkpt>
      <trkpt lat="47.17104" lon="4.9487">
        <ele>281.3512878418</ele>
        <time>2018-02-01T10:06:46+0100</time>
      </trkpt>
      <trkpt lat="47.17104" lon="4.9487">
        <ele>281.35806274414</ele>
        <time>2018-02-01T10:06:49+0100</time>
      </trkpt>
      <trkpt lat="47.17104" lon="4.9487">
        <ele>281.36502075195</ele>
        <time>2018-02-01T10:06:52+0100</time>
      </trkpt>
      <trkpt lat="47.17104" lon="4.9487">
        <ele>281.3733215332</ele>
        <time>2018-02-01T10:06:55+0100</time>
      </trkpt>
      <trkpt lat="47.17104" lon="4.9487">
        <ele>281.38293457031</ele>
        <time>2018-02-01T10:06:58+0100</time>
      </trkpt>
      <trkpt lat="47.17104" lon="4.9487">
        <ele>281.39471435547</ele>
        <time>2018-02-01T10:07:01+0100</time>
      </trkpt>
      <trkpt lat="47.17104" lon="4.9487">
        <ele>281.40625</ele>
        <time>2018-02-01T10:07:04+0100</time>
      </trkpt>
      <trkpt lat="47.17104" lon="4.9487">
        <ele>281.41836547852</ele>
        <time>2018-02-01T10:07:07+0100</time>
      </trkpt>
      <trkpt lat="47.17104" lon="4.9487">
        <ele>281.4309387207</ele>
        <time>2018-02-01T10:07:10+0100</time>
      </trkpt>
      <trkpt lat="47.17104" lon="4.9487">
        <ele>281.44226074219</ele>
        <time>2018-02-01T10:07:13+0100</time>
      </trkpt>
      <trkpt lat="47.17104" lon="4.9487">
        <ele>281.45114135742</ele>
        <time>2018-02-01T10:07:16+0100</time>
      </trkpt>
      <trkpt lat="47.17104" lon="4.9487">
        <ele>281.45867919922</ele>
        <time>2018-02-01T10:07:19+0100</time>
      </trkpt>
      <trkpt lat="47.17104" lon="4.9487">
        <ele>281.46588134766</ele>
        <time>2018-02-01T10:07:22+0100</time>
      </trkpt>
      <trkpt lat="47.17104" lon="4.9487">
        <ele>281.47280883789</ele>
        <time>2018-02-01T10:07:25+0100</time>
      </trkpt>
      <trkpt lat="47.17104" lon="4.94869">
        <ele>281.47958374023</ele>
        <time>2018-02-01T10:07:28+0100</time>
      </trkpt>
      <trkpt lat="47.17104" lon="4.94869">
        <ele>281.48690795898</ele>
        <time>2018-02-01T10:07:31+0100</time>
      </trkpt>
      <trkpt lat="47.17104" lon="4.94869">
        <ele>281.49429321289</ele>
        <time>2018-02-01T10:07:34+0100</time>
      </trkpt>
      <trkpt lat="47.17104" lon="4.94869">
        <ele>281.5016784668</ele>
        <time>2018-02-01T10:07:37+0100</time>
      </trkpt>
      <trkpt lat="47.17105" lon="4.94868">
        <ele>281.50527954102</ele>
        <time>2018-02-01T10:07:40+0100</time>
      </trkpt>
      <trkpt lat="47.17106" lon="4.94868">
        <ele>281.50094604492</ele>
        <time>2018-02-01T10:07:43+0100</time>
      </trkpt>
      <trkpt lat="47.17106" lon="4.94867">
        <ele>281.46325683594</ele>
        <time>2018-02-01T10:07:46+0100</time>
      </trkpt>
      <trkpt lat="47.17105" lon="4.94867">
        <ele>281.39724731445</ele>
        <time>2018-02-01T10:07:49+0100</time>
      </trkpt>
      <trkpt lat="47.17105" lon="4.94866">
        <ele>281.32421875</ele>
        <time>2018-02-01T10:07:52+0100</time>
      </trkpt>
      <trkpt lat="47.17104" lon="4.94865">
        <ele>281.25701904297</ele>
        <time>2018-02-01T10:07:55+0100</time>
      </trkpt>
      <trkpt lat="47.17104" lon="4.94864">
        <ele>281.23422241211</ele>
        <time>2018-02-01T10:07:58+0100</time>
      </trkpt>
      <trkpt lat="47.17102" lon="4.94861">
        <ele>281.33438110352</ele>
        <time>2018-02-01T10:08:01+0100</time>
      </trkpt>
      <trkpt lat="47.17102" lon="4.94859">
        <ele>281.404296875</ele>
        <time>2018-02-01T10:08:04+0100</time>
      </trkpt>
      <trkpt lat="47.17102" lon="4.94857">
        <ele>281.38650512695</ele>
        <time>2018-02-01T10:08:07+0100</time>
      </trkpt>
      <trkpt lat="47.17101" lon="4.94856">
        <ele>281.31838989258</ele>
        <time>2018-02-01T10:08:10+0100</time>
      </trkpt>
      <trkpt lat="47.17101" lon="4.94855">
        <ele>281.20526123047</ele>
        <time>2018-02-01T10:08:13+0100</time>
      </trkpt>
      <trkpt lat="47.17101" lon="4.94853">
        <ele>281.11798095703</ele>
        <time>2018-02-01T10:08:16+0100</time>
      </trkpt>
      <trkpt lat="47.171" lon="4.94851">
        <ele>281.04409790039</ele>
        <time>2018-02-01T10:08:19+0100</time>
      </trkpt>
      <trkpt lat="47.17099" lon="4.94848">
        <ele>280.97421264648</ele>
        <time>2018-02-01T10:08:22+0100</time>
      </trkpt>
      <trkpt lat="47.17099" lon="4.94845">
        <ele>280.91879272461</ele>
        <time>2018-02-01T10:08:25+0100</time>
      </trkpt>
      <trkpt lat="47.17098" lon="4.94842">
        <ele>280.90438842773</ele>
        <time>2018-02-01T10:08:28+0100</time>
      </trkpt>
      <trkpt lat="47.17097" lon="4.94839">
        <ele>280.95516967773</ele>
        <time>2018-02-01T10:08:31+0100</time>
      </trkpt>
      <trkpt lat="47.17097" lon="4.94836">
        <ele>281.04190063477</ele>
        <time>2018-02-01T10:08:34+0100</time>
      </trkpt>
      <trkpt lat="47.17096" lon="4.94832">
        <ele>281.15676879883</ele>
        <time>2018-02-01T10:08:37+0100</time>
      </trkpt>
      <trkpt lat="47.17095" lon="4.9483">
        <ele>281.27450561523</ele>
        <time>2018-02-01T10:08:40+0100</time>
      </trkpt>
      <trkpt lat="47.17094" lon="4.94827">
        <ele>281.39657592773</ele>
        <time>2018-02-01T10:08:43+0100</time>
      </trkpt>
      <trkpt lat="47.17093" lon="4.94824">
        <ele>281.55160522461</ele>
        <time>2018-02-01T10:08:46+0100</time>
      </trkpt>
      <trkpt lat="47.17092" lon="4.94821">
        <ele>281.70669555664</ele>
        <time>2018-02-01T10:08:49+0100</time>
      </trkpt>
      <trkpt lat="47.17091" lon="4.94818">
        <ele>281.88247680664</ele>
        <time>2018-02-01T10:08:52+0100</time>
      </trkpt>
      <trkpt lat="47.1709" lon="4.94814">
        <ele>282.03930664062</ele>
        <time>2018-02-01T10:08:55+0100</time>
      </trkpt>
      <trkpt lat="47.17089" lon="4.94811">
        <ele>282.17965698242</ele>
        <time>2018-02-01T10:08:58+0100</time>
      </trkpt>
      <trkpt lat="47.17087" lon="4.94809">
        <ele>282.32461547852</ele>
        <time>2018-02-01T10:09:01+0100</time>
      </trkpt>
      <trkpt lat="47.17086" lon="4.94806">
        <ele>282.52563476562</ele>
        <time>2018-02-01T10:09:04+0100</time>
      </trkpt>
      <trkpt lat="47.17084" lon="4.94804">
        <ele>282.72998046875</ele>
        <time>2018-02-01T10:09:07+0100</time>
      </trkpt>
      <trkpt lat="47.17083" lon="4.94801">
        <ele>282.94381713867</ele>
        <time>2018-02-01T10:09:10+0100</time>
      </trkpt>
      <trkpt lat="47.17082" lon="4.94799">
        <ele>283.18862915039</ele>
        <time>2018-02-01T10:09:13+0100</time>
      </trkpt>
      <trkpt lat="47.17081" lon="4.94797">
        <ele>283.44384765625</ele>
        <time>2018-02-01T10:09:16+0100</time>
      </trkpt>
      <trkpt lat="47.17079" lon="4.94794">
        <ele>283.67230224609</ele>
        <time>2018-02-01T10:09:19+0100</time>
      </trkpt>
      <trkpt lat="47.17078" lon="4.94791">
        <ele>283.83444213867</ele>
        <time>2018-02-01T10:09:22+0100</time>
      </trkpt>
      <trkpt lat="47.17077" lon="4.94789">
        <ele>283.98837280273</ele>
        <time>2018-02-01T10:09:25+0100</time>
      </trkpt>
      <trkpt lat="47.17077" lon="4.9479">
        <ele>284.00921630859</ele>
        <time>2018-02-01T10:09:28+0100</time>
      </trkpt>
      <trkpt lat="47.17077" lon="4.9479">
        <ele>284.03686523438</ele>
        <time>2018-02-01T10:09:31+0100</time>
      </trkpt>
      <trkpt lat="47.17076" lon="4.9479">
        <ele>284.07104492188</ele>
        <time>2018-02-01T10:09:34+0100</time>
      </trkpt>
      <trkpt lat="47.17076" lon="4.9479">
        <ele>284.10723876953</ele>
        <time>2018-02-01T10:09:37+0100</time>
      </trkpt>
      <trkpt lat="47.17077" lon="4.9479">
        <ele>284.12747192383</ele>
        <time>2018-02-01T10:09:40+0100</time>
      </trkpt>
      <trkpt lat="47.17077" lon="4.9479">
        <ele>284.12899780273</ele>
        <time>2018-02-01T10:09:43+0100</time>
      </trkpt>
      <trkpt lat="47.17077" lon="4.9479">
        <ele>284.13128662109</ele>
        <time>2018-02-01T10:09:46+0100</time>
      </trkpt>
      <trkpt lat="47.17077" lon="4.9479">
        <ele>284.1428527832</ele>
        <time>2018-02-01T10:09:49+0100</time>
      </trkpt>
      <trkpt lat="47.17077" lon="4.94791">
        <ele>284.15979003906</ele>
        <time>2018-02-01T10:09:52+0100</time>
      </trkpt>
      <trkpt lat="47.17077" lon="4.94791">
        <ele>284.17959594727</ele>
        <time>2018-02-01T10:09:55+0100</time>
      </trkpt>
      <trkpt lat="47.17077" lon="4.94791">
        <ele>284.20068359375</ele>
        <time>2018-02-01T10:09:58+0100</time>
      </trkpt>
      <trkpt lat="47.17077" lon="4.94791">
        <ele>284.22467041016</ele>
        <time>2018-02-01T10:10:01+0100</time>
      </trkpt>
      <trkpt lat="47.17077" lon="4.94791">
        <ele>284.24966430664</ele>
        <time>2018-02-01T10:10:04+0100</time>
      </trkpt>
      <trkpt lat="47.17077" lon="4.94791">
        <ele>284.27529907227</ele>
        <time>2018-02-01T10:10:07+0100</time>
      </trkpt>
      <trkpt lat="47.17077" lon="4.94791">
        <ele>284.29824829102</ele>
        <time>2018-02-01T10:10:10+0100</time>
      </trkpt>
      <trkpt lat="47.17077" lon="4.94791">
        <ele>284.31753540039</ele>
        <time>2018-02-01T10:10:13+0100</time>
      </trkpt>
      <trkpt lat="47.17077" lon="4.9479">
        <ele>284.49697875977</ele>
        <time>2018-02-01T10:10:16+0100</time>
      </trkpt>
      <trkpt lat="47.17075" lon="4.94786">
        <ele>284.66830444336</ele>
        <time>2018-02-01T10:10:19+0100</time>
      </trkpt>
      <trkpt lat="47.17074" lon="4.94783">
        <ele>284.89205932617</ele>
        <time>2018-02-01T10:10:22+0100</time>
      </trkpt>
      <trkpt lat="47.17073" lon="4.9478">
        <ele>285.15902709961</ele>
        <time>2018-02-01T10:10:25+0100</time>
      </trkpt>
      <trkpt lat="47.17071" lon="4.94777">
        <ele>285.48281860352</ele>
        <time>2018-02-01T10:10:28+0100</time>
      </trkpt>
      <trkpt lat="47.17071" lon="4.94774">
        <ele>285.84432983398</ele>
        <time>2018-02-01T10:10:31+0100</time>
      </trkpt>
      <trkpt lat="47.1707" lon="4.9477">
        <ele>286.16348266602</ele>
        <time>2018-02-01T10:10:34+0100</time>
      </trkpt>
      <trkpt lat="47.17069" lon="4.94767">
        <ele>286.42388916016</ele>
        <time>2018-02-01T10:10:37+0100</time>
      </trkpt>
      <trkpt lat="47.17068" lon="4.94762">
        <ele>286.6842956543</ele>
        <time>2018-02-01T10:10:40+0100</time>
      </trkpt>
      <trkpt lat="47.17066" lon="4.94758">
        <ele>286.96728515625</ele>
        <time>2018-02-01T10:10:43+0100</time>
      </trkpt>
      <trkpt lat="47.17065" lon="4.94756">
        <ele>287.23776245117</ele>
        <time>2018-02-01T10:10:46+0100</time>
      </trkpt>
      <trkpt lat="47.17064" lon="4.94753">
        <ele>287.52984619141</ele>
        <time>2018-02-01T10:10:49+0100</time>
      </trkpt>
      <trkpt lat="47.17062" lon="4.94751">
        <ele>287.84344482422</ele>
        <time>2018-02-01T10:10:52+0100</time>
      </trkpt>
      <trkpt lat="47.17061" lon="4.94747">
        <ele>288.16787719727</ele>
        <time>2018-02-01T10:10:55+0100</time>
      </trkpt>
      <trkpt lat="47.17059" lon="4.94744">
        <ele>288.55255126953</ele>
        <time>2018-02-01T10:10:58+0100</time>
      </trkpt>
      <trkpt lat="47.17057" lon="4.94741">
        <ele>288.99087524414</ele>
        <time>2018-02-01T10:11:01+0100</time>
      </trkpt>
      <trkpt lat="47.17055" lon="4.94738">
        <ele>289.45037841797</ele>
        <time>2018-02-01T10:11:04+0100</time>
      </trkpt>
      <trkpt lat="47.17054" lon="4.94734">
        <ele>289.8957824707</ele>
        <time>2018-02-01T10:11:07+0100</time>
      </trkpt>
      <trkpt lat="47.17053" lon="4.94732">
        <ele>290.32757568359</ele>
        <time>2018-02-01T10:11:10+0100</time>
      </trkpt>
      <trkpt lat="47.17051" lon="4.94728">
        <ele>290.74450683594</ele>
        <time>2018-02-01T10:11:13+0100</time>
      </trkpt>
      <trkpt lat="47.1705" lon="4.94724">
        <ele>291.19284057617</ele>
        <time>2018-02-01T10:11:16+0100</time>
      </trkpt>
      <trkpt lat="47.17048" lon="4.94721">
        <ele>291.67163085938</ele>
        <time>2018-02-01T10:11:19+0100</time>
      </trkpt>
      <trkpt lat="47.17047" lon="4.94718">
        <ele>292.18295288086</ele>
        <time>2018-02-01T10:11:22+0100</time>
      </trkpt>
      <trkpt lat="47.17045" lon="4.94715">
        <ele>292.68548583984</ele>
        <time>2018-02-01T10:11:25+0100</time>
      </trkpt>
      <trkpt lat="47.17044" lon="4.94712">
        <ele>293.2392578125</ele>
        <time>2018-02-01T10:11:28+0100</time>
      </trkpt>
      <trkpt lat="47.17043" lon="4.94709">
        <ele>293.66998291016</ele>
        <time>2018-02-01T10:11:31+0100</time>
      </trkpt>
      <trkpt lat="47.17041" lon="4.94706">
        <ele>294.06881713867</ele>
        <time>2018-02-01T10:11:34+0100</time>
      </trkpt>
      <trkpt lat="47.1704" lon="4.94704">
        <ele>294.45831298828</ele>
        <time>2018-02-01T10:11:37+0100</time>
      </trkpt>
      <trkpt lat="47.17038" lon="4.94701">
        <ele>294.81625366211</ele>
        <time>2018-02-01T10:11:40+0100</time>
      </trkpt>
      <trkpt lat="47.17037" lon="4.94699">
        <ele>295.15264892578</ele>
        <time>2018-02-01T10:11:43+0100</time>
      </trkpt>
      <trkpt lat="47.17036" lon="4.94697">
        <ele>295.5481262207</ele>
        <time>2018-02-01T10:11:46+0100</time>
      </trkpt>
      <trkpt lat="47.17034" lon="4.94695">
        <ele>295.94815063477</ele>
        <time>2018-02-01T10:11:49+0100</time>
      </trkpt>
      <trkpt lat="47.17033" lon="4.94692">
        <ele>296.32736206055</ele>
        <time>2018-02-01T10:11:52+0100</time>
      </trkpt>
      <trkpt lat="47.17031" lon="4.9469">
        <ele>296.67443847656</ele>
        <time>2018-02-01T10:11:55+0100</time>
      </trkpt>
      <trkpt lat="47.17028" lon="4.94688">
        <ele>296.96685791016</ele>
        <time>2018-02-01T10:11:58+0100</time>
      </trkpt>
      <trkpt lat="47.17025" lon="4.94686">
        <ele>297.23342895508</ele>
        <time>2018-02-01T10:12:01+0100</time>
      </trkpt>
      <trkpt lat="47.17023" lon="4.94683">
        <ele>297.49310302734</ele>
        <time>2018-02-01T10:12:04+0100</time>
      </trkpt>
      <trkpt lat="47.17022" lon="4.94681">
        <ele>297.81884765625</ele>
        <time>2018-02-01T10:12:07+0100</time>
      </trkpt>
      <trkpt lat="47.1702" lon="4.94679">
        <ele>298.22079467773</ele>
        <time>2018-02-01T10:12:10+0100</time>
      </trkpt>
      <trkpt lat="47.17018" lon="4.94676">
        <ele>298.61349487305</ele>
        <time>2018-02-01T10:12:13+0100</time>
      </trkpt>
      <trkpt lat="47.17016" lon="4.94674">
        <ele>298.99850463867</ele>
        <time>2018-02-01T10:12:16+0100</time>
      </trkpt>
      <trkpt lat="47.17014" lon="4.94672">
        <ele>299.27868652344</ele>
        <time>2018-02-01T10:12:19+0100</time>
      </trkpt>
      <trkpt lat="47.17014" lon="4.94672">
        <ele>299.32730102539</ele>
        <time>2018-02-01T10:12:22+0100</time>
      </trkpt>
      <trkpt lat="47.17014" lon="4.94672">
        <ele>299.37265014648</ele>
        <time>2018-02-01T10:12:25+0100</time>
      </trkpt>
      <trkpt lat="47.17014" lon="4.94672">
        <ele>299.41201782227</ele>
        <time>2018-02-01T10:12:27+0100</time>
      </trkpt>
      <trkpt lat="47.17014" lon="4.94672">
        <ele>299.44946289062</ele>
        <time>2018-02-01T10:12:30+0100</time>
      </trkpt>
      <trkpt lat="47.17014" lon="4.94672">
        <ele>299.48156738281</ele>
        <time>2018-02-01T10:12:33+0100</time>
      </trkpt>
      <trkpt lat="47.17014" lon="4.94673">
        <ele>299.67269897461</ele>
        <time>2018-02-01T10:12:36+0100</time>
      </trkpt>
      <trkpt lat="47.17013" lon="4.94671">
        <ele>299.91217041016</ele>
        <time>2018-02-01T10:12:39+0100</time>
      </trkpt>
      <trkpt lat="47.17011" lon="4.94669">
        <ele>300.14352416992</ele>
        <time>2018-02-01T10:12:42+0100</time>
      </trkpt>
      <trkpt lat="47.17009" lon="4.94667">
        <ele>300.37985229492</ele>
        <time>2018-02-01T10:12:45+0100</time>
      </trkpt>
      <trkpt lat="47.17008" lon="4.94664">
        <ele>300.63458251953</ele>
        <time>2018-02-01T10:12:48+0100</time>
      </trkpt>
      <trkpt lat="47.17007" lon="4.94663">
        <ele>300.88159179688</ele>
        <time>2018-02-01T10:12:51+0100</time>
      </trkpt>
      <trkpt lat="47.17005" lon="4.94661">
        <ele>301.12112426758</ele>
        <time>2018-02-01T10:12:54+0100</time>
      </trkpt>
      <trkpt lat="47.17004" lon="4.94659">
        <ele>301.36273193359</ele>
        <time>2018-02-01T10:12:57+0100</time>
      </trkpt>
      <trkpt lat="47.17001" lon="4.94656">
        <ele>301.63458251953</ele>
        <time>2018-02-01T10:13:00+0100</time>
      </trkpt>
      <trkpt lat="47.17" lon="4.94654">
        <ele>301.94790649414</ele>
        <time>2018-02-01T10:13:03+0100</time>
      </trkpt>
      <trkpt lat="47.16998" lon="4.94651">
        <ele>302.26657104492</ele>
        <time>2018-02-01T10:13:06+0100</time>
      </trkpt>
      <trkpt lat="47.16996" lon="4.94648">
        <ele>302.55493164062</ele>
        <time>2018-02-01T10:13:09+0100</time>
      </trkpt>
      <trkpt lat="47.16995" lon="4.94645">
        <ele>302.78833007812</ele>
        <time>2018-02-01T10:13:12+0100</time>
      </trkpt>
      <trkpt lat="47.16993" lon="4.94642">
        <ele>303.02233886719</ele>
        <time>2018-02-01T10:13:15+0100</time>
      </trkpt>
      <trkpt lat="47.16992" lon="4.94641">
        <ele>303.29336547852</ele>
        <time>2018-02-01T10:13:18+0100</time>
      </trkpt>
      <trkpt lat="47.1699" lon="4.94638">
        <ele>303.59042358398</ele>
        <time>2018-02-01T10:13:21+0100</time>
      </trkpt>
      <trkpt lat="47.16988" lon="4.94637">
        <ele>303.81011962891</ele>
        <time>2018-02-01T10:13:24+0100</time>
      </trkpt>
      <trkpt lat="47.16988" lon="4.94637">
        <ele>303.83444213867</ele>
        <time>2018-02-01T10:13:27+0100</time>
      </trkpt>
      <trkpt lat="47.16988" lon="4.94637">
        <ele>303.85299682617</ele>
        <time>2018-02-01T10:13:30+0100</time>
      </trkpt>
      <trkpt lat="47.16988" lon="4.94637">
        <ele>303.91049194336</ele>
        <time>2018-02-01T10:13:33+0100</time>
      </trkpt>
      <trkpt lat="47.16987" lon="4.94637">
        <ele>303.92401123047</ele>
        <time>2018-02-01T10:13:36+0100</time>
      </trkpt>
      <trkpt lat="47.16987" lon="4.94638">
        <ele>304.00497436523</ele>
        <time>2018-02-01T10:13:39+0100</time>
      </trkpt>
      <trkpt lat="47.16987" lon="4.94637">
        <ele>304.07864379883</ele>
        <time>2018-02-01T10:13:42+0100</time>
      </trkpt>
      <trkpt lat="47.16986" lon="4.94636">
        <ele>304.20254516602</ele>
        <time>2018-02-01T10:13:45+0100</time>
      </trkpt>
      <trkpt lat="47.16984" lon="4.94632">
        <ele>304.27157592773</ele>
        <time>2018-02-01T10:13:48+0100</time>
      </trkpt>
      <trkpt lat="47.16983" lon="4.94629">
        <ele>304.40859985352</ele>
        <time>2018-02-01T10:13:51+0100</time>
      </trkpt>
      <trkpt lat="47.16981" lon="4.94627">
        <ele>304.58303833008</ele>
        <time>2018-02-01T10:13:54+0100</time>
      </trkpt>
      <trkpt lat="47.1698" lon="4.94624">
        <ele>304.7594909668</ele>
        <time>2018-02-01T10:13:57+0100</time>
      </trkpt>
      <trkpt lat="47.16978" lon="4.9462">
        <ele>304.93322753906</ele>
        <time>2018-02-01T10:14:00+0100</time>
      </trkpt>
      <trkpt lat="47.16977" lon="4.94618">
        <ele>305.12512207031</ele>
        <time>2018-02-01T10:14:03+0100</time>
      </trkpt>
      <trkpt lat="47.16974" lon="4.94615">
        <ele>305.35595703125</ele>
        <time>2018-02-01T10:14:06+0100</time>
      </trkpt>
      <trkpt lat="47.16973" lon="4.94613">
        <ele>305.56881713867</ele>
        <time>2018-02-01T10:14:09+0100</time>
      </trkpt>
      <trkpt lat="47.16972" lon="4.9461">
        <ele>305.78353881836</ele>
        <time>2018-02-01T10:14:12+0100</time>
      </trkpt>
      <trkpt lat="47.16969" lon="4.94606">
        <ele>306.00341796875</ele>
        <time>2018-02-01T10:14:15+0100</time>
      </trkpt>
      <trkpt lat="47.16969" lon="4.94603">
        <ele>306.28219604492</ele>
        <time>2018-02-01T10:14:18+0100</time>
      </trkpt>
      <trkpt lat="47.16968" lon="4.94602">
        <ele>306.62188720703</ele>
        <time>2018-02-01T10:14:21+0100</time>
      </trkpt>
      <trkpt lat="47.16966" lon="4.94602">
        <ele>306.6594543457</ele>
        <time>2018-02-01T10:14:24+0100</time>
      </trkpt>
      <trkpt lat="47.16966" lon="4.94602">
        <ele>306.6985168457</ele>
        <time>2018-02-01T10:14:27+0100</time>
      </trkpt>
      <trkpt lat="47.16966" lon="4.94602">
        <ele>306.74600219727</ele>
        <time>2018-02-01T10:14:30+0100</time>
      </trkpt>
      <trkpt lat="47.16966" lon="4.94602">
        <ele>306.91839599609</ele>
        <time>2018-02-01T10:14:33+0100</time>
      </trkpt>
      <trkpt lat="47.16965" lon="4.94602">
        <ele>307.18313598633</ele>
        <time>2018-02-01T10:14:36+0100</time>
      </trkpt>
      <trkpt lat="47.16964" lon="4.94602">
        <ele>307.51849365234</ele>
        <time>2018-02-01T10:14:39+0100</time>
      </trkpt>
      <trkpt lat="47.16962" lon="4.94601">
        <ele>307.84234619141</ele>
        <time>2018-02-01T10:14:42+0100</time>
      </trkpt>
      <trkpt lat="47.16959" lon="4.94598">
        <ele>308.14715576172</ele>
        <time>2018-02-01T10:14:45+0100</time>
      </trkpt>
      <trkpt lat="47.16957" lon="4.94595">
        <ele>308.45455932617</ele>
        <time>2018-02-01T10:14:48+0100</time>
      </trkpt>
      <trkpt lat="47.16956" lon="4.94593">
        <ele>308.67095947266</ele>
        <time>2018-02-01T10:14:51+0100</time>
      </trkpt>
      <trkpt lat="47.16956" lon="4.94593">
        <ele>308.70346069336</ele>
        <time>2018-02-01T10:14:54+0100</time>
      </trkpt>
      <trkpt lat="47.16956" lon="4.94593">
        <ele>308.73718261719</ele>
        <time>2018-02-01T10:14:57+0100</time>
      </trkpt>
      <trkpt lat="47.16956" lon="4.94593">
        <ele>308.78298950195</ele>
        <time>2018-02-01T10:15:00+0100</time>
      </trkpt>
      <trkpt lat="47.16957" lon="4.94593">
        <ele>308.82662963867</ele>
        <time>2018-02-01T10:15:03+0100</time>
      </trkpt>
      <trkpt lat="47.16957" lon="4.94593">
        <ele>308.86904907227</ele>
        <time>2018-02-01T10:15:06+0100</time>
      </trkpt>
      <trkpt lat="47.16957" lon="4.94593">
        <ele>308.90914916992</ele>
        <time>2018-02-01T10:15:09+0100</time>
      </trkpt>
      <trkpt lat="47.16956" lon="4.94591">
        <ele>309.28469848633</ele>
        <time>2018-02-01T10:15:12+0100</time>
      </trkpt>
      <trkpt lat="47.16956" lon="4.9459">
        <ele>309.58471679688</ele>
        <time>2018-02-01T10:15:15+0100</time>
      </trkpt>
      <trkpt lat="47.16956" lon="4.94589">
        <ele>309.61090087891</ele>
        <time>2018-02-01T10:15:18+0100</time>
      </trkpt>
      <trkpt lat="47.16956" lon="4.94589">
        <ele>309.74179077148</ele>
        <time>2018-02-01T10:15:21+0100</time>
      </trkpt>
      <trkpt lat="47.16956" lon="4.94588">
        <ele>309.99731445312</ele>
        <time>2018-02-01T10:15:24+0100</time>
      </trkpt>
      <trkpt lat="47.16956" lon="4.94588">
        <ele>310.02166748047</ele>
        <time>2018-02-01T10:15:27+0100</time>
      </trkpt>
      <trkpt lat="47.16956" lon="4.94588">
        <ele>310.03668212891</ele>
        <time>2018-02-01T10:15:30+0100</time>
      </trkpt>
      <trkpt lat="47.16956" lon="4.94589">
        <ele>310.02835083008</ele>
        <time>2018-02-01T10:15:33+0100</time>
      </trkpt>
      <trkpt lat="47.16954" lon="4.94587">
        <ele>310.06372070312</ele>
        <time>2018-02-01T10:15:36+0100</time>
      </trkpt>
      <trkpt lat="47.16952" lon="4.94585">
        <ele>310.14199829102</ele>
        <time>2018-02-01T10:15:39+0100</time>
      </trkpt>
      <trkpt lat="47.1695" lon="4.94582">
        <ele>310.23080444336</ele>
        <time>2018-02-01T10:15:42+0100</time>
      </trkpt>
      <trkpt lat="47.16949" lon="4.9458">
        <ele>310.29641723633</ele>
        <time>2018-02-01T10:15:45+0100</time>
      </trkpt>
      <trkpt lat="47.16948" lon="4.94578">
        <ele>310.34161376953</ele>
        <time>2018-02-01T10:15:48+0100</time>
      </trkpt>
      <trkpt lat="47.16948" lon="4.94578">
        <ele>310.35116577148</ele>
        <time>2018-02-01T10:15:51+0100</time>
      </trkpt>
      <trkpt lat="47.16948" lon="4.94577">
        <ele>310.39053344727</ele>
        <time>2018-02-01T10:15:54+0100</time>
      </trkpt>
      <trkpt lat="47.16947" lon="4.94577">
        <ele>310.43225097656</ele>
        <time>2018-02-01T10:15:57+0100</time>
      </trkpt>
      <trkpt lat="47.16946" lon="4.94574">
        <ele>310.54437255859</ele>
        <time>2018-02-01T10:16:00+0100</time>
      </trkpt>
      <trkpt lat="47.16944" lon="4.94571">
        <ele>310.68518066406</ele>
        <time>2018-02-01T10:16:03+0100</time>
      </trkpt>
      <trkpt lat="47.16942" lon="4.94568">
        <ele>310.8571472168</ele>
        <time>2018-02-01T10:16:06+0100</time>
      </trkpt>
      <trkpt lat="47.16941" lon="4.94566">
        <ele>311.04895019531</ele>
        <time>2018-02-01T10:16:09+0100</time>
      </trkpt>
      <trkpt lat="47.1694" lon="4.94565">
        <ele>311.19281005859</ele>
        <time>2018-02-01T10:16:12+0100</time>
      </trkpt>
      <trkpt lat="47.1694" lon="4.94564">
        <ele>311.41827392578</ele>
        <time>2018-02-01T10:16:15+0100</time>
      </trkpt>
      <trkpt lat="47.1694" lon="4.94562">
        <ele>311.67922973633</ele>
        <time>2018-02-01T10:16:18+0100</time>
      </trkpt>
      <trkpt lat="47.16939" lon="4.94559">
        <ele>311.93161010742</ele>
        <time>2018-02-01T10:16:21+0100</time>
      </trkpt>
      <trkpt lat="47.16939" lon="4.94557">
        <ele>312.18643188477</ele>
        <time>2018-02-01T10:16:24+0100</time>
      </trkpt>
      <trkpt lat="47.16939" lon="4.94557">
        <ele>312.37054443359</ele>
        <time>2018-02-01T10:16:27+0100</time>
      </trkpt>
      <trkpt lat="47.16938" lon="4.94556">
        <ele>312.66275024414</ele>
        <time>2018-02-01T10:16:30+0100</time>
      </trkpt>
      <trkpt lat="47.16938" lon="4.94556">
        <ele>312.69879150391</ele>
        <time>2018-02-01T10:16:33+0100</time>
      </trkpt>
      <trkpt lat="47.16938" lon="4.94556">
        <ele>312.73678588867</ele>
        <time>2018-02-01T10:16:36+0100</time>
      </trkpt>
      <trkpt lat="47.16938" lon="4.94556">
        <ele>312.77633666992</ele>
        <time>2018-02-01T10:16:39+0100</time>
      </trkpt>
      <trkpt lat="47.16938" lon="4.94556">
        <ele>312.81158447266</ele>
        <time>2018-02-01T10:16:42+0100</time>
      </trkpt>
      <trkpt lat="47.16938" lon="4.94556">
        <ele>312.98062133789</ele>
        <time>2018-02-01T10:16:45+0100</time>
      </trkpt>
      <trkpt lat="47.16937" lon="4.94553">
        <ele>313.40533447266</ele>
        <time>2018-02-01T10:16:48+0100</time>
      </trkpt>
      <trkpt lat="47.16935" lon="4.94551">
        <ele>313.79067993164</ele>
        <time>2018-02-01T10:16:51+0100</time>
      </trkpt>
      <trkpt lat="47.16934" lon="4.94549">
        <ele>314.1169128418</ele>
        <time>2018-02-01T10:16:54+0100</time>
      </trkpt>
      <trkpt lat="47.16932" lon="4.94549">
        <ele>314.26306152344</ele>
        <time>2018-02-01T10:16:57+0100</time>
      </trkpt>
      <trkpt lat="47.16933" lon="4.94549">
        <ele>314.3037109375</ele>
        <time>2018-02-01T10:17:00+0100</time>
      </trkpt>
      <trkpt lat="47.16933" lon="4.94549">
        <ele>314.38128662109</ele>
        <time>2018-02-01T10:17:03+0100</time>
      </trkpt>
      <trkpt lat="47.16932" lon="4.94549">
        <ele>314.46884155273</ele>
        <time>2018-02-01T10:17:06+0100</time>
      </trkpt>
      <trkpt lat="47.16932" lon="4.94548">
        <ele>314.49411010742</ele>
        <time>2018-02-01T10:17:09+0100</time>
      </trkpt>
      <trkpt lat="47.16932" lon="4.94547">
        <ele>314.72625732422</ele>
        <time>2018-02-01T10:17:12+0100</time>
      </trkpt>
      <trkpt lat="47.16931" lon="4.94546">
        <ele>314.87362670898</ele>
        <time>2018-02-01T10:17:15+0100</time>
      </trkpt>
      <trkpt lat="47.16932" lon="4.94546">
        <ele>314.89324951172</ele>
        <time>2018-02-01T10:17:18+0100</time>
      </trkpt>
      <trkpt lat="47.16932" lon="4.94546">
        <ele>314.90948486328</ele>
        <time>2018-02-01T10:17:21+0100</time>
      </trkpt>
      <trkpt lat="47.16931" lon="4.94546">
        <ele>314.93246459961</ele>
        <time>2018-02-01T10:17:24+0100</time>
      </trkpt>
      <trkpt lat="47.16932" lon="4.94546">
        <ele>314.95306396484</ele>
        <time>2018-02-01T10:17:27+0100</time>
      </trkpt>
      <trkpt lat="47.16932" lon="4.94546">
        <ele>314.96447753906</ele>
        <time>2018-02-01T10:17:30+0100</time>
      </trkpt>
      <trkpt lat="47.16932" lon="4.94548">
        <ele>315.00634765625</ele>
        <time>2018-02-01T10:17:33+0100</time>
      </trkpt>
      <trkpt lat="47.16932" lon="4.94548">
        <ele>315.02459716797</ele>
        <time>2018-02-01T10:17:36+0100</time>
      </trkpt>
      <trkpt lat="47.16932" lon="4.94548">
        <ele>315.04608154297</ele>
        <time>2018-02-01T10:17:39+0100</time>
      </trkpt>
      <trkpt lat="47.16932" lon="4.94548">
        <ele>315.06253051758</ele>
        <time>2018-02-01T10:17:42+0100</time>
      </trkpt>
      <trkpt lat="47.16932" lon="4.94548">
        <ele>315.07989501953</ele>
        <time>2018-02-01T10:17:45+0100</time>
      </trkpt>
      <trkpt lat="47.16932" lon="4.94548">
        <ele>315.09759521484</ele>
        <time>2018-02-01T10:17:48+0100</time>
      </trkpt>
      <trkpt lat="47.16932" lon="4.94548">
        <ele>315.11254882812</ele>
        <time>2018-02-01T10:17:51+0100</time>
      </trkpt>
      <trkpt lat="47.16932" lon="4.94548">
        <ele>315.13317871094</ele>
        <time>2018-02-01T10:17:54+0100</time>
      </trkpt>
      <trkpt lat="47.16932" lon="4.94548">
        <ele>315.15740966797</ele>
        <time>2018-02-01T10:17:57+0100</time>
      </trkpt>
      <trkpt lat="47.16932" lon="4.94548">
        <ele>315.18395996094</ele>
        <time>2018-02-01T10:18:00+0100</time>
      </trkpt>
      <trkpt lat="47.16932" lon="4.94548">
        <ele>315.21224975586</ele>
        <time>2018-02-01T10:18:03+0100</time>
      </trkpt>
      <trkpt lat="47.16932" lon="4.94548">
        <ele>315.24264526367</ele>
        <time>2018-02-01T10:18:06+0100</time>
      </trkpt>
      <trkpt lat="47.16932" lon="4.94548">
        <ele>315.27136230469</ele>
        <time>2018-02-01T10:18:09+0100</time>
      </trkpt>
      <trkpt lat="47.16932" lon="4.94548">
        <ele>315.29598999023</ele>
        <time>2018-02-01T10:18:12+0100</time>
      </trkpt>
      <trkpt lat="47.16932" lon="4.94548">
        <ele>315.31478881836</ele>
        <time>2018-02-01T10:18:15+0100</time>
      </trkpt>
      <trkpt lat="47.16932" lon="4.94548">
        <ele>315.32949829102</ele>
        <time>2018-02-01T10:18:18+0100</time>
      </trkpt>
      <trkpt lat="47.16932" lon="4.94548">
        <ele>315.34350585938</ele>
        <time>2018-02-01T10:18:21+0100</time>
      </trkpt>
      <trkpt lat="47.16932" lon="4.94548">
        <ele>315.35482788086</ele>
        <time>2018-02-01T10:18:24+0100</time>
      </trkpt>
      <trkpt lat="47.16932" lon="4.94548">
        <ele>315.36517333984</ele>
        <time>2018-02-01T10:18:27+0100</time>
      </trkpt>
      <trkpt lat="47.16931" lon="4.94547">
        <ele>315.36993408203</ele>
        <time>2018-02-01T10:18:30+0100</time>
      </trkpt>
      <trkpt lat="47.16931" lon="4.94548">
        <ele>315.37969970703</ele>
        <time>2018-02-01T10:18:33+0100</time>
      </trkpt>
      <trkpt lat="47.16931" lon="4.94547">
        <ele>315.39547729492</ele>
        <time>2018-02-01T10:18:36+0100</time>
      </trkpt>
      <trkpt lat="47.1693" lon="4.94547">
        <ele>315.4153137207</ele>
        <time>2018-02-01T10:18:39+0100</time>
      </trkpt>
      <trkpt lat="47.1693" lon="4.94547">
        <ele>315.43923950195</ele>
        <time>2018-02-01T10:18:42+0100</time>
      </trkpt>
      <trkpt lat="47.1693" lon="4.94547">
        <ele>315.45565795898</ele>
        <time>2018-02-01T10:18:45+0100</time>
      </trkpt>
      <trkpt lat="47.1693" lon="4.94547">
        <ele>315.46444702148</ele>
        <time>2018-02-01T10:18:48+0100</time>
      </trkpt>
      <trkpt lat="47.1693" lon="4.94547">
        <ele>315.47631835938</ele>
        <time>2018-02-01T10:18:51+0100</time>
      </trkpt>
      <trkpt lat="47.16929" lon="4.94545">
        <ele>315.49624633789</ele>
        <time>2018-02-01T10:18:54+0100</time>
      </trkpt>
      <trkpt lat="47.16929" lon="4.94545">
        <ele>315.52899169922</ele>
        <time>2018-02-01T10:18:57+0100</time>
      </trkpt>
      <trkpt lat="47.16929" lon="4.94545">
        <ele>315.56503295898</ele>
        <time>2018-02-01T10:19:00+0100</time>
      </trkpt>
      <trkpt lat="47.16929" lon="4.94545">
        <ele>315.60485839844</ele>
        <time>2018-02-01T10:19:03+0100</time>
      </trkpt>
      <trkpt lat="47.16929" lon="4.94546">
        <ele>315.64138793945</ele>
        <time>2018-02-01T10:19:06+0100</time>
      </trkpt>
      <trkpt lat="47.16929" lon="4.94546">
        <ele>315.67849731445</ele>
        <time>2018-02-01T10:19:09+0100</time>
      </trkpt>
      <trkpt lat="47.1693" lon="4.94546">
        <ele>315.7155456543</ele>
        <time>2018-02-01T10:19:12+0100</time>
      </trkpt>
      <trkpt lat="47.1693" lon="4.94548">
        <ele>315.75238037109</ele>
        <time>2018-02-01T10:19:15+0100</time>
      </trkpt>
      <trkpt lat="47.1693" lon="4.94548">
        <ele>315.88760375977</ele>
        <time>2018-02-01T10:19:18+0100</time>
      </trkpt>
      <trkpt lat="47.1693" lon="4.94548">
        <ele>315.91320800781</ele>
        <time>2018-02-01T10:19:21+0100</time>
      </trkpt>
      <trkpt lat="47.1693" lon="4.94548">
        <ele>315.92739868164</ele>
        <time>2018-02-01T10:19:24+0100</time>
      </trkpt>
      <trkpt lat="47.1693" lon="4.94548">
        <ele>315.94064331055</ele>
        <time>2018-02-01T10:19:27+0100</time>
      </trkpt>
      <trkpt lat="47.16929" lon="4.94548">
        <ele>315.95272827148</ele>
        <time>2018-02-01T10:19:30+0100</time>
      </trkpt>
      <trkpt lat="47.16929" lon="4.94548">
        <ele>315.96148681641</ele>
        <time>2018-02-01T10:19:33+0100</time>
      </trkpt>
      <trkpt lat="47.16929" lon="4.94548">
        <ele>315.96664428711</ele>
        <time>2018-02-01T10:19:36+0100</time>
      </trkpt>
      <trkpt lat="47.16929" lon="4.94548">
        <ele>316.0061340332</ele>
        <time>2018-02-01T10:19:39+0100</time>
      </trkpt>
      <trkpt lat="47.16929" lon="4.94548">
        <ele>316.01223754883</ele>
        <time>2018-02-01T10:19:42+0100</time>
      </trkpt>
      <trkpt lat="47.16929" lon="4.94548">
        <ele>316.02670288086</ele>
        <time>2018-02-01T10:19:45+0100</time>
      </trkpt>
      <trkpt lat="47.16929" lon="4.94547">
        <ele>316.0417175293</ele>
        <time>2018-02-01T10:19:48+0100</time>
      </trkpt>
      <trkpt lat="47.16929" lon="4.94547">
        <ele>316.05834960938</ele>
        <time>2018-02-01T10:19:51+0100</time>
      </trkpt>
      <trkpt lat="47.16929" lon="4.94547">
        <ele>316.07168579102</ele>
        <time>2018-02-01T10:19:54+0100</time>
      </trkpt>
      <trkpt lat="47.16929" lon="4.94547">
        <ele>316.08087158203</ele>
        <time>2018-02-01T10:19:57+0100</time>
      </trkpt>
      <trkpt lat="47.16929" lon="4.94548">
        <ele>316.09729003906</ele>
        <time>2018-02-01T10:20:00+0100</time>
      </trkpt>
      <trkpt lat="47.16929" lon="4.94547">
        <ele>316.11569213867</ele>
        <time>2018-02-01T10:20:03+0100</time>
      </trkpt>
      <trkpt lat="47.16929" lon="4.94547">
        <ele>316.13388061523</ele>
        <time>2018-02-01T10:20:06+0100</time>
      </trkpt>
      <trkpt lat="47.16929" lon="4.94547">
        <ele>316.14755249023</ele>
        <time>2018-02-01T10:20:09+0100</time>
      </trkpt>
      <trkpt lat="47.16929" lon="4.94547">
        <ele>316.16223144531</ele>
        <time>2018-02-01T10:20:12+0100</time>
      </trkpt>
      <trkpt lat="47.16928" lon="4.94546">
        <ele>316.17660522461</ele>
        <time>2018-02-01T10:20:15+0100</time>
      </trkpt>
      <trkpt lat="47.16928" lon="4.94547">
        <ele>316.19085693359</ele>
        <time>2018-02-01T10:20:18+0100</time>
      </trkpt>
      <trkpt lat="47.16928" lon="4.94547">
        <ele>316.20562744141</ele>
        <time>2018-02-01T10:20:21+0100</time>
      </trkpt>
      <trkpt lat="47.16928" lon="4.94547">
        <ele>316.21145629883</ele>
        <time>2018-02-01T10:20:24+0100</time>
      </trkpt>
      <trkpt lat="47.16929" lon="4.94547">
        <ele>316.21221923828</ele>
        <time>2018-02-01T10:20:27+0100</time>
      </trkpt>
      <trkpt lat="47.16929" lon="4.94547">
        <ele>316.21783447266</ele>
        <time>2018-02-01T10:20:30+0100</time>
      </trkpt>
      <trkpt lat="47.1693" lon="4.94547">
        <ele>316.24328613281</ele>
        <time>2018-02-01T10:20:33+0100</time>
      </trkpt>
      <trkpt lat="47.1693" lon="4.94547">
        <ele>316.25122070312</ele>
        <time>2018-02-01T10:20:36+0100</time>
      </trkpt>
      <trkpt lat="47.1693" lon="4.94547">
        <ele>316.26171875</ele>
        <time>2018-02-01T10:20:39+0100</time>
      </trkpt>
      <trkpt lat="47.1693" lon="4.94547">
        <ele>316.27648925781</ele>
        <time>2018-02-01T10:20:42+0100</time>
      </trkpt>
      <trkpt lat="47.1693" lon="4.94548">
        <ele>316.34454345703</ele>
        <time>2018-02-01T10:20:45+0100</time>
      </trkpt>
      <trkpt lat="47.1693" lon="4.94548">
        <ele>316.55477905273</ele>
        <time>2018-02-01T10:20:48+0100</time>
      </trkpt>
      <trkpt lat="47.1693" lon="4.94549">
        <ele>316.82391357422</ele>
        <time>2018-02-01T10:20:51+0100</time>
      </trkpt>
      <trkpt lat="47.1693" lon="4.94549">
        <ele>316.84887695312</ele>
        <time>2018-02-01T10:20:54+0100</time>
      </trkpt>
      <trkpt lat="47.1693" lon="4.94549">
        <ele>316.86315917969</ele>
        <time>2018-02-01T10:20:57+0100</time>
      </trkpt>
      <trkpt lat="47.1693" lon="4.94549">
        <ele>316.8772277832</ele>
        <time>2018-02-01T10:21:00+0100</time>
      </trkpt>
      <trkpt lat="47.1693" lon="4.94549">
        <ele>316.89520263672</ele>
        <time>2018-02-01T10:21:03+0100</time>
      </trkpt>
      <trkpt lat="47.1693" lon="4.94549">
        <ele>316.91323852539</ele>
        <time>2018-02-01T10:21:06+0100</time>
      </trkpt>
      <trkpt lat="47.1693" lon="4.94549">
        <ele>316.93249511719</ele>
        <time>2018-02-01T10:21:09+0100</time>
      </trkpt>
      <trkpt lat="47.1693" lon="4.94549">
        <ele>316.95095825195</ele>
        <time>2018-02-01T10:21:12+0100</time>
      </trkpt>
      <trkpt lat="47.1693" lon="4.94549">
        <ele>316.96484375</ele>
        <time>2018-02-01T10:21:15+0100</time>
      </trkpt>
      <trkpt lat="47.1693" lon="4.94549">
        <ele>316.97424316406</ele>
        <time>2018-02-01T10:21:18+0100</time>
      </trkpt>
      <trkpt lat="47.1693" lon="4.94549">
        <ele>317.00897216797</ele>
        <time>2018-02-01T10:21:21+0100</time>
      </trkpt>
      <trkpt lat="47.1693" lon="4.94549">
        <ele>317.05157470703</ele>
        <time>2018-02-01T10:21:24+0100</time>
      </trkpt>
      <trkpt lat="47.16929" lon="4.94549">
        <ele>317.05972290039</ele>
        <time>2018-02-01T10:21:27+0100</time>
      </trkpt>
      <trkpt lat="47.16928" lon="4.94549">
        <ele>317.14852905273</ele>
        <time>2018-02-01T10:21:30+0100</time>
      </trkpt>
      <trkpt lat="47.16927" lon="4.9455">
        <ele>317.20074462891</ele>
        <time>2018-02-01T10:21:33+0100</time>
      </trkpt>
      <trkpt lat="47.16925" lon="4.94551">
        <ele>317.22802734375</ele>
        <time>2018-02-01T10:21:36+0100</time>
      </trkpt>
      <trkpt lat="47.16924" lon="4.94552">
        <ele>317.2080078125</ele>
        <time>2018-02-01T10:21:39+0100</time>
      </trkpt>
      <trkpt lat="47.16924" lon="4.94552">
        <ele>317.18075561523</ele>
        <time>2018-02-01T10:21:42+0100</time>
      </trkpt>
      <trkpt lat="47.16924" lon="4.94552">
        <ele>317.17691040039</ele>
        <time>2018-02-01T10:21:45+0100</time>
      </trkpt>
      <trkpt lat="47.16924" lon="4.94552">
        <ele>317.17291259766</ele>
        <time>2018-02-01T10:21:48+0100</time>
      </trkpt>
      <trkpt lat="47.16923" lon="4.94552">
        <ele>317.16040039062</ele>
        <time>2018-02-01T10:21:51+0100</time>
      </trkpt>
      <trkpt lat="47.16923" lon="4.94552">
        <ele>317.14147949219</ele>
        <time>2018-02-01T10:21:54+0100</time>
      </trkpt>
      <trkpt lat="47.16923" lon="4.94552">
        <ele>317.12170410156</ele>
        <time>2018-02-01T10:21:57+0100</time>
      </trkpt>
      <trkpt lat="47.16923" lon="4.94552">
        <ele>317.10241699219</ele>
        <time>2018-02-01T10:22:00+0100</time>
      </trkpt>
      <trkpt lat="47.16921" lon="4.94552">
        <ele>316.93286132812</ele>
        <time>2018-02-01T10:22:03+0100</time>
      </trkpt>
      <trkpt lat="47.16921" lon="4.94551">
        <ele>316.72802734375</ele>
        <time>2018-02-01T10:22:06+0100</time>
      </trkpt>
      <trkpt lat="47.16919" lon="4.94551">
        <ele>316.45233154297</ele>
        <time>2018-02-01T10:22:09+0100</time>
      </trkpt>
      <trkpt lat="47.16919" lon="4.94551">
        <ele>316.26123046875</ele>
        <time>2018-02-01T10:22:12+0100</time>
      </trkpt>
      <trkpt lat="47.16916" lon="4.94553">
        <ele>315.99993896484</ele>
        <time>2018-02-01T10:22:15+0100</time>
      </trkpt>
      <trkpt lat="47.16915" lon="4.94554">
        <ele>315.75634765625</ele>
        <time>2018-02-01T10:22:18+0100</time>
      </trkpt>
      <trkpt lat="47.16913" lon="4.94555">
        <ele>315.50411987305</ele>
        <time>2018-02-01T10:22:21+0100</time>
      </trkpt>
      <trkpt lat="47.16913" lon="4.94555">
        <ele>315.41052246094</ele>
        <time>2018-02-01T10:22:24+0100</time>
      </trkpt>
      <trkpt lat="47.16913" lon="4.94555">
        <ele>315.27407836914</ele>
        <time>2018-02-01T10:22:27+0100</time>
      </trkpt>
      <trkpt lat="47.16913" lon="4.94555">
        <ele>315.19812011719</ele>
        <time>2018-02-01T10:22:30+0100</time>
      </trkpt>
      <trkpt lat="47.16912" lon="4.94557">
        <ele>315.08767700195</ele>
        <time>2018-02-01T10:22:33+0100</time>
      </trkpt>
      <trkpt lat="47.16911" lon="4.94557">
        <ele>315.04763793945</ele>
        <time>2018-02-01T10:22:36+0100</time>
      </trkpt>
      <trkpt lat="47.16911" lon="4.94558">
        <ele>315.05090332031</ele>
        <time>2018-02-01T10:22:39+0100</time>
      </trkpt>
      <trkpt lat="47.16911" lon="4.94558">
        <ele>315.05874633789</ele>
        <time>2018-02-01T10:22:42+0100</time>
      </trkpt>
      <trkpt lat="47.16911" lon="4.94558">
        <ele>315.06704711914</ele>
        <time>2018-02-01T10:22:45+0100</time>
      </trkpt>
      <trkpt lat="47.16911" lon="4.94558">
        <ele>315.07373046875</ele>
        <time>2018-02-01T10:22:48+0100</time>
      </trkpt>
      <trkpt lat="47.16911" lon="4.94558">
        <ele>315.07568359375</ele>
        <time>2018-02-01T10:22:51+0100</time>
      </trkpt>
      <trkpt lat="47.16911" lon="4.94557">
        <ele>315.06881713867</ele>
        <time>2018-02-01T10:22:54+0100</time>
      </trkpt>
      <trkpt lat="47.16911" lon="4.94557">
        <ele>315.05798339844</ele>
        <time>2018-02-01T10:22:57+0100</time>
      </trkpt>
      <trkpt lat="47.16911" lon="4.94557">
        <ele>315.0505065918</ele>
        <time>2018-02-01T10:23:00+0100</time>
      </trkpt>
      <trkpt lat="47.16911" lon="4.94557">
        <ele>315.04458618164</ele>
        <time>2018-02-01T10:23:03+0100</time>
      </trkpt>
      <trkpt lat="47.16911" lon="4.94557">
        <ele>315.03186035156</ele>
        <time>2018-02-01T10:23:06+0100</time>
      </trkpt>
      <trkpt lat="47.16912" lon="4.94555">
        <ele>315.01696777344</ele>
        <time>2018-02-01T10:23:09+0100</time>
      </trkpt>
      <trkpt lat="47.16911" lon="4.9456">
        <ele>315.04797363281</ele>
        <time>2018-02-01T10:23:12+0100</time>
      </trkpt>
      <trkpt lat="47.16911" lon="4.94561">
        <ele>315.05297851562</ele>
        <time>2018-02-01T10:23:15+0100</time>
      </trkpt>
      <trkpt lat="47.16911" lon="4.94561">
        <ele>315.01745605469</ele>
        <time>2018-02-01T10:23:18+0100</time>
      </trkpt>
      <trkpt lat="47.16911" lon="4.94561">
        <ele>315.00595092773</ele>
        <time>2018-02-01T10:23:21+0100</time>
      </trkpt>
      <trkpt lat="47.16911" lon="4.94561">
        <ele>314.95092773438</ele>
        <time>2018-02-01T10:23:24+0100</time>
      </trkpt>
      <trkpt lat="47.16909" lon="4.94564">
        <ele>314.80239868164</ele>
        <time>2018-02-01T10:23:27+0100</time>
      </trkpt>
      <trkpt lat="47.16908" lon="4.94565">
        <ele>314.57946777344</ele>
        <time>2018-02-01T10:23:30+0100</time>
      </trkpt>
      <trkpt lat="47.16906" lon="4.94567">
        <ele>314.33972167969</ele>
        <time>2018-02-01T10:23:33+0100</time>
      </trkpt>
      <trkpt lat="47.16903" lon="4.94566">
        <ele>314.15405273438</ele>
        <time>2018-02-01T10:23:36+0100</time>
      </trkpt>
      <trkpt lat="47.16901" lon="4.94568">
        <ele>313.85317993164</ele>
        <time>2018-02-01T10:23:39+0100</time>
      </trkpt>
      <trkpt lat="47.169" lon="4.9457">
        <ele>313.50634765625</ele>
        <time>2018-02-01T10:23:42+0100</time>
      </trkpt>
      <trkpt lat="47.16898" lon="4.94572">
        <ele>313.24407958984</ele>
        <time>2018-02-01T10:23:45+0100</time>
      </trkpt>
      <trkpt lat="47.16896" lon="4.94574">
        <ele>312.83682250977</ele>
        <time>2018-02-01T10:23:48+0100</time>
      </trkpt>
      <trkpt lat="47.16895" lon="4.94578">
        <ele>312.35098266602</ele>
        <time>2018-02-01T10:23:51+0100</time>
      </trkpt>
      <trkpt lat="47.16894" lon="4.94581">
        <ele>311.80334472656</ele>
        <time>2018-02-01T10:23:54+0100</time>
      </trkpt>
      <trkpt lat="47.16893" lon="4.94582">
        <ele>311.28421020508</ele>
        <time>2018-02-01T10:23:57+0100</time>
      </trkpt>
      <trkpt lat="47.16891" lon="4.94582">
        <ele>310.79336547852</ele>
        <time>2018-02-01T10:24:00+0100</time>
      </trkpt>
      <trkpt lat="47.1689" lon="4.94583">
        <ele>310.31878662109</ele>
        <time>2018-02-01T10:24:03+0100</time>
      </trkpt>
      <trkpt lat="47.16891" lon="4.94582">
        <ele>310.26791381836</ele>
        <time>2018-02-01T10:24:06+0100</time>
      </trkpt>
      <trkpt lat="47.16891" lon="4.94583">
        <ele>310.21792602539</ele>
        <time>2018-02-01T10:24:09+0100</time>
      </trkpt>
      <trkpt lat="47.16891" lon="4.94583">
        <ele>310.17218017578</ele>
        <time>2018-02-01T10:24:12+0100</time>
      </trkpt>
      <trkpt lat="47.1689" lon="4.94583">
        <ele>310.13204956055</ele>
        <time>2018-02-01T10:24:15+0100</time>
      </trkpt>
      <trkpt lat="47.1689" lon="4.94583">
        <ele>310.09106445312</ele>
        <time>2018-02-01T10:24:18+0100</time>
      </trkpt>
      <trkpt lat="47.1689" lon="4.94583">
        <ele>310.04681396484</ele>
        <time>2018-02-01T10:24:21+0100</time>
      </trkpt>
      <trkpt lat="47.1689" lon="4.94583">
        <ele>310.00854492188</ele>
        <time>2018-02-01T10:24:24+0100</time>
      </trkpt>
      <trkpt lat="47.16889" lon="4.94584">
        <ele>309.85260009766</ele>
        <time>2018-02-01T10:24:27+0100</time>
      </trkpt>
      <trkpt lat="47.1689" lon="4.94584">
        <ele>309.80123901367</ele>
        <time>2018-02-01T10:24:30+0100</time>
      </trkpt>
      <trkpt lat="47.1689" lon="4.94584">
        <ele>309.74130249023</ele>
        <time>2018-02-01T10:24:33+0100</time>
      </trkpt>
      <trkpt lat="47.1689" lon="4.94585">
        <ele>309.67712402344</ele>
        <time>2018-02-01T10:24:36+0100</time>
      </trkpt>
      <trkpt lat="47.1689" lon="4.94585">
        <ele>309.61666870117</ele>
        <time>2018-02-01T10:24:39+0100</time>
      </trkpt>
      <trkpt lat="47.1689" lon="4.94585">
        <ele>309.56097412109</ele>
        <time>2018-02-01T10:24:42+0100</time>
      </trkpt>
      <trkpt lat="47.1689" lon="4.94585">
        <ele>309.51644897461</ele>
        <time>2018-02-01T10:24:45+0100</time>
      </trkpt>
      <trkpt lat="47.1689" lon="4.94585">
        <ele>309.48193359375</ele>
        <time>2018-02-01T10:24:48+0100</time>
      </trkpt>
      <trkpt lat="47.1689" lon="4.94585">
        <ele>309.45211791992</ele>
        <time>2018-02-01T10:24:51+0100</time>
      </trkpt>
      <trkpt lat="47.1689" lon="4.94585">
        <ele>309.42279052734</ele>
        <time>2018-02-01T10:24:54+0100</time>
      </trkpt>
      <trkpt lat="47.16889" lon="4.94585">
        <ele>309.39184570312</ele>
        <time>2018-02-01T10:24:57+0100</time>
      </trkpt>
      <trkpt lat="47.16889" lon="4.94585">
        <ele>309.36968994141</ele>
        <time>2018-02-01T10:25:00+0100</time>
      </trkpt>
      <trkpt lat="47.16889" lon="4.94585">
        <ele>309.35113525391</ele>
        <time>2018-02-01T10:25:03+0100</time>
      </trkpt>
      <trkpt lat="47.16889" lon="4.94585">
        <ele>309.3303527832</ele>
        <time>2018-02-01T10:25:06+0100</time>
      </trkpt>
      <trkpt lat="47.16889" lon="4.94585">
        <ele>309.30307006836</ele>
        <time>2018-02-01T10:25:09+0100</time>
      </trkpt>
      <trkpt lat="47.16889" lon="4.94585">
        <ele>309.2760925293</ele>
        <time>2018-02-01T10:25:12+0100</time>
      </trkpt>
      <trkpt lat="47.16888" lon="4.94585">
        <ele>309.2451171875</ele>
        <time>2018-02-01T10:25:15+0100</time>
      </trkpt>
      <trkpt lat="47.16888" lon="4.94585">
        <ele>309.21279907227</ele>
        <time>2018-02-01T10:25:18+0100</time>
      </trkpt>
      <trkpt lat="47.16887" lon="4.94585">
        <ele>309.17752075195</ele>
        <time>2018-02-01T10:25:21+0100</time>
      </trkpt>
      <trkpt lat="47.16887" lon="4.94585">
        <ele>309.13864135742</ele>
        <time>2018-02-01T10:25:24+0100</time>
      </trkpt>
      <trkpt lat="47.16886" lon="4.94585">
        <ele>308.9241027832</ele>
        <time>2018-02-01T10:25:27+0100</time>
      </trkpt>
      <trkpt lat="47.16883" lon="4.94584">
        <ele>308.63107299805</ele>
        <time>2018-02-01T10:25:30+0100</time>
      </trkpt>
      <trkpt lat="47.16881" lon="4.94584">
        <ele>308.36169433594</ele>
        <time>2018-02-01T10:25:33+0100</time>
      </trkpt>
      <trkpt lat="47.16879" lon="4.94585">
        <ele>308.08889770508</ele>
        <time>2018-02-01T10:25:36+0100</time>
      </trkpt>
      <trkpt lat="47.16878" lon="4.94585">
        <ele>307.92016601562</ele>
        <time>2018-02-01T10:25:39+0100</time>
      </trkpt>
      <trkpt lat="47.16875" lon="4.94586">
        <ele>307.73825073242</ele>
        <time>2018-02-01T10:25:42+0100</time>
      </trkpt>
      <trkpt lat="47.16873" lon="4.94588">
        <ele>307.55056762695</ele>
        <time>2018-02-01T10:25:45+0100</time>
      </trkpt>
      <trkpt lat="47.16871" lon="4.94589">
        <ele>307.31317138672</ele>
        <time>2018-02-01T10:25:48+0100</time>
      </trkpt>
      <trkpt lat="47.16868" lon="4.94591">
        <ele>307.05883789062</ele>
        <time>2018-02-01T10:25:51+0100</time>
      </trkpt>
      <trkpt lat="47.16866" lon="4.94592">
        <ele>306.84155273438</ele>
        <time>2018-02-01T10:25:54+0100</time>
      </trkpt>
      <trkpt lat="47.16864" lon="4.94593">
        <ele>306.63031005859</ele>
        <time>2018-02-01T10:25:57+0100</time>
      </trkpt>
      <trkpt lat="47.16862" lon="4.94595">
        <ele>306.42333984375</ele>
        <time>2018-02-01T10:26:00+0100</time>
      </trkpt>
      <trkpt lat="47.16861" lon="4.94597">
        <ele>306.1975402832</ele>
        <time>2018-02-01T10:26:03+0100</time>
      </trkpt>
      <trkpt lat="47.16859" lon="4.94598">
        <ele>305.99569702148</ele>
        <time>2018-02-01T10:26:06+0100</time>
      </trkpt>
      <trkpt lat="47.16856" lon="4.946">
        <ele>305.80767822266</ele>
        <time>2018-02-01T10:26:09+0100</time>
      </trkpt>
      <trkpt lat="47.16852" lon="4.94602">
        <ele>305.49993896484</ele>
        <time>2018-02-01T10:26:13+0100</time>
      </trkpt>
      <trkpt lat="47.1685" lon="4.94606">
        <ele>305.08413696289</ele>
        <time>2018-02-01T10:26:16+0100</time>
      </trkpt>
      <trkpt lat="47.16848" lon="4.94608">
        <ele>304.62887573242</ele>
        <time>2018-02-01T10:26:19+0100</time>
      </trkpt>
      <trkpt lat="47.16845" lon="4.94611">
        <ele>304.18695068359</ele>
        <time>2018-02-01T10:26:22+0100</time>
      </trkpt>
      <trkpt lat="47.16842" lon="4.94612">
        <ele>303.77490234375</ele>
        <time>2018-02-01T10:26:25+0100</time>
      </trkpt>
      <trkpt lat="47.1684" lon="4.94614">
        <ele>303.412109375</ele>
        <time>2018-02-01T10:26:28+0100</time>
      </trkpt>
      <trkpt lat="47.16838" lon="4.94617">
        <ele>303.09994506836</ele>
        <time>2018-02-01T10:26:31+0100</time>
      </trkpt>
      <trkpt lat="47.16836" lon="4.94621">
        <ele>302.73220825195</ele>
        <time>2018-02-01T10:26:34+0100</time>
      </trkpt>
      <trkpt lat="47.16836" lon="4.94622">
        <ele>302.38647460938</ele>
        <time>2018-02-01T10:26:37+0100</time>
      </trkpt>
      <trkpt lat="47.16833" lon="4.94625">
        <ele>302.1337890625</ele>
        <time>2018-02-01T10:26:40+0100</time>
      </trkpt>
      <trkpt lat="47.16831" lon="4.94627">
        <ele>301.8857421875</ele>
        <time>2018-02-01T10:26:43+0100</time>
      </trkpt>
      <trkpt lat="47.1683" lon="4.9463">
        <ele>301.59460449219</ele>
        <time>2018-02-01T10:26:46+0100</time>
      </trkpt>
      <trkpt lat="47.16827" lon="4.94631">
        <ele>301.29055786133</ele>
        <time>2018-02-01T10:26:49+0100</time>
      </trkpt>
      <trkpt lat="47.16825" lon="4.94633">
        <ele>300.99468994141</ele>
        <time>2018-02-01T10:26:52+0100</time>
      </trkpt>
      <trkpt lat="47.16823" lon="4.94636">
        <ele>300.70031738281</ele>
        <time>2018-02-01T10:26:55+0100</time>
      </trkpt>
      <trkpt lat="47.16821" lon="4.94637">
        <ele>300.40734863281</ele>
        <time>2018-02-01T10:26:58+0100</time>
      </trkpt>
      <trkpt lat="47.16819" lon="4.9464">
        <ele>300.11370849609</ele>
        <time>2018-02-01T10:27:01+0100</time>
      </trkpt>
      <trkpt lat="47.16817" lon="4.94641">
        <ele>299.86791992188</ele>
        <time>2018-02-01T10:27:04+0100</time>
      </trkpt>
      <trkpt lat="47.16815" lon="4.94644">
        <ele>299.65771484375</ele>
        <time>2018-02-01T10:27:07+0100</time>
      </trkpt>
      <trkpt lat="47.16813" lon="4.94645">
        <ele>299.47940063477</ele>
        <time>2018-02-01T10:27:10+0100</time>
      </trkpt>
      <trkpt lat="47.16812" lon="4.94646">
        <ele>299.35900878906</ele>
        <time>2018-02-01T10:27:13+0100</time>
      </trkpt>
      <trkpt lat="47.16809" lon="4.94649">
        <ele>299.14794921875</ele>
        <time>2018-02-01T10:27:16+0100</time>
      </trkpt>
      <trkpt lat="47.16808" lon="4.94651">
        <ele>298.95831298828</ele>
        <time>2018-02-01T10:27:19+0100</time>
      </trkpt>
      <trkpt lat="47.16807" lon="4.94654">
        <ele>298.70742797852</ele>
        <time>2018-02-01T10:27:22+0100</time>
      </trkpt>
      <trkpt lat="47.16806" lon="4.94658">
        <ele>298.35794067383</ele>
        <time>2018-02-01T10:27:25+0100</time>
      </trkpt>
      <trkpt lat="47.16803" lon="4.94661">
        <ele>298.0283203125</ele>
        <time>2018-02-01T10:27:28+0100</time>
      </trkpt>
      <trkpt lat="47.16801" lon="4.94663">
        <ele>297.59915161133</ele>
        <time>2018-02-01T10:27:31+0100</time>
      </trkpt>
      <trkpt lat="47.16799" lon="4.94667">
        <ele>297.08911132812</ele>
        <time>2018-02-01T10:27:34+0100</time>
      </trkpt>
      <trkpt lat="47.16798" lon="4.94669">
        <ele>296.56228637695</ele>
        <time>2018-02-01T10:27:37+0100</time>
      </trkpt>
      <trkpt lat="47.16796" lon="4.94671">
        <ele>296.09838867188</ele>
        <time>2018-02-01T10:27:40+0100</time>
      </trkpt>
      <trkpt lat="47.16794" lon="4.94671">
        <ele>295.70471191406</ele>
        <time>2018-02-01T10:27:43+0100</time>
      </trkpt>
      <trkpt lat="47.16792" lon="4.94673">
        <ele>295.36022949219</ele>
        <time>2018-02-01T10:27:46+0100</time>
      </trkpt>
      <trkpt lat="47.1679" lon="4.94675">
        <ele>294.99105834961</ele>
        <time>2018-02-01T10:27:49+0100</time>
      </trkpt>
      <trkpt lat="47.16788" lon="4.94678">
        <ele>294.54544067383</ele>
        <time>2018-02-01T10:27:52+0100</time>
      </trkpt>
      <trkpt lat="47.16786" lon="4.94681">
        <ele>294.03823852539</ele>
        <time>2018-02-01T10:27:55+0100</time>
      </trkpt>
      <trkpt lat="47.16785" lon="4.94683">
        <ele>293.49517822266</ele>
        <time>2018-02-01T10:27:58+0100</time>
      </trkpt>
      <trkpt lat="47.16782" lon="4.94685">
        <ele>292.97409057617</ele>
        <time>2018-02-01T10:28:01+0100</time>
      </trkpt>
      <trkpt lat="47.16779" lon="4.94686">
        <ele>292.4758605957</ele>
        <time>2018-02-01T10:28:04+0100</time>
      </trkpt>
      <trkpt lat="47.16777" lon="4.94687">
        <ele>292.03302001953</ele>
        <time>2018-02-01T10:28:07+0100</time>
      </trkpt>
      <trkpt lat="47.16774" lon="4.94688">
        <ele>291.63861083984</ele>
        <time>2018-02-01T10:28:10+0100</time>
      </trkpt>
      <trkpt lat="47.16772" lon="4.94689">
        <ele>291.267578125</ele>
        <time>2018-02-01T10:28:13+0100</time>
      </trkpt>
      <trkpt lat="47.1677" lon="4.9469">
        <ele>290.88333129883</ele>
        <time>2018-02-01T10:28:16+0100</time>
      </trkpt>
      <trkpt lat="47.16768" lon="4.94691">
        <ele>290.54168701172</ele>
        <time>2018-02-01T10:28:19+0100</time>
      </trkpt>
      <trkpt lat="47.16768" lon="4.94691">
        <ele>290.42279052734</ele>
        <time>2018-02-01T10:28:22+0100</time>
      </trkpt>
      <trkpt lat="47.16765" lon="4.94693">
        <ele>290.14166259766</ele>
        <time>2018-02-01T10:28:25+0100</time>
      </trkpt>
      <trkpt lat="47.16766" lon="4.94694">
        <ele>289.96151733398</ele>
        <time>2018-02-01T10:28:28+0100</time>
      </trkpt>
      <trkpt lat="47.16764" lon="4.94696">
        <ele>289.84686279297</ele>
        <time>2018-02-01T10:28:31+0100</time>
      </trkpt>
      <trkpt lat="47.16762" lon="4.94698">
        <ele>289.73721313477</ele>
        <time>2018-02-01T10:28:34+0100</time>
      </trkpt>
      <trkpt lat="47.1676" lon="4.947">
        <ele>289.65374755859</ele>
        <time>2018-02-01T10:28:37+0100</time>
      </trkpt>
      <trkpt lat="47.16757" lon="4.94702">
        <ele>289.59338378906</ele>
        <time>2018-02-01T10:28:40+0100</time>
      </trkpt>
      <trkpt lat="47.16754" lon="4.94705">
        <ele>289.56744384766</ele>
        <time>2018-02-01T10:28:43+0100</time>
      </trkpt>
      <trkpt lat="47.1675" lon="4.94707">
        <ele>289.49758911133</ele>
        <time>2018-02-01T10:28:46+0100</time>
      </trkpt>
      <trkpt lat="47.16747" lon="4.94711">
        <ele>289.30377197266</ele>
        <time>2018-02-01T10:28:49+0100</time>
      </trkpt>
      <trkpt lat="47.16746" lon="4.94713">
        <ele>289.01107788086</ele>
        <time>2018-02-01T10:28:52+0100</time>
      </trkpt>
      <trkpt lat="47.16743" lon="4.94715">
        <ele>288.73901367188</ele>
        <time>2018-02-01T10:28:55+0100</time>
      </trkpt>
      <trkpt lat="47.16741" lon="4.94716">
        <ele>288.49026489258</ele>
        <time>2018-02-01T10:28:58+0100</time>
      </trkpt>
      <trkpt lat="47.16739" lon="4.94718">
        <ele>288.20654296875</ele>
        <time>2018-02-01T10:29:01+0100</time>
      </trkpt>
      <trkpt lat="47.16737" lon="4.94721">
        <ele>287.87490844727</ele>
        <time>2018-02-01T10:29:04+0100</time>
      </trkpt>
      <trkpt lat="47.16735" lon="4.94724">
        <ele>287.4762878418</ele>
        <time>2018-02-01T10:29:07+0100</time>
      </trkpt>
      <trkpt lat="47.16733" lon="4.94725">
        <ele>287.10589599609</ele>
        <time>2018-02-01T10:29:10+0100</time>
      </trkpt>
      <trkpt lat="47.16732" lon="4.94727">
        <ele>286.83053588867</ele>
        <time>2018-02-01T10:29:13+0100</time>
      </trkpt>
      <trkpt lat="47.16731" lon="4.9473">
        <ele>286.59963989258</ele>
        <time>2018-02-01T10:29:16+0100</time>
      </trkpt>
      <trkpt lat="47.16729" lon="4.94732">
        <ele>286.33325195312</ele>
        <time>2018-02-01T10:29:19+0100</time>
      </trkpt>
      <trkpt lat="47.16728" lon="4.94735">
        <ele>286.02734375</ele>
        <time>2018-02-01T10:29:22+0100</time>
      </trkpt>
      <trkpt lat="47.16726" lon="4.94736">
        <ele>285.748046875</ele>
        <time>2018-02-01T10:29:25+0100</time>
      </trkpt>
      <trkpt lat="47.16724" lon="4.94737">
        <ele>285.50146484375</ele>
        <time>2018-02-01T10:29:28+0100</time>
      </trkpt>
      <trkpt lat="47.16723" lon="4.94739">
        <ele>285.29602050781</ele>
        <time>2018-02-01T10:29:31+0100</time>
      </trkpt>
      <trkpt lat="47.16721" lon="4.94741">
        <ele>285.12860107422</ele>
        <time>2018-02-01T10:29:34+0100</time>
      </trkpt>
      <trkpt lat="47.16718" lon="4.94743">
        <ele>284.92330932617</ele>
        <time>2018-02-01T10:29:37+0100</time>
      </trkpt>
      <trkpt lat="47.16717" lon="4.94746">
        <ele>284.70416259766</ele>
        <time>2018-02-01T10:29:40+0100</time>
      </trkpt>
      <trkpt lat="47.16715" lon="4.94748">
        <ele>284.45645141602</ele>
        <time>2018-02-01T10:29:43+0100</time>
      </trkpt>
      <trkpt lat="47.16712" lon="4.94751">
        <ele>284.18005371094</ele>
        <time>2018-02-01T10:29:46+0100</time>
      </trkpt>
      <trkpt lat="47.1671" lon="4.94753">
        <ele>283.87100219727</ele>
        <time>2018-02-01T10:29:49+0100</time>
      </trkpt>
      <trkpt lat="47.16708" lon="4.94754">
        <ele>283.56097412109</ele>
        <time>2018-02-01T10:29:52+0100</time>
      </trkpt>
      <trkpt lat="47.16705" lon="4.94759">
        <ele>283.2414855957</ele>
        <time>2018-02-01T10:29:55+0100</time>
      </trkpt>
      <trkpt lat="47.16703" lon="4.94761">
        <ele>282.87066650391</ele>
        <time>2018-02-01T10:29:58+0100</time>
      </trkpt>
      <trkpt lat="47.16701" lon="4.94765">
        <ele>282.5129699707</ele>
        <time>2018-02-01T10:30:01+0100</time>
      </trkpt>
      <trkpt lat="47.16699" lon="4.94769">
        <ele>282.09005737305</ele>
        <time>2018-02-01T10:30:04+0100</time>
      </trkpt>
      <trkpt lat="47.16698" lon="4.94771">
        <ele>281.63943481445</ele>
        <time>2018-02-01T10:30:07+0100</time>
      </trkpt>
      <trkpt lat="47.16696" lon="4.94774">
        <ele>281.19815063477</ele>
        <time>2018-02-01T10:30:10+0100</time>
      </trkpt>
      <trkpt lat="47.16694" lon="4.94777">
        <ele>280.76861572266</ele>
        <time>2018-02-01T10:30:13+0100</time>
      </trkpt>
      <trkpt lat="47.16692" lon="4.9478">
        <ele>280.35305786133</ele>
        <time>2018-02-01T10:30:16+0100</time>
      </trkpt>
      <trkpt lat="47.16691" lon="4.94781">
        <ele>279.95666503906</ele>
        <time>2018-02-01T10:30:19+0100</time>
      </trkpt>
      <trkpt lat="47.1669" lon="4.94782">
        <ele>279.6047668457</ele>
        <time>2018-02-01T10:30:22+0100</time>
      </trkpt>
      <trkpt lat="47.1669" lon="4.94782">
        <ele>279.41357421875</ele>
        <time>2018-02-01T10:30:25+0100</time>
      </trkpt>
      <trkpt lat="47.16689" lon="4.94784">
        <ele>279.25241088867</ele>
        <time>2018-02-01T10:30:28+0100</time>
      </trkpt>
      <trkpt lat="47.16688" lon="4.94785">
        <ele>279.17999267578</ele>
        <time>2018-02-01T10:30:31+0100</time>
      </trkpt>
      <trkpt lat="47.16686" lon="4.94787">
        <ele>279.13327026367</ele>
        <time>2018-02-01T10:30:34+0100</time>
      </trkpt>
      <trkpt lat="47.16684" lon="4.94791">
        <ele>279.03799438477</ele>
        <time>2018-02-01T10:30:37+0100</time>
      </trkpt>
      <trkpt lat="47.16683" lon="4.94793">
        <ele>278.921875</ele>
        <time>2018-02-01T10:30:40+0100</time>
      </trkpt>
      <trkpt lat="47.1668" lon="4.94798">
        <ele>278.73123168945</ele>
        <time>2018-02-01T10:30:43+0100</time>
      </trkpt>
      <trkpt lat="47.16678" lon="4.948">
        <ele>278.4348449707</ele>
        <time>2018-02-01T10:30:46+0100</time>
      </trkpt>
      <trkpt lat="47.16677" lon="4.94802">
        <ele>278.14727783203</ele>
        <time>2018-02-01T10:30:49+0100</time>
      </trkpt>
      <trkpt lat="47.16677" lon="4.94803">
        <ele>278.03277587891</ele>
        <time>2018-02-01T10:30:52+0100</time>
      </trkpt>
      <trkpt lat="47.16676" lon="4.94805">
        <ele>277.78436279297</ele>
        <time>2018-02-01T10:30:55+0100</time>
      </trkpt>
      <trkpt lat="47.16674" lon="4.94809">
        <ele>277.55239868164</ele>
        <time>2018-02-01T10:30:58+0100</time>
      </trkpt>
      <trkpt lat="47.16673" lon="4.94812">
        <ele>277.34884643555</ele>
        <time>2018-02-01T10:31:01+0100</time>
      </trkpt>
      <trkpt lat="47.1667" lon="4.94814">
        <ele>277.1692199707</ele>
        <time>2018-02-01T10:31:04+0100</time>
      </trkpt>
      <trkpt lat="47.16668" lon="4.94817">
        <ele>277.01788330078</ele>
        <time>2018-02-01T10:31:07+0100</time>
      </trkpt>
      <trkpt lat="47.16666" lon="4.94819">
        <ele>276.81369018555</ele>
        <time>2018-02-01T10:31:10+0100</time>
      </trkpt>
      <trkpt lat="47.16664" lon="4.94818">
        <ele>276.69833374023</ele>
        <time>2018-02-01T10:31:13+0100</time>
      </trkpt>
      <trkpt lat="47.16662" lon="4.94819">
        <ele>276.64471435547</ele>
        <time>2018-02-01T10:31:16+0100</time>
      </trkpt>
      <trkpt lat="47.1666" lon="4.94821">
        <ele>276.61065673828</ele>
        <time>2018-02-01T10:31:19+0100</time>
      </trkpt>
      <trkpt lat="47.16657" lon="4.94823">
        <ele>276.57073974609</ele>
        <time>2018-02-01T10:31:22+0100</time>
      </trkpt>
      <trkpt lat="47.16655" lon="4.94824">
        <ele>276.5276184082</ele>
        <time>2018-02-01T10:31:25+0100</time>
      </trkpt>
      <trkpt lat="47.16652" lon="4.94825">
        <ele>276.48400878906</ele>
        <time>2018-02-01T10:31:28+0100</time>
      </trkpt>
      <trkpt lat="47.1665" lon="4.94826">
        <ele>276.44342041016</ele>
        <time>2018-02-01T10:31:31+0100</time>
      </trkpt>
      <trkpt lat="47.16647" lon="4.94827">
        <ele>276.40020751953</ele>
        <time>2018-02-01T10:31:34+0100</time>
      </trkpt>
      <trkpt lat="47.16645" lon="4.94828">
        <ele>276.33706665039</ele>
        <time>2018-02-01T10:31:37+0100</time>
      </trkpt>
      <trkpt lat="47.16643" lon="4.94829">
        <ele>276.29382324219</ele>
        <time>2018-02-01T10:31:40+0100</time>
      </trkpt>
      <trkpt lat="47.16641" lon="4.9483">
        <ele>276.31134033203</ele>
        <time>2018-02-01T10:31:43+0100</time>
      </trkpt>
      <trkpt lat="47.16638" lon="4.94831">
        <ele>276.39855957031</ele>
        <time>2018-02-01T10:31:46+0100</time>
      </trkpt>
      <trkpt lat="47.16636" lon="4.94833">
        <ele>276.51596069336</ele>
        <time>2018-02-01T10:31:49+0100</time>
      </trkpt>
      <trkpt lat="47.16633" lon="4.94834">
        <ele>276.59683227539</ele>
        <time>2018-02-01T10:31:52+0100</time>
      </trkpt>
      <trkpt lat="47.16631" lon="4.94835">
        <ele>276.67956542969</ele>
        <time>2018-02-01T10:31:55+0100</time>
      </trkpt>
      <trkpt lat="47.16629" lon="4.94836">
        <ele>276.78192138672</ele>
        <time>2018-02-01T10:31:58+0100</time>
      </trkpt>
      <trkpt lat="47.16625" lon="4.94837">
        <ele>276.84725952148</ele>
        <time>2018-02-01T10:32:01+0100</time>
      </trkpt>
      <trkpt lat="47.16621" lon="4.94839">
        <ele>276.87930297852</ele>
        <time>2018-02-01T10:32:04+0100</time>
      </trkpt>
      <trkpt lat="47.16619" lon="4.94841">
        <ele>276.92193603516</ele>
        <time>2018-02-01T10:32:07+0100</time>
      </trkpt>
      <trkpt lat="47.16616" lon="4.94843">
        <ele>276.97311401367</ele>
        <time>2018-02-01T10:32:10+0100</time>
      </trkpt>
      <trkpt lat="47.16613" lon="4.94844">
        <ele>277.03890991211</ele>
        <time>2018-02-01T10:32:13+0100</time>
      </trkpt>
      <trkpt lat="47.16611" lon="4.94846">
        <ele>277.07733154297</ele>
        <time>2018-02-01T10:32:16+0100</time>
      </trkpt>
      <trkpt lat="47.16608" lon="4.94847">
        <ele>277.11004638672</ele>
        <time>2018-02-01T10:32:19+0100</time>
      </trkpt>
      <trkpt lat="47.16606" lon="4.94849">
        <ele>277.17236328125</ele>
        <time>2018-02-01T10:32:22+0100</time>
      </trkpt>
      <trkpt lat="47.16603" lon="4.9485">
        <ele>277.23510742188</ele>
        <time>2018-02-01T10:32:25+0100</time>
      </trkpt>
      <trkpt lat="47.16599" lon="4.94852">
        <ele>277.23956298828</ele>
        <time>2018-02-01T10:32:28+0100</time>
      </trkpt>
      <trkpt lat="47.16596" lon="4.94853">
        <ele>277.17730712891</ele>
        <time>2018-02-01T10:32:31+0100</time>
      </trkpt>
      <trkpt lat="47.16594" lon="4.94855">
        <ele>277.09292602539</ele>
        <time>2018-02-01T10:32:34+0100</time>
      </trkpt>
      <trkpt lat="47.16591" lon="4.94856">
        <ele>276.99203491211</ele>
        <time>2018-02-01T10:32:37+0100</time>
      </trkpt>
      <trkpt lat="47.16588" lon="4.94858">
        <ele>276.87664794922</ele>
        <time>2018-02-01T10:32:40+0100</time>
      </trkpt>
      <trkpt lat="47.16585" lon="4.9486">
        <ele>276.71871948242</ele>
        <time>2018-02-01T10:32:43+0100</time>
      </trkpt>
      <trkpt lat="47.16582" lon="4.94861">
        <ele>276.55432128906</ele>
        <time>2018-02-01T10:32:46+0100</time>
      </trkpt>
      <trkpt lat="47.16579" lon="4.94862">
        <ele>276.41973876953</ele>
        <time>2018-02-01T10:32:49+0100</time>
      </trkpt>
      <trkpt lat="47.16576" lon="4.94864">
        <ele>276.29119873047</ele>
        <time>2018-02-01T10:32:52+0100</time>
      </trkpt>
      <trkpt lat="47.16572" lon="4.94866">
        <ele>276.15585327148</ele>
        <time>2018-02-01T10:32:55+0100</time>
      </trkpt>
      <trkpt lat="47.16569" lon="4.94868">
        <ele>276.00579833984</ele>
        <time>2018-02-01T10:32:58+0100</time>
      </trkpt>
      <trkpt lat="47.16566" lon="4.9487">
        <ele>275.79580688477</ele>
        <time>2018-02-01T10:33:01+0100</time>
      </trkpt>
      <trkpt lat="47.16563" lon="4.94873">
        <ele>275.63247680664</ele>
        <time>2018-02-01T10:33:04+0100</time>
      </trkpt>
      <trkpt lat="47.16561" lon="4.94876">
        <ele>275.46096801758</ele>
        <time>2018-02-01T10:33:07+0100</time>
      </trkpt>
      <trkpt lat="47.16559" lon="4.9488">
        <ele>275.23983764648</ele>
        <time>2018-02-01T10:33:10+0100</time>
      </trkpt>
      <trkpt lat="47.16557" lon="4.94884">
        <ele>274.98382568359</ele>
        <time>2018-02-01T10:33:13+0100</time>
      </trkpt>
      <trkpt lat="47.16555" lon="4.94888">
        <ele>274.69375610352</ele>
        <time>2018-02-01T10:33:16+0100</time>
      </trkpt>
      <trkpt lat="47.16554" lon="4.94892">
        <ele>274.36026000977</ele>
        <time>2018-02-01T10:33:19+0100</time>
      </trkpt>
      <trkpt lat="47.16552" lon="4.94895">
        <ele>274.03994750977</ele>
        <time>2018-02-01T10:33:22+0100</time>
      </trkpt>
      <trkpt lat="47.1655" lon="4.94898">
        <ele>273.68475341797</ele>
        <time>2018-02-01T10:33:25+0100</time>
      </trkpt>
      <trkpt lat="47.16548" lon="4.94902">
        <ele>273.32391357422</ele>
        <time>2018-02-01T10:33:28+0100</time>
      </trkpt>
      <trkpt lat="47.16546" lon="4.94906">
        <ele>272.95407104492</ele>
        <time>2018-02-01T10:33:31+0100</time>
      </trkpt>
      <trkpt lat="47.16544" lon="4.94909">
        <ele>272.53912353516</ele>
        <time>2018-02-01T10:33:34+0100</time>
      </trkpt>
      <trkpt lat="47.16543" lon="4.94913">
        <ele>272.10119628906</ele>
        <time>2018-02-01T10:33:37+0100</time>
      </trkpt>
      <trkpt lat="47.16541" lon="4.94915">
        <ele>271.72387695312</ele>
        <time>2018-02-01T10:33:40+0100</time>
      </trkpt>
      <trkpt lat="47.16538" lon="4.94917">
        <ele>271.466796875</ele>
        <time>2018-02-01T10:33:43+0100</time>
      </trkpt>
      <trkpt lat="47.16536" lon="4.94918">
        <ele>271.3369140625</ele>
        <time>2018-02-01T10:33:46+0100</time>
      </trkpt>
      <trkpt lat="47.16533" lon="4.94921">
        <ele>271.23474121094</ele>
        <time>2018-02-01T10:33:49+0100</time>
      </trkpt>
      <trkpt lat="47.16531" lon="4.94923">
        <ele>271.10794067383</ele>
        <time>2018-02-01T10:33:52+0100</time>
      </trkpt>
      <trkpt lat="47.16529" lon="4.94926">
        <ele>271.06423950195</ele>
        <time>2018-02-01T10:33:55+0100</time>
      </trkpt>
      <trkpt lat="47.16527" lon="4.94929">
        <ele>271.06085205078</ele>
        <time>2018-02-01T10:33:58+0100</time>
      </trkpt>
      <trkpt lat="47.16524" lon="4.94931">
        <ele>271.0358581543</ele>
        <time>2018-02-01T10:34:01+0100</time>
      </trkpt>
      <trkpt lat="47.16522" lon="4.94934">
        <ele>271.03607177734</ele>
        <time>2018-02-01T10:34:04+0100</time>
      </trkpt>
      <trkpt lat="47.16519" lon="4.94936">
        <ele>271.05587768555</ele>
        <time>2018-02-01T10:34:07+0100</time>
      </trkpt>
      <trkpt lat="47.16516" lon="4.94938">
        <ele>271.11050415039</ele>
        <time>2018-02-01T10:34:10+0100</time>
      </trkpt>
      <trkpt lat="47.16513" lon="4.94941">
        <ele>271.12408447266</ele>
        <time>2018-02-01T10:34:13+0100</time>
      </trkpt>
      <trkpt lat="47.16509" lon="4.94944">
        <ele>271.03945922852</ele>
        <time>2018-02-01T10:34:16+0100</time>
      </trkpt>
      <trkpt lat="47.16506" lon="4.94947">
        <ele>270.75311279297</ele>
        <time>2018-02-01T10:34:19+0100</time>
      </trkpt>
      <trkpt lat="47.16502" lon="4.9495">
        <ele>270.32818603516</ele>
        <time>2018-02-01T10:34:22+0100</time>
      </trkpt>
      <trkpt lat="47.16499" lon="4.94952">
        <ele>269.83148193359</ele>
        <time>2018-02-01T10:34:25+0100</time>
      </trkpt>
      <trkpt lat="47.16496" lon="4.94953">
        <ele>269.32006835938</ele>
        <time>2018-02-01T10:34:28+0100</time>
      </trkpt>
      <trkpt lat="47.16493" lon="4.94955">
        <ele>268.83267211914</ele>
        <time>2018-02-01T10:34:31+0100</time>
      </trkpt>
      <trkpt lat="47.1649" lon="4.94957">
        <ele>268.37686157227</ele>
        <time>2018-02-01T10:34:34+0100</time>
      </trkpt>
      <trkpt lat="47.16487" lon="4.94959">
        <ele>267.98251342773</ele>
        <time>2018-02-01T10:34:37+0100</time>
      </trkpt>
      <trkpt lat="47.16485" lon="4.94961">
        <ele>267.65744018555</ele>
        <time>2018-02-01T10:34:40+0100</time>
      </trkpt>
      <trkpt lat="47.16482" lon="4.94964">
        <ele>267.36727905273</ele>
        <time>2018-02-01T10:34:43+0100</time>
      </trkpt>
      <trkpt lat="47.1648" lon="4.94966">
        <ele>267.07891845703</ele>
        <time>2018-02-01T10:34:46+0100</time>
      </trkpt>
      <trkpt lat="47.16477" lon="4.94968">
        <ele>266.85321044922</ele>
        <time>2018-02-01T10:34:49+0100</time>
      </trkpt>
      <trkpt lat="47.16474" lon="4.9497">
        <ele>266.68646240234</ele>
        <time>2018-02-01T10:34:52+0100</time>
      </trkpt>
      <trkpt lat="47.16472" lon="4.94974">
        <ele>266.45223999023</ele>
        <time>2018-02-01T10:34:55+0100</time>
      </trkpt>
      <trkpt lat="47.1647" lon="4.94978">
        <ele>266.12799072266</ele>
        <time>2018-02-01T10:34:58+0100</time>
      </trkpt>
      <trkpt lat="47.16467" lon="4.9498">
        <ele>265.77429199219</ele>
        <time>2018-02-01T10:35:01+0100</time>
      </trkpt>
      <trkpt lat="47.16464" lon="4.94983">
        <ele>265.50283813477</ele>
        <time>2018-02-01T10:35:04+0100</time>
      </trkpt>
      <trkpt lat="47.16462" lon="4.94987">
        <ele>265.15341186523</ele>
        <time>2018-02-01T10:35:07+0100</time>
      </trkpt>
      <trkpt lat="47.1646" lon="4.94991">
        <ele>264.76382446289</ele>
        <time>2018-02-01T10:35:10+0100</time>
      </trkpt>
      <trkpt lat="47.16458" lon="4.94994">
        <ele>264.33111572266</ele>
        <time>2018-02-01T10:35:13+0100</time>
      </trkpt>
      <trkpt lat="47.16456" lon="4.94997">
        <ele>263.89877319336</ele>
        <time>2018-02-01T10:35:16+0100</time>
      </trkpt>
      <trkpt lat="47.16454" lon="4.95001">
        <ele>263.47436523438</ele>
        <time>2018-02-01T10:35:19+0100</time>
      </trkpt>
      <trkpt lat="47.16452" lon="4.95005">
        <ele>263.13412475586</ele>
        <time>2018-02-01T10:35:22+0100</time>
      </trkpt>
      <trkpt lat="47.1645" lon="4.95008">
        <ele>262.79348754883</ele>
        <time>2018-02-01T10:35:25+0100</time>
      </trkpt>
      <trkpt lat="47.16448" lon="4.95011">
        <ele>262.53433227539</ele>
        <time>2018-02-01T10:35:28+0100</time>
      </trkpt>
      <trkpt lat="47.16446" lon="4.95014">
        <ele>262.33444213867</ele>
        <time>2018-02-01T10:35:31+0100</time>
      </trkpt>
      <trkpt lat="47.16444" lon="4.95018">
        <ele>262.18035888672</ele>
        <time>2018-02-01T10:35:34+0100</time>
      </trkpt>
      <trkpt lat="47.16442" lon="4.95022">
        <ele>262.00112915039</ele>
        <time>2018-02-01T10:35:37+0100</time>
      </trkpt>
      <trkpt lat="47.1644" lon="4.95025">
        <ele>261.81619262695</ele>
        <time>2018-02-01T10:35:40+0100</time>
      </trkpt>
      <trkpt lat="47.16439" lon="4.95026">
        <ele>261.67123413086</ele>
        <time>2018-02-01T10:35:43+0100</time>
      </trkpt>
      <trkpt lat="47.16436" lon="4.95028">
        <ele>261.474609375</ele>
        <time>2018-02-01T10:35:46+0100</time>
      </trkpt>
      <trkpt lat="47.16434" lon="4.95027">
        <ele>261.2785949707</ele>
        <time>2018-02-01T10:35:49+0100</time>
      </trkpt>
      <trkpt lat="47.16431" lon="4.95026">
        <ele>261.16497802734</ele>
        <time>2018-02-01T10:35:52+0100</time>
      </trkpt>
      <trkpt lat="47.16428" lon="4.95025">
        <ele>261.09582519531</ele>
        <time>2018-02-01T10:35:55+0100</time>
      </trkpt>
      <trkpt lat="47.16426" lon="4.95025">
        <ele>261.03723144531</ele>
        <time>2018-02-01T10:35:58+0100</time>
      </trkpt>
      <trkpt lat="47.16423" lon="4.95024">
        <ele>260.97543334961</ele>
        <time>2018-02-01T10:36:01+0100</time>
      </trkpt>
      <trkpt lat="47.1642" lon="4.95023">
        <ele>260.90423583984</ele>
        <time>2018-02-01T10:36:04+0100</time>
      </trkpt>
      <trkpt lat="47.16418" lon="4.95023">
        <ele>260.85549926758</ele>
        <time>2018-02-01T10:36:07+0100</time>
      </trkpt>
      <trkpt lat="47.16415" lon="4.95022">
        <ele>260.83847045898</ele>
        <time>2018-02-01T10:36:10+0100</time>
      </trkpt>
      <trkpt lat="47.16412" lon="4.95022">
        <ele>260.8782043457</ele>
        <time>2018-02-01T10:36:13+0100</time>
      </trkpt>
      <trkpt lat="47.16409" lon="4.95022">
        <ele>260.96765136719</ele>
        <time>2018-02-01T10:36:16+0100</time>
      </trkpt>
      <trkpt lat="47.16406" lon="4.95021">
        <ele>261.06521606445</ele>
        <time>2018-02-01T10:36:19+0100</time>
      </trkpt>
      <trkpt lat="47.16404" lon="4.95021">
        <ele>261.1745300293</ele>
        <time>2018-02-01T10:36:22+0100</time>
      </trkpt>
      <trkpt lat="47.16401" lon="4.95021">
        <ele>261.27258300781</ele>
        <time>2018-02-01T10:36:25+0100</time>
      </trkpt>
      <trkpt lat="47.16398" lon="4.95022">
        <ele>261.36508178711</ele>
        <time>2018-02-01T10:36:28+0100</time>
      </trkpt>
      <trkpt lat="47.16395" lon="4.95024">
        <ele>261.44177246094</ele>
        <time>2018-02-01T10:36:31+0100</time>
      </trkpt>
      <trkpt lat="47.16392" lon="4.95028">
        <ele>261.45379638672</ele>
        <time>2018-02-01T10:36:34+0100</time>
      </trkpt>
      <trkpt lat="47.1639" lon="4.95031">
        <ele>261.41247558594</ele>
        <time>2018-02-01T10:36:37+0100</time>
      </trkpt>
      <trkpt lat="47.16388" lon="4.95033">
        <ele>261.48782348633</ele>
        <time>2018-02-01T10:36:40+0100</time>
      </trkpt>
      <trkpt lat="47.16387" lon="4.95037">
        <ele>261.66757202148</ele>
        <time>2018-02-01T10:36:43+0100</time>
      </trkpt>
      <trkpt lat="47.16386" lon="4.9504">
        <ele>261.8864440918</ele>
        <time>2018-02-01T10:36:46+0100</time>
      </trkpt>
      <trkpt lat="47.16384" lon="4.95044">
        <ele>262.05456542969</ele>
        <time>2018-02-01T10:36:49+0100</time>
      </trkpt>
      <trkpt lat="47.16381" lon="4.95047">
        <ele>262.19021606445</ele>
        <time>2018-02-01T10:36:52+0100</time>
      </trkpt>
      <trkpt lat="47.16379" lon="4.9505">
        <ele>262.30328369141</ele>
        <time>2018-02-01T10:36:55+0100</time>
      </trkpt>
      <trkpt lat="47.16377" lon="4.95054">
        <ele>262.39077758789</ele>
        <time>2018-02-01T10:36:58+0100</time>
      </trkpt>
      <trkpt lat="47.16375" lon="4.95057">
        <ele>262.42962646484</ele>
        <time>2018-02-01T10:37:01+0100</time>
      </trkpt>
      <trkpt lat="47.16373" lon="4.9506">
        <ele>262.42193603516</ele>
        <time>2018-02-01T10:37:04+0100</time>
      </trkpt>
      <trkpt lat="47.16371" lon="4.95062">
        <ele>262.37509155273</ele>
        <time>2018-02-01T10:37:07+0100</time>
      </trkpt>
      <trkpt lat="47.16368" lon="4.95063">
        <ele>262.34603881836</ele>
        <time>2018-02-01T10:37:10+0100</time>
      </trkpt>
      <trkpt lat="47.16365" lon="4.95064">
        <ele>262.33590698242</ele>
        <time>2018-02-01T10:37:13+0100</time>
      </trkpt>
      <trkpt lat="47.16362" lon="4.95066">
        <ele>262.3020324707</ele>
        <time>2018-02-01T10:37:16+0100</time>
      </trkpt>
      <trkpt lat="47.1636" lon="4.95069">
        <ele>262.26196289062</ele>
        <time>2018-02-01T10:37:19+0100</time>
      </trkpt>
      <trkpt lat="47.16357" lon="4.95071">
        <ele>262.19946289062</ele>
        <time>2018-02-01T10:37:22+0100</time>
      </trkpt>
      <trkpt lat="47.16355" lon="4.95071">
        <ele>262.13479614258</ele>
        <time>2018-02-01T10:37:25+0100</time>
      </trkpt>
      <trkpt lat="47.16352" lon="4.95072">
        <ele>262.08703613281</ele>
        <time>2018-02-01T10:37:28+0100</time>
      </trkpt>
      <trkpt lat="47.16349" lon="4.95073">
        <ele>262.04766845703</ele>
        <time>2018-02-01T10:37:31+0100</time>
      </trkpt>
      <trkpt lat="47.16347" lon="4.95073">
        <ele>262.00106811523</ele>
        <time>2018-02-01T10:37:34+0100</time>
      </trkpt>
      <trkpt lat="47.16345" lon="4.95073">
        <ele>261.99301147461</ele>
        <time>2018-02-01T10:37:37+0100</time>
      </trkpt>
      <trkpt lat="47.16342" lon="4.95074">
        <ele>262.0188293457</ele>
        <time>2018-02-01T10:37:40+0100</time>
      </trkpt>
      <trkpt lat="47.1634" lon="4.95074">
        <ele>262.07800292969</ele>
        <time>2018-02-01T10:37:43+0100</time>
      </trkpt>
      <trkpt lat="47.16337" lon="4.95075">
        <ele>262.14947509766</ele>
        <time>2018-02-01T10:37:46+0100</time>
      </trkpt>
      <trkpt lat="47.16333" lon="4.95076">
        <ele>262.20880126953</ele>
        <time>2018-02-01T10:37:49+0100</time>
      </trkpt>
      <trkpt lat="47.16331" lon="4.95077">
        <ele>262.25787353516</ele>
        <time>2018-02-01T10:37:52+0100</time>
      </trkpt>
      <trkpt lat="47.16327" lon="4.95078">
        <ele>262.24603271484</ele>
        <time>2018-02-01T10:37:55+0100</time>
      </trkpt>
      <trkpt lat="47.16324" lon="4.95079">
        <ele>262.18435668945</ele>
        <time>2018-02-01T10:37:58+0100</time>
      </trkpt>
      <trkpt lat="47.16321" lon="4.95079">
        <ele>262.14532470703</ele>
        <time>2018-02-01T10:38:01+0100</time>
      </trkpt>
      <trkpt lat="47.16318" lon="4.95079">
        <ele>262.13912963867</ele>
        <time>2018-02-01T10:38:04+0100</time>
      </trkpt>
      <trkpt lat="47.16316" lon="4.95079">
        <ele>262.17864990234</ele>
        <time>2018-02-01T10:38:07+0100</time>
      </trkpt>
      <trkpt lat="47.16313" lon="4.95079">
        <ele>262.18844604492</ele>
        <time>2018-02-01T10:38:10+0100</time>
      </trkpt>
      <trkpt lat="47.1631" lon="4.9508">
        <ele>262.16024780273</ele>
        <time>2018-02-01T10:38:13+0100</time>
      </trkpt>
      <trkpt lat="47.16306" lon="4.95079">
        <ele>262.05783081055</ele>
        <time>2018-02-01T10:38:16+0100</time>
      </trkpt>
      <trkpt lat="47.16303" lon="4.95079">
        <ele>261.96466064453</ele>
        <time>2018-02-01T10:38:19+0100</time>
      </trkpt>
      <trkpt lat="47.163" lon="4.95079">
        <ele>261.90319824219</ele>
        <time>2018-02-01T10:38:22+0100</time>
      </trkpt>
      <trkpt lat="47.16297" lon="4.95079">
        <ele>261.84042358398</ele>
        <time>2018-02-01T10:38:25+0100</time>
      </trkpt>
      <trkpt lat="47.16294" lon="4.95078">
        <ele>261.81588745117</ele>
        <time>2018-02-01T10:38:28+0100</time>
      </trkpt>
      <trkpt lat="47.16291" lon="4.95077">
        <ele>261.84271240234</ele>
        <time>2018-02-01T10:38:31+0100</time>
      </trkpt>
      <trkpt lat="47.16288" lon="4.95076">
        <ele>261.84375</ele>
        <time>2018-02-01T10:38:34+0100</time>
      </trkpt>
      <trkpt lat="47.16284" lon="4.95076">
        <ele>261.82577514648</ele>
        <time>2018-02-01T10:38:37+0100</time>
      </trkpt>
      <trkpt lat="47.16281" lon="4.95075">
        <ele>261.81756591797</ele>
        <time>2018-02-01T10:38:40+0100</time>
      </trkpt>
      <trkpt lat="47.16278" lon="4.95074">
        <ele>261.82452392578</ele>
        <time>2018-02-01T10:38:43+0100</time>
      </trkpt>
      <trkpt lat="47.16275" lon="4.95073">
        <ele>261.84463500977</ele>
        <time>2018-02-01T10:38:46+0100</time>
      </trkpt>
      <trkpt lat="47.16272" lon="4.95072">
        <ele>261.86199951172</ele>
        <time>2018-02-01T10:38:49+0100</time>
      </trkpt>
      <trkpt lat="47.16269" lon="4.95071">
        <ele>261.85327148438</ele>
        <time>2018-02-01T10:38:52+0100</time>
      </trkpt>
      <trkpt lat="47.16266" lon="4.95071">
        <ele>261.80963134766</ele>
        <time>2018-02-01T10:38:55+0100</time>
      </trkpt>
      <trkpt lat="47.16263" lon="4.95071">
        <ele>261.72036743164</ele>
        <time>2018-02-01T10:38:58+0100</time>
      </trkpt>
      <trkpt lat="47.1626" lon="4.95071">
        <ele>261.59765625</ele>
        <time>2018-02-01T10:39:01+0100</time>
      </trkpt>
      <trkpt lat="47.16256" lon="4.95071">
        <ele>261.43804931641</ele>
        <time>2018-02-01T10:39:04+0100</time>
      </trkpt>
      <trkpt lat="47.16253" lon="4.95072">
        <ele>261.2082824707</ele>
        <time>2018-02-01T10:39:07+0100</time>
      </trkpt>
      <trkpt lat="47.16249" lon="4.95071">
        <ele>261.00112915039</ele>
        <time>2018-02-01T10:39:10+0100</time>
      </trkpt>
      <trkpt lat="47.16246" lon="4.9507">
        <ele>260.86505126953</ele>
        <time>2018-02-01T10:39:13+0100</time>
      </trkpt>
      <trkpt lat="47.16243" lon="4.95069">
        <ele>260.78991699219</ele>
        <time>2018-02-01T10:39:16+0100</time>
      </trkpt>
      <trkpt lat="47.1624" lon="4.95069">
        <ele>260.7307434082</ele>
        <time>2018-02-01T10:39:19+0100</time>
      </trkpt>
      <trkpt lat="47.16237" lon="4.95068">
        <ele>260.70184326172</ele>
        <time>2018-02-01T10:39:22+0100</time>
      </trkpt>
      <trkpt lat="47.16234" lon="4.95068">
        <ele>260.68051147461</ele>
        <time>2018-02-01T10:39:25+0100</time>
      </trkpt>
      <trkpt lat="47.16231" lon="4.95069">
        <ele>260.64703369141</ele>
        <time>2018-02-01T10:39:28+0100</time>
      </trkpt>
      <trkpt lat="47.16228" lon="4.95069">
        <ele>260.59283447266</ele>
        <time>2018-02-01T10:39:31+0100</time>
      </trkpt>
      <trkpt lat="47.16225" lon="4.9507">
        <ele>260.48858642578</ele>
        <time>2018-02-01T10:39:34+0100</time>
      </trkpt>
      <trkpt lat="47.16221" lon="4.95072">
        <ele>260.31451416016</ele>
        <time>2018-02-01T10:39:37+0100</time>
      </trkpt>
      <trkpt lat="47.16219" lon="4.95073">
        <ele>260.10052490234</ele>
        <time>2018-02-01T10:39:40+0100</time>
      </trkpt>
      <trkpt lat="47.16216" lon="4.95075">
        <ele>259.88854980469</ele>
        <time>2018-02-01T10:39:43+0100</time>
      </trkpt>
      <trkpt lat="47.16215" lon="4.95076">
        <ele>259.73724365234</ele>
        <time>2018-02-01T10:39:46+0100</time>
      </trkpt>
      <trkpt lat="47.16214" lon="4.95076">
        <ele>259.71835327148</ele>
        <time>2018-02-01T10:39:49+0100</time>
      </trkpt>
      <trkpt lat="47.16214" lon="4.95076">
        <ele>259.68807983398</ele>
        <time>2018-02-01T10:39:52+0100</time>
      </trkpt>
      <trkpt lat="47.16214" lon="4.95076">
        <ele>259.58679199219</ele>
        <time>2018-02-01T10:39:55+0100</time>
      </trkpt>
      <trkpt lat="47.16214" lon="4.95076">
        <ele>259.41525268555</ele>
        <time>2018-02-01T10:39:58+0100</time>
      </trkpt>
      <trkpt lat="47.16214" lon="4.95076">
        <ele>259.38555908203</ele>
        <time>2018-02-01T10:40:01+0100</time>
      </trkpt>
      <trkpt lat="47.16214" lon="4.95076">
        <ele>259.34423828125</ele>
        <time>2018-02-01T10:40:04+0100</time>
      </trkpt>
      <trkpt lat="47.16214" lon="4.95077">
        <ele>259.17749023438</ele>
        <time>2018-02-01T10:40:07+0100</time>
      </trkpt>
      <trkpt lat="47.16213" lon="4.95077">
        <ele>259.13629150391</ele>
        <time>2018-02-01T10:40:10+0100</time>
      </trkpt>
      <trkpt lat="47.16212" lon="4.95078">
        <ele>258.8591003418</ele>
        <time>2018-02-01T10:40:13+0100</time>
      </trkpt>
      <trkpt lat="47.1621" lon="4.95079">
        <ele>258.50158691406</ele>
        <time>2018-02-01T10:40:16+0100</time>
      </trkpt>
      <trkpt lat="47.16211" lon="4.95078">
        <ele>258.48034667969</ele>
        <time>2018-02-01T10:40:19+0100</time>
      </trkpt>
      <trkpt lat="47.16211" lon="4.95078">
        <ele>258.4660949707</ele>
        <time>2018-02-01T10:40:21+0100</time>
      </trkpt>
      <trkpt lat="47.16211" lon="4.95078">
        <ele>258.45385742188</ele>
        <time>2018-02-01T10:40:24+0100</time>
      </trkpt>
      <trkpt lat="47.16211" lon="4.95078">
        <ele>258.44149780273</ele>
        <time>2018-02-01T10:40:27+0100</time>
      </trkpt>
      <trkpt lat="47.1621" lon="4.95078">
        <ele>258.3952331543</ele>
        <time>2018-02-01T10:40:30+0100</time>
      </trkpt>
      <trkpt lat="47.16207" lon="4.95079">
        <ele>258.33950805664</ele>
        <time>2018-02-01T10:40:33+0100</time>
      </trkpt>
      <trkpt lat="47.16205" lon="4.9508">
        <ele>258.28186035156</ele>
        <time>2018-02-01T10:40:36+0100</time>
      </trkpt>
      <trkpt lat="47.16203" lon="4.9508">
        <ele>258.24081420898</ele>
        <time>2018-02-01T10:40:39+0100</time>
      </trkpt>
      <trkpt lat="47.16203" lon="4.9508">
        <ele>258.23587036133</ele>
        <time>2018-02-01T10:40:42+0100</time>
      </trkpt>
      <trkpt lat="47.16204" lon="4.9508">
        <ele>258.23559570312</ele>
        <time>2018-02-01T10:40:45+0100</time>
      </trkpt>
      <trkpt lat="47.16203" lon="4.9508">
        <ele>258.21435546875</ele>
        <time>2018-02-01T10:40:48+0100</time>
      </trkpt>
      <trkpt lat="47.16205" lon="4.9508">
        <ele>258.19201660156</ele>
        <time>2018-02-01T10:40:51+0100</time>
      </trkpt>
      <trkpt lat="47.16205" lon="4.9508">
        <ele>258.19445800781</ele>
        <time>2018-02-01T10:40:54+0100</time>
      </trkpt>
      <trkpt lat="47.16205" lon="4.9508">
        <ele>258.21759033203</ele>
        <time>2018-02-01T10:40:57+0100</time>
      </trkpt>
      <trkpt lat="47.16205" lon="4.95081">
        <ele>258.22564697266</ele>
        <time>2018-02-01T10:41:00+0100</time>
      </trkpt>
      <trkpt lat="47.16205" lon="4.95081">
        <ele>258.25228881836</ele>
        <time>2018-02-01T10:41:03+0100</time>
      </trkpt>
      <trkpt lat="47.16204" lon="4.95081">
        <ele>258.27493286133</ele>
        <time>2018-02-01T10:41:06+0100</time>
      </trkpt>
      <trkpt lat="47.16202" lon="4.95082">
        <ele>258.27618408203</ele>
        <time>2018-02-01T10:41:09+0100</time>
      </trkpt>
      <trkpt lat="47.16202" lon="4.95082">
        <ele>258.28005981445</ele>
        <time>2018-02-01T10:41:12+0100</time>
      </trkpt>
      <trkpt lat="47.16202" lon="4.95082">
        <ele>258.28234863281</ele>
        <time>2018-02-01T10:41:15+0100</time>
      </trkpt>
      <trkpt lat="47.16201" lon="4.95082">
        <ele>258.28341674805</ele>
        <time>2018-02-01T10:41:18+0100</time>
      </trkpt>
      <trkpt lat="47.16201" lon="4.95082">
        <ele>258.30258178711</ele>
        <time>2018-02-01T10:41:21+0100</time>
      </trkpt>
      <trkpt lat="47.16201" lon="4.95082">
        <ele>258.3154296875</ele>
        <time>2018-02-01T10:41:24+0100</time>
      </trkpt>
      <trkpt lat="47.16201" lon="4.95082">
        <ele>258.31848144531</ele>
        <time>2018-02-01T10:41:27+0100</time>
      </trkpt>
      <trkpt lat="47.16201" lon="4.95082">
        <ele>258.32211303711</ele>
        <time>2018-02-01T10:41:30+0100</time>
      </trkpt>
      <trkpt lat="47.16201" lon="4.95082">
        <ele>258.32705688477</ele>
        <time>2018-02-01T10:41:33+0100</time>
      </trkpt>
      <trkpt lat="47.16201" lon="4.95082">
        <ele>258.33334350586</ele>
        <time>2018-02-01T10:41:36+0100</time>
      </trkpt>
      <trkpt lat="47.16201" lon="4.95082">
        <ele>258.37689208984</ele>
        <time>2018-02-01T10:41:39+0100</time>
      </trkpt>
      <trkpt lat="47.16201" lon="4.95082">
        <ele>258.38980102539</ele>
        <time>2018-02-01T10:41:42+0100</time>
      </trkpt>
      <trkpt lat="47.162" lon="4.95082">
        <ele>258.39505004883</ele>
        <time>2018-02-01T10:41:45+0100</time>
      </trkpt>
      <trkpt lat="47.162" lon="4.95083">
        <ele>258.39526367188</ele>
        <time>2018-02-01T10:41:48+0100</time>
      </trkpt>
      <trkpt lat="47.162" lon="4.95083">
        <ele>258.39682006836</ele>
        <time>2018-02-01T10:41:51+0100</time>
      </trkpt>
      <trkpt lat="47.162" lon="4.95083">
        <ele>258.39862060547</ele>
        <time>2018-02-01T10:41:54+0100</time>
      </trkpt>
      <trkpt lat="47.162" lon="4.95083">
        <ele>258.40063476562</ele>
        <time>2018-02-01T10:41:57+0100</time>
      </trkpt>
      <trkpt lat="47.162" lon="4.95083">
        <ele>258.40295410156</ele>
        <time>2018-02-01T10:42:00+0100</time>
      </trkpt>
      <trkpt lat="47.162" lon="4.95083">
        <ele>258.42007446289</ele>
        <time>2018-02-01T10:42:03+0100</time>
      </trkpt>
      <trkpt lat="47.16199" lon="4.95083">
        <ele>258.43450927734</ele>
        <time>2018-02-01T10:42:06+0100</time>
      </trkpt>
      <trkpt lat="47.16199" lon="4.95083">
        <ele>258.43515014648</ele>
        <time>2018-02-01T10:42:09+0100</time>
      </trkpt>
      <trkpt lat="47.16199" lon="4.95083">
        <ele>258.4284362793</ele>
        <time>2018-02-01T10:42:12+0100</time>
      </trkpt>
      <trkpt lat="47.16199" lon="4.95083">
        <ele>258.42300415039</ele>
        <time>2018-02-01T10:42:15+0100</time>
      </trkpt>
      <trkpt lat="47.16199" lon="4.95083">
        <ele>258.41683959961</ele>
        <time>2018-02-01T10:42:18+0100</time>
      </trkpt>
      <trkpt lat="47.16199" lon="4.95083">
        <ele>258.4114074707</ele>
        <time>2018-02-01T10:42:21+0100</time>
      </trkpt>
      <trkpt lat="47.16199" lon="4.95083">
        <ele>258.40731811523</ele>
        <time>2018-02-01T10:42:24+0100</time>
      </trkpt>
      <trkpt lat="47.16198" lon="4.95084">
        <ele>258.41299438477</ele>
        <time>2018-02-01T10:42:27+0100</time>
      </trkpt>
      <trkpt lat="47.16198" lon="4.95084">
        <ele>258.41445922852</ele>
        <time>2018-02-01T10:42:30+0100</time>
      </trkpt>
      <trkpt lat="47.16197" lon="4.95084">
        <ele>258.41632080078</ele>
        <time>2018-02-01T10:42:33+0100</time>
      </trkpt>
      <trkpt lat="47.16197" lon="4.95084">
        <ele>258.42068481445</ele>
        <time>2018-02-01T10:42:36+0100</time>
      </trkpt>
      <trkpt lat="47.16197" lon="4.95084">
        <ele>258.42684936523</ele>
        <time>2018-02-01T10:42:39+0100</time>
      </trkpt>
      <trkpt lat="47.16197" lon="4.95084">
        <ele>258.43206787109</ele>
        <time>2018-02-01T10:42:42+0100</time>
      </trkpt>
      <trkpt lat="47.16197" lon="4.95084">
        <ele>258.44125366211</ele>
        <time>2018-02-01T10:42:45+0100</time>
      </trkpt>
      <trkpt lat="47.16197" lon="4.95084">
        <ele>258.45123291016</ele>
        <time>2018-02-01T10:42:48+0100</time>
      </trkpt>
      <trkpt lat="47.16197" lon="4.95084">
        <ele>258.45849609375</ele>
        <time>2018-02-01T10:42:51+0100</time>
      </trkpt>
      <trkpt lat="47.16197" lon="4.95084">
        <ele>258.46682739258</ele>
        <time>2018-02-01T10:42:54+0100</time>
      </trkpt>
      <trkpt lat="47.16197" lon="4.95084">
        <ele>258.47625732422</ele>
        <time>2018-02-01T10:42:57+0100</time>
      </trkpt>
      <trkpt lat="47.16197" lon="4.95084">
        <ele>258.48556518555</ele>
        <time>2018-02-01T10:43:00+0100</time>
      </trkpt>
      <trkpt lat="47.16196" lon="4.95084">
        <ele>258.49661254883</ele>
        <time>2018-02-01T10:43:03+0100</time>
      </trkpt>
      <trkpt lat="47.16196" lon="4.95084">
        <ele>258.50848388672</ele>
        <time>2018-02-01T10:43:06+0100</time>
      </trkpt>
      <trkpt lat="47.16197" lon="4.95083">
        <ele>258.60116577148</ele>
        <time>2018-02-01T10:43:09+0100</time>
      </trkpt>
      <trkpt lat="47.16196" lon="4.95084">
        <ele>258.61038208008</ele>
        <time>2018-02-01T10:43:12+0100</time>
      </trkpt>
      <trkpt lat="47.16196" lon="4.95084">
        <ele>258.61254882812</ele>
        <time>2018-02-01T10:43:15+0100</time>
      </trkpt>
      <trkpt lat="47.16196" lon="4.95084">
        <ele>258.61093139648</ele>
        <time>2018-02-01T10:43:18+0100</time>
      </trkpt>
      <trkpt lat="47.16196" lon="4.95084">
        <ele>258.61441040039</ele>
        <time>2018-02-01T10:43:21+0100</time>
      </trkpt>
      <trkpt lat="47.16196" lon="4.95084">
        <ele>258.61947631836</ele>
        <time>2018-02-01T10:43:24+0100</time>
      </trkpt>
      <trkpt lat="47.16196" lon="4.95084">
        <ele>258.62615966797</ele>
        <time>2018-02-01T10:43:27+0100</time>
      </trkpt>
      <trkpt lat="47.16196" lon="4.95084">
        <ele>258.63287353516</ele>
        <time>2018-02-01T10:43:30+0100</time>
      </trkpt>
      <trkpt lat="47.16196" lon="4.95084">
        <ele>258.64157104492</ele>
        <time>2018-02-01T10:43:33+0100</time>
      </trkpt>
      <trkpt lat="47.16196" lon="4.95084">
        <ele>258.65213012695</ele>
        <time>2018-02-01T10:43:36+0100</time>
      </trkpt>
      <trkpt lat="47.16196" lon="4.95084">
        <ele>258.6611328125</ele>
        <time>2018-02-01T10:43:39+0100</time>
      </trkpt>
      <trkpt lat="47.16196" lon="4.95084">
        <ele>258.66827392578</ele>
        <time>2018-02-01T10:43:42+0100</time>
      </trkpt>
      <trkpt lat="47.16196" lon="4.95084">
        <ele>258.67617797852</ele>
        <time>2018-02-01T10:43:45+0100</time>
      </trkpt>
      <trkpt lat="47.16196" lon="4.95084">
        <ele>258.68215942383</ele>
        <time>2018-02-01T10:43:48+0100</time>
      </trkpt>
      <trkpt lat="47.16196" lon="4.95084">
        <ele>258.68759155273</ele>
        <time>2018-02-01T10:43:51+0100</time>
      </trkpt>
      <trkpt lat="47.16196" lon="4.95084">
        <ele>258.69451904297</ele>
        <time>2018-02-01T10:43:54+0100</time>
      </trkpt>
      <trkpt lat="47.16196" lon="4.95084">
        <ele>258.70300292969</ele>
        <time>2018-02-01T10:43:57+0100</time>
      </trkpt>
      <trkpt lat="47.16196" lon="4.95085">
        <ele>258.70663452148</ele>
        <time>2018-02-01T10:44:00+0100</time>
      </trkpt>
      <trkpt lat="47.16197" lon="4.95085">
        <ele>258.71270751953</ele>
        <time>2018-02-01T10:44:03+0100</time>
      </trkpt>
      <trkpt lat="47.16196" lon="4.95085">
        <ele>258.72122192383</ele>
        <time>2018-02-01T10:44:06+0100</time>
      </trkpt>
      <trkpt lat="47.16196" lon="4.95085">
        <ele>258.73217773438</ele>
        <time>2018-02-01T10:44:09+0100</time>
      </trkpt>
      <trkpt lat="47.16196" lon="4.95085">
        <ele>258.74063110352</ele>
        <time>2018-02-01T10:44:12+0100</time>
      </trkpt>
      <trkpt lat="47.16196" lon="4.95085">
        <ele>258.75018310547</ele>
        <time>2018-02-01T10:44:15+0100</time>
      </trkpt>
      <trkpt lat="47.16196" lon="4.95085">
        <ele>258.76153564453</ele>
        <time>2018-02-01T10:44:18+0100</time>
      </trkpt>
      <trkpt lat="47.16196" lon="4.95085">
        <ele>258.77224731445</ele>
        <time>2018-02-01T10:44:21+0100</time>
      </trkpt>
      <trkpt lat="47.16196" lon="4.95085">
        <ele>258.85772705078</ele>
        <time>2018-02-01T10:44:24+0100</time>
      </trkpt>
      <trkpt lat="47.16196" lon="4.95084">
        <ele>258.95346069336</ele>
        <time>2018-02-01T10:44:27+0100</time>
      </trkpt>
      <trkpt lat="47.16196" lon="4.95084">
        <ele>258.96246337891</ele>
        <time>2018-02-01T10:44:30+0100</time>
      </trkpt>
      <trkpt lat="47.16196" lon="4.95085">
        <ele>258.96377563477</ele>
        <time>2018-02-01T10:44:33+0100</time>
      </trkpt>
      <trkpt lat="47.16196" lon="4.95085">
        <ele>258.96142578125</ele>
        <time>2018-02-01T10:44:36+0100</time>
      </trkpt>
      <trkpt lat="47.16196" lon="4.95085">
        <ele>258.95907592773</ele>
        <time>2018-02-01T10:44:39+0100</time>
      </trkpt>
      <trkpt lat="47.16195" lon="4.95086">
        <ele>258.85952758789</ele>
        <time>2018-02-01T10:44:42+0100</time>
      </trkpt>
      <trkpt lat="47.16193" lon="4.95087">
        <ele>258.80029296875</ele>
        <time>2018-02-01T10:44:45+0100</time>
      </trkpt>
      <trkpt lat="47.1619" lon="4.95088">
        <ele>258.74017333984</ele>
        <time>2018-02-01T10:44:48+0100</time>
      </trkpt>
      <trkpt lat="47.16187" lon="4.95088">
        <ele>258.67819213867</ele>
        <time>2018-02-01T10:44:51+0100</time>
      </trkpt>
      <trkpt lat="47.16185" lon="4.95088">
        <ele>258.60629272461</ele>
        <time>2018-02-01T10:44:54+0100</time>
      </trkpt>
      <trkpt lat="47.16181" lon="4.95088">
        <ele>258.56747436523</ele>
        <time>2018-02-01T10:44:57+0100</time>
      </trkpt>
      <trkpt lat="47.16178" lon="4.95088">
        <ele>258.50299072266</ele>
        <time>2018-02-01T10:45:00+0100</time>
      </trkpt>
      <trkpt lat="47.16174" lon="4.95089">
        <ele>258.4573059082</ele>
        <time>2018-02-01T10:45:03+0100</time>
      </trkpt>
      <trkpt lat="47.16171" lon="4.95088">
        <ele>258.40576171875</ele>
        <time>2018-02-01T10:45:06+0100</time>
      </trkpt>
      <trkpt lat="47.16167" lon="4.95087">
        <ele>258.36859130859</ele>
        <time>2018-02-01T10:45:09+0100</time>
      </trkpt>
      <trkpt lat="47.16164" lon="4.95086">
        <ele>258.35861206055</ele>
        <time>2018-02-01T10:45:12+0100</time>
      </trkpt>
      <trkpt lat="47.16161" lon="4.95085">
        <ele>258.38864135742</ele>
        <time>2018-02-01T10:45:15+0100</time>
      </trkpt>
      <trkpt lat="47.16158" lon="4.95084">
        <ele>258.46453857422</ele>
        <time>2018-02-01T10:45:18+0100</time>
      </trkpt>
      <trkpt lat="47.16156" lon="4.95084">
        <ele>258.55944824219</ele>
        <time>2018-02-01T10:45:21+0100</time>
      </trkpt>
      <trkpt lat="47.16153" lon="4.95083">
        <ele>258.66528320312</ele>
        <time>2018-02-01T10:45:24+0100</time>
      </trkpt>
      <trkpt lat="47.1615" lon="4.95083">
        <ele>258.73825073242</ele>
        <time>2018-02-01T10:45:27+0100</time>
      </trkpt>
      <trkpt lat="47.16147" lon="4.95082">
        <ele>258.7799987793</ele>
        <time>2018-02-01T10:45:30+0100</time>
      </trkpt>
      <trkpt lat="47.16143" lon="4.95082">
        <ele>258.76406860352</ele>
        <time>2018-02-01T10:45:33+0100</time>
      </trkpt>
      <trkpt lat="47.16141" lon="4.95082">
        <ele>258.65484619141</ele>
        <time>2018-02-01T10:45:36+0100</time>
      </trkpt>
      <trkpt lat="47.16137" lon="4.95081">
        <ele>258.51126098633</ele>
        <time>2018-02-01T10:45:39+0100</time>
      </trkpt>
      <trkpt lat="47.16135" lon="4.95081">
        <ele>258.34600830078</ele>
        <time>2018-02-01T10:45:42+0100</time>
      </trkpt>
      <trkpt lat="47.16132" lon="4.9508">
        <ele>258.20092773438</ele>
        <time>2018-02-01T10:45:45+0100</time>
      </trkpt>
      <trkpt lat="47.16129" lon="4.95078">
        <ele>258.12811279297</ele>
        <time>2018-02-01T10:45:48+0100</time>
      </trkpt>
      <trkpt lat="47.16126" lon="4.95078">
        <ele>258.09994506836</ele>
        <time>2018-02-01T10:45:51+0100</time>
      </trkpt>
      <trkpt lat="47.16123" lon="4.95076">
        <ele>258.11822509766</ele>
        <time>2018-02-01T10:45:54+0100</time>
      </trkpt>
      <trkpt lat="47.16121" lon="4.95075">
        <ele>258.14971923828</ele>
        <time>2018-02-01T10:45:57+0100</time>
      </trkpt>
      <trkpt lat="47.16118" lon="4.95074">
        <ele>258.16201782227</ele>
        <time>2018-02-01T10:46:00+0100</time>
      </trkpt>
      <trkpt lat="47.16114" lon="4.95073">
        <ele>258.17779541016</ele>
        <time>2018-02-01T10:46:03+0100</time>
      </trkpt>
      <trkpt lat="47.16112" lon="4.95073">
        <ele>258.20794677734</ele>
        <time>2018-02-01T10:46:06+0100</time>
      </trkpt>
      <trkpt lat="47.16109" lon="4.95073">
        <ele>258.23852539062</ele>
        <time>2018-02-01T10:46:09+0100</time>
      </trkpt>
      <trkpt lat="47.16106" lon="4.95072">
        <ele>258.21319580078</ele>
        <time>2018-02-01T10:46:12+0100</time>
      </trkpt>
      <trkpt lat="47.16103" lon="4.95071">
        <ele>258.1728515625</ele>
        <time>2018-02-01T10:46:15+0100</time>
      </trkpt>
      <trkpt lat="47.16101" lon="4.95071">
        <ele>258.13235473633</ele>
        <time>2018-02-01T10:46:18+0100</time>
      </trkpt>
      <trkpt lat="47.16099" lon="4.9507">
        <ele>258.10189819336</ele>
        <time>2018-02-01T10:46:21+0100</time>
      </trkpt>
      <trkpt lat="47.16098" lon="4.9507">
        <ele>258.09225463867</ele>
        <time>2018-02-01T10:46:24+0100</time>
      </trkpt>
      <trkpt lat="47.16098" lon="4.9507">
        <ele>258.09808349609</ele>
        <time>2018-02-01T10:46:27+0100</time>
      </trkpt>
      <trkpt lat="47.16098" lon="4.95069">
        <ele>258.11611938477</ele>
        <time>2018-02-01T10:46:30+0100</time>
      </trkpt>
      <trkpt lat="47.16098" lon="4.95069">
        <ele>258.11322021484</ele>
        <time>2018-02-01T10:46:33+0100</time>
      </trkpt>
      <trkpt lat="47.16098" lon="4.95069">
        <ele>258.1032409668</ele>
        <time>2018-02-01T10:46:36+0100</time>
      </trkpt>
      <trkpt lat="47.16098" lon="4.95069">
        <ele>258.08609008789</ele>
        <time>2018-02-01T10:46:39+0100</time>
      </trkpt>
      <trkpt lat="47.16098" lon="4.95069">
        <ele>258.06695556641</ele>
        <time>2018-02-01T10:46:42+0100</time>
      </trkpt>
      <trkpt lat="47.16098" lon="4.95069">
        <ele>258.04507446289</ele>
        <time>2018-02-01T10:46:45+0100</time>
      </trkpt>
      <trkpt lat="47.16098" lon="4.95069">
        <ele>258.0224609375</ele>
        <time>2018-02-01T10:46:48+0100</time>
      </trkpt>
      <trkpt lat="47.16098" lon="4.95069">
        <ele>257.99859619141</ele>
        <time>2018-02-01T10:46:51+0100</time>
      </trkpt>
      <trkpt lat="47.16098" lon="4.95069">
        <ele>257.97485351562</ele>
        <time>2018-02-01T10:46:54+0100</time>
      </trkpt>
      <trkpt lat="47.16097" lon="4.95069">
        <ele>257.95297241211</ele>
        <time>2018-02-01T10:46:57+0100</time>
      </trkpt>
      <trkpt lat="47.16097" lon="4.9507">
        <ele>257.92837524414</ele>
        <time>2018-02-01T10:47:00+0100</time>
      </trkpt>
      <trkpt lat="47.16097" lon="4.9507">
        <ele>257.90475463867</ele>
        <time>2018-02-01T10:47:03+0100</time>
      </trkpt>
      <trkpt lat="47.16097" lon="4.9507">
        <ele>257.88226318359</ele>
        <time>2018-02-01T10:47:06+0100</time>
      </trkpt>
      <trkpt lat="47.16097" lon="4.9507">
        <ele>257.86065673828</ele>
        <time>2018-02-01T10:47:09+0100</time>
      </trkpt>
      <trkpt lat="47.16097" lon="4.9507">
        <ele>257.8376159668</ele>
        <time>2018-02-01T10:47:12+0100</time>
      </trkpt>
      <trkpt lat="47.16097" lon="4.9507">
        <ele>257.81604003906</ele>
        <time>2018-02-01T10:47:15+0100</time>
      </trkpt>
      <trkpt lat="47.16097" lon="4.9507">
        <ele>257.79916381836</ele>
        <time>2018-02-01T10:47:18+0100</time>
      </trkpt>
      <trkpt lat="47.16097" lon="4.9507">
        <ele>257.7868347168</ele>
        <time>2018-02-01T10:47:21+0100</time>
      </trkpt>
      <trkpt lat="47.16097" lon="4.9507">
        <ele>257.765625</ele>
        <time>2018-02-01T10:47:24+0100</time>
      </trkpt>
      <trkpt lat="47.16097" lon="4.95071">
        <ele>257.73669433594</ele>
        <time>2018-02-01T10:47:27+0100</time>
      </trkpt>
      <trkpt lat="47.16097" lon="4.95071">
        <ele>257.70239257812</ele>
        <time>2018-02-01T10:47:30+0100</time>
      </trkpt>
      <trkpt lat="47.16097" lon="4.95071">
        <ele>257.66546630859</ele>
        <time>2018-02-01T10:47:33+0100</time>
      </trkpt>
      <trkpt lat="47.16097" lon="4.95071">
        <ele>257.62994384766</ele>
        <time>2018-02-01T10:47:36+0100</time>
      </trkpt>
      <trkpt lat="47.16097" lon="4.95071">
        <ele>257.59927368164</ele>
        <time>2018-02-01T10:47:39+0100</time>
      </trkpt>
      <trkpt lat="47.16097" lon="4.95071">
        <ele>257.57400512695</ele>
        <time>2018-02-01T10:47:42+0100</time>
      </trkpt>
      <trkpt lat="47.16097" lon="4.95071">
        <ele>257.55163574219</ele>
        <time>2018-02-01T10:47:45+0100</time>
      </trkpt>
      <trkpt lat="47.16096" lon="4.95071">
        <ele>257.53405761719</ele>
        <time>2018-02-01T10:47:48+0100</time>
      </trkpt>
      <trkpt lat="47.16096" lon="4.95071">
        <ele>257.47073364258</ele>
        <time>2018-02-01T10:47:51+0100</time>
      </trkpt>
      <trkpt lat="47.16096" lon="4.95071">
        <ele>257.45593261719</ele>
        <time>2018-02-01T10:47:54+0100</time>
      </trkpt>
      <trkpt lat="47.16096" lon="4.95071">
        <ele>257.44573974609</ele>
        <time>2018-02-01T10:47:57+0100</time>
      </trkpt>
      <trkpt lat="47.16096" lon="4.95071">
        <ele>257.45315551758</ele>
        <time>2018-02-01T10:48:00+0100</time>
      </trkpt>
      <trkpt lat="47.16096" lon="4.95071">
        <ele>257.46255493164</ele>
        <time>2018-02-01T10:48:03+0100</time>
      </trkpt>
      <trkpt lat="47.16096" lon="4.95072">
        <ele>257.47802734375</ele>
        <time>2018-02-01T10:48:06+0100</time>
      </trkpt>
      <trkpt lat="47.16097" lon="4.95073">
        <ele>257.46807861328</ele>
        <time>2018-02-01T10:48:09+0100</time>
      </trkpt>
      <trkpt lat="47.16099" lon="4.95074">
        <ele>257.40292358398</ele>
        <time>2018-02-01T10:48:12+0100</time>
      </trkpt>
      <trkpt lat="47.161" lon="4.95076">
        <ele>257.32165527344</ele>
        <time>2018-02-01T10:48:15+0100</time>
      </trkpt>
      <trkpt lat="47.16102" lon="4.95078">
        <ele>257.23944091797</ele>
        <time>2018-02-01T10:48:18+0100</time>
      </trkpt>
      <trkpt lat="47.16106" lon="4.95078">
        <ele>257.1116027832</ele>
        <time>2018-02-01T10:48:21+0100</time>
      </trkpt>
      <trkpt lat="47.16109" lon="4.95078">
        <ele>256.9866027832</ele>
        <time>2018-02-01T10:48:24+0100</time>
      </trkpt>
      <trkpt lat="47.16113" lon="4.95078">
        <ele>256.85681152344</ele>
        <time>2018-02-01T10:48:27+0100</time>
      </trkpt>
      <trkpt lat="47.16116" lon="4.95077">
        <ele>256.72427368164</ele>
        <time>2018-02-01T10:48:30+0100</time>
      </trkpt>
      <trkpt lat="47.16118" lon="4.95078">
        <ele>256.66082763672</ele>
        <time>2018-02-01T10:48:33+0100</time>
      </trkpt>
      <trkpt lat="47.16121" lon="4.95078">
        <ele>256.62054443359</ele>
        <time>2018-02-01T10:48:36+0100</time>
      </trkpt>
      <trkpt lat="47.16122" lon="4.9508">
        <ele>256.68118286133</ele>
        <time>2018-02-01T10:48:39+0100</time>
      </trkpt>
      <trkpt lat="47.16126" lon="4.95081">
        <ele>256.77154541016</ele>
        <time>2018-02-01T10:48:42+0100</time>
      </trkpt>
      <trkpt lat="47.16127" lon="4.95082">
        <ele>256.87155151367</ele>
        <time>2018-02-01T10:48:45+0100</time>
      </trkpt>
      <trkpt lat="47.16131" lon="4.95082">
        <ele>257.07427978516</ele>
        <time>2018-02-01T10:48:48+0100</time>
      </trkpt>
      <trkpt lat="47.16133" lon="4.95084">
        <ele>257.29211425781</ele>
        <time>2018-02-01T10:48:51+0100</time>
      </trkpt>
      <trkpt lat="47.16136" lon="4.95085">
        <ele>257.51571655273</ele>
        <time>2018-02-01T10:48:54+0100</time>
      </trkpt>
      <trkpt lat="47.16138" lon="4.95086">
        <ele>257.79010009766</ele>
        <time>2018-02-01T10:48:57+0100</time>
      </trkpt>
      <trkpt lat="47.16141" lon="4.95087">
        <ele>258.10922241211</ele>
        <time>2018-02-01T10:49:00+0100</time>
      </trkpt>
      <trkpt lat="47.16145" lon="4.95087">
        <ele>258.40496826172</ele>
        <time>2018-02-01T10:49:03+0100</time>
      </trkpt>
      <trkpt lat="47.16148" lon="4.95089">
        <ele>258.65307617188</ele>
        <time>2018-02-01T10:49:06+0100</time>
      </trkpt>
      <trkpt lat="47.16151" lon="4.95089">
        <ele>258.87857055664</ele>
        <time>2018-02-01T10:49:09+0100</time>
      </trkpt>
      <trkpt lat="47.16153" lon="4.9509">
        <ele>259.09649658203</ele>
        <time>2018-02-01T10:49:12+0100</time>
      </trkpt>
      <trkpt lat="47.16157" lon="4.95089">
        <ele>259.28369140625</ele>
        <time>2018-02-01T10:49:15+0100</time>
      </trkpt>
      <trkpt lat="47.16159" lon="4.9509">
        <ele>259.43844604492</ele>
        <time>2018-02-01T10:49:18+0100</time>
      </trkpt>
      <trkpt lat="47.16163" lon="4.9509">
        <ele>259.63619995117</ele>
        <time>2018-02-01T10:49:21+0100</time>
      </trkpt>
      <trkpt lat="47.16165" lon="4.9509">
        <ele>259.8583984375</ele>
        <time>2018-02-01T10:49:24+0100</time>
      </trkpt>
      <trkpt lat="47.16169" lon="4.9509">
        <ele>260.05282592773</ele>
        <time>2018-02-01T10:49:27+0100</time>
      </trkpt>
      <trkpt lat="47.16172" lon="4.95089">
        <ele>260.19470214844</ele>
        <time>2018-02-01T10:49:30+0100</time>
      </trkpt>
      <trkpt lat="47.16176" lon="4.95089">
        <ele>260.33715820312</ele>
        <time>2018-02-01T10:49:33+0100</time>
      </trkpt>
      <trkpt lat="47.16178" lon="4.95088">
        <ele>260.47741699219</ele>
        <time>2018-02-01T10:49:36+0100</time>
      </trkpt>
      <trkpt lat="47.16181" lon="4.95088">
        <ele>260.64739990234</ele>
        <time>2018-02-01T10:49:39+0100</time>
      </trkpt>
      <trkpt lat="47.16184" lon="4.95089">
        <ele>260.73904418945</ele>
        <time>2018-02-01T10:49:42+0100</time>
      </trkpt>
      <trkpt lat="47.16187" lon="4.95089">
        <ele>260.75918579102</ele>
        <time>2018-02-01T10:49:45+0100</time>
      </trkpt>
      <trkpt lat="47.16191" lon="4.95086">
        <ele>260.7790222168</ele>
        <time>2018-02-01T10:49:48+0100</time>
      </trkpt>
      <trkpt lat="47.16193" lon="4.95085">
        <ele>260.77456665039</ele>
        <time>2018-02-01T10:49:51+0100</time>
      </trkpt>
      <trkpt lat="47.16196" lon="4.95084">
        <ele>260.73065185547</ele>
        <time>2018-02-01T10:49:54+0100</time>
      </trkpt>
      <trkpt lat="47.16199" lon="4.95083">
        <ele>260.70495605469</ele>
        <time>2018-02-01T10:49:57+0100</time>
      </trkpt>
      <trkpt lat="47.16203" lon="4.9508">
        <ele>260.67358398438</ele>
        <time>2018-02-01T10:50:00+0100</time>
      </trkpt>
      <trkpt lat="47.16206" lon="4.95079">
        <ele>260.62313842773</ele>
        <time>2018-02-01T10:50:03+0100</time>
      </trkpt>
      <trkpt lat="47.16209" lon="4.95077">
        <ele>260.50839233398</ele>
        <time>2018-02-01T10:50:06+0100</time>
      </trkpt>
      <trkpt lat="47.16212" lon="4.95077">
        <ele>260.3828125</ele>
        <time>2018-02-01T10:50:09+0100</time>
      </trkpt>
      <trkpt lat="47.16215" lon="4.95075">
        <ele>260.31030273438</ele>
        <time>2018-02-01T10:50:12+0100</time>
      </trkpt>
      <trkpt lat="47.16218" lon="4.95074">
        <ele>260.24859619141</ele>
        <time>2018-02-01T10:50:15+0100</time>
      </trkpt>
      <trkpt lat="47.16219" lon="4.95073">
        <ele>260.13073730469</ele>
        <time>2018-02-01T10:50:18+0100</time>
      </trkpt>
      <trkpt lat="47.16222" lon="4.95071">
        <ele>260.04672241211</ele>
        <time>2018-02-01T10:50:21+0100</time>
      </trkpt>
      <trkpt lat="47.16226" lon="4.95069">
        <ele>259.96881103516</ele>
        <time>2018-02-01T10:50:24+0100</time>
      </trkpt>
      <trkpt lat="47.16228" lon="4.95068">
        <ele>259.90594482422</ele>
        <time>2018-02-01T10:50:27+0100</time>
      </trkpt>
      <trkpt lat="47.16231" lon="4.95069">
        <ele>259.89010620117</ele>
        <time>2018-02-01T10:50:30+0100</time>
      </trkpt>
      <trkpt lat="47.16233" lon="4.95069">
        <ele>259.94607543945</ele>
        <time>2018-02-01T10:50:33+0100</time>
      </trkpt>
      <trkpt lat="47.16237" lon="4.95069">
        <ele>260.05456542969</ele>
        <time>2018-02-01T10:50:36+0100</time>
      </trkpt>
      <trkpt lat="47.16239" lon="4.95069">
        <ele>260.21881103516</ele>
        <time>2018-02-01T10:50:39+0100</time>
      </trkpt>
      <trkpt lat="47.16242" lon="4.9507">
        <ele>260.37573242188</ele>
        <time>2018-02-01T10:50:42+0100</time>
      </trkpt>
      <trkpt lat="47.16246" lon="4.95071">
        <ele>260.50491333008</ele>
        <time>2018-02-01T10:50:45+0100</time>
      </trkpt>
      <trkpt lat="47.16249" lon="4.95072">
        <ele>260.60076904297</ele>
        <time>2018-02-01T10:50:48+0100</time>
      </trkpt>
      <trkpt lat="47.16253" lon="4.95073">
        <ele>260.67330932617</ele>
        <time>2018-02-01T10:50:51+0100</time>
      </trkpt>
      <trkpt lat="47.16256" lon="4.95073">
        <ele>260.6799621582</ele>
        <time>2018-02-01T10:50:54+0100</time>
      </trkpt>
      <trkpt lat="47.1626" lon="4.95074">
        <ele>260.67852783203</ele>
        <time>2018-02-01T10:50:57+0100</time>
      </trkpt>
      <trkpt lat="47.16262" lon="4.95076">
        <ele>260.74908447266</ele>
        <time>2018-02-01T10:51:00+0100</time>
      </trkpt>
      <trkpt lat="47.16265" lon="4.95076">
        <ele>260.90213012695</ele>
        <time>2018-02-01T10:51:03+0100</time>
      </trkpt>
      <trkpt lat="47.1627" lon="4.95077">
        <ele>261.05535888672</ele>
        <time>2018-02-01T10:51:06+0100</time>
      </trkpt>
      <trkpt lat="47.16272" lon="4.95078">
        <ele>261.09930419922</ele>
        <time>2018-02-01T10:51:09+0100</time>
      </trkpt>
      <trkpt lat="47.16276" lon="4.95079">
        <ele>261.09872436523</ele>
        <time>2018-02-01T10:51:12+0100</time>
      </trkpt>
      <trkpt lat="47.16278" lon="4.9508">
        <ele>261.13046264648</ele>
        <time>2018-02-01T10:51:15+0100</time>
      </trkpt>
      <trkpt lat="47.16281" lon="4.95081">
        <ele>261.28814697266</ele>
        <time>2018-02-01T10:51:18+0100</time>
      </trkpt>
      <trkpt lat="47.16284" lon="4.95082">
        <ele>261.48547363281</ele>
        <time>2018-02-01T10:51:21+0100</time>
      </trkpt>
      <trkpt lat="47.16287" lon="4.95083">
        <ele>261.69189453125</ele>
        <time>2018-02-01T10:51:24+0100</time>
      </trkpt>
      <trkpt lat="47.1629" lon="4.95083">
        <ele>261.86090087891</ele>
        <time>2018-02-01T10:51:27+0100</time>
      </trkpt>
      <trkpt lat="47.16294" lon="4.95083">
        <ele>261.94793701172</ele>
        <time>2018-02-01T10:51:30+0100</time>
      </trkpt>
      <trkpt lat="47.16296" lon="4.95084">
        <ele>262.05328369141</ele>
        <time>2018-02-01T10:51:33+0100</time>
      </trkpt>
      <trkpt lat="47.16299" lon="4.95085">
        <ele>262.21432495117</ele>
        <time>2018-02-01T10:51:36+0100</time>
      </trkpt>
      <trkpt lat="47.16301" lon="4.95087">
        <ele>262.50112915039</ele>
        <time>2018-02-01T10:51:39+0100</time>
      </trkpt>
      <trkpt lat="47.16304" lon="4.95088">
        <ele>262.85614013672</ele>
        <time>2018-02-01T10:51:42+0100</time>
      </trkpt>
      <trkpt lat="47.16308" lon="4.95088">
        <ele>263.22372436523</ele>
        <time>2018-02-01T10:51:45+0100</time>
      </trkpt>
      <trkpt lat="47.16311" lon="4.95088">
        <ele>263.60015869141</ele>
        <time>2018-02-01T10:51:48+0100</time>
      </trkpt>
      <trkpt lat="47.16315" lon="4.95087">
        <ele>263.95559692383</ele>
        <time>2018-02-01T10:51:51+0100</time>
      </trkpt>
      <trkpt lat="47.16319" lon="4.95085">
        <ele>264.27993774414</ele>
        <time>2018-02-01T10:51:54+0100</time>
      </trkpt>
      <trkpt lat="47.16323" lon="4.95083">
        <ele>264.59585571289</ele>
        <time>2018-02-01T10:51:57+0100</time>
      </trkpt>
      <trkpt lat="47.16326" lon="4.95082">
        <ele>264.86755371094</ele>
        <time>2018-02-01T10:52:00+0100</time>
      </trkpt>
      <trkpt lat="47.16329" lon="4.95081">
        <ele>265.09857177734</ele>
        <time>2018-02-01T10:52:03+0100</time>
      </trkpt>
      <trkpt lat="47.16332" lon="4.9508">
        <ele>265.22952270508</ele>
        <time>2018-02-01T10:52:06+0100</time>
      </trkpt>
      <trkpt lat="47.16335" lon="4.9508">
        <ele>265.36462402344</ele>
        <time>2018-02-01T10:52:09+0100</time>
      </trkpt>
      <trkpt lat="47.16339" lon="4.95079">
        <ele>265.50073242188</ele>
        <time>2018-02-01T10:52:12+0100</time>
      </trkpt>
      <trkpt lat="47.16341" lon="4.95078">
        <ele>265.70544433594</ele>
        <time>2018-02-01T10:52:15+0100</time>
      </trkpt>
      <trkpt lat="47.16346" lon="4.95074">
        <ele>265.99606323242</ele>
        <time>2018-02-01T10:52:18+0100</time>
      </trkpt>
      <trkpt lat="47.1635" lon="4.9507">
        <ele>266.26400756836</ele>
        <time>2018-02-01T10:52:21+0100</time>
      </trkpt>
      <trkpt lat="47.16354" lon="4.95067">
        <ele>266.45150756836</ele>
        <time>2018-02-01T10:52:24+0100</time>
      </trkpt>
      <trkpt lat="47.16358" lon="4.95065">
        <ele>266.55578613281</ele>
        <time>2018-02-01T10:52:27+0100</time>
      </trkpt>
      <trkpt lat="47.1636" lon="4.95064">
        <ele>266.640625</ele>
        <time>2018-02-01T10:52:30+0100</time>
      </trkpt>
      <trkpt lat="47.16363" lon="4.95062">
        <ele>266.71081542969</ele>
        <time>2018-02-01T10:52:33+0100</time>
      </trkpt>
      <trkpt lat="47.16365" lon="4.95061">
        <ele>266.75122070312</ele>
        <time>2018-02-01T10:52:36+0100</time>
      </trkpt>
      <trkpt lat="47.16369" lon="4.95059">
        <ele>266.76809692383</ele>
        <time>2018-02-01T10:52:39+0100</time>
      </trkpt>
      <trkpt lat="47.16371" lon="4.95057">
        <ele>266.77191162109</ele>
        <time>2018-02-01T10:52:42+0100</time>
      </trkpt>
      <trkpt lat="47.16373" lon="4.95057">
        <ele>266.86837768555</ele>
        <time>2018-02-01T10:52:45+0100</time>
      </trkpt>
      <trkpt lat="47.16376" lon="4.95052">
        <ele>266.93933105469</ele>
        <time>2018-02-01T10:52:48+0100</time>
      </trkpt>
      <trkpt lat="47.16379" lon="4.95048">
        <ele>266.97305297852</ele>
        <time>2018-02-01T10:52:51+0100</time>
      </trkpt>
      <trkpt lat="47.1638" lon="4.95045">
        <ele>266.96362304688</ele>
        <time>2018-02-01T10:52:54+0100</time>
      </trkpt>
      <trkpt lat="47.16382" lon="4.95041">
        <ele>266.91510009766</ele>
        <time>2018-02-01T10:52:57+0100</time>
      </trkpt>
      <trkpt lat="47.16385" lon="4.95036">
        <ele>266.79418945312</ele>
        <time>2018-02-01T10:53:00+0100</time>
      </trkpt>
      <trkpt lat="47.16388" lon="4.95031">
        <ele>266.61657714844</ele>
        <time>2018-02-01T10:53:03+0100</time>
      </trkpt>
      <trkpt lat="47.1639" lon="4.95028">
        <ele>266.43078613281</ele>
        <time>2018-02-01T10:53:06+0100</time>
      </trkpt>
      <trkpt lat="47.16393" lon="4.95025">
        <ele>266.24353027344</ele>
        <time>2018-02-01T10:53:09+0100</time>
      </trkpt>
      <trkpt lat="47.16394" lon="4.95024">
        <ele>266.04489135742</ele>
        <time>2018-02-01T10:53:12+0100</time>
      </trkpt>
      <trkpt lat="47.16398" lon="4.95023">
        <ele>265.90789794922</ele>
        <time>2018-02-01T10:53:15+0100</time>
      </trkpt>
      <trkpt lat="47.16401" lon="4.95023">
        <ele>265.8166809082</ele>
        <time>2018-02-01T10:53:18+0100</time>
      </trkpt>
      <trkpt lat="47.16405" lon="4.95024">
        <ele>265.65713500977</ele>
        <time>2018-02-01T10:53:21+0100</time>
      </trkpt>
      <trkpt lat="47.16407" lon="4.95025">
        <ele>265.44555664062</ele>
        <time>2018-02-01T10:53:24+0100</time>
      </trkpt>
      <trkpt lat="47.1641" lon="4.95025">
        <ele>265.26062011719</ele>
        <time>2018-02-01T10:53:27+0100</time>
      </trkpt>
      <trkpt lat="47.16413" lon="4.95025">
        <ele>265.09786987305</ele>
        <time>2018-02-01T10:53:30+0100</time>
      </trkpt>
      <trkpt lat="47.16416" lon="4.95025">
        <ele>264.94027709961</ele>
        <time>2018-02-01T10:53:33+0100</time>
      </trkpt>
      <trkpt lat="47.16419" lon="4.95026">
        <ele>264.82672119141</ele>
        <time>2018-02-01T10:53:36+0100</time>
      </trkpt>
      <trkpt lat="47.16423" lon="4.95025">
        <ele>264.7854309082</ele>
        <time>2018-02-01T10:53:39+0100</time>
      </trkpt>
      <trkpt lat="47.16426" lon="4.95026">
        <ele>264.77954101562</ele>
        <time>2018-02-01T10:53:42+0100</time>
      </trkpt>
      <trkpt lat="47.16429" lon="4.95025">
        <ele>264.8115234375</ele>
        <time>2018-02-01T10:53:45+0100</time>
      </trkpt>
      <trkpt lat="47.16431" lon="4.95027">
        <ele>264.91952514648</ele>
        <time>2018-02-01T10:53:48+0100</time>
      </trkpt>
      <trkpt lat="47.16435" lon="4.95028">
        <ele>265.00967407227</ele>
        <time>2018-02-01T10:53:51+0100</time>
      </trkpt>
      <trkpt lat="47.16437" lon="4.95029">
        <ele>265.13140869141</ele>
        <time>2018-02-01T10:53:54+0100</time>
      </trkpt>
      <trkpt lat="47.16437" lon="4.95031">
        <ele>265.25848388672</ele>
        <time>2018-02-01T10:53:57+0100</time>
      </trkpt>
      <trkpt lat="47.16436" lon="4.95036">
        <ele>265.47619628906</ele>
        <time>2018-02-01T10:54:00+0100</time>
      </trkpt>
      <trkpt lat="47.16434" lon="4.95042">
        <ele>265.74453735352</ele>
        <time>2018-02-01T10:54:03+0100</time>
      </trkpt>
      <trkpt lat="47.16433" lon="4.95046">
        <ele>266.06231689453</ele>
        <time>2018-02-01T10:54:06+0100</time>
      </trkpt>
      <trkpt lat="47.16432" lon="4.95051">
        <ele>266.33987426758</ele>
        <time>2018-02-01T10:54:09+0100</time>
      </trkpt>
      <trkpt lat="47.16431" lon="4.95058">
        <ele>266.50912475586</ele>
        <time>2018-02-01T10:54:12+0100</time>
      </trkpt>
      <trkpt lat="47.16431" lon="4.95062">
        <ele>266.58477783203</ele>
        <time>2018-02-01T10:54:15+0100</time>
      </trkpt>
      <trkpt lat="47.16429" lon="4.95066">
        <ele>266.57241821289</ele>
        <time>2018-02-01T10:54:18+0100</time>
      </trkpt>
      <trkpt lat="47.16428" lon="4.9507">
        <ele>266.6103515625</ele>
        <time>2018-02-01T10:54:21+0100</time>
      </trkpt>
      <trkpt lat="47.16428" lon="4.95076">
        <ele>266.62176513672</ele>
        <time>2018-02-01T10:54:24+0100</time>
      </trkpt>
      <trkpt lat="47.16427" lon="4.9508">
        <ele>266.57409667969</ele>
        <time>2018-02-01T10:54:27+0100</time>
      </trkpt>
      <trkpt lat="47.16427" lon="4.95085">
        <ele>266.49554443359</ele>
        <time>2018-02-01T10:54:30+0100</time>
      </trkpt>
      <trkpt lat="47.16427" lon="4.9509">
        <ele>266.44033813477</ele>
        <time>2018-02-01T10:54:34+0100</time>
      </trkpt>
      <trkpt lat="47.16426" lon="4.95095">
        <ele>266.35357666016</ele>
        <time>2018-02-01T10:54:37+0100</time>
      </trkpt>
      <trkpt lat="47.16425" lon="4.95101">
        <ele>266.18954467773</ele>
        <time>2018-02-01T10:54:40+0100</time>
      </trkpt>
      <trkpt lat="47.16425" lon="4.95105">
        <ele>266.01800537109</ele>
        <time>2018-02-01T10:54:43+0100</time>
      </trkpt>
      <trkpt lat="47.16425" lon="4.95111">
        <ele>265.82040405273</ele>
        <time>2018-02-01T10:54:46+0100</time>
      </trkpt>
      <trkpt lat="47.16424" lon="4.95116">
        <ele>265.5969543457</ele>
        <time>2018-02-01T10:54:49+0100</time>
      </trkpt>
      <trkpt lat="47.16424" lon="4.9512">
        <ele>265.3974609375</ele>
        <time>2018-02-01T10:54:52+0100</time>
      </trkpt>
      <trkpt lat="47.16424" lon="4.95125">
        <ele>265.24627685547</ele>
        <time>2018-02-01T10:54:55+0100</time>
      </trkpt>
      <trkpt lat="47.16423" lon="4.95131">
        <ele>265.11791992188</ele>
        <time>2018-02-01T10:54:58+0100</time>
      </trkpt>
      <trkpt lat="47.16423" lon="4.95135">
        <ele>264.95989990234</ele>
        <time>2018-02-01T10:55:01+0100</time>
      </trkpt>
      <trkpt lat="47.16423" lon="4.95139">
        <ele>264.75378417969</ele>
        <time>2018-02-01T10:55:04+0100</time>
      </trkpt>
      <trkpt lat="47.16422" lon="4.95144">
        <ele>264.46392822266</ele>
        <time>2018-02-01T10:55:07+0100</time>
      </trkpt>
      <trkpt lat="47.16423" lon="4.95148">
        <ele>264.12396240234</ele>
        <time>2018-02-01T10:55:10+0100</time>
      </trkpt>
      <trkpt lat="47.16422" lon="4.95151">
        <ele>263.73934936523</ele>
        <time>2018-02-01T10:55:13+0100</time>
      </trkpt>
      <trkpt lat="47.16422" lon="4.95151">
        <ele>263.58355712891</ele>
        <time>2018-02-01T10:55:16+0100</time>
      </trkpt>
      <trkpt lat="47.16422" lon="4.95152">
        <ele>263.54080200195</ele>
        <time>2018-02-01T10:55:19+0100</time>
      </trkpt>
      <trkpt lat="47.16422" lon="4.95152">
        <ele>263.4905090332</ele>
        <time>2018-02-01T10:55:22+0100</time>
      </trkpt>
      <trkpt lat="47.16422" lon="4.95153">
        <ele>263.17651367188</ele>
        <time>2018-02-01T10:55:25+0100</time>
      </trkpt>
      <trkpt lat="47.16423" lon="4.95154">
        <ele>262.88928222656</ele>
        <time>2018-02-01T10:55:28+0100</time>
      </trkpt>
      <trkpt lat="47.16423" lon="4.95155">
        <ele>262.53427124023</ele>
        <time>2018-02-01T10:55:31+0100</time>
      </trkpt>
      <trkpt lat="47.16425" lon="4.95157">
        <ele>262.0993347168</ele>
        <time>2018-02-01T10:55:34+0100</time>
      </trkpt>
      <trkpt lat="47.16429" lon="4.95157">
        <ele>261.67608642578</ele>
        <time>2018-02-01T10:55:37+0100</time>
      </trkpt>
      <trkpt lat="47.16432" lon="4.95157">
        <ele>261.38098144531</ele>
        <time>2018-02-01T10:55:40+0100</time>
      </trkpt>
      <trkpt lat="47.16435" lon="4.95157">
        <ele>261.17373657227</ele>
        <time>2018-02-01T10:55:43+0100</time>
      </trkpt>
      <trkpt lat="47.16438" lon="4.95157">
        <ele>261.09658813477</ele>
        <time>2018-02-01T10:55:46+0100</time>
      </trkpt>
      <trkpt lat="47.16441" lon="4.95158">
        <ele>261.09112548828</ele>
        <time>2018-02-01T10:55:49+0100</time>
      </trkpt>
      <trkpt lat="47.16444" lon="4.95157">
        <ele>261.02581787109</ele>
        <time>2018-02-01T10:55:52+0100</time>
      </trkpt>
      <trkpt lat="47.16446" lon="4.95156">
        <ele>261.0426940918</ele>
        <time>2018-02-01T10:55:55+0100</time>
      </trkpt>
      <trkpt lat="47.16447" lon="4.95157">
        <ele>261.11410522461</ele>
        <time>2018-02-01T10:55:58+0100</time>
      </trkpt>
      <trkpt lat="47.16448" lon="4.95158">
        <ele>261.05020141602</ele>
        <time>2018-02-01T10:56:01+0100</time>
      </trkpt>
      <trkpt lat="47.1645" lon="4.95157">
        <ele>260.8815612793</ele>
        <time>2018-02-01T10:56:04+0100</time>
      </trkpt>
      <trkpt lat="47.16451" lon="4.95156">
        <ele>260.80252075195</ele>
        <time>2018-02-01T10:56:07+0100</time>
      </trkpt>
      <trkpt lat="47.16452" lon="4.95155">
        <ele>260.75180053711</ele>
        <time>2018-02-01T10:56:10+0100</time>
      </trkpt>
      <trkpt lat="47.16453" lon="4.95155">
        <ele>260.73538208008</ele>
        <time>2018-02-01T10:56:13+0100</time>
      </trkpt>
      <trkpt lat="47.16453" lon="4.95156">
        <ele>260.77700805664</ele>
        <time>2018-02-01T10:56:16+0100</time>
      </trkpt>
      <trkpt lat="47.16455" lon="4.95156">
        <ele>260.8059387207</ele>
        <time>2018-02-01T10:56:19+0100</time>
      </trkpt>
      <trkpt lat="47.16457" lon="4.95156">
        <ele>260.81753540039</ele>
        <time>2018-02-01T10:56:22+0100</time>
      </trkpt>
      <trkpt lat="47.16459" lon="4.95159">
        <ele>260.83590698242</ele>
        <time>2018-02-01T10:56:25+0100</time>
      </trkpt>
      <trkpt lat="47.16462" lon="4.95161">
        <ele>260.86401367188</ele>
        <time>2018-02-01T10:56:28+0100</time>
      </trkpt>
      <trkpt lat="47.16464" lon="4.95161">
        <ele>260.88967895508</ele>
        <time>2018-02-01T10:56:31+0100</time>
      </trkpt>
      <trkpt lat="47.16467" lon="4.95163">
        <ele>261.02545166016</ele>
        <time>2018-02-01T10:56:34+0100</time>
      </trkpt>
      <trkpt lat="47.16469" lon="4.95165">
        <ele>261.14001464844</ele>
        <time>2018-02-01T10:56:37+0100</time>
      </trkpt>
      <trkpt lat="47.16473" lon="4.95165">
        <ele>261.27618408203</ele>
        <time>2018-02-01T10:56:40+0100</time>
      </trkpt>
      <trkpt lat="47.16474" lon="4.95165">
        <ele>261.35656738281</ele>
        <time>2018-02-01T10:56:43+0100</time>
      </trkpt>
      <trkpt lat="47.16478" lon="4.95166">
        <ele>261.40264892578</ele>
        <time>2018-02-01T10:56:46+0100</time>
      </trkpt>
      <trkpt lat="47.1648" lon="4.95167">
        <ele>261.45190429688</ele>
        <time>2018-02-01T10:56:49+0100</time>
      </trkpt>
      <trkpt lat="47.16484" lon="4.95168">
        <ele>261.47833251953</ele>
        <time>2018-02-01T10:56:52+0100</time>
      </trkpt>
      <trkpt lat="47.16486" lon="4.95169">
        <ele>261.53192138672</ele>
        <time>2018-02-01T10:56:55+0100</time>
      </trkpt>
      <trkpt lat="47.16489" lon="4.95169">
        <ele>261.64291381836</ele>
        <time>2018-02-01T10:56:58+0100</time>
      </trkpt>
      <trkpt lat="47.16492" lon="4.95169">
        <ele>261.7546081543</ele>
        <time>2018-02-01T10:57:01+0100</time>
      </trkpt>
      <trkpt lat="47.16495" lon="4.9517">
        <ele>261.84548950195</ele>
        <time>2018-02-01T10:57:04+0100</time>
      </trkpt>
      <trkpt lat="47.16498" lon="4.9517">
        <ele>261.97915649414</ele>
        <time>2018-02-01T10:57:07+0100</time>
      </trkpt>
      <trkpt lat="47.16501" lon="4.95169">
        <ele>262.06964111328</ele>
        <time>2018-02-01T10:57:10+0100</time>
      </trkpt>
      <trkpt lat="47.16505" lon="4.9517">
        <ele>262.17590332031</ele>
        <time>2018-02-01T10:57:13+0100</time>
      </trkpt>
      <trkpt lat="47.16508" lon="4.95171">
        <ele>262.33084106445</ele>
        <time>2018-02-01T10:57:16+0100</time>
      </trkpt>
      <trkpt lat="47.16511" lon="4.95172">
        <ele>262.56930541992</ele>
        <time>2018-02-01T10:57:19+0100</time>
      </trkpt>
      <trkpt lat="47.16514" lon="4.95173">
        <ele>262.88452148438</ele>
        <time>2018-02-01T10:57:22+0100</time>
      </trkpt>
      <trkpt lat="47.16517" lon="4.95174">
        <ele>263.26654052734</ele>
        <time>2018-02-01T10:57:25+0100</time>
      </trkpt>
      <trkpt lat="47.16521" lon="4.95172">
        <ele>263.62744140625</ele>
        <time>2018-02-01T10:57:28+0100</time>
      </trkpt>
      <trkpt lat="47.16524" lon="4.95173">
        <ele>263.91925048828</ele>
        <time>2018-02-01T10:57:31+0100</time>
      </trkpt>
      <trkpt lat="47.16527" lon="4.95174">
        <ele>264.15811157227</ele>
        <time>2018-02-01T10:57:34+0100</time>
      </trkpt>
      <trkpt lat="47.16529" lon="4.95175">
        <ele>264.34924316406</ele>
        <time>2018-02-01T10:57:37+0100</time>
      </trkpt>
      <trkpt lat="47.16532" lon="4.95176">
        <ele>264.48056030273</ele>
        <time>2018-02-01T10:57:40+0100</time>
      </trkpt>
      <trkpt lat="47.16536" lon="4.95176">
        <ele>264.57699584961</ele>
        <time>2018-02-01T10:57:43+0100</time>
      </trkpt>
      <trkpt lat="47.16539" lon="4.95175">
        <ele>264.73614501953</ele>
        <time>2018-02-01T10:57:46+0100</time>
      </trkpt>
      <trkpt lat="47.16543" lon="4.95176">
        <ele>264.77304077148</ele>
        <time>2018-02-01T10:57:49+0100</time>
      </trkpt>
      <trkpt lat="47.16547" lon="4.95177">
        <ele>264.68496704102</ele>
        <time>2018-02-01T10:57:52+0100</time>
      </trkpt>
      <trkpt lat="47.1655" lon="4.95177">
        <ele>264.53707885742</ele>
        <time>2018-02-01T10:57:55+0100</time>
      </trkpt>
      <trkpt lat="47.16552" lon="4.95178">
        <ele>264.37274169922</ele>
        <time>2018-02-01T10:57:58+0100</time>
      </trkpt>
      <trkpt lat="47.16555" lon="4.95178">
        <ele>264.33450317383</ele>
        <time>2018-02-01T10:58:01+0100</time>
      </trkpt>
      <trkpt lat="47.16558" lon="4.9518">
        <ele>264.30892944336</ele>
        <time>2018-02-01T10:58:04+0100</time>
      </trkpt>
      <trkpt lat="47.16561" lon="4.95179">
        <ele>264.26321411133</ele>
        <time>2018-02-01T10:58:07+0100</time>
      </trkpt>
      <trkpt lat="47.16564" lon="4.95179">
        <ele>264.28128051758</ele>
        <time>2018-02-01T10:58:10+0100</time>
      </trkpt>
      <trkpt lat="47.16568" lon="4.95179">
        <ele>264.26983642578</ele>
        <time>2018-02-01T10:58:13+0100</time>
      </trkpt>
      <trkpt lat="47.16571" lon="4.95178">
        <ele>264.26818847656</ele>
        <time>2018-02-01T10:58:16+0100</time>
      </trkpt>
      <trkpt lat="47.16575" lon="4.95177">
        <ele>264.28466796875</ele>
        <time>2018-02-01T10:58:19+0100</time>
      </trkpt>
      <trkpt lat="47.16578" lon="4.95175">
        <ele>264.28863525391</ele>
        <time>2018-02-01T10:58:22+0100</time>
      </trkpt>
      <trkpt lat="47.16581" lon="4.95175">
        <ele>264.39797973633</ele>
        <time>2018-02-01T10:58:25+0100</time>
      </trkpt>
      <trkpt lat="47.16584" lon="4.95174">
        <ele>264.580078125</ele>
        <time>2018-02-01T10:58:28+0100</time>
      </trkpt>
      <trkpt lat="47.16588" lon="4.95175">
        <ele>264.75714111328</ele>
        <time>2018-02-01T10:58:31+0100</time>
      </trkpt>
      <trkpt lat="47.1659" lon="4.95174">
        <ele>264.90148925781</ele>
        <time>2018-02-01T10:58:34+0100</time>
      </trkpt>
      <trkpt lat="47.16593" lon="4.95174">
        <ele>265.12048339844</ele>
        <time>2018-02-01T10:58:37+0100</time>
      </trkpt>
      <trkpt lat="47.16597" lon="4.95174">
        <ele>265.33279418945</ele>
        <time>2018-02-01T10:58:40+0100</time>
      </trkpt>
      <trkpt lat="47.166" lon="4.95173">
        <ele>265.46505737305</ele>
        <time>2018-02-01T10:58:43+0100</time>
      </trkpt>
      <trkpt lat="47.16603" lon="4.9517">
        <ele>265.57077026367</ele>
        <time>2018-02-01T10:58:46+0100</time>
      </trkpt>
      <trkpt lat="47.16607" lon="4.9517">
        <ele>265.78341674805</ele>
        <time>2018-02-01T10:58:49+0100</time>
      </trkpt>
      <trkpt lat="47.1661" lon="4.95169">
        <ele>266.02746582031</ele>
        <time>2018-02-01T10:58:52+0100</time>
      </trkpt>
      <trkpt lat="47.16613" lon="4.95168">
        <ele>266.30310058594</ele>
        <time>2018-02-01T10:58:55+0100</time>
      </trkpt>
      <trkpt lat="47.16617" lon="4.95167">
        <ele>266.53967285156</ele>
        <time>2018-02-01T10:58:58+0100</time>
      </trkpt>
      <trkpt lat="47.1662" lon="4.95166">
        <ele>266.74536132812</ele>
        <time>2018-02-01T10:59:01+0100</time>
      </trkpt>
      <trkpt lat="47.16623" lon="4.95166">
        <ele>266.92947387695</ele>
        <time>2018-02-01T10:59:04+0100</time>
      </trkpt>
      <trkpt lat="47.16626" lon="4.95167">
        <ele>267.05642700195</ele>
        <time>2018-02-01T10:59:07+0100</time>
      </trkpt>
      <trkpt lat="47.16628" lon="4.95168">
        <ele>267.12921142578</ele>
        <time>2018-02-01T10:59:10+0100</time>
      </trkpt>
      <trkpt lat="47.16631" lon="4.95167">
        <ele>267.1803894043</ele>
        <time>2018-02-01T10:59:13+0100</time>
      </trkpt>
      <trkpt lat="47.16634" lon="4.95167">
        <ele>267.26159667969</ele>
        <time>2018-02-01T10:59:16+0100</time>
      </trkpt>
      <trkpt lat="47.16637" lon="4.95168">
        <ele>267.3229675293</ele>
        <time>2018-02-01T10:59:19+0100</time>
      </trkpt>
      <trkpt lat="47.1664" lon="4.95169">
        <ele>267.38012695312</ele>
        <time>2018-02-01T10:59:22+0100</time>
      </trkpt>
      <trkpt lat="47.16643" lon="4.9517">
        <ele>267.38430786133</ele>
        <time>2018-02-01T10:59:25+0100</time>
      </trkpt>
      <trkpt lat="47.16646" lon="4.95172">
        <ele>267.25054931641</ele>
        <time>2018-02-01T10:59:28+0100</time>
      </trkpt>
      <trkpt lat="47.16648" lon="4.95173">
        <ele>267.05020141602</ele>
        <time>2018-02-01T10:59:31+0100</time>
      </trkpt>
      <trkpt lat="47.16652" lon="4.95174">
        <ele>266.80163574219</ele>
        <time>2018-02-01T10:59:34+0100</time>
      </trkpt>
      <trkpt lat="47.16654" lon="4.95174">
        <ele>266.54119873047</ele>
        <time>2018-02-01T10:59:37+0100</time>
      </trkpt>
      <trkpt lat="47.16658" lon="4.95175">
        <ele>266.35458374023</ele>
        <time>2018-02-01T10:59:40+0100</time>
      </trkpt>
      <trkpt lat="47.16661" lon="4.95174">
        <ele>266.09881591797</ele>
        <time>2018-02-01T10:59:43+0100</time>
      </trkpt>
      <trkpt lat="47.16664" lon="4.95174">
        <ele>265.88879394531</ele>
        <time>2018-02-01T10:59:46+0100</time>
      </trkpt>
      <trkpt lat="47.16668" lon="4.95173">
        <ele>265.77966308594</ele>
        <time>2018-02-01T10:59:49+0100</time>
      </trkpt>
      <trkpt lat="47.16672" lon="4.95172">
        <ele>265.69445800781</ele>
        <time>2018-02-01T10:59:52+0100</time>
      </trkpt>
      <trkpt lat="47.16677" lon="4.95169">
        <ele>265.67932128906</ele>
        <time>2018-02-01T10:59:55+0100</time>
      </trkpt>
      <trkpt lat="47.1668" lon="4.95168">
        <ele>265.75247192383</ele>
        <time>2018-02-01T10:59:58+0100</time>
      </trkpt>
      <trkpt lat="47.16683" lon="4.95168">
        <ele>265.87414550781</ele>
        <time>2018-02-01T11:00:01+0100</time>
      </trkpt>
      <trkpt lat="47.16686" lon="4.95168">
        <ele>266.00091552734</ele>
        <time>2018-02-01T11:00:04+0100</time>
      </trkpt>
      <trkpt lat="47.16689" lon="4.95169">
        <ele>266.12316894531</ele>
        <time>2018-02-01T11:00:07+0100</time>
      </trkpt>
      <trkpt lat="47.16692" lon="4.95169">
        <ele>266.18222045898</ele>
        <time>2018-02-01T11:00:10+0100</time>
      </trkpt>
      <trkpt lat="47.16695" lon="4.9517">
        <ele>266.19848632812</ele>
        <time>2018-02-01T11:00:13+0100</time>
      </trkpt>
      <trkpt lat="47.16699" lon="4.95169">
        <ele>266.23071289062</ele>
        <time>2018-02-01T11:00:16+0100</time>
      </trkpt>
      <trkpt lat="47.16702" lon="4.95169">
        <ele>266.27865600586</ele>
        <time>2018-02-01T11:00:19+0100</time>
      </trkpt>
      <trkpt lat="47.16704" lon="4.9517">
        <ele>266.38778686523</ele>
        <time>2018-02-01T11:00:22+0100</time>
      </trkpt>
      <trkpt lat="47.16706" lon="4.95171">
        <ele>266.51214599609</ele>
        <time>2018-02-01T11:00:25+0100</time>
      </trkpt>
      <trkpt lat="47.1671" lon="4.95171">
        <ele>266.66073608398</ele>
        <time>2018-02-01T11:00:28+0100</time>
      </trkpt>
      <trkpt lat="47.16713" lon="4.95171">
        <ele>266.81500244141</ele>
        <time>2018-02-01T11:00:31+0100</time>
      </trkpt>
      <trkpt lat="47.16715" lon="4.95173">
        <ele>266.95306396484</ele>
        <time>2018-02-01T11:00:34+0100</time>
      </trkpt>
      <trkpt lat="47.16718" lon="4.95173">
        <ele>267.11114501953</ele>
        <time>2018-02-01T11:00:37+0100</time>
      </trkpt>
      <trkpt lat="47.16721" lon="4.95174">
        <ele>267.29025268555</ele>
        <time>2018-02-01T11:00:40+0100</time>
      </trkpt>
      <trkpt lat="47.16725" lon="4.95174">
        <ele>267.48025512695</ele>
        <time>2018-02-01T11:00:43+0100</time>
      </trkpt>
      <trkpt lat="47.16729" lon="4.95174">
        <ele>267.55297851562</ele>
        <time>2018-02-01T11:00:46+0100</time>
      </trkpt>
      <trkpt lat="47.16733" lon="4.95174">
        <ele>267.57125854492</ele>
        <time>2018-02-01T11:00:49+0100</time>
      </trkpt>
      <trkpt lat="47.16737" lon="4.95174">
        <ele>267.4951171875</ele>
        <time>2018-02-01T11:00:52+0100</time>
      </trkpt>
      <trkpt lat="47.16741" lon="4.95174">
        <ele>267.22802734375</ele>
        <time>2018-02-01T11:00:55+0100</time>
      </trkpt>
      <trkpt lat="47.16743" lon="4.95174">
        <ele>266.91571044922</ele>
        <time>2018-02-01T11:00:58+0100</time>
      </trkpt>
      <trkpt lat="47.16746" lon="4.95174">
        <ele>266.640625</ele>
        <time>2018-02-01T11:01:01+0100</time>
      </trkpt>
      <trkpt lat="47.16748" lon="4.95175">
        <ele>266.46252441406</ele>
        <time>2018-02-01T11:01:04+0100</time>
      </trkpt>
      <trkpt lat="47.16752" lon="4.95174">
        <ele>266.3424987793</ele>
        <time>2018-02-01T11:01:07+0100</time>
      </trkpt>
      <trkpt lat="47.16755" lon="4.95175">
        <ele>266.28106689453</ele>
        <time>2018-02-01T11:01:10+0100</time>
      </trkpt>
      <trkpt lat="47.16759" lon="4.95175">
        <ele>266.26226806641</ele>
        <time>2018-02-01T11:01:13+0100</time>
      </trkpt>
      <trkpt lat="47.16762" lon="4.95175">
        <ele>266.29849243164</ele>
        <time>2018-02-01T11:01:16+0100</time>
      </trkpt>
      <trkpt lat="47.16765" lon="4.95175">
        <ele>266.39462280273</ele>
        <time>2018-02-01T11:01:19+0100</time>
      </trkpt>
      <trkpt lat="47.16769" lon="4.95176">
        <ele>266.54592895508</ele>
        <time>2018-02-01T11:01:22+0100</time>
      </trkpt>
      <trkpt lat="47.16772" lon="4.95177">
        <ele>266.67764282227</ele>
        <time>2018-02-01T11:01:25+0100</time>
      </trkpt>
      <trkpt lat="47.16775" lon="4.95177">
        <ele>266.79794311523</ele>
        <time>2018-02-01T11:01:28+0100</time>
      </trkpt>
      <trkpt lat="47.1678" lon="4.95176">
        <ele>266.89801025391</ele>
        <time>2018-02-01T11:01:31+0100</time>
      </trkpt>
      <trkpt lat="47.16782" lon="4.95177">
        <ele>266.95547485352</ele>
        <time>2018-02-01T11:01:34+0100</time>
      </trkpt>
      <trkpt lat="47.16785" lon="4.95178">
        <ele>266.95538330078</ele>
        <time>2018-02-01T11:01:37+0100</time>
      </trkpt>
      <trkpt lat="47.16789" lon="4.95177">
        <ele>266.92874145508</ele>
        <time>2018-02-01T11:01:40+0100</time>
      </trkpt>
      <trkpt lat="47.16793" lon="4.95177">
        <ele>266.89895629883</ele>
        <time>2018-02-01T11:01:43+0100</time>
      </trkpt>
      <trkpt lat="47.16796" lon="4.95178">
        <ele>266.87271118164</ele>
        <time>2018-02-01T11:01:46+0100</time>
      </trkpt>
      <trkpt lat="47.16799" lon="4.95179">
        <ele>266.8747253418</ele>
        <time>2018-02-01T11:01:49+0100</time>
      </trkpt>
      <trkpt lat="47.16803" lon="4.9518">
        <ele>266.91418457031</ele>
        <time>2018-02-01T11:01:52+0100</time>
      </trkpt>
      <trkpt lat="47.16806" lon="4.9518">
        <ele>266.96484375</ele>
        <time>2018-02-01T11:01:55+0100</time>
      </trkpt>
      <trkpt lat="47.16809" lon="4.95182">
        <ele>266.96694946289</ele>
        <time>2018-02-01T11:01:58+0100</time>
      </trkpt>
      <trkpt lat="47.16812" lon="4.95183">
        <ele>266.89291381836</ele>
        <time>2018-02-01T11:02:01+0100</time>
      </trkpt>
      <trkpt lat="47.16816" lon="4.95185">
        <ele>266.77874755859</ele>
        <time>2018-02-01T11:02:04+0100</time>
      </trkpt>
      <trkpt lat="47.16819" lon="4.95186">
        <ele>266.68395996094</ele>
        <time>2018-02-01T11:02:07+0100</time>
      </trkpt>
      <trkpt lat="47.16822" lon="4.95187">
        <ele>266.6159362793</ele>
        <time>2018-02-01T11:02:10+0100</time>
      </trkpt>
      <trkpt lat="47.16826" lon="4.95188">
        <ele>266.59442138672</ele>
        <time>2018-02-01T11:02:13+0100</time>
      </trkpt>
      <trkpt lat="47.1683" lon="4.95189">
        <ele>266.55731201172</ele>
        <time>2018-02-01T11:02:16+0100</time>
      </trkpt>
      <trkpt lat="47.16833" lon="4.9519">
        <ele>266.50692749023</ele>
        <time>2018-02-01T11:02:19+0100</time>
      </trkpt>
      <trkpt lat="47.16837" lon="4.95191">
        <ele>266.44561767578</ele>
        <time>2018-02-01T11:02:22+0100</time>
      </trkpt>
      <trkpt lat="47.1684" lon="4.95193">
        <ele>266.34802246094</ele>
        <time>2018-02-01T11:02:25+0100</time>
      </trkpt>
      <trkpt lat="47.16843" lon="4.95194">
        <ele>266.2121887207</ele>
        <time>2018-02-01T11:02:28+0100</time>
      </trkpt>
      <trkpt lat="47.16847" lon="4.95195">
        <ele>266.06097412109</ele>
        <time>2018-02-01T11:02:31+0100</time>
      </trkpt>
      <trkpt lat="47.1685" lon="4.95197">
        <ele>265.9475402832</ele>
        <time>2018-02-01T11:02:34+0100</time>
      </trkpt>
      <trkpt lat="47.16853" lon="4.95198">
        <ele>265.89312744141</ele>
        <time>2018-02-01T11:02:37+0100</time>
      </trkpt>
      <trkpt lat="47.16857" lon="4.95199">
        <ele>265.90194702148</ele>
        <time>2018-02-01T11:02:40+0100</time>
      </trkpt>
      <trkpt lat="47.1686" lon="4.95199">
        <ele>265.96502685547</ele>
        <time>2018-02-01T11:02:43+0100</time>
      </trkpt>
      <trkpt lat="47.16864" lon="4.95199">
        <ele>266.02151489258</ele>
        <time>2018-02-01T11:02:46+0100</time>
      </trkpt>
      <trkpt lat="47.16868" lon="4.952">
        <ele>266.02569580078</ele>
        <time>2018-02-01T11:02:49+0100</time>
      </trkpt>
      <trkpt lat="47.16871" lon="4.95201">
        <ele>265.89791870117</ele>
        <time>2018-02-01T11:02:52+0100</time>
      </trkpt>
      <trkpt lat="47.16874" lon="4.95201">
        <ele>265.74017333984</ele>
        <time>2018-02-01T11:02:55+0100</time>
      </trkpt>
      <trkpt lat="47.16878" lon="4.95204">
        <ele>265.5608215332</ele>
        <time>2018-02-01T11:02:58+0100</time>
      </trkpt>
      <trkpt lat="47.16881" lon="4.95206">
        <ele>265.302734375</ele>
        <time>2018-02-01T11:03:01+0100</time>
      </trkpt>
      <trkpt lat="47.16884" lon="4.95208">
        <ele>265.12649536133</ele>
        <time>2018-02-01T11:03:04+0100</time>
      </trkpt>
      <trkpt lat="47.16887" lon="4.95209">
        <ele>264.94757080078</ele>
        <time>2018-02-01T11:03:07+0100</time>
      </trkpt>
      <trkpt lat="47.1689" lon="4.9521">
        <ele>264.76461791992</ele>
        <time>2018-02-01T11:03:10+0100</time>
      </trkpt>
      <trkpt lat="47.16894" lon="4.95211">
        <ele>264.60748291016</ele>
        <time>2018-02-01T11:03:13+0100</time>
      </trkpt>
      <trkpt lat="47.16897" lon="4.95211">
        <ele>264.44857788086</ele>
        <time>2018-02-01T11:03:16+0100</time>
      </trkpt>
      <trkpt lat="47.16901" lon="4.95213">
        <ele>264.291015625</ele>
        <time>2018-02-01T11:03:19+0100</time>
      </trkpt>
      <trkpt lat="47.16904" lon="4.95215">
        <ele>264.13360595703</ele>
        <time>2018-02-01T11:03:22+0100</time>
      </trkpt>
      <trkpt lat="47.16907" lon="4.95216">
        <ele>263.97760009766</ele>
        <time>2018-02-01T11:03:25+0100</time>
      </trkpt>
      <trkpt lat="47.16911" lon="4.95217">
        <ele>263.85305786133</ele>
        <time>2018-02-01T11:03:28+0100</time>
      </trkpt>
      <trkpt lat="47.16914" lon="4.95219">
        <ele>263.79080200195</ele>
        <time>2018-02-01T11:03:31+0100</time>
      </trkpt>
      <trkpt lat="47.16919" lon="4.9522">
        <ele>263.71343994141</ele>
        <time>2018-02-01T11:03:34+0100</time>
      </trkpt>
      <trkpt lat="47.16922" lon="4.95222">
        <ele>263.60208129883</ele>
        <time>2018-02-01T11:03:37+0100</time>
      </trkpt>
      <trkpt lat="47.16925" lon="4.95222">
        <ele>263.50112915039</ele>
        <time>2018-02-01T11:03:40+0100</time>
      </trkpt>
      <trkpt lat="47.16928" lon="4.95222">
        <ele>263.45559692383</ele>
        <time>2018-02-01T11:03:43+0100</time>
      </trkpt>
      <trkpt lat="47.16932" lon="4.95223">
        <ele>263.38653564453</ele>
        <time>2018-02-01T11:03:46+0100</time>
      </trkpt>
      <trkpt lat="47.16936" lon="4.95225">
        <ele>263.26718139648</ele>
        <time>2018-02-01T11:03:49+0100</time>
      </trkpt>
      <trkpt lat="47.16939" lon="4.95226">
        <ele>263.09582519531</ele>
        <time>2018-02-01T11:03:52+0100</time>
      </trkpt>
      <trkpt lat="47.16942" lon="4.95228">
        <ele>262.94705200195</ele>
        <time>2018-02-01T11:03:55+0100</time>
      </trkpt>
      <trkpt lat="47.16945" lon="4.95229">
        <ele>262.80612182617</ele>
        <time>2018-02-01T11:03:58+0100</time>
      </trkpt>
      <trkpt lat="47.16947" lon="4.9523">
        <ele>262.69226074219</ele>
        <time>2018-02-01T11:04:01+0100</time>
      </trkpt>
      <trkpt lat="47.1695" lon="4.95231">
        <ele>262.65850830078</ele>
        <time>2018-02-01T11:04:04+0100</time>
      </trkpt>
      <trkpt lat="47.16955" lon="4.95231">
        <ele>262.68246459961</ele>
        <time>2018-02-01T11:04:07+0100</time>
      </trkpt>
      <trkpt lat="47.16957" lon="4.95232">
        <ele>262.74008178711</ele>
        <time>2018-02-01T11:04:10+0100</time>
      </trkpt>
      <trkpt lat="47.1696" lon="4.95233">
        <ele>262.90148925781</ele>
        <time>2018-02-01T11:04:13+0100</time>
      </trkpt>
      <trkpt lat="47.16963" lon="4.95234">
        <ele>263.14050292969</ele>
        <time>2018-02-01T11:04:16+0100</time>
      </trkpt>
      <trkpt lat="47.16966" lon="4.95236">
        <ele>263.35385131836</ele>
        <time>2018-02-01T11:04:19+0100</time>
      </trkpt>
      <trkpt lat="47.16969" lon="4.95237">
        <ele>263.65859985352</ele>
        <time>2018-02-01T11:04:22+0100</time>
      </trkpt>
      <trkpt lat="47.16973" lon="4.95238">
        <ele>264.00271606445</ele>
        <time>2018-02-01T11:04:25+0100</time>
      </trkpt>
      <trkpt lat="47.16975" lon="4.95239">
        <ele>264.39663696289</ele>
        <time>2018-02-01T11:04:28+0100</time>
      </trkpt>
      <trkpt lat="47.16979" lon="4.95242">
        <ele>264.74673461914</ele>
        <time>2018-02-01T11:04:31+0100</time>
      </trkpt>
      <trkpt lat="47.16982" lon="4.95243">
        <ele>265.02612304688</ele>
        <time>2018-02-01T11:04:34+0100</time>
      </trkpt>
      <trkpt lat="47.16986" lon="4.95243">
        <ele>265.24157714844</ele>
        <time>2018-02-01T11:04:37+0100</time>
      </trkpt>
      <trkpt lat="47.16989" lon="4.95244">
        <ele>265.35125732422</ele>
        <time>2018-02-01T11:04:40+0100</time>
      </trkpt>
      <trkpt lat="47.1699" lon="4.95245">
        <ele>265.37292480469</ele>
        <time>2018-02-01T11:04:43+0100</time>
      </trkpt>
      <trkpt lat="47.16989" lon="4.95245">
        <ele>265.37890625</ele>
        <time>2018-02-01T11:04:46+0100</time>
      </trkpt>
      <trkpt lat="47.16989" lon="4.95245">
        <ele>265.38174438477</ele>
        <time>2018-02-01T11:04:49+0100</time>
      </trkpt>
      <trkpt lat="47.16989" lon="4.95245">
        <ele>265.38931274414</ele>
        <time>2018-02-01T11:04:52+0100</time>
      </trkpt>
      <trkpt lat="47.1699" lon="4.95245">
        <ele>265.50057983398</ele>
        <time>2018-02-01T11:04:55+0100</time>
      </trkpt>
      <trkpt lat="47.16991" lon="4.95245">
        <ele>265.53268432617</ele>
        <time>2018-02-01T11:04:58+0100</time>
      </trkpt>
      <trkpt lat="47.16991" lon="4.95245">
        <ele>265.53048706055</ele>
        <time>2018-02-01T11:05:01+0100</time>
      </trkpt>
      <trkpt lat="47.16992" lon="4.95246">
        <ele>265.43026733398</ele>
        <time>2018-02-01T11:05:04+0100</time>
      </trkpt>
      <trkpt lat="47.16995" lon="4.95247">
        <ele>265.34655761719</ele>
        <time>2018-02-01T11:05:07+0100</time>
      </trkpt>
      <trkpt lat="47.16997" lon="4.95248">
        <ele>265.29672241211</ele>
        <time>2018-02-01T11:05:10+0100</time>
      </trkpt>
      <trkpt lat="47.16999" lon="4.95249">
        <ele>265.28079223633</ele>
        <time>2018-02-01T11:05:13+0100</time>
      </trkpt>
      <trkpt lat="47.17002" lon="4.95249">
        <ele>265.28704833984</ele>
        <time>2018-02-01T11:05:16+0100</time>
      </trkpt>
      <trkpt lat="47.17005" lon="4.9525">
        <ele>265.29528808594</ele>
        <time>2018-02-01T11:05:19+0100</time>
      </trkpt>
      <trkpt lat="47.17008" lon="4.95251">
        <ele>265.31643676758</ele>
        <time>2018-02-01T11:05:22+0100</time>
      </trkpt>
      <trkpt lat="47.17011" lon="4.95252">
        <ele>265.41262817383</ele>
        <time>2018-02-01T11:05:25+0100</time>
      </trkpt>
      <trkpt lat="47.17014" lon="4.95255">
        <ele>265.54089355469</ele>
        <time>2018-02-01T11:05:28+0100</time>
      </trkpt>
      <trkpt lat="47.17017" lon="4.95256">
        <ele>265.70797729492</ele>
        <time>2018-02-01T11:05:31+0100</time>
      </trkpt>
      <trkpt lat="47.1702" lon="4.95258">
        <ele>265.84481811523</ele>
        <time>2018-02-01T11:05:34+0100</time>
      </trkpt>
      <trkpt lat="47.17023" lon="4.9526">
        <ele>265.927734375</ele>
        <time>2018-02-01T11:05:37+0100</time>
      </trkpt>
      <trkpt lat="47.17026" lon="4.9526">
        <ele>266.06414794922</ele>
        <time>2018-02-01T11:05:40+0100</time>
      </trkpt>
      <trkpt lat="47.1703" lon="4.9526">
        <ele>266.23193359375</ele>
        <time>2018-02-01T11:05:43+0100</time>
      </trkpt>
      <trkpt lat="47.17033" lon="4.95262">
        <ele>266.41854858398</ele>
        <time>2018-02-01T11:05:46+0100</time>
      </trkpt>
      <trkpt lat="47.17037" lon="4.95264">
        <ele>266.65737915039</ele>
        <time>2018-02-01T11:05:49+0100</time>
      </trkpt>
      <trkpt lat="47.1704" lon="4.95266">
        <ele>266.79937744141</ele>
        <time>2018-02-01T11:05:52+0100</time>
      </trkpt>
      <trkpt lat="47.17044" lon="4.95268">
        <ele>266.88034057617</ele>
        <time>2018-02-01T11:05:55+0100</time>
      </trkpt>
      <trkpt lat="47.17048" lon="4.95268">
        <ele>266.94448852539</ele>
        <time>2018-02-01T11:05:58+0100</time>
      </trkpt>
      <trkpt lat="47.17051" lon="4.95269">
        <ele>266.99768066406</ele>
        <time>2018-02-01T11:06:01+0100</time>
      </trkpt>
      <trkpt lat="47.17054" lon="4.95271">
        <ele>267.06198120117</ele>
        <time>2018-02-01T11:06:04+0100</time>
      </trkpt>
      <trkpt lat="47.17058" lon="4.95271">
        <ele>267.07189941406</ele>
        <time>2018-02-01T11:06:07+0100</time>
      </trkpt>
      <trkpt lat="47.17063" lon="4.9527">
        <ele>267.03012084961</ele>
        <time>2018-02-01T11:06:10+0100</time>
      </trkpt>
      <trkpt lat="47.17066" lon="4.9527">
        <ele>267.00915527344</ele>
        <time>2018-02-01T11:06:13+0100</time>
      </trkpt>
      <trkpt lat="47.17069" lon="4.95271">
        <ele>266.9899597168</ele>
        <time>2018-02-01T11:06:16+0100</time>
      </trkpt>
      <trkpt lat="47.17073" lon="4.9527">
        <ele>267.01788330078</ele>
        <time>2018-02-01T11:06:19+0100</time>
      </trkpt>
      <trkpt lat="47.17076" lon="4.9527">
        <ele>267.02606201172</ele>
        <time>2018-02-01T11:06:22+0100</time>
      </trkpt>
      <trkpt lat="47.17079" lon="4.9527">
        <ele>266.95166015625</ele>
        <time>2018-02-01T11:06:25+0100</time>
      </trkpt>
      <trkpt lat="47.17082" lon="4.95269">
        <ele>266.83862304688</ele>
        <time>2018-02-01T11:06:28+0100</time>
      </trkpt>
      <trkpt lat="47.17085" lon="4.95269">
        <ele>266.75384521484</ele>
        <time>2018-02-01T11:06:31+0100</time>
      </trkpt>
      <trkpt lat="47.17089" lon="4.95267">
        <ele>266.67593383789</ele>
        <time>2018-02-01T11:06:34+0100</time>
      </trkpt>
      <trkpt lat="47.17092" lon="4.95267">
        <ele>266.63424682617</ele>
        <time>2018-02-01T11:06:37+0100</time>
      </trkpt>
      <trkpt lat="47.17095" lon="4.95266">
        <ele>266.60144042969</ele>
        <time>2018-02-01T11:06:40+0100</time>
      </trkpt>
      <trkpt lat="47.17096" lon="4.95267">
        <ele>266.58755493164</ele>
        <time>2018-02-01T11:06:43+0100</time>
      </trkpt>
      <trkpt lat="47.17097" lon="4.95267">
        <ele>266.63272094727</ele>
        <time>2018-02-01T11:06:46+0100</time>
      </trkpt>
      <trkpt lat="47.171" lon="4.95269">
        <ele>266.64727783203</ele>
        <time>2018-02-01T11:06:49+0100</time>
      </trkpt>
      <trkpt lat="47.17102" lon="4.95269">
        <ele>266.61874389648</ele>
        <time>2018-02-01T11:06:52+0100</time>
      </trkpt>
      <trkpt lat="47.17104" lon="4.95269">
        <ele>266.53561401367</ele>
        <time>2018-02-01T11:06:55+0100</time>
      </trkpt>
      <trkpt lat="47.17106" lon="4.95269">
        <ele>266.50344848633</ele>
        <time>2018-02-01T11:06:58+0100</time>
      </trkpt>
      <trkpt lat="47.17108" lon="4.95269">
        <ele>266.51577758789</ele>
        <time>2018-02-01T11:07:01+0100</time>
      </trkpt>
      <trkpt lat="47.1711" lon="4.95268">
        <ele>266.54071044922</ele>
        <time>2018-02-01T11:07:04+0100</time>
      </trkpt>
      <trkpt lat="47.17111" lon="4.95268">
        <ele>266.54357910156</ele>
        <time>2018-02-01T11:07:07+0100</time>
      </trkpt>
      <trkpt lat="47.17111" lon="4.95268">
        <ele>266.54080200195</ele>
        <time>2018-02-01T11:07:10+0100</time>
      </trkpt>
      <trkpt lat="47.17111" lon="4.95268">
        <ele>266.51019287109</ele>
        <time>2018-02-01T11:07:13+0100</time>
      </trkpt>
      <trkpt lat="47.17114" lon="4.95268">
        <ele>266.48239135742</ele>
        <time>2018-02-01T11:07:16+0100</time>
      </trkpt>
      <trkpt lat="47.17116" lon="4.95268">
        <ele>266.45413208008</ele>
        <time>2018-02-01T11:07:19+0100</time>
      </trkpt>
      <trkpt lat="47.17119" lon="4.95268">
        <ele>266.50689697266</ele>
        <time>2018-02-01T11:07:22+0100</time>
      </trkpt>
      <trkpt lat="47.17122" lon="4.95268">
        <ele>266.57382202148</ele>
        <time>2018-02-01T11:07:25+0100</time>
      </trkpt>
      <trkpt lat="47.17124" lon="4.95269">
        <ele>266.63760375977</ele>
        <time>2018-02-01T11:07:28+0100</time>
      </trkpt>
      <trkpt lat="47.17127" lon="4.9527">
        <ele>266.69564819336</ele>
        <time>2018-02-01T11:07:31+0100</time>
      </trkpt>
      <trkpt lat="47.17129" lon="4.95271">
        <ele>266.74661254883</ele>
        <time>2018-02-01T11:07:34+0100</time>
      </trkpt>
      <trkpt lat="47.17132" lon="4.95271">
        <ele>266.76846313477</ele>
        <time>2018-02-01T11:07:37+0100</time>
      </trkpt>
      <trkpt lat="47.17134" lon="4.95273">
        <ele>266.80151367188</ele>
        <time>2018-02-01T11:07:40+0100</time>
      </trkpt>
      <trkpt lat="47.17136" lon="4.95273">
        <ele>266.80795288086</ele>
        <time>2018-02-01T11:07:43+0100</time>
      </trkpt>
      <trkpt lat="47.17139" lon="4.95273">
        <ele>266.82836914062</ele>
        <time>2018-02-01T11:07:46+0100</time>
      </trkpt>
      <trkpt lat="47.17142" lon="4.95274">
        <ele>266.8137512207</ele>
        <time>2018-02-01T11:07:49+0100</time>
      </trkpt>
      <trkpt lat="47.17145" lon="4.95275">
        <ele>266.7966003418</ele>
        <time>2018-02-01T11:07:52+0100</time>
      </trkpt>
      <trkpt lat="47.17149" lon="4.95275">
        <ele>266.79959106445</ele>
        <time>2018-02-01T11:07:55+0100</time>
      </trkpt>
      <trkpt lat="47.17152" lon="4.95276">
        <ele>266.79141235352</ele>
        <time>2018-02-01T11:07:58+0100</time>
      </trkpt>
      <trkpt lat="47.17155" lon="4.95277">
        <ele>266.77410888672</ele>
        <time>2018-02-01T11:08:01+0100</time>
      </trkpt>
      <trkpt lat="47.17158" lon="4.95277">
        <ele>266.77288818359</ele>
        <time>2018-02-01T11:08:04+0100</time>
      </trkpt>
      <trkpt lat="47.17161" lon="4.95278">
        <ele>266.79220581055</ele>
        <time>2018-02-01T11:08:07+0100</time>
      </trkpt>
      <trkpt lat="47.17165" lon="4.95278">
        <ele>266.87142944336</ele>
        <time>2018-02-01T11:08:09+0100</time>
      </trkpt>
      <trkpt lat="47.17169" lon="4.95279">
        <ele>266.94757080078</ele>
        <time>2018-02-01T11:08:12+0100</time>
      </trkpt>
      <trkpt lat="47.17174" lon="4.95278">
        <ele>266.97555541992</ele>
        <time>2018-02-01T11:08:15+0100</time>
      </trkpt>
      <trkpt lat="47.17177" lon="4.95279">
        <ele>266.99856567383</ele>
        <time>2018-02-01T11:08:18+0100</time>
      </trkpt>
      <trkpt lat="47.17179" lon="4.9528">
        <ele>267.05993652344</ele>
        <time>2018-02-01T11:08:21+0100</time>
      </trkpt>
      <trkpt lat="47.17184" lon="4.95282">
        <ele>267.11611938477</ele>
        <time>2018-02-01T11:08:24+0100</time>
      </trkpt>
      <trkpt lat="47.17186" lon="4.95283">
        <ele>267.12835693359</ele>
        <time>2018-02-01T11:08:27+0100</time>
      </trkpt>
      <trkpt lat="47.17189" lon="4.95284">
        <ele>267.18173217773</ele>
        <time>2018-02-01T11:08:30+0100</time>
      </trkpt>
      <trkpt lat="47.17192" lon="4.95285">
        <ele>267.24938964844</ele>
        <time>2018-02-01T11:08:33+0100</time>
      </trkpt>
      <trkpt lat="47.17196" lon="4.95285">
        <ele>267.3046875</ele>
        <time>2018-02-01T11:08:36+0100</time>
      </trkpt>
      <trkpt lat="47.17198" lon="4.95286">
        <ele>267.39135742188</ele>
        <time>2018-02-01T11:08:39+0100</time>
      </trkpt>
      <trkpt lat="47.172" lon="4.95288">
        <ele>267.56744384766</ele>
        <time>2018-02-01T11:08:42+0100</time>
      </trkpt>
      <trkpt lat="47.17204" lon="4.95289">
        <ele>267.79071044922</ele>
        <time>2018-02-01T11:08:45+0100</time>
      </trkpt>
      <trkpt lat="47.17207" lon="4.9529">
        <ele>268.02447509766</ele>
        <time>2018-02-01T11:08:48+0100</time>
      </trkpt>
      <trkpt lat="47.1721" lon="4.95291">
        <ele>268.26071166992</ele>
        <time>2018-02-01T11:08:51+0100</time>
      </trkpt>
      <trkpt lat="47.17213" lon="4.95293">
        <ele>268.45706176758</ele>
        <time>2018-02-01T11:08:54+0100</time>
      </trkpt>
      <trkpt lat="47.17216" lon="4.95294">
        <ele>268.61517333984</ele>
        <time>2018-02-01T11:08:57+0100</time>
      </trkpt>
      <trkpt lat="47.17221" lon="4.95294">
        <ele>268.68499755859</ele>
        <time>2018-02-01T11:09:00+0100</time>
      </trkpt>
      <trkpt lat="47.17225" lon="4.95293">
        <ele>268.77603149414</ele>
        <time>2018-02-01T11:09:03+0100</time>
      </trkpt>
      <trkpt lat="47.17228" lon="4.95294">
        <ele>268.94268798828</ele>
        <time>2018-02-01T11:09:06+0100</time>
      </trkpt>
      <trkpt lat="47.17231" lon="4.95294">
        <ele>269.15490722656</ele>
        <time>2018-02-01T11:09:09+0100</time>
      </trkpt>
      <trkpt lat="47.17233" lon="4.95295">
        <ele>269.35171508789</ele>
        <time>2018-02-01T11:09:12+0100</time>
      </trkpt>
      <trkpt lat="47.17236" lon="4.95295">
        <ele>269.50158691406</ele>
        <time>2018-02-01T11:09:15+0100</time>
      </trkpt>
      <trkpt lat="47.17241" lon="4.95295">
        <ele>269.52984619141</ele>
        <time>2018-02-01T11:09:18+0100</time>
      </trkpt>
      <trkpt lat="47.17245" lon="4.95294">
        <ele>269.53298950195</ele>
        <time>2018-02-01T11:09:21+0100</time>
      </trkpt>
      <trkpt lat="47.17249" lon="4.95294">
        <ele>269.54202270508</ele>
        <time>2018-02-01T11:09:24+0100</time>
      </trkpt>
      <trkpt lat="47.17252" lon="4.95295">
        <ele>269.54547119141</ele>
        <time>2018-02-01T11:09:27+0100</time>
      </trkpt>
      <trkpt lat="47.17256" lon="4.95295">
        <ele>269.55383300781</ele>
        <time>2018-02-01T11:09:30+0100</time>
      </trkpt>
      <trkpt lat="47.17258" lon="4.95296">
        <ele>269.57318115234</ele>
        <time>2018-02-01T11:09:33+0100</time>
      </trkpt>
      <trkpt lat="47.17261" lon="4.95298">
        <ele>269.59930419922</ele>
        <time>2018-02-01T11:09:36+0100</time>
      </trkpt>
      <trkpt lat="47.17264" lon="4.95299">
        <ele>269.60571289062</ele>
        <time>2018-02-01T11:09:39+0100</time>
      </trkpt>
      <trkpt lat="47.17267" lon="4.953">
        <ele>269.54193115234</ele>
        <time>2018-02-01T11:09:42+0100</time>
      </trkpt>
      <trkpt lat="47.1727" lon="4.953">
        <ele>269.45587158203</ele>
        <time>2018-02-01T11:09:45+0100</time>
      </trkpt>
      <trkpt lat="47.17274" lon="4.95299">
        <ele>269.41748046875</ele>
        <time>2018-02-01T11:09:48+0100</time>
      </trkpt>
      <trkpt lat="47.17277" lon="4.953">
        <ele>269.41558837891</ele>
        <time>2018-02-01T11:09:51+0100</time>
      </trkpt>
      <trkpt lat="47.1728" lon="4.953">
        <ele>269.43121337891</ele>
        <time>2018-02-01T11:09:54+0100</time>
      </trkpt>
      <trkpt lat="47.17284" lon="4.953">
        <ele>269.45376586914</ele>
        <time>2018-02-01T11:09:57+0100</time>
      </trkpt>
      <trkpt lat="47.17288" lon="4.95301">
        <ele>269.51934814453</ele>
        <time>2018-02-01T11:10:00+0100</time>
      </trkpt>
      <trkpt lat="47.17291" lon="4.95301">
        <ele>269.55895996094</ele>
        <time>2018-02-01T11:10:03+0100</time>
      </trkpt>
      <trkpt lat="47.17294" lon="4.95301">
        <ele>269.60586547852</ele>
        <time>2018-02-01T11:10:06+0100</time>
      </trkpt>
      <trkpt lat="47.17297" lon="4.95301">
        <ele>269.69332885742</ele>
        <time>2018-02-01T11:10:09+0100</time>
      </trkpt>
      <trkpt lat="47.17299" lon="4.95302">
        <ele>269.81771850586</ele>
        <time>2018-02-01T11:10:12+0100</time>
      </trkpt>
      <trkpt lat="47.17303" lon="4.95301">
        <ele>269.91918945312</ele>
        <time>2018-02-01T11:10:15+0100</time>
      </trkpt>
      <trkpt lat="47.17307" lon="4.95301">
        <ele>269.97854614258</ele>
        <time>2018-02-01T11:10:18+0100</time>
      </trkpt>
      <trkpt lat="47.17308" lon="4.95304">
        <ele>269.99096679688</ele>
        <time>2018-02-01T11:10:21+0100</time>
      </trkpt>
      <trkpt lat="47.17312" lon="4.95304">
        <ele>269.98345947266</ele>
        <time>2018-02-01T11:10:24+0100</time>
      </trkpt>
      <trkpt lat="47.17315" lon="4.95306">
        <ele>269.96911621094</ele>
        <time>2018-02-01T11:10:27+0100</time>
      </trkpt>
      <trkpt lat="47.17318" lon="4.95307">
        <ele>269.95401000977</ele>
        <time>2018-02-01T11:10:30+0100</time>
      </trkpt>
      <trkpt lat="47.1732" lon="4.95309">
        <ele>269.95104980469</ele>
        <time>2018-02-01T11:10:33+0100</time>
      </trkpt>
      <trkpt lat="47.17322" lon="4.9531">
        <ele>269.91876220703</ele>
        <time>2018-02-01T11:10:36+0100</time>
      </trkpt>
      <trkpt lat="47.17325" lon="4.95311">
        <ele>269.89215087891</ele>
        <time>2018-02-01T11:10:39+0100</time>
      </trkpt>
      <trkpt lat="47.17325" lon="4.95311">
        <ele>269.88803100586</ele>
        <time>2018-02-01T11:10:42+0100</time>
      </trkpt>
      <trkpt lat="47.17325" lon="4.95311">
        <ele>269.88433837891</ele>
        <time>2018-02-01T11:10:45+0100</time>
      </trkpt>
      <trkpt lat="47.17327" lon="4.95312">
        <ele>269.87045288086</ele>
        <time>2018-02-01T11:10:48+0100</time>
      </trkpt>
      <trkpt lat="47.1733" lon="4.95315">
        <ele>269.82391357422</ele>
        <time>2018-02-01T11:10:51+0100</time>
      </trkpt>
      <trkpt lat="47.17332" lon="4.95317">
        <ele>269.72265625</ele>
        <time>2018-02-01T11:10:54+0100</time>
      </trkpt>
      <trkpt lat="47.17335" lon="4.95319">
        <ele>269.59222412109</ele>
        <time>2018-02-01T11:10:57+0100</time>
      </trkpt>
      <trkpt lat="47.17339" lon="4.9532">
        <ele>269.41665649414</ele>
        <time>2018-02-01T11:11:00+0100</time>
      </trkpt>
      <trkpt lat="47.17341" lon="4.95322">
        <ele>269.20150756836</ele>
        <time>2018-02-01T11:11:03+0100</time>
      </trkpt>
      <trkpt lat="47.17344" lon="4.95323">
        <ele>269.0168762207</ele>
        <time>2018-02-01T11:11:06+0100</time>
      </trkpt>
      <trkpt lat="47.17347" lon="4.95324">
        <ele>268.80630493164</ele>
        <time>2018-02-01T11:11:09+0100</time>
      </trkpt>
      <trkpt lat="47.1735" lon="4.95326">
        <ele>268.57278442383</ele>
        <time>2018-02-01T11:11:12+0100</time>
      </trkpt>
      <trkpt lat="47.17353" lon="4.95327">
        <ele>268.29162597656</ele>
        <time>2018-02-01T11:11:15+0100</time>
      </trkpt>
      <trkpt lat="47.17356" lon="4.95327">
        <ele>268.02682495117</ele>
        <time>2018-02-01T11:11:18+0100</time>
      </trkpt>
      <trkpt lat="47.1736" lon="4.95329">
        <ele>267.76205444336</ele>
        <time>2018-02-01T11:11:21+0100</time>
      </trkpt>
      <trkpt lat="47.17363" lon="4.95331">
        <ele>267.49133300781</ele>
        <time>2018-02-01T11:11:24+0100</time>
      </trkpt>
      <trkpt lat="47.17366" lon="4.95332">
        <ele>267.24822998047</ele>
        <time>2018-02-01T11:11:27+0100</time>
      </trkpt>
      <trkpt lat="47.17368" lon="4.95334">
        <ele>267.06973266602</ele>
        <time>2018-02-01T11:11:30+0100</time>
      </trkpt>
      <trkpt lat="47.1737" lon="4.95336">
        <ele>266.87869262695</ele>
        <time>2018-02-01T11:11:33+0100</time>
      </trkpt>
      <trkpt lat="47.17372" lon="4.95338">
        <ele>266.74084472656</ele>
        <time>2018-02-01T11:11:36+0100</time>
      </trkpt>
      <trkpt lat="47.17375" lon="4.95342">
        <ele>266.60168457031</ele>
        <time>2018-02-01T11:11:39+0100</time>
      </trkpt>
      <trkpt lat="47.17377" lon="4.95345">
        <ele>266.36264038086</ele>
        <time>2018-02-01T11:11:42+0100</time>
      </trkpt>
      <trkpt lat="47.1738" lon="4.95348">
        <ele>266.09213256836</ele>
        <time>2018-02-01T11:11:45+0100</time>
      </trkpt>
      <trkpt lat="47.17383" lon="4.9535">
        <ele>265.83056640625</ele>
        <time>2018-02-01T11:11:48+0100</time>
      </trkpt>
      <trkpt lat="47.17386" lon="4.95351">
        <ele>265.59298706055</ele>
        <time>2018-02-01T11:11:51+0100</time>
      </trkpt>
      <trkpt lat="47.17389" lon="4.95353">
        <ele>265.41653442383</ele>
        <time>2018-02-01T11:11:54+0100</time>
      </trkpt>
      <trkpt lat="47.17392" lon="4.95354">
        <ele>265.25839233398</ele>
        <time>2018-02-01T11:11:57+0100</time>
      </trkpt>
      <trkpt lat="47.17395" lon="4.95355">
        <ele>265.11505126953</ele>
        <time>2018-02-01T11:12:00+0100</time>
      </trkpt>
      <trkpt lat="47.17399" lon="4.95355">
        <ele>265.00732421875</ele>
        <time>2018-02-01T11:12:03+0100</time>
      </trkpt>
      <trkpt lat="47.17403" lon="4.95356">
        <ele>264.9450378418</ele>
        <time>2018-02-01T11:12:06+0100</time>
      </trkpt>
      <trkpt lat="47.17407" lon="4.95356">
        <ele>264.93405151367</ele>
        <time>2018-02-01T11:12:09+0100</time>
      </trkpt>
      <trkpt lat="47.17409" lon="4.95357">
        <ele>264.92053222656</ele>
        <time>2018-02-01T11:12:12+0100</time>
      </trkpt>
      <trkpt lat="47.17413" lon="4.95358">
        <ele>264.86795043945</ele>
        <time>2018-02-01T11:12:15+0100</time>
      </trkpt>
      <trkpt lat="47.17416" lon="4.95359">
        <ele>264.7776184082</ele>
        <time>2018-02-01T11:12:18+0100</time>
      </trkpt>
      <trkpt lat="47.17419" lon="4.9536">
        <ele>264.67926025391</ele>
        <time>2018-02-01T11:12:21+0100</time>
      </trkpt>
      <trkpt lat="47.17422" lon="4.9536">
        <ele>264.58636474609</ele>
        <time>2018-02-01T11:12:24+0100</time>
      </trkpt>
      <trkpt lat="47.17425" lon="4.95361">
        <ele>264.51138305664</ele>
        <time>2018-02-01T11:12:27+0100</time>
      </trkpt>
      <trkpt lat="47.17428" lon="4.95362">
        <ele>264.4856262207</ele>
        <time>2018-02-01T11:12:30+0100</time>
      </trkpt>
      <trkpt lat="47.17431" lon="4.95361">
        <ele>264.50045776367</ele>
        <time>2018-02-01T11:12:33+0100</time>
      </trkpt>
      <trkpt lat="47.17435" lon="4.95361">
        <ele>264.54025268555</ele>
        <time>2018-02-01T11:12:36+0100</time>
      </trkpt>
      <trkpt lat="47.17438" lon="4.95361">
        <ele>264.60211181641</ele>
        <time>2018-02-01T11:12:39+0100</time>
      </trkpt>
      <trkpt lat="47.1744" lon="4.95362">
        <ele>264.66928100586</ele>
        <time>2018-02-01T11:12:42+0100</time>
      </trkpt>
      <trkpt lat="47.17444" lon="4.95362">
        <ele>264.75921630859</ele>
        <time>2018-02-01T11:12:45+0100</time>
      </trkpt>
      <trkpt lat="47.17448" lon="4.95362">
        <ele>264.79824829102</ele>
        <time>2018-02-01T11:12:48+0100</time>
      </trkpt>
      <trkpt lat="47.17452" lon="4.95362">
        <ele>264.86047363281</ele>
        <time>2018-02-01T11:12:51+0100</time>
      </trkpt>
      <trkpt lat="47.17455" lon="4.95363">
        <ele>264.89639282227</ele>
        <time>2018-02-01T11:12:54+0100</time>
      </trkpt>
      <trkpt lat="47.17458" lon="4.95363">
        <ele>264.89309692383</ele>
        <time>2018-02-01T11:12:57+0100</time>
      </trkpt>
      <trkpt lat="47.17461" lon="4.95363">
        <ele>264.88272094727</ele>
        <time>2018-02-01T11:13:00+0100</time>
      </trkpt>
      <trkpt lat="47.17465" lon="4.95363">
        <ele>264.9094543457</ele>
        <time>2018-02-01T11:13:03+0100</time>
      </trkpt>
      <trkpt lat="47.17468" lon="4.95363">
        <ele>264.95440673828</ele>
        <time>2018-02-01T11:13:06+0100</time>
      </trkpt>
      <trkpt lat="47.17472" lon="4.95364">
        <ele>264.91955566406</ele>
        <time>2018-02-01T11:13:09+0100</time>
      </trkpt>
      <trkpt lat="47.17475" lon="4.95364">
        <ele>264.83657836914</ele>
        <time>2018-02-01T11:13:12+0100</time>
      </trkpt>
      <trkpt lat="47.17479" lon="4.95364">
        <ele>264.72937011719</ele>
        <time>2018-02-01T11:13:15+0100</time>
      </trkpt>
      <trkpt lat="47.17481" lon="4.95365">
        <ele>264.58120727539</ele>
        <time>2018-02-01T11:13:18+0100</time>
      </trkpt>
      <trkpt lat="47.17485" lon="4.95366">
        <ele>264.4401550293</ele>
        <time>2018-02-01T11:13:21+0100</time>
      </trkpt>
      <trkpt lat="47.17487" lon="4.95367">
        <ele>264.36508178711</ele>
        <time>2018-02-01T11:13:24+0100</time>
      </trkpt>
      <trkpt lat="47.17488" lon="4.95367">
        <ele>264.32601928711</ele>
        <time>2018-02-01T11:13:27+0100</time>
      </trkpt>
      <trkpt lat="47.17491" lon="4.95369">
        <ele>264.34719848633</ele>
        <time>2018-02-01T11:13:30+0100</time>
      </trkpt>
      <trkpt lat="47.17493" lon="4.95372">
        <ele>264.37246704102</ele>
        <time>2018-02-01T11:13:33+0100</time>
      </trkpt>
      <trkpt lat="47.17496" lon="4.95375">
        <ele>264.33987426758</ele>
        <time>2018-02-01T11:13:36+0100</time>
      </trkpt>
      <trkpt lat="47.17499" lon="4.95377">
        <ele>264.27127075195</ele>
        <time>2018-02-01T11:13:39+0100</time>
      </trkpt>
      <trkpt lat="47.17501" lon="4.9538">
        <ele>264.19784545898</ele>
        <time>2018-02-01T11:13:42+0100</time>
      </trkpt>
      <trkpt lat="47.17504" lon="4.95383">
        <ele>264.12973022461</ele>
        <time>2018-02-01T11:13:45+0100</time>
      </trkpt>
      <trkpt lat="47.17508" lon="4.95385">
        <ele>264.05426025391</ele>
        <time>2018-02-01T11:13:48+0100</time>
      </trkpt>
      <trkpt lat="47.1751" lon="4.95388">
        <ele>264.00152587891</ele>
        <time>2018-02-01T11:13:51+0100</time>
      </trkpt>
      <trkpt lat="47.17512" lon="4.95391">
        <ele>264.00091552734</ele>
        <time>2018-02-01T11:13:54+0100</time>
      </trkpt>
      <trkpt lat="47.17514" lon="4.95394">
        <ele>263.93212890625</ele>
        <time>2018-02-01T11:13:57+0100</time>
      </trkpt>
      <trkpt lat="47.17517" lon="4.95397">
        <ele>263.8681640625</ele>
        <time>2018-02-01T11:14:00+0100</time>
      </trkpt>
      <trkpt lat="47.1752" lon="4.954">
        <ele>263.84536743164</ele>
        <time>2018-02-01T11:14:03+0100</time>
      </trkpt>
      <trkpt lat="47.17523" lon="4.95403">
        <ele>263.84716796875</ele>
        <time>2018-02-01T11:14:06+0100</time>
      </trkpt>
      <trkpt lat="47.17525" lon="4.95405">
        <ele>263.91217041016</ele>
        <time>2018-02-01T11:14:09+0100</time>
      </trkpt>
      <trkpt lat="47.17528" lon="4.95408">
        <ele>264.04962158203</ele>
        <time>2018-02-01T11:14:12+0100</time>
      </trkpt>
      <trkpt lat="47.17531" lon="4.95412">
        <ele>264.15185546875</ele>
        <time>2018-02-01T11:14:15+0100</time>
      </trkpt>
      <trkpt lat="47.17533" lon="4.95414">
        <ele>264.21594238281</ele>
        <time>2018-02-01T11:14:18+0100</time>
      </trkpt>
      <trkpt lat="47.17536" lon="4.95418">
        <ele>264.27499389648</ele>
        <time>2018-02-01T11:14:21+0100</time>
      </trkpt>
      <trkpt lat="47.17538" lon="4.95421">
        <ele>264.27319335938</ele>
        <time>2018-02-01T11:14:24+0100</time>
      </trkpt>
      <trkpt lat="47.1754" lon="4.95423">
        <ele>264.25268554688</ele>
        <time>2018-02-01T11:14:27+0100</time>
      </trkpt>
      <trkpt lat="47.17542" lon="4.95425">
        <ele>264.31655883789</ele>
        <time>2018-02-01T11:14:30+0100</time>
      </trkpt>
      <trkpt lat="47.17545" lon="4.95427">
        <ele>264.39639282227</ele>
        <time>2018-02-01T11:14:33+0100</time>
      </trkpt>
      <trkpt lat="47.17547" lon="4.9543">
        <ele>264.43145751953</ele>
        <time>2018-02-01T11:14:36+0100</time>
      </trkpt>
      <trkpt lat="47.17548" lon="4.95431">
        <ele>264.45935058594</ele>
        <time>2018-02-01T11:14:39+0100</time>
      </trkpt>
      <trkpt lat="47.1755" lon="4.95434">
        <ele>264.46322631836</ele>
        <time>2018-02-01T11:14:42+0100</time>
      </trkpt>
      <trkpt lat="47.17553" lon="4.95437">
        <ele>264.4030456543</ele>
        <time>2018-02-01T11:14:45+0100</time>
      </trkpt>
      <trkpt lat="47.17555" lon="4.95441">
        <ele>264.27578735352</ele>
        <time>2018-02-01T11:14:48+0100</time>
      </trkpt>
      <trkpt lat="47.17556" lon="4.95445">
        <ele>264.13140869141</ele>
        <time>2018-02-01T11:14:51+0100</time>
      </trkpt>
      <trkpt lat="47.17559" lon="4.95448">
        <ele>263.99047851562</ele>
        <time>2018-02-01T11:14:54+0100</time>
      </trkpt>
      <trkpt lat="47.17561" lon="4.95451">
        <ele>263.8762512207</ele>
        <time>2018-02-01T11:14:57+0100</time>
      </trkpt>
      <trkpt lat="47.17564" lon="4.95453">
        <ele>263.76669311523</ele>
        <time>2018-02-01T11:15:00+0100</time>
      </trkpt>
      <trkpt lat="47.17566" lon="4.95456">
        <ele>263.70693969727</ele>
        <time>2018-02-01T11:15:03+0100</time>
      </trkpt>
      <trkpt lat="47.17569" lon="4.95458">
        <ele>263.72647094727</ele>
        <time>2018-02-01T11:15:06+0100</time>
      </trkpt>
      <trkpt lat="47.17572" lon="4.95461">
        <ele>263.67687988281</ele>
        <time>2018-02-01T11:15:09+0100</time>
      </trkpt>
      <trkpt lat="47.17575" lon="4.95463">
        <ele>263.58862304688</ele>
        <time>2018-02-01T11:15:12+0100</time>
      </trkpt>
      <trkpt lat="47.17578" lon="4.95465">
        <ele>263.48538208008</ele>
        <time>2018-02-01T11:15:15+0100</time>
      </trkpt>
      <trkpt lat="47.17581" lon="4.95467">
        <ele>263.39294433594</ele>
        <time>2018-02-01T11:15:18+0100</time>
      </trkpt>
      <trkpt lat="47.17584" lon="4.9547">
        <ele>263.37173461914</ele>
        <time>2018-02-01T11:15:21+0100</time>
      </trkpt>
      <trkpt lat="47.17586" lon="4.95472">
        <ele>263.28399658203</ele>
        <time>2018-02-01T11:15:24+0100</time>
      </trkpt>
      <trkpt lat="47.17589" lon="4.95474">
        <ele>263.14819335938</ele>
        <time>2018-02-01T11:15:27+0100</time>
      </trkpt>
      <trkpt lat="47.17592" lon="4.95475">
        <ele>263.07559204102</ele>
        <time>2018-02-01T11:15:30+0100</time>
      </trkpt>
      <trkpt lat="47.17595" lon="4.95478">
        <ele>263.04965209961</ele>
        <time>2018-02-01T11:15:33+0100</time>
      </trkpt>
      <trkpt lat="47.17597" lon="4.9548">
        <ele>262.99603271484</ele>
        <time>2018-02-01T11:15:36+0100</time>
      </trkpt>
      <trkpt lat="47.17601" lon="4.95482">
        <ele>262.88946533203</ele>
        <time>2018-02-01T11:15:39+0100</time>
      </trkpt>
      <trkpt lat="47.17604" lon="4.95485">
        <ele>262.79571533203</ele>
        <time>2018-02-01T11:15:42+0100</time>
      </trkpt>
      <trkpt lat="47.17606" lon="4.95486">
        <ele>262.72741699219</ele>
        <time>2018-02-01T11:15:45+0100</time>
      </trkpt>
      <trkpt lat="47.17609" lon="4.95489">
        <ele>262.62420654297</ele>
        <time>2018-02-01T11:15:48+0100</time>
      </trkpt>
      <trkpt lat="47.17612" lon="4.95491">
        <ele>262.50701904297</ele>
        <time>2018-02-01T11:15:51+0100</time>
      </trkpt>
      <trkpt lat="47.17615" lon="4.95493">
        <ele>262.37802124023</ele>
        <time>2018-02-01T11:15:54+0100</time>
      </trkpt>
      <trkpt lat="47.17618" lon="4.95495">
        <ele>262.24014282227</ele>
        <time>2018-02-01T11:15:57+0100</time>
      </trkpt>
      <trkpt lat="47.17621" lon="4.95497">
        <ele>262.12515258789</ele>
        <time>2018-02-01T11:16:00+0100</time>
      </trkpt>
      <trkpt lat="47.17624" lon="4.95498">
        <ele>262.05877685547</ele>
        <time>2018-02-01T11:16:03+0100</time>
      </trkpt>
      <trkpt lat="47.17626" lon="4.95499">
        <ele>262.01547241211</ele>
        <time>2018-02-01T11:16:06+0100</time>
      </trkpt>
      <trkpt lat="47.17629" lon="4.95499">
        <ele>262.04229736328</ele>
        <time>2018-02-01T11:16:09+0100</time>
      </trkpt>
      <trkpt lat="47.17632" lon="4.95497">
        <ele>262.10311889648</ele>
        <time>2018-02-01T11:16:12+0100</time>
      </trkpt>
      <trkpt lat="47.17635" lon="4.95496">
        <ele>262.24890136719</ele>
        <time>2018-02-01T11:16:15+0100</time>
      </trkpt>
      <trkpt lat="47.17638" lon="4.95495">
        <ele>262.421875</ele>
        <time>2018-02-01T11:16:18+0100</time>
      </trkpt>
      <trkpt lat="47.17641" lon="4.95494">
        <ele>262.56259155273</ele>
        <time>2018-02-01T11:16:21+0100</time>
      </trkpt>
      <trkpt lat="47.17642" lon="4.95493">
        <ele>262.75540161133</ele>
        <time>2018-02-01T11:16:24+0100</time>
      </trkpt>
      <trkpt lat="47.17646" lon="4.95491">
        <ele>262.94812011719</ele>
        <time>2018-02-01T11:16:27+0100</time>
      </trkpt>
      <trkpt lat="47.17649" lon="4.9549">
        <ele>263.07455444336</ele>
        <time>2018-02-01T11:16:30+0100</time>
      </trkpt>
      <trkpt lat="47.1765" lon="4.9549">
        <ele>263.18502807617</ele>
        <time>2018-02-01T11:16:33+0100</time>
      </trkpt>
      <trkpt lat="47.17653" lon="4.95489">
        <ele>263.27679443359</ele>
        <time>2018-02-01T11:16:36+0100</time>
      </trkpt>
      <trkpt lat="47.17656" lon="4.95489">
        <ele>263.34146118164</ele>
        <time>2018-02-01T11:16:39+0100</time>
      </trkpt>
      <trkpt lat="47.17659" lon="4.95488">
        <ele>263.3967590332</ele>
        <time>2018-02-01T11:16:42+0100</time>
      </trkpt>
      <trkpt lat="47.17663" lon="4.95487">
        <ele>263.42102050781</ele>
        <time>2018-02-01T11:16:45+0100</time>
      </trkpt>
      <trkpt lat="47.17666" lon="4.95485">
        <ele>263.44024658203</ele>
        <time>2018-02-01T11:16:48+0100</time>
      </trkpt>
      <trkpt lat="47.17668" lon="4.95486">
        <ele>263.5412902832</ele>
        <time>2018-02-01T11:16:51+0100</time>
      </trkpt>
      <trkpt lat="47.17671" lon="4.95486">
        <ele>263.63989257812</ele>
        <time>2018-02-01T11:16:54+0100</time>
      </trkpt>
      <trkpt lat="47.17674" lon="4.95486">
        <ele>263.73873901367</ele>
        <time>2018-02-01T11:16:57+0100</time>
      </trkpt>
      <trkpt lat="47.17678" lon="4.95487">
        <ele>263.89877319336</ele>
        <time>2018-02-01T11:17:00+0100</time>
      </trkpt>
      <trkpt lat="47.17681" lon="4.95487">
        <ele>264.0871887207</ele>
        <time>2018-02-01T11:17:03+0100</time>
      </trkpt>
      <trkpt lat="47.17683" lon="4.95489">
        <ele>264.33383178711</ele>
        <time>2018-02-01T11:17:06+0100</time>
      </trkpt>
      <trkpt lat="47.17686" lon="4.9549">
        <ele>264.56469726562</ele>
        <time>2018-02-01T11:17:09+0100</time>
      </trkpt>
      <trkpt lat="47.17689" lon="4.95492">
        <ele>264.7919921875</ele>
        <time>2018-02-01T11:17:12+0100</time>
      </trkpt>
      <trkpt lat="47.17692" lon="4.95494">
        <ele>265.06942749023</ele>
        <time>2018-02-01T11:17:15+0100</time>
      </trkpt>
      <trkpt lat="47.17695" lon="4.95496">
        <ele>265.37396240234</ele>
        <time>2018-02-01T11:17:18+0100</time>
      </trkpt>
      <trkpt lat="47.17698" lon="4.95497">
        <ele>265.66464233398</ele>
        <time>2018-02-01T11:17:21+0100</time>
      </trkpt>
      <trkpt lat="47.17699" lon="4.95498">
        <ele>265.95977783203</ele>
        <time>2018-02-01T11:17:24+0100</time>
      </trkpt>
      <trkpt lat="47.17701" lon="4.95499">
        <ele>266.19464111328</ele>
        <time>2018-02-01T11:17:27+0100</time>
      </trkpt>
      <trkpt lat="47.17701" lon="4.95499">
        <ele>266.42672729492</ele>
        <time>2018-02-01T11:17:30+0100</time>
      </trkpt>
      <trkpt lat="47.17702" lon="4.955">
        <ele>266.689453125</ele>
        <time>2018-02-01T11:17:33+0100</time>
      </trkpt>
      <trkpt lat="47.17705" lon="4.95502">
        <ele>266.93923950195</ele>
        <time>2018-02-01T11:17:36+0100</time>
      </trkpt>
      <trkpt lat="47.17707" lon="4.95504">
        <ele>267.1708984375</ele>
        <time>2018-02-01T11:17:39+0100</time>
      </trkpt>
      <trkpt lat="47.17709" lon="4.95506">
        <ele>267.38159179688</ele>
        <time>2018-02-01T11:17:42+0100</time>
      </trkpt>
      <trkpt lat="47.17711" lon="4.95509">
        <ele>267.60736083984</ele>
        <time>2018-02-01T11:17:45+0100</time>
      </trkpt>
      <trkpt lat="47.17714" lon="4.95511">
        <ele>267.84704589844</ele>
        <time>2018-02-01T11:17:48+0100</time>
      </trkpt>
      <trkpt lat="47.17716" lon="4.95512">
        <ele>268.07830810547</ele>
        <time>2018-02-01T11:17:51+0100</time>
      </trkpt>
      <trkpt lat="47.17718" lon="4.95514">
        <ele>268.26470947266</ele>
        <time>2018-02-01T11:17:54+0100</time>
      </trkpt>
      <trkpt lat="47.17721" lon="4.95516">
        <ele>268.466796875</ele>
        <time>2018-02-01T11:17:57+0100</time>
      </trkpt>
      <trkpt lat="47.17723" lon="4.95518">
        <ele>268.64169311523</ele>
        <time>2018-02-01T11:18:00+0100</time>
      </trkpt>
      <trkpt lat="47.17723" lon="4.95519">
        <ele>268.67633056641</ele>
        <time>2018-02-01T11:18:03+0100</time>
      </trkpt>
      <trkpt lat="47.17723" lon="4.95519">
        <ele>268.67807006836</ele>
        <time>2018-02-01T11:18:06+0100</time>
      </trkpt>
      <trkpt lat="47.17723" lon="4.95519">
        <ele>268.67224121094</ele>
        <time>2018-02-01T11:18:09+0100</time>
      </trkpt>
      <trkpt lat="47.17723" lon="4.9552">
        <ele>268.64682006836</ele>
        <time>2018-02-01T11:18:12+0100</time>
      </trkpt>
      <trkpt lat="47.17725" lon="4.95522">
        <ele>268.65866088867</ele>
        <time>2018-02-01T11:18:15+0100</time>
      </trkpt>
      <trkpt lat="47.17728" lon="4.95522">
        <ele>268.71304321289</ele>
        <time>2018-02-01T11:18:18+0100</time>
      </trkpt>
      <trkpt lat="47.1773" lon="4.95524">
        <ele>268.84405517578</ele>
        <time>2018-02-01T11:18:21+0100</time>
      </trkpt>
      <trkpt lat="47.17732" lon="4.95526">
        <ele>268.88342285156</ele>
        <time>2018-02-01T11:18:24+0100</time>
      </trkpt>
      <trkpt lat="47.17735" lon="4.95526">
        <ele>268.94619750977</ele>
        <time>2018-02-01T11:18:27+0100</time>
      </trkpt>
      <trkpt lat="47.17737" lon="4.95528">
        <ele>269.01229858398</ele>
        <time>2018-02-01T11:18:30+0100</time>
      </trkpt>
      <trkpt lat="47.1774" lon="4.95528">
        <ele>269.05853271484</ele>
        <time>2018-02-01T11:18:33+0100</time>
      </trkpt>
      <trkpt lat="47.17743" lon="4.95529">
        <ele>269.08419799805</ele>
        <time>2018-02-01T11:18:36+0100</time>
      </trkpt>
      <trkpt lat="47.17746" lon="4.95529">
        <ele>269.07818603516</ele>
        <time>2018-02-01T11:18:39+0100</time>
      </trkpt>
      <trkpt lat="47.17748" lon="4.95529">
        <ele>269.09283447266</ele>
        <time>2018-02-01T11:18:42+0100</time>
      </trkpt>
      <trkpt lat="47.1775" lon="4.95531">
        <ele>269.16372680664</ele>
        <time>2018-02-01T11:18:45+0100</time>
      </trkpt>
      <trkpt lat="47.17751" lon="4.95531">
        <ele>269.19750976562</ele>
        <time>2018-02-01T11:18:48+0100</time>
      </trkpt>
      <trkpt lat="47.17752" lon="4.95531">
        <ele>269.21850585938</ele>
        <time>2018-02-01T11:18:51+0100</time>
      </trkpt>
      <trkpt lat="47.17752" lon="4.95532">
        <ele>269.21774291992</ele>
        <time>2018-02-01T11:18:54+0100</time>
      </trkpt>
      <trkpt lat="47.17752" lon="4.95532">
        <ele>269.22927856445</ele>
        <time>2018-02-01T11:18:57+0100</time>
      </trkpt>
      <trkpt lat="47.17754" lon="4.95533">
        <ele>269.31298828125</ele>
        <time>2018-02-01T11:19:00+0100</time>
      </trkpt>
      <trkpt lat="47.17758" lon="4.95534">
        <ele>269.48236083984</ele>
        <time>2018-02-01T11:19:03+0100</time>
      </trkpt>
      <trkpt lat="47.17761" lon="4.95536">
        <ele>269.65679931641</ele>
        <time>2018-02-01T11:19:06+0100</time>
      </trkpt>
      <trkpt lat="47.17764" lon="4.95537">
        <ele>269.82214355469</ele>
        <time>2018-02-01T11:19:09+0100</time>
      </trkpt>
      <trkpt lat="47.17768" lon="4.95538">
        <ele>269.94537353516</ele>
        <time>2018-02-01T11:19:12+0100</time>
      </trkpt>
      <trkpt lat="47.17772" lon="4.95539">
        <ele>269.97348022461</ele>
        <time>2018-02-01T11:19:15+0100</time>
      </trkpt>
      <trkpt lat="47.17774" lon="4.95542">
        <ele>269.91519165039</ele>
        <time>2018-02-01T11:19:18+0100</time>
      </trkpt>
      <trkpt lat="47.17778" lon="4.95542">
        <ele>269.85366821289</ele>
        <time>2018-02-01T11:19:21+0100</time>
      </trkpt>
      <trkpt lat="47.17781" lon="4.95543">
        <ele>269.82638549805</ele>
        <time>2018-02-01T11:19:24+0100</time>
      </trkpt>
      <trkpt lat="47.17783" lon="4.95545">
        <ele>269.81188964844</ele>
        <time>2018-02-01T11:19:27+0100</time>
      </trkpt>
      <trkpt lat="47.17786" lon="4.95546">
        <ele>269.83572387695</ele>
        <time>2018-02-01T11:19:30+0100</time>
      </trkpt>
      <trkpt lat="47.17789" lon="4.95547">
        <ele>269.92001342773</ele>
        <time>2018-02-01T11:19:33+0100</time>
      </trkpt>
      <trkpt lat="47.17791" lon="4.95549">
        <ele>269.99371337891</ele>
        <time>2018-02-01T11:19:36+0100</time>
      </trkpt>
      <trkpt lat="47.17795" lon="4.9555">
        <ele>270.04235839844</ele>
        <time>2018-02-01T11:19:39+0100</time>
      </trkpt>
      <trkpt lat="47.17799" lon="4.95551">
        <ele>269.98068237305</ele>
        <time>2018-02-01T11:19:42+0100</time>
      </trkpt>
      <trkpt lat="47.17802" lon="4.95552">
        <ele>269.92660522461</ele>
        <time>2018-02-01T11:19:45+0100</time>
      </trkpt>
      <trkpt lat="47.17805" lon="4.95554">
        <ele>269.94595336914</ele>
        <time>2018-02-01T11:19:48+0100</time>
      </trkpt>
      <trkpt lat="47.17807" lon="4.95555">
        <ele>270.03509521484</ele>
        <time>2018-02-01T11:19:51+0100</time>
      </trkpt>
      <trkpt lat="47.1781" lon="4.95558">
        <ele>270.16690063477</ele>
        <time>2018-02-01T11:19:54+0100</time>
      </trkpt>
      <trkpt lat="47.17812" lon="4.95559">
        <ele>270.32800292969</ele>
        <time>2018-02-01T11:19:57+0100</time>
      </trkpt>
      <trkpt lat="47.17816" lon="4.95561">
        <ele>270.49349975586</ele>
        <time>2018-02-01T11:20:00+0100</time>
      </trkpt>
      <trkpt lat="47.17819" lon="4.95562">
        <ele>270.64755249023</ele>
        <time>2018-02-01T11:20:03+0100</time>
      </trkpt>
      <trkpt lat="47.17823" lon="4.95564">
        <ele>270.74322509766</ele>
        <time>2018-02-01T11:20:06+0100</time>
      </trkpt>
      <trkpt lat="47.17826" lon="4.95567">
        <ele>270.76019287109</ele>
        <time>2018-02-01T11:20:09+0100</time>
      </trkpt>
      <trkpt lat="47.17829" lon="4.95569">
        <ele>270.7785949707</ele>
        <time>2018-02-01T11:20:12+0100</time>
      </trkpt>
      <trkpt lat="47.17832" lon="4.95571">
        <ele>270.85470581055</ele>
        <time>2018-02-01T11:20:15+0100</time>
      </trkpt>
      <trkpt lat="47.17835" lon="4.95574">
        <ele>270.93640136719</ele>
        <time>2018-02-01T11:20:18+0100</time>
      </trkpt>
      <trkpt lat="47.17838" lon="4.95576">
        <ele>271.02703857422</ele>
        <time>2018-02-01T11:20:21+0100</time>
      </trkpt>
      <trkpt lat="47.17841" lon="4.95577">
        <ele>271.13848876953</ele>
        <time>2018-02-01T11:20:24+0100</time>
      </trkpt>
      <trkpt lat="47.17844" lon="4.9558">
        <ele>271.3283996582</ele>
        <time>2018-02-01T11:20:27+0100</time>
      </trkpt>
      <trkpt lat="47.17846" lon="4.95582">
        <ele>271.46643066406</ele>
        <time>2018-02-01T11:20:30+0100</time>
      </trkpt>
      <trkpt lat="47.17849" lon="4.95584">
        <ele>271.55438232422</ele>
        <time>2018-02-01T11:20:33+0100</time>
      </trkpt>
      <trkpt lat="47.17852" lon="4.95586">
        <ele>271.63998413086</ele>
        <time>2018-02-01T11:20:36+0100</time>
      </trkpt>
      <trkpt lat="47.17854" lon="4.95587">
        <ele>271.69839477539</ele>
        <time>2018-02-01T11:20:39+0100</time>
      </trkpt>
      <trkpt lat="47.17855" lon="4.95587">
        <ele>271.73126220703</ele>
        <time>2018-02-01T11:20:42+0100</time>
      </trkpt>
      <trkpt lat="47.17855" lon="4.95587">
        <ele>271.72906494141</ele>
        <time>2018-02-01T11:20:45+0100</time>
      </trkpt>
      <trkpt lat="47.17855" lon="4.95587">
        <ele>271.7253112793</ele>
        <time>2018-02-01T11:20:48+0100</time>
      </trkpt>
      <trkpt lat="47.17855" lon="4.95587">
        <ele>271.72027587891</ele>
        <time>2018-02-01T11:20:51+0100</time>
      </trkpt>
      <trkpt lat="47.17855" lon="4.95587">
        <ele>271.72131347656</ele>
        <time>2018-02-01T11:20:54+0100</time>
      </trkpt>
      <trkpt lat="47.17857" lon="4.95587">
        <ele>271.72900390625</ele>
        <time>2018-02-01T11:20:57+0100</time>
      </trkpt>
      <trkpt lat="47.17857" lon="4.95587">
        <ele>271.72979736328</ele>
        <time>2018-02-01T11:21:00+0100</time>
      </trkpt>
      <trkpt lat="47.17857" lon="4.95587">
        <ele>271.7389831543</ele>
        <time>2018-02-01T11:21:03+0100</time>
      </trkpt>
      <trkpt lat="47.17857" lon="4.95587">
        <ele>271.7522277832</ele>
        <time>2018-02-01T11:21:06+0100</time>
      </trkpt>
      <trkpt lat="47.17857" lon="4.95587">
        <ele>271.75738525391</ele>
        <time>2018-02-01T11:21:09+0100</time>
      </trkpt>
      <trkpt lat="47.17858" lon="4.95588">
        <ele>271.74020385742</ele>
        <time>2018-02-01T11:21:12+0100</time>
      </trkpt>
      <trkpt lat="47.17861" lon="4.95589">
        <ele>271.72082519531</ele>
        <time>2018-02-01T11:21:15+0100</time>
      </trkpt>
      <trkpt lat="47.17863" lon="4.95591">
        <ele>271.66561889648</ele>
        <time>2018-02-01T11:21:18+0100</time>
      </trkpt>
      <trkpt lat="47.17865" lon="4.95593">
        <ele>271.56414794922</ele>
        <time>2018-02-01T11:21:21+0100</time>
      </trkpt>
      <trkpt lat="47.17868" lon="4.95595">
        <ele>271.45901489258</ele>
        <time>2018-02-01T11:21:24+0100</time>
      </trkpt>
      <trkpt lat="47.1787" lon="4.95597">
        <ele>271.39340209961</ele>
        <time>2018-02-01T11:21:28+0100</time>
      </trkpt>
      <trkpt lat="47.17871" lon="4.95599">
        <ele>271.39059448242</ele>
        <time>2018-02-01T11:21:31+0100</time>
      </trkpt>
      <trkpt lat="47.17873" lon="4.95601">
        <ele>271.35272216797</ele>
        <time>2018-02-01T11:21:34+0100</time>
      </trkpt>
      <trkpt lat="47.17876" lon="4.95602">
        <ele>271.37405395508</ele>
        <time>2018-02-01T11:21:37+0100</time>
      </trkpt>
      <trkpt lat="47.17879" lon="4.95603">
        <ele>271.50149536133</ele>
        <time>2018-02-01T11:21:40+0100</time>
      </trkpt>
      <trkpt lat="47.17878" lon="4.95604">
        <ele>271.53115844727</ele>
        <time>2018-02-01T11:21:43+0100</time>
      </trkpt>
      <trkpt lat="47.17883" lon="4.95606">
        <ele>271.49462890625</ele>
        <time>2018-02-01T11:21:46+0100</time>
      </trkpt>
      <trkpt lat="47.17886" lon="4.95606">
        <ele>271.56628417969</ele>
        <time>2018-02-01T11:21:49+0100</time>
      </trkpt>
      <trkpt lat="47.17889" lon="4.95608">
        <ele>271.71957397461</ele>
        <time>2018-02-01T11:21:52+0100</time>
      </trkpt>
      <trkpt lat="47.17892" lon="4.95609">
        <ele>271.85852050781</ele>
        <time>2018-02-01T11:21:55+0100</time>
      </trkpt>
      <trkpt lat="47.17894" lon="4.9561">
        <ele>272.0368347168</ele>
        <time>2018-02-01T11:21:58+0100</time>
      </trkpt>
      <trkpt lat="47.17899" lon="4.95611">
        <ele>272.17092895508</ele>
        <time>2018-02-01T11:22:01+0100</time>
      </trkpt>
      <trkpt lat="47.17902" lon="4.95612">
        <ele>272.330078125</ele>
        <time>2018-02-01T11:22:04+0100</time>
      </trkpt>
      <trkpt lat="47.17902" lon="4.95614">
        <ele>272.48590087891</ele>
        <time>2018-02-01T11:22:07+0100</time>
      </trkpt>
      <trkpt lat="47.17904" lon="4.95617">
        <ele>272.6223449707</ele>
        <time>2018-02-01T11:22:10+0100</time>
      </trkpt>
      <trkpt lat="47.17907" lon="4.95618">
        <ele>272.83203125</ele>
        <time>2018-02-01T11:22:13+0100</time>
      </trkpt>
      <trkpt lat="47.17911" lon="4.95619">
        <ele>272.9928894043</ele>
        <time>2018-02-01T11:22:16+0100</time>
      </trkpt>
      <trkpt lat="47.17913" lon="4.9562">
        <ele>273.12747192383</ele>
        <time>2018-02-01T11:22:19+0100</time>
      </trkpt>
      <trkpt lat="47.17917" lon="4.95622">
        <ele>273.24655151367</ele>
        <time>2018-02-01T11:22:22+0100</time>
      </trkpt>
      <trkpt lat="47.17919" lon="4.95622">
        <ele>273.32913208008</ele>
        <time>2018-02-01T11:22:25+0100</time>
      </trkpt>
      <trkpt lat="47.17923" lon="4.95623">
        <ele>273.36572265625</ele>
        <time>2018-02-01T11:22:28+0100</time>
      </trkpt>
      <trkpt lat="47.17927" lon="4.95623">
        <ele>273.37704467773</ele>
        <time>2018-02-01T11:22:31+0100</time>
      </trkpt>
      <trkpt lat="47.1793" lon="4.95624">
        <ele>273.31939697266</ele>
        <time>2018-02-01T11:22:34+0100</time>
      </trkpt>
      <trkpt lat="47.17934" lon="4.95624">
        <ele>273.23611450195</ele>
        <time>2018-02-01T11:22:37+0100</time>
      </trkpt>
      <trkpt lat="47.17937" lon="4.95624">
        <ele>273.17608642578</ele>
        <time>2018-02-01T11:22:40+0100</time>
      </trkpt>
      <trkpt lat="47.17938" lon="4.95626">
        <ele>273.12231445312</ele>
        <time>2018-02-01T11:22:43+0100</time>
      </trkpt>
      <trkpt lat="47.17942" lon="4.95628">
        <ele>273.0302734375</ele>
        <time>2018-02-01T11:22:46+0100</time>
      </trkpt>
      <trkpt lat="47.17945" lon="4.95628">
        <ele>272.96990966797</ele>
        <time>2018-02-01T11:22:49+0100</time>
      </trkpt>
      <trkpt lat="47.17947" lon="4.95629">
        <ele>272.99212646484</ele>
        <time>2018-02-01T11:22:52+0100</time>
      </trkpt>
      <trkpt lat="47.17951" lon="4.95629">
        <ele>273.01327514648</ele>
        <time>2018-02-01T11:22:55+0100</time>
      </trkpt>
      <trkpt lat="47.17953" lon="4.9563">
        <ele>273.04455566406</ele>
        <time>2018-02-01T11:22:58+0100</time>
      </trkpt>
      <trkpt lat="47.17956" lon="4.9563">
        <ele>273.06072998047</ele>
        <time>2018-02-01T11:23:01+0100</time>
      </trkpt>
      <trkpt lat="47.17958" lon="4.95631">
        <ele>273.08139038086</ele>
        <time>2018-02-01T11:23:04+0100</time>
      </trkpt>
      <trkpt lat="47.17961" lon="4.95632">
        <ele>273.20288085938</ele>
        <time>2018-02-01T11:23:07+0100</time>
      </trkpt>
      <trkpt lat="47.17965" lon="4.95631">
        <ele>273.41864013672</ele>
        <time>2018-02-01T11:23:10+0100</time>
      </trkpt>
      <trkpt lat="47.17967" lon="4.95631">
        <ele>273.57650756836</ele>
        <time>2018-02-01T11:23:13+0100</time>
      </trkpt>
      <trkpt lat="47.17967" lon="4.95631">
        <ele>273.59423828125</ele>
        <time>2018-02-01T11:23:16+0100</time>
      </trkpt>
      <trkpt lat="47.17967" lon="4.95631">
        <ele>273.61734008789</ele>
        <time>2018-02-01T11:23:19+0100</time>
      </trkpt>
      <trkpt lat="47.17968" lon="4.95631">
        <ele>273.66363525391</ele>
        <time>2018-02-01T11:23:22+0100</time>
      </trkpt>
      <trkpt lat="47.17968" lon="4.95631">
        <ele>273.71273803711</ele>
        <time>2018-02-01T11:23:25+0100</time>
      </trkpt>
      <trkpt lat="47.17968" lon="4.95631">
        <ele>273.74545288086</ele>
        <time>2018-02-01T11:23:28+0100</time>
      </trkpt>
      <trkpt lat="47.17967" lon="4.95632">
        <ele>273.77279663086</ele>
        <time>2018-02-01T11:23:31+0100</time>
      </trkpt>
      <trkpt lat="47.17967" lon="4.95632">
        <ele>273.79205322266</ele>
        <time>2018-02-01T11:23:34+0100</time>
      </trkpt>
      <trkpt lat="47.17968" lon="4.95631">
        <ele>273.80056762695</ele>
        <time>2018-02-01T11:23:37+0100</time>
      </trkpt>
      <trkpt lat="47.17969" lon="4.9563">
        <ele>273.79132080078</ele>
        <time>2018-02-01T11:23:40+0100</time>
      </trkpt>
      <trkpt lat="47.17969" lon="4.95629">
        <ele>273.77182006836</ele>
        <time>2018-02-01T11:23:43+0100</time>
      </trkpt>
      <trkpt lat="47.17969" lon="4.9563">
        <ele>273.74499511719</ele>
        <time>2018-02-01T11:23:46+0100</time>
      </trkpt>
      <trkpt lat="47.17969" lon="4.9563">
        <ele>273.72186279297</ele>
        <time>2018-02-01T11:23:49+0100</time>
      </trkpt>
      <trkpt lat="47.17969" lon="4.95631">
        <ele>273.69442749023</ele>
        <time>2018-02-01T11:23:52+0100</time>
      </trkpt>
      <trkpt lat="47.17969" lon="4.95631">
        <ele>273.67654418945</ele>
        <time>2018-02-01T11:23:55+0100</time>
      </trkpt>
      <trkpt lat="47.17969" lon="4.95631">
        <ele>273.66607666016</ele>
        <time>2018-02-01T11:23:58+0100</time>
      </trkpt>
      <trkpt lat="47.17968" lon="4.95632">
        <ele>273.65670776367</ele>
        <time>2018-02-01T11:24:01+0100</time>
      </trkpt>
      <trkpt lat="47.17967" lon="4.95633">
        <ele>273.59078979492</ele>
        <time>2018-02-01T11:24:04+0100</time>
      </trkpt>
      <trkpt lat="47.17967" lon="4.95633">
        <ele>273.59143066406</ele>
        <time>2018-02-01T11:24:07+0100</time>
      </trkpt>
      <trkpt lat="47.17967" lon="4.95633">
        <ele>273.59487915039</ele>
        <time>2018-02-01T11:24:10+0100</time>
      </trkpt>
      <trkpt lat="47.17967" lon="4.95633">
        <ele>273.6047668457</ele>
        <time>2018-02-01T11:24:13+0100</time>
      </trkpt>
      <trkpt lat="47.17968" lon="4.95634">
        <ele>273.71603393555</ele>
        <time>2018-02-01T11:24:16+0100</time>
      </trkpt>
      <trkpt lat="47.17969" lon="4.95634">
        <ele>273.7926940918</ele>
        <time>2018-02-01T11:24:19+0100</time>
      </trkpt>
      <trkpt lat="47.17971" lon="4.95635">
        <ele>273.83911132812</ele>
        <time>2018-02-01T11:24:22+0100</time>
      </trkpt>
      <trkpt lat="47.17973" lon="4.95634">
        <ele>273.90502929688</ele>
        <time>2018-02-01T11:24:25+0100</time>
      </trkpt>
      <trkpt lat="47.17974" lon="4.95634">
        <ele>273.99456787109</ele>
        <time>2018-02-01T11:24:28+0100</time>
      </trkpt>
      <trkpt lat="47.17976" lon="4.95635">
        <ele>274.13119506836</ele>
        <time>2018-02-01T11:24:31+0100</time>
      </trkpt>
      <trkpt lat="47.17978" lon="4.95637">
        <ele>274.18994140625</ele>
        <time>2018-02-01T11:24:34+0100</time>
      </trkpt>
      <trkpt lat="47.17979" lon="4.95637">
        <ele>274.19189453125</ele>
        <time>2018-02-01T11:24:37+0100</time>
      </trkpt>
      <trkpt lat="47.1798" lon="4.95637">
        <ele>274.23849487305</ele>
        <time>2018-02-01T11:24:40+0100</time>
      </trkpt>
      <trkpt lat="47.17981" lon="4.95638">
        <ele>274.33041381836</ele>
        <time>2018-02-01T11:24:43+0100</time>
      </trkpt>
      <trkpt lat="47.17983" lon="4.95638">
        <ele>274.40051269531</ele>
        <time>2018-02-01T11:24:46+0100</time>
      </trkpt>
      <trkpt lat="47.17985" lon="4.95639">
        <ele>274.59451293945</ele>
        <time>2018-02-01T11:24:49+0100</time>
      </trkpt>
      <trkpt lat="47.17986" lon="4.9564">
        <ele>274.77560424805</ele>
        <time>2018-02-01T11:24:52+0100</time>
      </trkpt>
      <trkpt lat="47.17988" lon="4.95641">
        <ele>274.92739868164</ele>
        <time>2018-02-01T11:24:55+0100</time>
      </trkpt>
      <trkpt lat="47.1799" lon="4.95643">
        <ele>275.04626464844</ele>
        <time>2018-02-01T11:24:58+0100</time>
      </trkpt>
      <trkpt lat="47.17993" lon="4.95645">
        <ele>275.18710327148</ele>
        <time>2018-02-01T11:25:01+0100</time>
      </trkpt>
      <trkpt lat="47.17996" lon="4.95647">
        <ele>275.34533691406</ele>
        <time>2018-02-01T11:25:04+0100</time>
      </trkpt>
      <trkpt lat="47.17997" lon="4.95648">
        <ele>275.49145507812</ele>
        <time>2018-02-01T11:25:07+0100</time>
      </trkpt>
      <trkpt lat="47.17998" lon="4.95651">
        <ele>275.59814453125</ele>
        <time>2018-02-01T11:25:10+0100</time>
      </trkpt>
      <trkpt lat="47.18" lon="4.95652">
        <ele>275.71881103516</ele>
        <time>2018-02-01T11:25:13+0100</time>
      </trkpt>
      <trkpt lat="47.18003" lon="4.95655">
        <ele>275.84912109375</ele>
        <time>2018-02-01T11:25:16+0100</time>
      </trkpt>
      <trkpt lat="47.18005" lon="4.95657">
        <ele>275.94659423828</ele>
        <time>2018-02-01T11:25:19+0100</time>
      </trkpt>
      <trkpt lat="47.18007" lon="4.95659">
        <ele>276.04168701172</ele>
        <time>2018-02-01T11:25:22+0100</time>
      </trkpt>
      <trkpt lat="47.1801" lon="4.95661">
        <ele>276.14154052734</ele>
        <time>2018-02-01T11:25:25+0100</time>
      </trkpt>
      <trkpt lat="47.18011" lon="4.95664">
        <ele>276.23965454102</ele>
        <time>2018-02-01T11:25:28+0100</time>
      </trkpt>
      <trkpt lat="47.18013" lon="4.95667">
        <ele>276.31304931641</ele>
        <time>2018-02-01T11:25:31+0100</time>
      </trkpt>
      <trkpt lat="47.18016" lon="4.9567">
        <ele>276.40689086914</ele>
        <time>2018-02-01T11:25:34+0100</time>
      </trkpt>
      <trkpt lat="47.18018" lon="4.95673">
        <ele>276.49401855469</ele>
        <time>2018-02-01T11:25:37+0100</time>
      </trkpt>
      <trkpt lat="47.1802" lon="4.95674">
        <ele>276.55722045898</ele>
        <time>2018-02-01T11:25:40+0100</time>
      </trkpt>
      <trkpt lat="47.18022" lon="4.95677">
        <ele>276.61480712891</ele>
        <time>2018-02-01T11:25:43+0100</time>
      </trkpt>
      <trkpt lat="47.18024" lon="4.95678">
        <ele>276.67883300781</ele>
        <time>2018-02-01T11:25:46+0100</time>
      </trkpt>
      <trkpt lat="47.18026" lon="4.95678">
        <ele>276.83834838867</ele>
        <time>2018-02-01T11:25:49+0100</time>
      </trkpt>
      <trkpt lat="47.18029" lon="4.95679">
        <ele>277.05511474609</ele>
        <time>2018-02-01T11:25:52+0100</time>
      </trkpt>
      <trkpt lat="47.18031" lon="4.95681">
        <ele>277.23184204102</ele>
        <time>2018-02-01T11:25:55+0100</time>
      </trkpt>
      <trkpt lat="47.18033" lon="4.95685">
        <ele>277.31103515625</ele>
        <time>2018-02-01T11:25:58+0100</time>
      </trkpt>
      <trkpt lat="47.18035" lon="4.95687">
        <ele>277.35278320312</ele>
        <time>2018-02-01T11:26:01+0100</time>
      </trkpt>
      <trkpt lat="47.18038" lon="4.95689">
        <ele>277.37738037109</ele>
        <time>2018-02-01T11:26:04+0100</time>
      </trkpt>
      <trkpt lat="47.1804" lon="4.95691">
        <ele>277.34725952148</ele>
        <time>2018-02-01T11:26:07+0100</time>
      </trkpt>
      <trkpt lat="47.18043" lon="4.95692">
        <ele>277.25744628906</ele>
        <time>2018-02-01T11:26:10+0100</time>
      </trkpt>
      <trkpt lat="47.18047" lon="4.95695">
        <ele>277.11019897461</ele>
        <time>2018-02-01T11:26:13+0100</time>
      </trkpt>
      <trkpt lat="47.18051" lon="4.95696">
        <ele>276.88671875</ele>
        <time>2018-02-01T11:26:16+0100</time>
      </trkpt>
      <trkpt lat="47.18054" lon="4.95698">
        <ele>276.61953735352</ele>
        <time>2018-02-01T11:26:19+0100</time>
      </trkpt>
      <trkpt lat="47.18056" lon="4.957">
        <ele>276.36050415039</ele>
        <time>2018-02-01T11:26:22+0100</time>
      </trkpt>
      <trkpt lat="47.18059" lon="4.95703">
        <ele>276.1213684082</ele>
        <time>2018-02-01T11:26:25+0100</time>
      </trkpt>
      <trkpt lat="47.18062" lon="4.95704">
        <ele>275.91180419922</ele>
        <time>2018-02-01T11:26:28+0100</time>
      </trkpt>
      <trkpt lat="47.18065" lon="4.95704">
        <ele>275.75219726562</ele>
        <time>2018-02-01T11:26:31+0100</time>
      </trkpt>
      <trkpt lat="47.18068" lon="4.95706">
        <ele>275.712890625</ele>
        <time>2018-02-01T11:26:34+0100</time>
      </trkpt>
      <trkpt lat="47.18071" lon="4.95708">
        <ele>275.74920654297</ele>
        <time>2018-02-01T11:26:37+0100</time>
      </trkpt>
      <trkpt lat="47.18074" lon="4.95709">
        <ele>275.78689575195</ele>
        <time>2018-02-01T11:26:40+0100</time>
      </trkpt>
      <trkpt lat="47.18077" lon="4.95711">
        <ele>275.79251098633</ele>
        <time>2018-02-01T11:26:43+0100</time>
      </trkpt>
      <trkpt lat="47.1808" lon="4.95712">
        <ele>275.77035522461</ele>
        <time>2018-02-01T11:26:46+0100</time>
      </trkpt>
      <trkpt lat="47.18083" lon="4.95715">
        <ele>275.6628112793</ele>
        <time>2018-02-01T11:26:49+0100</time>
      </trkpt>
      <trkpt lat="47.18085" lon="4.95717">
        <ele>275.57888793945</ele>
        <time>2018-02-01T11:26:52+0100</time>
      </trkpt>
      <trkpt lat="47.18088" lon="4.95718">
        <ele>275.60363769531</ele>
        <time>2018-02-01T11:26:55+0100</time>
      </trkpt>
      <trkpt lat="47.1809" lon="4.9572">
        <ele>275.74990844727</ele>
        <time>2018-02-01T11:26:58+0100</time>
      </trkpt>
      <trkpt lat="47.18092" lon="4.95722">
        <ele>275.96850585938</ele>
        <time>2018-02-01T11:27:01+0100</time>
      </trkpt>
      <trkpt lat="47.18095" lon="4.95723">
        <ele>276.15805053711</ele>
        <time>2018-02-01T11:27:04+0100</time>
      </trkpt>
      <trkpt lat="47.18098" lon="4.95725">
        <ele>276.27130126953</ele>
        <time>2018-02-01T11:27:07+0100</time>
      </trkpt>
      <trkpt lat="47.18101" lon="4.95727">
        <ele>276.24209594727</ele>
        <time>2018-02-01T11:27:10+0100</time>
      </trkpt>
      <trkpt lat="47.18104" lon="4.95727">
        <ele>276.1623840332</ele>
        <time>2018-02-01T11:27:13+0100</time>
      </trkpt>
      <trkpt lat="47.18107" lon="4.95729">
        <ele>276.08981323242</ele>
        <time>2018-02-01T11:27:16+0100</time>
      </trkpt>
      <trkpt lat="47.1811" lon="4.9573">
        <ele>276.04623413086</ele>
        <time>2018-02-01T11:27:19+0100</time>
      </trkpt>
      <trkpt lat="47.18112" lon="4.95732">
        <ele>276.08123779297</ele>
        <time>2018-02-01T11:27:22+0100</time>
      </trkpt>
      <trkpt lat="47.18116" lon="4.95733">
        <ele>276.04934692383</ele>
        <time>2018-02-01T11:27:25+0100</time>
      </trkpt>
      <trkpt lat="47.18119" lon="4.95734">
        <ele>275.94448852539</ele>
        <time>2018-02-01T11:27:28+0100</time>
      </trkpt>
      <trkpt lat="47.18123" lon="4.95736">
        <ele>275.83261108398</ele>
        <time>2018-02-01T11:27:31+0100</time>
      </trkpt>
      <trkpt lat="47.18125" lon="4.95737">
        <ele>275.73913574219</ele>
        <time>2018-02-01T11:27:34+0100</time>
      </trkpt>
      <trkpt lat="47.18127" lon="4.95739">
        <ele>275.70809936523</ele>
        <time>2018-02-01T11:27:37+0100</time>
      </trkpt>
      <trkpt lat="47.18129" lon="4.95741">
        <ele>275.70159912109</ele>
        <time>2018-02-01T11:27:40+0100</time>
      </trkpt>
      <trkpt lat="47.18133" lon="4.95742">
        <ele>275.71530151367</ele>
        <time>2018-02-01T11:27:43+0100</time>
      </trkpt>
      <trkpt lat="47.18136" lon="4.95744">
        <ele>275.67883300781</ele>
        <time>2018-02-01T11:27:46+0100</time>
      </trkpt>
      <trkpt lat="47.18139" lon="4.95747">
        <ele>275.6242980957</ele>
        <time>2018-02-01T11:27:49+0100</time>
      </trkpt>
      <trkpt lat="47.18142" lon="4.95748">
        <ele>275.56369018555</ele>
        <time>2018-02-01T11:27:52+0100</time>
      </trkpt>
      <trkpt lat="47.18144" lon="4.9575">
        <ele>275.51812744141</ele>
        <time>2018-02-01T11:27:55+0100</time>
      </trkpt>
      <trkpt lat="47.18145" lon="4.95753">
        <ele>275.45333862305</ele>
        <time>2018-02-01T11:27:58+0100</time>
      </trkpt>
      <trkpt lat="47.18148" lon="4.95755">
        <ele>275.39782714844</ele>
        <time>2018-02-01T11:28:01+0100</time>
      </trkpt>
      <trkpt lat="47.1815" lon="4.95757">
        <ele>275.3515625</ele>
        <time>2018-02-01T11:28:04+0100</time>
      </trkpt>
      <trkpt lat="47.18152" lon="4.95759">
        <ele>275.30700683594</ele>
        <time>2018-02-01T11:28:07+0100</time>
      </trkpt>
      <trkpt lat="47.18155" lon="4.95762">
        <ele>275.2373046875</ele>
        <time>2018-02-01T11:28:10+0100</time>
      </trkpt>
      <trkpt lat="47.18158" lon="4.95762">
        <ele>275.11853027344</ele>
        <time>2018-02-01T11:28:13+0100</time>
      </trkpt>
      <trkpt lat="47.1816" lon="4.95764">
        <ele>275.00354003906</ele>
        <time>2018-02-01T11:28:16+0100</time>
      </trkpt>
      <trkpt lat="47.18163" lon="4.95765">
        <ele>274.88934326172</ele>
        <time>2018-02-01T11:28:19+0100</time>
      </trkpt>
      <trkpt lat="47.18165" lon="4.95767">
        <ele>274.72702026367</ele>
        <time>2018-02-01T11:28:22+0100</time>
      </trkpt>
      <trkpt lat="47.18168" lon="4.9577">
        <ele>274.51889038086</ele>
        <time>2018-02-01T11:28:25+0100</time>
      </trkpt>
      <trkpt lat="47.1817" lon="4.95772">
        <ele>274.29702758789</ele>
        <time>2018-02-01T11:28:28+0100</time>
      </trkpt>
      <trkpt lat="47.18172" lon="4.95773">
        <ele>274.12002563477</ele>
        <time>2018-02-01T11:28:31+0100</time>
      </trkpt>
      <trkpt lat="47.18174" lon="4.95774">
        <ele>273.97247314453</ele>
        <time>2018-02-01T11:28:34+0100</time>
      </trkpt>
      <trkpt lat="47.18174" lon="4.95774">
        <ele>273.94808959961</ele>
        <time>2018-02-01T11:28:37+0100</time>
      </trkpt>
      <trkpt lat="47.18174" lon="4.95774">
        <ele>273.91412353516</ele>
        <time>2018-02-01T11:28:40+0100</time>
      </trkpt>
      <trkpt lat="47.18174" lon="4.95775">
        <ele>273.87902832031</ele>
        <time>2018-02-01T11:28:43+0100</time>
      </trkpt>
      <trkpt lat="47.18174" lon="4.95775">
        <ele>273.84628295898</ele>
        <time>2018-02-01T11:28:46+0100</time>
      </trkpt>
      <trkpt lat="47.18174" lon="4.95775">
        <ele>273.81011962891</ele>
        <time>2018-02-01T11:28:49+0100</time>
      </trkpt>
      <trkpt lat="47.18175" lon="4.95775">
        <ele>273.66873168945</ele>
        <time>2018-02-01T11:28:52+0100</time>
      </trkpt>
      <trkpt lat="47.18176" lon="4.95776">
        <ele>273.57287597656</ele>
        <time>2018-02-01T11:28:55+0100</time>
      </trkpt>
      <trkpt lat="47.18176" lon="4.95776">
        <ele>273.54263305664</ele>
        <time>2018-02-01T11:28:58+0100</time>
      </trkpt>
      <trkpt lat="47.18176" lon="4.95776">
        <ele>273.41595458984</ele>
        <time>2018-02-01T11:29:01+0100</time>
      </trkpt>
      <trkpt lat="47.18176" lon="4.95776">
        <ele>273.24658203125</ele>
        <time>2018-02-01T11:29:04+0100</time>
      </trkpt>
      <trkpt lat="47.18176" lon="4.95776">
        <ele>273.19638061523</ele>
        <time>2018-02-01T11:29:07+0100</time>
      </trkpt>
      <trkpt lat="47.18176" lon="4.95776">
        <ele>273.14282226562</ele>
        <time>2018-02-01T11:29:10+0100</time>
      </trkpt>
      <trkpt lat="47.18176" lon="4.95776">
        <ele>272.79107666016</ele>
        <time>2018-02-01T11:29:13+0100</time>
      </trkpt>
      <trkpt lat="47.18177" lon="4.95777">
        <ele>272.45010375977</ele>
        <time>2018-02-01T11:29:16+0100</time>
      </trkpt>
      <trkpt lat="47.18177" lon="4.95777">
        <ele>272.40844726562</ele>
        <time>2018-02-01T11:29:19+0100</time>
      </trkpt>
      <trkpt lat="47.18178" lon="4.95776">
        <ele>272.30767822266</ele>
        <time>2018-02-01T11:29:22+0100</time>
      </trkpt>
      <trkpt lat="47.18178" lon="4.95777">
        <ele>272.28485107422</ele>
        <time>2018-02-01T11:29:25+0100</time>
      </trkpt>
      <trkpt lat="47.18178" lon="4.95777">
        <ele>272.25689697266</ele>
        <time>2018-02-01T11:29:28+0100</time>
      </trkpt>
      <trkpt lat="47.18178" lon="4.95777">
        <ele>272.07366943359</ele>
        <time>2018-02-01T11:29:31+0100</time>
      </trkpt>
      <trkpt lat="47.18178" lon="4.95778">
        <ele>272.04028320312</ele>
        <time>2018-02-01T11:29:34+0100</time>
      </trkpt>
      <trkpt lat="47.18178" lon="4.95778">
        <ele>272</ele>
        <time>2018-02-01T11:29:37+0100</time>
      </trkpt>
      <trkpt lat="47.18178" lon="4.95779">
        <ele>271.66024780273</ele>
        <time>2018-02-01T11:29:40+0100</time>
      </trkpt>
      <trkpt lat="47.1818" lon="4.9578">
        <ele>271.27862548828</ele>
        <time>2018-02-01T11:29:43+0100</time>
      </trkpt>
      <trkpt lat="47.1818" lon="4.95781">
        <ele>271.22229003906</ele>
        <time>2018-02-01T11:29:46+0100</time>
      </trkpt>
      <trkpt lat="47.1818" lon="4.95781">
        <ele>271.16879272461</ele>
        <time>2018-02-01T11:29:49+0100</time>
      </trkpt>
      <trkpt lat="47.1818" lon="4.95781">
        <ele>271.11639404297</ele>
        <time>2018-02-01T11:29:52+0100</time>
      </trkpt>
      <trkpt lat="47.1818" lon="4.95781">
        <ele>271.06591796875</ele>
        <time>2018-02-01T11:29:55+0100</time>
      </trkpt>
      <trkpt lat="47.18181" lon="4.95781">
        <ele>271.01596069336</ele>
        <time>2018-02-01T11:29:58+0100</time>
      </trkpt>
      <trkpt lat="47.18181" lon="4.95781">
        <ele>270.96426391602</ele>
        <time>2018-02-01T11:30:01+0100</time>
      </trkpt>
      <trkpt lat="47.18181" lon="4.95781">
        <ele>270.91088867188</ele>
        <time>2018-02-01T11:30:04+0100</time>
      </trkpt>
      <trkpt lat="47.18181" lon="4.95781">
        <ele>270.85842895508</ele>
        <time>2018-02-01T11:30:07+0100</time>
      </trkpt>
      <trkpt lat="47.18181" lon="4.9578">
        <ele>270.65411376953</ele>
        <time>2018-02-01T11:30:10+0100</time>
      </trkpt>
      <trkpt lat="47.18182" lon="4.95778">
        <ele>270.28005981445</ele>
        <time>2018-02-01T11:30:13+0100</time>
      </trkpt>
      <trkpt lat="47.18182" lon="4.95778">
        <ele>270.11856079102</ele>
        <time>2018-02-01T11:30:16+0100</time>
      </trkpt>
      <trkpt lat="47.18182" lon="4.95778">
        <ele>270.09265136719</ele>
        <time>2018-02-01T11:30:19+0100</time>
      </trkpt>
      <trkpt lat="47.18182" lon="4.95778">
        <ele>270.05947875977</ele>
        <time>2018-02-01T11:30:22+0100</time>
      </trkpt>
      <trkpt lat="47.18183" lon="4.95778">
        <ele>270.02291870117</ele>
        <time>2018-02-01T11:30:25+0100</time>
      </trkpt>
      <trkpt lat="47.18183" lon="4.95778">
        <ele>269.98641967773</ele>
        <time>2018-02-01T11:30:28+0100</time>
      </trkpt>
      <trkpt lat="47.18183" lon="4.95778">
        <ele>269.95321655273</ele>
        <time>2018-02-01T11:30:31+0100</time>
      </trkpt>
      <trkpt lat="47.18183" lon="4.95778">
        <ele>269.92495727539</ele>
        <time>2018-02-01T11:30:34+0100</time>
      </trkpt>
      <trkpt lat="47.18183" lon="4.95778">
        <ele>269.89733886719</ele>
        <time>2018-02-01T11:30:37+0100</time>
      </trkpt>
      <trkpt lat="47.18183" lon="4.95776">
        <ele>269.65841674805</ele>
        <time>2018-02-01T11:30:40+0100</time>
      </trkpt>
      <trkpt lat="47.18184" lon="4.95776">
        <ele>269.56268310547</ele>
        <time>2018-02-01T11:30:43+0100</time>
      </trkpt>
      <trkpt lat="47.18184" lon="4.95774">
        <ele>269.36267089844</ele>
        <time>2018-02-01T11:30:46+0100</time>
      </trkpt>
      <trkpt lat="47.18184" lon="4.95773">
        <ele>269.2604675293</ele>
        <time>2018-02-01T11:30:49+0100</time>
      </trkpt>
      <trkpt lat="47.18184" lon="4.95773">
        <ele>269.24758911133</ele>
        <time>2018-02-01T11:30:52+0100</time>
      </trkpt>
      <trkpt lat="47.18185" lon="4.95771">
        <ele>269.19769287109</ele>
        <time>2018-02-01T11:30:55+0100</time>
      </trkpt>
      <trkpt lat="47.18186" lon="4.95769">
        <ele>269.13565063477</ele>
        <time>2018-02-01T11:30:58+0100</time>
      </trkpt>
      <trkpt lat="47.18188" lon="4.95767">
        <ele>269.03588867188</ele>
        <time>2018-02-01T11:31:01+0100</time>
      </trkpt>
      <trkpt lat="47.1819" lon="4.95767">
        <ele>268.93688964844</ele>
        <time>2018-02-01T11:31:04+0100</time>
      </trkpt>
      <trkpt lat="47.18191" lon="4.95767">
        <ele>268.90411376953</ele>
        <time>2018-02-01T11:31:07+0100</time>
      </trkpt>
      <trkpt lat="47.18192" lon="4.95766">
        <ele>268.84259033203</ele>
        <time>2018-02-01T11:31:10+0100</time>
      </trkpt>
      <trkpt lat="47.18192" lon="4.95765">
        <ele>268.72680664062</ele>
        <time>2018-02-01T11:31:13+0100</time>
      </trkpt>
      <trkpt lat="47.18194" lon="4.95762">
        <ele>268.55999755859</ele>
        <time>2018-02-01T11:31:16+0100</time>
      </trkpt>
      <trkpt lat="47.18196" lon="4.9576">
        <ele>268.39651489258</ele>
        <time>2018-02-01T11:31:19+0100</time>
      </trkpt>
      <trkpt lat="47.18199" lon="4.95757">
        <ele>268.25329589844</ele>
        <time>2018-02-01T11:31:22+0100</time>
      </trkpt>
      <trkpt lat="47.18202" lon="4.95755">
        <ele>268.13134765625</ele>
        <time>2018-02-01T11:31:25+0100</time>
      </trkpt>
      <trkpt lat="47.18205" lon="4.95752">
        <ele>268.04891967773</ele>
        <time>2018-02-01T11:31:28+0100</time>
      </trkpt>
      <trkpt lat="47.18206" lon="4.9575">
        <ele>268.04382324219</ele>
        <time>2018-02-01T11:31:31+0100</time>
      </trkpt>
      <trkpt lat="47.18207" lon="4.9575">
        <ele>267.98721313477</ele>
        <time>2018-02-01T11:31:34+0100</time>
      </trkpt>
      <trkpt lat="47.18207" lon="4.9575">
        <ele>267.94488525391</ele>
        <time>2018-02-01T11:31:37+0100</time>
      </trkpt>
      <trkpt lat="47.18208" lon="4.95749">
        <ele>267.85394287109</ele>
        <time>2018-02-01T11:31:40+0100</time>
      </trkpt>
      <trkpt lat="47.18209" lon="4.95749">
        <ele>267.79873657227</ele>
        <time>2018-02-01T11:31:43+0100</time>
      </trkpt>
      <trkpt lat="47.18211" lon="4.95746">
        <ele>267.77352905273</ele>
        <time>2018-02-01T11:31:46+0100</time>
      </trkpt>
      <trkpt lat="47.18214" lon="4.95741">
        <ele>267.78823852539</ele>
        <time>2018-02-01T11:31:49+0100</time>
      </trkpt>
      <trkpt lat="47.18217" lon="4.95738">
        <ele>267.84729003906</ele>
        <time>2018-02-01T11:31:52+0100</time>
      </trkpt>
      <trkpt lat="47.18219" lon="4.95737">
        <ele>267.95712280273</ele>
        <time>2018-02-01T11:31:55+0100</time>
      </trkpt>
      <trkpt lat="47.18222" lon="4.95734">
        <ele>268.13092041016</ele>
        <time>2018-02-01T11:31:58+0100</time>
      </trkpt>
      <trkpt lat="47.18225" lon="4.95732">
        <ele>268.31460571289</ele>
        <time>2018-02-01T11:32:01+0100</time>
      </trkpt>
      <trkpt lat="47.18227" lon="4.95729">
        <ele>268.46597290039</ele>
        <time>2018-02-01T11:32:04+0100</time>
      </trkpt>
      <trkpt lat="47.1823" lon="4.95726">
        <ele>268.58096313477</ele>
        <time>2018-02-01T11:32:07+0100</time>
      </trkpt>
      <trkpt lat="47.18233" lon="4.95724">
        <ele>268.66122436523</ele>
        <time>2018-02-01T11:32:10+0100</time>
      </trkpt>
      <trkpt lat="47.18236" lon="4.95722">
        <ele>268.70816040039</ele>
        <time>2018-02-01T11:32:13+0100</time>
      </trkpt>
      <trkpt lat="47.18239" lon="4.95719">
        <ele>268.75576782227</ele>
        <time>2018-02-01T11:32:16+0100</time>
      </trkpt>
      <trkpt lat="47.18241" lon="4.95716">
        <ele>268.81982421875</ele>
        <time>2018-02-01T11:32:19+0100</time>
      </trkpt>
      <trkpt lat="47.18244" lon="4.95713">
        <ele>268.92498779297</ele>
        <time>2018-02-01T11:32:22+0100</time>
      </trkpt>
      <trkpt lat="47.18247" lon="4.95709">
        <ele>269.03536987305</ele>
        <time>2018-02-01T11:32:25+0100</time>
      </trkpt>
      <trkpt lat="47.18249" lon="4.95707">
        <ele>269.12649536133</ele>
        <time>2018-02-01T11:32:28+0100</time>
      </trkpt>
      <trkpt lat="47.18252" lon="4.95704">
        <ele>269.1767578125</ele>
        <time>2018-02-01T11:32:31+0100</time>
      </trkpt>
      <trkpt lat="47.18254" lon="4.95699">
        <ele>269.18811035156</ele>
        <time>2018-02-01T11:32:34+0100</time>
      </trkpt>
      <trkpt lat="47.18255" lon="4.95695">
        <ele>269.19177246094</ele>
        <time>2018-02-01T11:32:37+0100</time>
      </trkpt>
      <trkpt lat="47.18257" lon="4.95692">
        <ele>269.18493652344</ele>
        <time>2018-02-01T11:32:40+0100</time>
      </trkpt>
      <trkpt lat="47.18259" lon="4.95688">
        <ele>269.20590209961</ele>
        <time>2018-02-01T11:32:43+0100</time>
      </trkpt>
      <trkpt lat="47.18261" lon="4.95685">
        <ele>269.2428894043</ele>
        <time>2018-02-01T11:32:46+0100</time>
      </trkpt>
      <trkpt lat="47.18263" lon="4.95682">
        <ele>269.24859619141</ele>
        <time>2018-02-01T11:32:49+0100</time>
      </trkpt>
      <trkpt lat="47.18265" lon="4.9568">
        <ele>269.24600219727</ele>
        <time>2018-02-01T11:32:52+0100</time>
      </trkpt>
      <trkpt lat="47.18267" lon="4.95677">
        <ele>269.24868774414</ele>
        <time>2018-02-01T11:32:55+0100</time>
      </trkpt>
      <trkpt lat="47.18269" lon="4.95675">
        <ele>269.24481201172</ele>
        <time>2018-02-01T11:32:58+0100</time>
      </trkpt>
      <trkpt lat="47.18271" lon="4.95671">
        <ele>269.21630859375</ele>
        <time>2018-02-01T11:33:01+0100</time>
      </trkpt>
      <trkpt lat="47.18273" lon="4.9567">
        <ele>269.21801757812</ele>
        <time>2018-02-01T11:33:04+0100</time>
      </trkpt>
      <trkpt lat="47.18276" lon="4.95668">
        <ele>269.25277709961</ele>
        <time>2018-02-01T11:33:07+0100</time>
      </trkpt>
      <trkpt lat="47.18277" lon="4.95666">
        <ele>269.28652954102</ele>
        <time>2018-02-01T11:33:10+0100</time>
      </trkpt>
      <trkpt lat="47.18279" lon="4.95663">
        <ele>269.29745483398</ele>
        <time>2018-02-01T11:33:13+0100</time>
      </trkpt>
      <trkpt lat="47.18282" lon="4.9566">
        <ele>269.32897949219</ele>
        <time>2018-02-01T11:33:16+0100</time>
      </trkpt>
      <trkpt lat="47.18284" lon="4.95658">
        <ele>269.36602783203</ele>
        <time>2018-02-01T11:33:19+0100</time>
      </trkpt>
      <trkpt lat="47.18286" lon="4.95655">
        <ele>269.38623046875</ele>
        <time>2018-02-01T11:33:22+0100</time>
      </trkpt>
      <trkpt lat="47.18288" lon="4.95653">
        <ele>269.39819335938</ele>
        <time>2018-02-01T11:33:25+0100</time>
      </trkpt>
      <trkpt lat="47.18291" lon="4.95651">
        <ele>269.41445922852</ele>
        <time>2018-02-01T11:33:28+0100</time>
      </trkpt>
      <trkpt lat="47.18293" lon="4.95648">
        <ele>269.40371704102</ele>
        <time>2018-02-01T11:33:31+0100</time>
      </trkpt>
      <trkpt lat="47.18297" lon="4.95644">
        <ele>269.41946411133</ele>
        <time>2018-02-01T11:33:34+0100</time>
      </trkpt>
      <trkpt lat="47.183" lon="4.95639">
        <ele>269.47940063477</ele>
        <time>2018-02-01T11:33:37+0100</time>
      </trkpt>
      <trkpt lat="47.18303" lon="4.95635">
        <ele>269.55270385742</ele>
        <time>2018-02-01T11:33:40+0100</time>
      </trkpt>
      <trkpt lat="47.18305" lon="4.95631">
        <ele>269.62536621094</ele>
        <time>2018-02-01T11:33:43+0100</time>
      </trkpt>
      <trkpt lat="47.18307" lon="4.95627">
        <ele>269.72589111328</ele>
        <time>2018-02-01T11:33:46+0100</time>
      </trkpt>
      <trkpt lat="47.18309" lon="4.95625">
        <ele>269.86099243164</ele>
        <time>2018-02-01T11:33:49+0100</time>
      </trkpt>
      <trkpt lat="47.18312" lon="4.95622">
        <ele>270.00271606445</ele>
        <time>2018-02-01T11:33:52+0100</time>
      </trkpt>
      <trkpt lat="47.18313" lon="4.95621">
        <ele>270.13235473633</ele>
        <time>2018-02-01T11:33:55+0100</time>
      </trkpt>
      <trkpt lat="47.18314" lon="4.95619">
        <ele>270.22619628906</ele>
        <time>2018-02-01T11:33:58+0100</time>
      </trkpt>
      <trkpt lat="47.18317" lon="4.95616">
        <ele>270.27105712891</ele>
        <time>2018-02-01T11:34:01+0100</time>
      </trkpt>
      <trkpt lat="47.1832" lon="4.95611">
        <ele>270.34484863281</ele>
        <time>2018-02-01T11:34:04+0100</time>
      </trkpt>
      <trkpt lat="47.18321" lon="4.9561">
        <ele>270.48135375977</ele>
        <time>2018-02-01T11:34:07+0100</time>
      </trkpt>
      <trkpt lat="47.18323" lon="4.95607">
        <ele>270.58087158203</ele>
        <time>2018-02-01T11:34:10+0100</time>
      </trkpt>
      <trkpt lat="47.18325" lon="4.95605">
        <ele>270.64947509766</ele>
        <time>2018-02-01T11:34:13+0100</time>
      </trkpt>
      <trkpt lat="47.18324" lon="4.95606">
        <ele>270.63043212891</ele>
        <time>2018-02-01T11:34:16+0100</time>
      </trkpt>
      <trkpt lat="47.18327" lon="4.95602">
        <ele>270.52661132812</ele>
        <time>2018-02-01T11:34:18+0100</time>
      </trkpt>
      <trkpt lat="47.1833" lon="4.956">
        <ele>270.43942260742</ele>
        <time>2018-02-01T11:34:21+0100</time>
      </trkpt>
      <trkpt lat="47.18334" lon="4.95595">
        <ele>270.37762451172</ele>
        <time>2018-02-01T11:34:24+0100</time>
      </trkpt>
      <trkpt lat="47.18339" lon="4.95589">
        <ele>270.42990112305</ele>
        <time>2018-02-01T11:34:27+0100</time>
      </trkpt>
      <trkpt lat="47.18341" lon="4.95586">
        <ele>270.56088256836</ele>
        <time>2018-02-01T11:34:30+0100</time>
      </trkpt>
      <trkpt lat="47.18343" lon="4.95582">
        <ele>270.67379760742</ele>
        <time>2018-02-01T11:34:33+0100</time>
      </trkpt>
      <trkpt lat="47.18344" lon="4.95579">
        <ele>270.82363891602</ele>
        <time>2018-02-01T11:34:36+0100</time>
      </trkpt>
      <trkpt lat="47.18346" lon="4.95576">
        <ele>271.01681518555</ele>
        <time>2018-02-01T11:34:39+0100</time>
      </trkpt>
      <trkpt lat="47.18349" lon="4.95572">
        <ele>271.22952270508</ele>
        <time>2018-02-01T11:34:42+0100</time>
      </trkpt>
      <trkpt lat="47.1835" lon="4.95569">
        <ele>271.45959472656</ele>
        <time>2018-02-01T11:34:45+0100</time>
      </trkpt>
      <trkpt lat="47.18351" lon="4.95566">
        <ele>271.67782592773</ele>
        <time>2018-02-01T11:34:48+0100</time>
      </trkpt>
      <trkpt lat="47.18353" lon="4.95562">
        <ele>271.79598999023</ele>
        <time>2018-02-01T11:34:51+0100</time>
      </trkpt>
      <trkpt lat="47.18355" lon="4.95559">
        <ele>271.79019165039</ele>
        <time>2018-02-01T11:34:54+0100</time>
      </trkpt>
      <trkpt lat="47.18357" lon="4.95556">
        <ele>271.7780456543</ele>
        <time>2018-02-01T11:34:57+0100</time>
      </trkpt>
      <trkpt lat="47.18359" lon="4.95552">
        <ele>271.80316162109</ele>
        <time>2018-02-01T11:35:00+0100</time>
      </trkpt>
      <trkpt lat="47.18362" lon="4.95548">
        <ele>271.8115234375</ele>
        <time>2018-02-01T11:35:03+0100</time>
      </trkpt>
      <trkpt lat="47.18364" lon="4.95546">
        <ele>271.76821899414</ele>
        <time>2018-02-01T11:35:06+0100</time>
      </trkpt>
      <trkpt lat="47.18366" lon="4.95542">
        <ele>271.75659179688</ele>
        <time>2018-02-01T11:35:09+0100</time>
      </trkpt>
      <trkpt lat="47.18368" lon="4.95539">
        <ele>271.80090332031</ele>
        <time>2018-02-01T11:35:12+0100</time>
      </trkpt>
      <trkpt lat="47.18371" lon="4.95536">
        <ele>271.91613769531</ele>
        <time>2018-02-01T11:35:15+0100</time>
      </trkpt>
      <trkpt lat="47.18373" lon="4.95532">
        <ele>272.00317382812</ele>
        <time>2018-02-01T11:35:18+0100</time>
      </trkpt>
      <trkpt lat="47.18375" lon="4.95529">
        <ele>272.08068847656</ele>
        <time>2018-02-01T11:35:21+0100</time>
      </trkpt>
      <trkpt lat="47.18377" lon="4.95525">
        <ele>272.17926025391</ele>
        <time>2018-02-01T11:35:24+0100</time>
      </trkpt>
      <trkpt lat="47.18379" lon="4.9552">
        <ele>272.28228759766</ele>
        <time>2018-02-01T11:35:27+0100</time>
      </trkpt>
      <trkpt lat="47.18381" lon="4.95517">
        <ele>272.36288452148</ele>
        <time>2018-02-01T11:35:30+0100</time>
      </trkpt>
      <trkpt lat="47.18381" lon="4.95514">
        <ele>272.42752075195</ele>
        <time>2018-02-01T11:35:33+0100</time>
      </trkpt>
      <trkpt lat="47.18381" lon="4.9551">
        <ele>272.39422607422</ele>
        <time>2018-02-01T11:35:36+0100</time>
      </trkpt>
      <trkpt lat="47.18382" lon="4.95507">
        <ele>272.32708740234</ele>
        <time>2018-02-01T11:35:39+0100</time>
      </trkpt>
      <trkpt lat="47.18384" lon="4.95503">
        <ele>272.18280029297</ele>
        <time>2018-02-01T11:35:42+0100</time>
      </trkpt>
      <trkpt lat="47.18386" lon="4.95499">
        <ele>271.92129516602</ele>
        <time>2018-02-01T11:35:45+0100</time>
      </trkpt>
      <trkpt lat="47.18389" lon="4.95495">
        <ele>271.75900268555</ele>
        <time>2018-02-01T11:35:48+0100</time>
      </trkpt>
      <trkpt lat="47.1839" lon="4.95492">
        <ele>271.76910400391</ele>
        <time>2018-02-01T11:35:51+0100</time>
      </trkpt>
      <trkpt lat="47.18391" lon="4.9549">
        <ele>271.89215087891</ele>
        <time>2018-02-01T11:35:54+0100</time>
      </trkpt>
      <trkpt lat="47.18391" lon="4.95487">
        <ele>272.11135864258</ele>
        <time>2018-02-01T11:35:57+0100</time>
      </trkpt>
      <trkpt lat="47.18394" lon="4.95483">
        <ele>272.31338500977</ele>
        <time>2018-02-01T11:36:00+0100</time>
      </trkpt>
      <trkpt lat="47.18396" lon="4.95479">
        <ele>272.49349975586</ele>
        <time>2018-02-01T11:36:03+0100</time>
      </trkpt>
      <trkpt lat="47.18398" lon="4.95475">
        <ele>272.71527099609</ele>
        <time>2018-02-01T11:36:06+0100</time>
      </trkpt>
      <trkpt lat="47.184" lon="4.95471">
        <ele>272.95025634766</ele>
        <time>2018-02-01T11:36:09+0100</time>
      </trkpt>
      <trkpt lat="47.18402" lon="4.95467">
        <ele>273.13397216797</ele>
        <time>2018-02-01T11:36:12+0100</time>
      </trkpt>
      <trkpt lat="47.18404" lon="4.95463">
        <ele>273.28131103516</ele>
        <time>2018-02-01T11:36:15+0100</time>
      </trkpt>
      <trkpt lat="47.18406" lon="4.9546">
        <ele>273.39047241211</ele>
        <time>2018-02-01T11:36:18+0100</time>
      </trkpt>
      <trkpt lat="47.18408" lon="4.95456">
        <ele>273.47540283203</ele>
        <time>2018-02-01T11:36:21+0100</time>
      </trkpt>
      <trkpt lat="47.18411" lon="4.95453">
        <ele>273.52682495117</ele>
        <time>2018-02-01T11:36:24+0100</time>
      </trkpt>
      <trkpt lat="47.18412" lon="4.95449">
        <ele>273.53369140625</ele>
        <time>2018-02-01T11:36:27+0100</time>
      </trkpt>
      <trkpt lat="47.18414" lon="4.95447">
        <ele>273.54800415039</ele>
        <time>2018-02-01T11:36:30+0100</time>
      </trkpt>
      <trkpt lat="47.18416" lon="4.95443">
        <ele>273.58358764648</ele>
        <time>2018-02-01T11:36:33+0100</time>
      </trkpt>
      <trkpt lat="47.18418" lon="4.95439">
        <ele>273.62561035156</ele>
        <time>2018-02-01T11:36:36+0100</time>
      </trkpt>
      <trkpt lat="47.18419" lon="4.95436">
        <ele>273.67077636719</ele>
        <time>2018-02-01T11:36:39+0100</time>
      </trkpt>
      <trkpt lat="47.1842" lon="4.95432">
        <ele>273.68872070312</ele>
        <time>2018-02-01T11:36:42+0100</time>
      </trkpt>
      <trkpt lat="47.18421" lon="4.95429">
        <ele>273.76019287109</ele>
        <time>2018-02-01T11:36:45+0100</time>
      </trkpt>
      <trkpt lat="47.18423" lon="4.95426">
        <ele>273.85244750977</ele>
        <time>2018-02-01T11:36:48+0100</time>
      </trkpt>
      <trkpt lat="47.18425" lon="4.95422">
        <ele>273.97424316406</ele>
        <time>2018-02-01T11:36:51+0100</time>
      </trkpt>
      <trkpt lat="47.18428" lon="4.95418">
        <ele>274.11254882812</ele>
        <time>2018-02-01T11:36:54+0100</time>
      </trkpt>
      <trkpt lat="47.18429" lon="4.95415">
        <ele>274.24826049805</ele>
        <time>2018-02-01T11:36:57+0100</time>
      </trkpt>
      <trkpt lat="47.1843" lon="4.95414">
        <ele>274.38131713867</ele>
        <time>2018-02-01T11:37:00+0100</time>
      </trkpt>
      <trkpt lat="47.18432" lon="4.95412">
        <ele>274.48391723633</ele>
        <time>2018-02-01T11:37:03+0100</time>
      </trkpt>
      <trkpt lat="47.18434" lon="4.95409">
        <ele>274.53582763672</ele>
        <time>2018-02-01T11:37:06+0100</time>
      </trkpt>
      <trkpt lat="47.18436" lon="4.95406">
        <ele>274.52639770508</ele>
        <time>2018-02-01T11:37:09+0100</time>
      </trkpt>
      <trkpt lat="47.18438" lon="4.95403">
        <ele>274.5002746582</ele>
        <time>2018-02-01T11:37:12+0100</time>
      </trkpt>
      <trkpt lat="47.18441" lon="4.95399">
        <ele>274.50045776367</ele>
        <time>2018-02-01T11:37:15+0100</time>
      </trkpt>
      <trkpt lat="47.18442" lon="4.95396">
        <ele>274.52490234375</ele>
        <time>2018-02-01T11:37:18+0100</time>
      </trkpt>
      <trkpt lat="47.18442" lon="4.95393">
        <ele>274.58651733398</ele>
        <time>2018-02-01T11:37:21+0100</time>
      </trkpt>
      <trkpt lat="47.18444" lon="4.95391">
        <ele>274.65658569336</ele>
        <time>2018-02-01T11:37:24+0100</time>
      </trkpt>
      <trkpt lat="47.18446" lon="4.95387">
        <ele>274.74880981445</ele>
        <time>2018-02-01T11:37:27+0100</time>
      </trkpt>
      <trkpt lat="47.18448" lon="4.95385">
        <ele>274.86926269531</ele>
        <time>2018-02-01T11:37:30+0100</time>
      </trkpt>
      <trkpt lat="47.18451" lon="4.95383">
        <ele>274.98519897461</ele>
        <time>2018-02-01T11:37:33+0100</time>
      </trkpt>
      <trkpt lat="47.18452" lon="4.95381">
        <ele>275.08169555664</ele>
        <time>2018-02-01T11:37:36+0100</time>
      </trkpt>
      <trkpt lat="47.18454" lon="4.95377">
        <ele>275.12899780273</ele>
        <time>2018-02-01T11:37:39+0100</time>
      </trkpt>
      <trkpt lat="47.18454" lon="4.95374">
        <ele>275.08026123047</ele>
        <time>2018-02-01T11:37:42+0100</time>
      </trkpt>
      <trkpt lat="47.18455" lon="4.9537">
        <ele>274.9684753418</ele>
        <time>2018-02-01T11:37:45+0100</time>
      </trkpt>
      <trkpt lat="47.18455" lon="4.95368">
        <ele>274.74319458008</ele>
        <time>2018-02-01T11:37:48+0100</time>
      </trkpt>
      <trkpt lat="47.18457" lon="4.95365">
        <ele>274.59811401367</ele>
        <time>2018-02-01T11:37:51+0100</time>
      </trkpt>
      <trkpt lat="47.18457" lon="4.95361">
        <ele>274.44631958008</ele>
        <time>2018-02-01T11:37:54+0100</time>
      </trkpt>
      <trkpt lat="47.18457" lon="4.95359">
        <ele>274.25411987305</ele>
        <time>2018-02-01T11:37:57+0100</time>
      </trkpt>
      <trkpt lat="47.18457" lon="4.95357">
        <ele>274.0500793457</ele>
        <time>2018-02-01T11:38:00+0100</time>
      </trkpt>
      <trkpt lat="47.18459" lon="4.95355">
        <ele>273.87106323242</ele>
        <time>2018-02-01T11:38:03+0100</time>
      </trkpt>
      <trkpt lat="47.1846" lon="4.95351">
        <ele>273.92538452148</ele>
        <time>2018-02-01T11:38:06+0100</time>
      </trkpt>
      <trkpt lat="47.18463" lon="4.95347">
        <ele>274.27703857422</ele>
        <time>2018-02-01T11:38:09+0100</time>
      </trkpt>
      <trkpt lat="47.18465" lon="4.95345">
        <ele>274.85018920898</ele>
        <time>2018-02-01T11:38:12+0100</time>
      </trkpt>
      <trkpt lat="47.18467" lon="4.9534">
        <ele>275.60238647461</ele>
        <time>2018-02-01T11:38:15+0100</time>
      </trkpt>
      <trkpt lat="47.18468" lon="4.95335">
        <ele>276.36135864258</ele>
        <time>2018-02-01T11:38:18+0100</time>
      </trkpt>
      <trkpt lat="47.18469" lon="4.9533">
        <ele>277.01406860352</ele>
        <time>2018-02-01T11:38:21+0100</time>
      </trkpt>
      <trkpt lat="47.18471" lon="4.95327">
        <ele>277.61074829102</ele>
        <time>2018-02-01T11:38:24+0100</time>
      </trkpt>
      <trkpt lat="47.18473" lon="4.95324">
        <ele>278.25552368164</ele>
        <time>2018-02-01T11:38:27+0100</time>
      </trkpt>
      <trkpt lat="47.18474" lon="4.95321">
        <ele>278.90579223633</ele>
        <time>2018-02-01T11:38:30+0100</time>
      </trkpt>
      <trkpt lat="47.18475" lon="4.95319">
        <ele>279.43966674805</ele>
        <time>2018-02-01T11:38:33+0100</time>
      </trkpt>
      <trkpt lat="47.18476" lon="4.95315">
        <ele>279.80001831055</ele>
        <time>2018-02-01T11:38:36+0100</time>
      </trkpt>
      <trkpt lat="47.18478" lon="4.95312">
        <ele>280.02014160156</ele>
        <time>2018-02-01T11:38:39+0100</time>
      </trkpt>
      <trkpt lat="47.18479" lon="4.95308">
        <ele>280.03421020508</ele>
        <time>2018-02-01T11:38:42+0100</time>
      </trkpt>
      <trkpt lat="47.1848" lon="4.95306">
        <ele>279.9303894043</ele>
        <time>2018-02-01T11:38:45+0100</time>
      </trkpt>
      <trkpt lat="47.18482" lon="4.95304">
        <ele>279.82543945312</ele>
        <time>2018-02-01T11:38:48+0100</time>
      </trkpt>
      <trkpt lat="47.18482" lon="4.95303">
        <ele>279.72518920898</ele>
        <time>2018-02-01T11:38:51+0100</time>
      </trkpt>
      <trkpt lat="47.18483" lon="4.95303">
        <ele>279.70849609375</ele>
        <time>2018-02-01T11:38:54+0100</time>
      </trkpt>
      <trkpt lat="47.18483" lon="4.95303">
        <ele>279.65814208984</ele>
        <time>2018-02-01T11:38:57+0100</time>
      </trkpt>
      <trkpt lat="47.18483" lon="4.95302">
        <ele>279.59613037109</ele>
        <time>2018-02-01T11:39:00+0100</time>
      </trkpt>
      <trkpt lat="47.18483" lon="4.95302">
        <ele>279.57580566406</ele>
        <time>2018-02-01T11:39:03+0100</time>
      </trkpt>
      <trkpt lat="47.18483" lon="4.953">
        <ele>279.52136230469</ele>
        <time>2018-02-01T11:39:06+0100</time>
      </trkpt>
      <trkpt lat="47.18483" lon="4.95299">
        <ele>279.36932373047</ele>
        <time>2018-02-01T11:39:09+0100</time>
      </trkpt>
      <trkpt lat="47.18484" lon="4.95297">
        <ele>279.09112548828</ele>
        <time>2018-02-01T11:39:12+0100</time>
      </trkpt>
      <trkpt lat="47.18485" lon="4.95295">
        <ele>278.76736450195</ele>
        <time>2018-02-01T11:39:15+0100</time>
      </trkpt>
      <trkpt lat="47.18486" lon="4.95292">
        <ele>278.40921020508</ele>
        <time>2018-02-01T11:39:18+0100</time>
      </trkpt>
      <trkpt lat="47.18487" lon="4.95289">
        <ele>278.04153442383</ele>
        <time>2018-02-01T11:39:21+0100</time>
      </trkpt>
      <trkpt lat="47.18487" lon="4.95286">
        <ele>277.66622924805</ele>
        <time>2018-02-01T11:39:24+0100</time>
      </trkpt>
      <trkpt lat="47.18488" lon="4.95283">
        <ele>277.26300048828</ele>
        <time>2018-02-01T11:39:27+0100</time>
      </trkpt>
      <trkpt lat="47.18488" lon="4.95278">
        <ele>276.82824707031</ele>
        <time>2018-02-01T11:39:30+0100</time>
      </trkpt>
      <trkpt lat="47.18489" lon="4.95275">
        <ele>276.38882446289</ele>
        <time>2018-02-01T11:39:33+0100</time>
      </trkpt>
      <trkpt lat="47.1849" lon="4.95272">
        <ele>275.86187744141</ele>
        <time>2018-02-01T11:39:36+0100</time>
      </trkpt>
      <trkpt lat="47.18491" lon="4.95268">
        <ele>275.41635131836</ele>
        <time>2018-02-01T11:39:39+0100</time>
      </trkpt>
      <trkpt lat="47.18493" lon="4.95265">
        <ele>275.05526733398</ele>
        <time>2018-02-01T11:39:42+0100</time>
      </trkpt>
      <trkpt lat="47.18495" lon="4.95262">
        <ele>274.85980224609</ele>
        <time>2018-02-01T11:39:45+0100</time>
      </trkpt>
      <trkpt lat="47.18495" lon="4.95256">
        <ele>274.68252563477</ele>
        <time>2018-02-01T11:39:48+0100</time>
      </trkpt>
      <trkpt lat="47.18495" lon="4.95252">
        <ele>274.47308349609</ele>
        <time>2018-02-01T11:39:51+0100</time>
      </trkpt>
      <trkpt lat="47.18495" lon="4.95248">
        <ele>274.16036987305</ele>
        <time>2018-02-01T11:39:54+0100</time>
      </trkpt>
      <trkpt lat="47.18495" lon="4.95243">
        <ele>273.72161865234</ele>
        <time>2018-02-01T11:39:57+0100</time>
      </trkpt>
      <trkpt lat="47.18494" lon="4.95239">
        <ele>273.17959594727</ele>
        <time>2018-02-01T11:40:00+0100</time>
      </trkpt>
      <trkpt lat="47.18493" lon="4.95235">
        <ele>272.66735839844</ele>
        <time>2018-02-01T11:40:03+0100</time>
      </trkpt>
      <trkpt lat="47.18492" lon="4.9523">
        <ele>272.10018920898</ele>
        <time>2018-02-01T11:40:06+0100</time>
      </trkpt>
      <trkpt lat="47.18492" lon="4.95227">
        <ele>271.48693847656</ele>
        <time>2018-02-01T11:40:09+0100</time>
      </trkpt>
      <trkpt lat="47.18492" lon="4.95224">
        <ele>270.8883972168</ele>
        <time>2018-02-01T11:40:12+0100</time>
      </trkpt>
      <trkpt lat="47.18492" lon="4.95219">
        <ele>270.35751342773</ele>
        <time>2018-02-01T11:40:15+0100</time>
      </trkpt>
      <trkpt lat="47.18492" lon="4.95217">
        <ele>269.88980102539</ele>
        <time>2018-02-01T11:40:18+0100</time>
      </trkpt>
      <trkpt lat="47.18493" lon="4.95212">
        <ele>269.57144165039</ele>
        <time>2018-02-01T11:40:21+0100</time>
      </trkpt>
      <trkpt lat="47.18494" lon="4.95209">
        <ele>269.34927368164</ele>
        <time>2018-02-01T11:40:24+0100</time>
      </trkpt>
      <trkpt lat="47.18494" lon="4.95204">
        <ele>269.17520141602</ele>
        <time>2018-02-01T11:40:27+0100</time>
      </trkpt>
      <trkpt lat="47.18494" lon="4.95201">
        <ele>269.0055847168</ele>
        <time>2018-02-01T11:40:30+0100</time>
      </trkpt>
      <trkpt lat="47.18494" lon="4.95198">
        <ele>268.88610839844</ele>
        <time>2018-02-01T11:40:33+0100</time>
      </trkpt>
      <trkpt lat="47.18495" lon="4.95195">
        <ele>268.85900878906</ele>
        <time>2018-02-01T11:40:36+0100</time>
      </trkpt>
      <trkpt lat="47.18495" lon="4.95193">
        <ele>268.90313720703</ele>
        <time>2018-02-01T11:40:39+0100</time>
      </trkpt>
      <trkpt lat="47.18495" lon="4.95192">
        <ele>268.93435668945</ele>
        <time>2018-02-01T11:40:42+0100</time>
      </trkpt>
      <trkpt lat="47.18497" lon="4.95192">
        <ele>269.01593017578</ele>
        <time>2018-02-01T11:40:45+0100</time>
      </trkpt>
      <trkpt lat="47.18497" lon="4.95192">
        <ele>269.04885864258</ele>
        <time>2018-02-01T11:40:48+0100</time>
      </trkpt>
      <trkpt lat="47.18497" lon="4.95192">
        <ele>269.0944519043</ele>
        <time>2018-02-01T11:40:51+0100</time>
      </trkpt>
      <trkpt lat="47.18497" lon="4.95191">
        <ele>269.14129638672</ele>
        <time>2018-02-01T11:40:54+0100</time>
      </trkpt>
      <trkpt lat="47.18497" lon="4.95191">
        <ele>269.51016235352</ele>
        <time>2018-02-01T11:40:57+0100</time>
      </trkpt>
      <trkpt lat="47.18498" lon="4.9519">
        <ele>270.04263305664</ele>
        <time>2018-02-01T11:41:00+0100</time>
      </trkpt>
      <trkpt lat="47.18499" lon="4.95187">
        <ele>270.57806396484</ele>
        <time>2018-02-01T11:41:03+0100</time>
      </trkpt>
      <trkpt lat="47.185" lon="4.95183">
        <ele>271.09176635742</ele>
        <time>2018-02-01T11:41:06+0100</time>
      </trkpt>
      <trkpt lat="47.185" lon="4.95183">
        <ele>271.28701782227</ele>
        <time>2018-02-01T11:41:09+0100</time>
      </trkpt>
      <trkpt lat="47.185" lon="4.95183">
        <ele>271.70999145508</ele>
        <time>2018-02-01T11:41:12+0100</time>
      </trkpt>
      <trkpt lat="47.185" lon="4.95178">
        <ele>272.2878112793</ele>
        <time>2018-02-01T11:41:15+0100</time>
      </trkpt>
      <trkpt lat="47.18499" lon="4.95173">
        <ele>272.82754516602</ele>
        <time>2018-02-01T11:41:18+0100</time>
      </trkpt>
      <trkpt lat="47.18498" lon="4.9517">
        <ele>273.32922363281</ele>
        <time>2018-02-01T11:41:21+0100</time>
      </trkpt>
      <trkpt lat="47.18498" lon="4.95167">
        <ele>273.91632080078</ele>
        <time>2018-02-01T11:41:24+0100</time>
      </trkpt>
      <trkpt lat="47.18501" lon="4.95164">
        <ele>274.66333007812</ele>
        <time>2018-02-01T11:41:27+0100</time>
      </trkpt>
      <trkpt lat="47.18502" lon="4.9516">
        <ele>275.77969360352</ele>
        <time>2018-02-01T11:41:30+0100</time>
      </trkpt>
      <trkpt lat="47.18503" lon="4.95157">
        <ele>276.91030883789</ele>
        <time>2018-02-01T11:41:33+0100</time>
      </trkpt>
      <trkpt lat="47.18503" lon="4.95153">
        <ele>277.9772644043</ele>
        <time>2018-02-01T11:41:36+0100</time>
      </trkpt>
      <trkpt lat="47.18503" lon="4.95149">
        <ele>278.77868652344</ele>
        <time>2018-02-01T11:41:39+0100</time>
      </trkpt>
      <trkpt lat="47.18503" lon="4.95145">
        <ele>279.36599731445</ele>
        <time>2018-02-01T11:41:42+0100</time>
      </trkpt>
      <trkpt lat="47.18504" lon="4.95142">
        <ele>279.9084777832</ele>
        <time>2018-02-01T11:41:45+0100</time>
      </trkpt>
      <trkpt lat="47.18506" lon="4.95138">
        <ele>280.55688476562</ele>
        <time>2018-02-01T11:41:48+0100</time>
      </trkpt>
      <trkpt lat="47.18508" lon="4.95134">
        <ele>281.3196105957</ele>
        <time>2018-02-01T11:41:51+0100</time>
      </trkpt>
      <trkpt lat="47.1851" lon="4.95131">
        <ele>282.12329101562</ele>
        <time>2018-02-01T11:41:54+0100</time>
      </trkpt>
      <trkpt lat="47.1851" lon="4.95127">
        <ele>282.94403076172</ele>
        <time>2018-02-01T11:41:57+0100</time>
      </trkpt>
      <trkpt lat="47.1851" lon="4.95123">
        <ele>283.69744873047</ele>
        <time>2018-02-01T11:42:00+0100</time>
      </trkpt>
      <trkpt lat="47.18509" lon="4.9512">
        <ele>284.21908569336</ele>
        <time>2018-02-01T11:42:03+0100</time>
      </trkpt>
      <trkpt lat="47.18508" lon="4.95118">
        <ele>284.55612182617</ele>
        <time>2018-02-01T11:42:06+0100</time>
      </trkpt>
      <trkpt lat="47.18508" lon="4.95117">
        <ele>284.7780456543</ele>
        <time>2018-02-01T11:42:09+0100</time>
      </trkpt>
      <trkpt lat="47.18508" lon="4.95115">
        <ele>284.83123779297</ele>
        <time>2018-02-01T11:42:12+0100</time>
      </trkpt>
      <trkpt lat="47.18508" lon="4.95115">
        <ele>284.83255004883</ele>
        <time>2018-02-01T11:42:15+0100</time>
      </trkpt>
      <trkpt lat="47.18509" lon="4.95115">
        <ele>284.83908081055</ele>
        <time>2018-02-01T11:42:18+0100</time>
      </trkpt>
      <trkpt lat="47.18509" lon="4.95115">
        <ele>284.84692382812</ele>
        <time>2018-02-01T11:42:21+0100</time>
      </trkpt>
      <trkpt lat="47.18509" lon="4.95115">
        <ele>284.86920166016</ele>
        <time>2018-02-01T11:42:24+0100</time>
      </trkpt>
      <trkpt lat="47.18509" lon="4.95114">
        <ele>284.90585327148</ele>
        <time>2018-02-01T11:42:27+0100</time>
      </trkpt>
      <trkpt lat="47.18509" lon="4.95114">
        <ele>284.95434570312</ele>
        <time>2018-02-01T11:42:30+0100</time>
      </trkpt>
      <trkpt lat="47.18509" lon="4.95114">
        <ele>285.00982666016</ele>
        <time>2018-02-01T11:42:33+0100</time>
      </trkpt>
      <trkpt lat="47.18508" lon="4.95113">
        <ele>285.06369018555</ele>
        <time>2018-02-01T11:42:36+0100</time>
      </trkpt>
      <trkpt lat="47.18508" lon="4.95113">
        <ele>285.11627197266</ele>
        <time>2018-02-01T11:42:39+0100</time>
      </trkpt>
      <trkpt lat="47.18508" lon="4.95112">
        <ele>285.17108154297</ele>
        <time>2018-02-01T11:42:42+0100</time>
      </trkpt>
      <trkpt lat="47.18508" lon="4.95111">
        <ele>285.23165893555</ele>
        <time>2018-02-01T11:42:45+0100</time>
      </trkpt>
      <trkpt lat="47.18507" lon="4.9511">
        <ele>285.2971496582</ele>
        <time>2018-02-01T11:42:48+0100</time>
      </trkpt>
      <trkpt lat="47.18507" lon="4.95109">
        <ele>285.36676025391</ele>
        <time>2018-02-01T11:42:51+0100</time>
      </trkpt>
      <trkpt lat="47.18506" lon="4.9511">
        <ele>285.43927001953</ele>
        <time>2018-02-01T11:42:54+0100</time>
      </trkpt>
      <trkpt lat="47.18506" lon="4.9511">
        <ele>285.50964355469</ele>
        <time>2018-02-01T11:42:57+0100</time>
      </trkpt>
      <trkpt lat="47.18506" lon="4.9511">
        <ele>285.57482910156</ele>
        <time>2018-02-01T11:43:00+0100</time>
      </trkpt>
      <trkpt lat="47.18506" lon="4.9511">
        <ele>285.63430786133</ele>
        <time>2018-02-01T11:43:03+0100</time>
      </trkpt>
      <trkpt lat="47.18506" lon="4.9511">
        <ele>285.68783569336</ele>
        <time>2018-02-01T11:43:06+0100</time>
      </trkpt>
      <trkpt lat="47.18506" lon="4.95111">
        <ele>285.87173461914</ele>
        <time>2018-02-01T11:43:09+0100</time>
      </trkpt>
      <trkpt lat="47.18507" lon="4.95113">
        <ele>286.01846313477</ele>
        <time>2018-02-01T11:43:12+0100</time>
      </trkpt>
      <trkpt lat="47.18507" lon="4.95112">
        <ele>286.19006347656</ele>
        <time>2018-02-01T11:43:15+0100</time>
      </trkpt>
      <trkpt lat="47.18507" lon="4.95113">
        <ele>286.21356201172</ele>
        <time>2018-02-01T11:43:18+0100</time>
      </trkpt>
      <trkpt lat="47.18506" lon="4.95112">
        <ele>286.20059204102</ele>
        <time>2018-02-01T11:43:21+0100</time>
      </trkpt>
      <trkpt lat="47.18507" lon="4.95111">
        <ele>286.06512451172</ele>
        <time>2018-02-01T11:43:24+0100</time>
      </trkpt>
      <trkpt lat="47.18509" lon="4.95112">
        <ele>286.06610107422</ele>
        <time>2018-02-01T11:43:27+0100</time>
      </trkpt>
      <trkpt lat="47.1851" lon="4.95111">
        <ele>286.1650390625</ele>
        <time>2018-02-01T11:43:30+0100</time>
      </trkpt>
      <trkpt lat="47.1851" lon="4.95111">
        <ele>286.18222045898</ele>
        <time>2018-02-01T11:43:33+0100</time>
      </trkpt>
      <trkpt lat="47.18511" lon="4.9511">
        <ele>286.35540771484</ele>
        <time>2018-02-01T11:43:36+0100</time>
      </trkpt>
      <trkpt lat="47.18513" lon="4.95108">
        <ele>286.59548950195</ele>
        <time>2018-02-01T11:43:39+0100</time>
      </trkpt>
      <trkpt lat="47.18515" lon="4.95107">
        <ele>286.83221435547</ele>
        <time>2018-02-01T11:43:42+0100</time>
      </trkpt>
      <trkpt lat="47.18517" lon="4.95106">
        <ele>287.02020263672</ele>
        <time>2018-02-01T11:43:45+0100</time>
      </trkpt>
      <trkpt lat="47.18518" lon="4.95106">
        <ele>287.10385131836</ele>
        <time>2018-02-01T11:43:48+0100</time>
      </trkpt>
      <trkpt lat="47.18518" lon="4.95107">
        <ele>287.10635375977</ele>
        <time>2018-02-01T11:43:51+0100</time>
      </trkpt>
    </trkseg>
  </trk>
</gpx>